<?xml version="1.0" encoding="UTF-8"?>
<gpx version="1.1" creator="https://www.youtrack.es" xsi:schemaLocation="http://www.topografix.com/GPX/1/1 http://www.topografix.com/GPX/1/1/gpx.xsd http://www.garmin.com/xmlschemas/GpxExtensions/v3 http://www.garmin.com/xmlschemas/GpxExtensionsv3.xsd http://www.garmin.com/xmlschemas/TrackPointExtension/v1 http://www.garmin.com/xmlschemas/TrackPointExtensionv1.xsd" xmlns:gpxtpx="http://www.garmin.com/xmlschemas/TrackPointExtension/v1" xmlns:gpxx="http://www.garmin.com/xmlschemas/GpxExtensions/v3" xmlns:xsi="http://www.w3.org/2001/XMLSchema-instance">
  <metadata>
    <link href="https://www.youtrack.es">
      <text>YouTrack.es</text>
    </link>
    <time>2026-05-08T22:22:20Z</time>
  </metadata>
  <trk>
    <src>https://www.youtrack.es</src>
    <link href="https://www.youtrack.es/ruta/5133-pelcocha">
      <text>YouTrack.es</text>
    </link>
    <trkseg>
      <trkpt lat="-40.164052" lon="-71.356455">
        <ele>649.3</ele>
        <time>2019-04-11T16:06:25.000Z</time>
      </trkpt>
      <trkpt lat="-40.164097" lon="-71.356444">
        <ele>650.1</ele>
        <time>2019-04-11T16:06:27.000Z</time>
      </trkpt>
      <trkpt lat="-40.164125" lon="-71.356443">
        <ele>650.6</ele>
        <time>2019-04-11T16:06:28.000Z</time>
      </trkpt>
      <trkpt lat="-40.164152" lon="-71.356447">
        <ele>651.1</ele>
        <time>2019-04-11T16:06:29.000Z</time>
      </trkpt>
      <trkpt lat="-40.16418" lon="-71.356453">
        <ele>651.5</ele>
        <time>2019-04-11T16:06:30.000Z</time>
      </trkpt>
      <trkpt lat="-40.164218" lon="-71.356465">
        <ele>652.2</ele>
        <time>2019-04-11T16:06:31.000Z</time>
      </trkpt>
      <trkpt lat="-40.164244" lon="-71.356475">
        <ele>652.7</ele>
        <time>2019-04-11T16:06:32.000Z</time>
      </trkpt>
      <trkpt lat="-40.164271" lon="-71.356482">
        <ele>653.4</ele>
        <time>2019-04-11T16:06:33.000Z</time>
      </trkpt>
      <trkpt lat="-40.164302" lon="-71.356489">
        <ele>654.2</ele>
        <time>2019-04-11T16:06:34.000Z</time>
      </trkpt>
      <trkpt lat="-40.164337" lon="-71.356498">
        <ele>655.1</ele>
        <time>2019-04-11T16:06:35.000Z</time>
      </trkpt>
      <trkpt lat="-40.164369" lon="-71.356508">
        <ele>656</ele>
        <time>2019-04-11T16:06:36.000Z</time>
      </trkpt>
      <trkpt lat="-40.164402" lon="-71.356508">
        <ele>656.7</ele>
        <time>2019-04-11T16:06:37.000Z</time>
      </trkpt>
      <trkpt lat="-40.164433" lon="-71.35652">
        <ele>657.3</ele>
        <time>2019-04-11T16:06:38.000Z</time>
      </trkpt>
      <trkpt lat="-40.164461" lon="-71.356537">
        <ele>657.9</ele>
        <time>2019-04-11T16:06:39.000Z</time>
      </trkpt>
      <trkpt lat="-40.164491" lon="-71.356546">
        <ele>658.5</ele>
        <time>2019-04-11T16:06:40.000Z</time>
      </trkpt>
      <trkpt lat="-40.164528" lon="-71.356555">
        <ele>659.2</ele>
        <time>2019-04-11T16:06:41.000Z</time>
      </trkpt>
      <trkpt lat="-40.164555" lon="-71.356562">
        <ele>659.7</ele>
        <time>2019-04-11T16:06:42.000Z</time>
      </trkpt>
      <trkpt lat="-40.164588" lon="-71.356569">
        <ele>660.4</ele>
        <time>2019-04-11T16:06:43.000Z</time>
      </trkpt>
      <trkpt lat="-40.164618" lon="-71.356575">
        <ele>661</ele>
        <time>2019-04-11T16:06:44.000Z</time>
      </trkpt>
      <trkpt lat="-40.164646" lon="-71.356581">
        <ele>661.5</ele>
        <time>2019-04-11T16:06:45.000Z</time>
      </trkpt>
      <trkpt lat="-40.164687" lon="-71.356621">
        <ele>662</ele>
        <time>2019-04-11T16:06:46.000Z</time>
      </trkpt>
      <trkpt lat="-40.164718" lon="-71.356635">
        <ele>662</ele>
        <time>2019-04-11T16:06:47.000Z</time>
      </trkpt>
      <trkpt lat="-40.164746" lon="-71.356624">
        <ele>662</ele>
        <time>2019-04-11T16:06:48.000Z</time>
      </trkpt>
      <trkpt lat="-40.164774" lon="-71.356654">
        <ele>662</ele>
        <time>2019-04-11T16:06:49.000Z</time>
      </trkpt>
      <trkpt lat="-40.164808" lon="-71.356653">
        <ele>662</ele>
        <time>2019-04-11T16:06:50.000Z</time>
      </trkpt>
      <trkpt lat="-40.164852" lon="-71.356661">
        <ele>662</ele>
        <time>2019-04-11T16:06:52.000Z</time>
      </trkpt>
      <trkpt lat="-40.164896" lon="-71.356659">
        <ele>662</ele>
        <time>2019-04-11T16:06:53.000Z</time>
      </trkpt>
      <trkpt lat="-40.164931" lon="-71.356661">
        <ele>662.1</ele>
        <time>2019-04-11T16:06:54.000Z</time>
      </trkpt>
      <trkpt lat="-40.164968" lon="-71.356663">
        <ele>662.2</ele>
        <time>2019-04-11T16:06:55.000Z</time>
      </trkpt>
      <trkpt lat="-40.165006" lon="-71.356674">
        <ele>662.3</ele>
        <time>2019-04-11T16:06:56.000Z</time>
      </trkpt>
      <trkpt lat="-40.165061" lon="-71.356676">
        <ele>662.5</ele>
        <time>2019-04-11T16:06:58.000Z</time>
      </trkpt>
      <trkpt lat="-40.165106" lon="-71.356676">
        <ele>662.6</ele>
        <time>2019-04-11T16:06:59.000Z</time>
      </trkpt>
      <trkpt lat="-40.165155" lon="-71.356663">
        <ele>662.8</ele>
        <time>2019-04-11T16:07:01.000Z</time>
      </trkpt>
      <trkpt lat="-40.165193" lon="-71.356661">
        <ele>662.9</ele>
        <time>2019-04-11T16:07:02.000Z</time>
      </trkpt>
      <trkpt lat="-40.165214" lon="-71.356693">
        <ele>663</ele>
        <time>2019-04-11T16:07:03.000Z</time>
      </trkpt>
      <trkpt lat="-40.165238" lon="-71.356714">
        <ele>663.1</ele>
        <time>2019-04-11T16:07:04.000Z</time>
      </trkpt>
      <trkpt lat="-40.165283" lon="-71.356719">
        <ele>663.3</ele>
        <time>2019-04-11T16:07:05.000Z</time>
      </trkpt>
      <trkpt lat="-40.165336" lon="-71.356712">
        <ele>663.5</ele>
        <time>2019-04-11T16:07:07.000Z</time>
      </trkpt>
      <trkpt lat="-40.165364" lon="-71.356727">
        <ele>663.6</ele>
        <time>2019-04-11T16:07:08.000Z</time>
      </trkpt>
      <trkpt lat="-40.165398" lon="-71.35674">
        <ele>663.7</ele>
        <time>2019-04-11T16:07:10.000Z</time>
      </trkpt>
      <trkpt lat="-40.165426" lon="-71.356765">
        <ele>663.8</ele>
        <time>2019-04-11T16:07:11.000Z</time>
      </trkpt>
      <trkpt lat="-40.165461" lon="-71.356768">
        <ele>663.9</ele>
        <time>2019-04-11T16:07:12.000Z</time>
      </trkpt>
      <trkpt lat="-40.165501" lon="-71.356767">
        <ele>664.1</ele>
        <time>2019-04-11T16:07:14.000Z</time>
      </trkpt>
      <trkpt lat="-40.165553" lon="-71.356793">
        <ele>664.2</ele>
        <time>2019-04-11T16:07:16.000Z</time>
      </trkpt>
      <trkpt lat="-40.165592" lon="-71.356794">
        <ele>664.3</ele>
        <time>2019-04-11T16:07:17.000Z</time>
      </trkpt>
      <trkpt lat="-40.165621" lon="-71.3568">
        <ele>664.4</ele>
        <time>2019-04-11T16:07:18.000Z</time>
      </trkpt>
      <trkpt lat="-40.165657" lon="-71.356802">
        <ele>664.5</ele>
        <time>2019-04-11T16:07:19.000Z</time>
      </trkpt>
      <trkpt lat="-40.165699" lon="-71.356801">
        <ele>664.6</ele>
        <time>2019-04-11T16:07:20.000Z</time>
      </trkpt>
      <trkpt lat="-40.165729" lon="-71.356807">
        <ele>664.7</ele>
        <time>2019-04-11T16:07:21.000Z</time>
      </trkpt>
      <trkpt lat="-40.16576" lon="-71.356814">
        <ele>664.8</ele>
        <time>2019-04-11T16:07:22.000Z</time>
      </trkpt>
      <trkpt lat="-40.165795" lon="-71.356837">
        <ele>664.9</ele>
        <time>2019-04-11T16:07:23.000Z</time>
      </trkpt>
      <trkpt lat="-40.165855" lon="-71.356883">
        <ele>665</ele>
        <time>2019-04-11T16:07:25.000Z</time>
      </trkpt>
      <trkpt lat="-40.165911" lon="-71.356886">
        <ele>665.2</ele>
        <time>2019-04-11T16:07:26.000Z</time>
      </trkpt>
      <trkpt lat="-40.165935" lon="-71.356906">
        <ele>665.2</ele>
        <time>2019-04-11T16:07:27.000Z</time>
      </trkpt>
      <trkpt lat="-40.165984" lon="-71.356944">
        <ele>665.4</ele>
        <time>2019-04-11T16:07:29.000Z</time>
      </trkpt>
      <trkpt lat="-40.166012" lon="-71.356957">
        <ele>665.4</ele>
        <time>2019-04-11T16:07:30.000Z</time>
      </trkpt>
      <trkpt lat="-40.166057" lon="-71.35696">
        <ele>665.5</ele>
        <time>2019-04-11T16:07:31.000Z</time>
      </trkpt>
      <trkpt lat="-40.166093" lon="-71.356963">
        <ele>665.6</ele>
        <time>2019-04-11T16:07:32.000Z</time>
      </trkpt>
      <trkpt lat="-40.166158" lon="-71.356967">
        <ele>665.7</ele>
        <time>2019-04-11T16:07:34.000Z</time>
      </trkpt>
      <trkpt lat="-40.166193" lon="-71.356979">
        <ele>665.8</ele>
        <time>2019-04-11T16:07:35.000Z</time>
      </trkpt>
      <trkpt lat="-40.166234" lon="-71.357013">
        <ele>665.9</ele>
        <time>2019-04-11T16:07:36.000Z</time>
      </trkpt>
      <trkpt lat="-40.166267" lon="-71.357032">
        <ele>666</ele>
        <time>2019-04-11T16:07:37.000Z</time>
      </trkpt>
      <trkpt lat="-40.166303" lon="-71.357042">
        <ele>666.1</ele>
        <time>2019-04-11T16:07:38.000Z</time>
      </trkpt>
      <trkpt lat="-40.166347" lon="-71.357051">
        <ele>666.2</ele>
        <time>2019-04-11T16:07:39.000Z</time>
      </trkpt>
      <trkpt lat="-40.166382" lon="-71.357086">
        <ele>666.3</ele>
        <time>2019-04-11T16:07:40.000Z</time>
      </trkpt>
      <trkpt lat="-40.166418" lon="-71.357098">
        <ele>666.4</ele>
        <time>2019-04-11T16:07:41.000Z</time>
      </trkpt>
      <trkpt lat="-40.166447" lon="-71.357099">
        <ele>666.5</ele>
        <time>2019-04-11T16:07:42.000Z</time>
      </trkpt>
      <trkpt lat="-40.166493" lon="-71.357118">
        <ele>666.6</ele>
        <time>2019-04-11T16:07:43.000Z</time>
      </trkpt>
      <trkpt lat="-40.166529" lon="-71.357151">
        <ele>666.8</ele>
        <time>2019-04-11T16:07:44.000Z</time>
      </trkpt>
      <trkpt lat="-40.166572" lon="-71.357171">
        <ele>666.9</ele>
        <time>2019-04-11T16:07:45.000Z</time>
      </trkpt>
      <trkpt lat="-40.166629" lon="-71.357182">
        <ele>667.1</ele>
        <time>2019-04-11T16:07:46.000Z</time>
      </trkpt>
      <trkpt lat="-40.166664" lon="-71.357208">
        <ele>667.2</ele>
        <time>2019-04-11T16:07:47.000Z</time>
      </trkpt>
      <trkpt lat="-40.1667" lon="-71.357232">
        <ele>667.3</ele>
        <time>2019-04-11T16:07:48.000Z</time>
      </trkpt>
      <trkpt lat="-40.166747" lon="-71.357266">
        <ele>667.4</ele>
        <time>2019-04-11T16:07:49.000Z</time>
      </trkpt>
      <trkpt lat="-40.166781" lon="-71.357279">
        <ele>667.5</ele>
        <time>2019-04-11T16:07:50.000Z</time>
      </trkpt>
      <trkpt lat="-40.166826" lon="-71.357275">
        <ele>667.6</ele>
        <time>2019-04-11T16:07:51.000Z</time>
      </trkpt>
      <trkpt lat="-40.166872" lon="-71.357292">
        <ele>667.7</ele>
        <time>2019-04-11T16:07:52.000Z</time>
      </trkpt>
      <trkpt lat="-40.166927" lon="-71.357319">
        <ele>667.8</ele>
        <time>2019-04-11T16:07:53.000Z</time>
      </trkpt>
      <trkpt lat="-40.166976" lon="-71.357346">
        <ele>667.9</ele>
        <time>2019-04-11T16:07:54.000Z</time>
      </trkpt>
      <trkpt lat="-40.167025" lon="-71.357361">
        <ele>668.1</ele>
        <time>2019-04-11T16:07:55.000Z</time>
      </trkpt>
      <trkpt lat="-40.167062" lon="-71.35738">
        <ele>668.1</ele>
        <time>2019-04-11T16:07:56.000Z</time>
      </trkpt>
      <trkpt lat="-40.167124" lon="-71.357401">
        <ele>668.3</ele>
        <time>2019-04-11T16:07:57.000Z</time>
      </trkpt>
      <trkpt lat="-40.167173" lon="-71.357408">
        <ele>668.4</ele>
        <time>2019-04-11T16:07:58.000Z</time>
      </trkpt>
      <trkpt lat="-40.167221" lon="-71.357406">
        <ele>668.5</ele>
        <time>2019-04-11T16:07:59.000Z</time>
      </trkpt>
      <trkpt lat="-40.167269" lon="-71.357416">
        <ele>668.7</ele>
        <time>2019-04-11T16:08:00.000Z</time>
      </trkpt>
      <trkpt lat="-40.167318" lon="-71.357421">
        <ele>668.8</ele>
        <time>2019-04-11T16:08:01.000Z</time>
      </trkpt>
      <trkpt lat="-40.167368" lon="-71.357427">
        <ele>669</ele>
        <time>2019-04-11T16:08:02.000Z</time>
      </trkpt>
      <trkpt lat="-40.167413" lon="-71.357421">
        <ele>669.1</ele>
        <time>2019-04-11T16:08:03.000Z</time>
      </trkpt>
      <trkpt lat="-40.167467" lon="-71.35743">
        <ele>669.3</ele>
        <time>2019-04-11T16:08:04.000Z</time>
      </trkpt>
      <trkpt lat="-40.167509" lon="-71.35744">
        <ele>669.4</ele>
        <time>2019-04-11T16:08:05.000Z</time>
      </trkpt>
      <trkpt lat="-40.167547" lon="-71.357448">
        <ele>669.6</ele>
        <time>2019-04-11T16:08:06.000Z</time>
      </trkpt>
      <trkpt lat="-40.167595" lon="-71.357462">
        <ele>669.7</ele>
        <time>2019-04-11T16:08:07.000Z</time>
      </trkpt>
      <trkpt lat="-40.167656" lon="-71.357472">
        <ele>670</ele>
        <time>2019-04-11T16:08:08.000Z</time>
      </trkpt>
      <trkpt lat="-40.167705" lon="-71.357492">
        <ele>670.2</ele>
        <time>2019-04-11T16:08:09.000Z</time>
      </trkpt>
      <trkpt lat="-40.16775" lon="-71.357498">
        <ele>670.4</ele>
        <time>2019-04-11T16:08:10.000Z</time>
      </trkpt>
      <trkpt lat="-40.167803" lon="-71.357511">
        <ele>670.6</ele>
        <time>2019-04-11T16:08:11.000Z</time>
      </trkpt>
      <trkpt lat="-40.167847" lon="-71.357524">
        <ele>670.7</ele>
        <time>2019-04-11T16:08:12.000Z</time>
      </trkpt>
      <trkpt lat="-40.167901" lon="-71.357548">
        <ele>671</ele>
        <time>2019-04-11T16:08:13.000Z</time>
      </trkpt>
      <trkpt lat="-40.167947" lon="-71.357568">
        <ele>671.2</ele>
        <time>2019-04-11T16:08:14.000Z</time>
      </trkpt>
      <trkpt lat="-40.167997" lon="-71.357592">
        <ele>671.4</ele>
        <time>2019-04-11T16:08:15.000Z</time>
      </trkpt>
      <trkpt lat="-40.168051" lon="-71.357625">
        <ele>671.6</ele>
        <time>2019-04-11T16:08:16.000Z</time>
      </trkpt>
      <trkpt lat="-40.168096" lon="-71.357646">
        <ele>671.8</ele>
        <time>2019-04-11T16:08:17.000Z</time>
      </trkpt>
      <trkpt lat="-40.168128" lon="-71.357667">
        <ele>671.9</ele>
        <time>2019-04-11T16:08:18.000Z</time>
      </trkpt>
      <trkpt lat="-40.168173" lon="-71.357701">
        <ele>672.1</ele>
        <time>2019-04-11T16:08:19.000Z</time>
      </trkpt>
      <trkpt lat="-40.168215" lon="-71.357723">
        <ele>672.3</ele>
        <time>2019-04-11T16:08:20.000Z</time>
      </trkpt>
      <trkpt lat="-40.168248" lon="-71.357757">
        <ele>672.5</ele>
        <time>2019-04-11T16:08:21.000Z</time>
      </trkpt>
      <trkpt lat="-40.168288" lon="-71.357775">
        <ele>672.7</ele>
        <time>2019-04-11T16:08:22.000Z</time>
      </trkpt>
      <trkpt lat="-40.168335" lon="-71.357799">
        <ele>672.9</ele>
        <time>2019-04-11T16:08:23.000Z</time>
      </trkpt>
      <trkpt lat="-40.168376" lon="-71.357823">
        <ele>673.1</ele>
        <time>2019-04-11T16:08:24.000Z</time>
      </trkpt>
      <trkpt lat="-40.168408" lon="-71.357849">
        <ele>673.2</ele>
        <time>2019-04-11T16:08:25.000Z</time>
      </trkpt>
      <trkpt lat="-40.168437" lon="-71.357876">
        <ele>673.4</ele>
        <time>2019-04-11T16:08:26.000Z</time>
      </trkpt>
      <trkpt lat="-40.16847" lon="-71.357891">
        <ele>673.5</ele>
        <time>2019-04-11T16:08:27.000Z</time>
      </trkpt>
      <trkpt lat="-40.168505" lon="-71.357934">
        <ele>673.7</ele>
        <time>2019-04-11T16:08:28.000Z</time>
      </trkpt>
      <trkpt lat="-40.168542" lon="-71.357954">
        <ele>673.9</ele>
        <time>2019-04-11T16:08:29.000Z</time>
      </trkpt>
      <trkpt lat="-40.168597" lon="-71.357999">
        <ele>674.2</ele>
        <time>2019-04-11T16:08:31.000Z</time>
      </trkpt>
      <trkpt lat="-40.168624" lon="-71.357999">
        <ele>674.3</ele>
        <time>2019-04-11T16:08:32.000Z</time>
      </trkpt>
      <trkpt lat="-40.168661" lon="-71.35802">
        <ele>674.4</ele>
        <time>2019-04-11T16:08:33.000Z</time>
      </trkpt>
      <trkpt lat="-40.168709" lon="-71.358043">
        <ele>674.7</ele>
        <time>2019-04-11T16:08:34.000Z</time>
      </trkpt>
      <trkpt lat="-40.168745" lon="-71.358068">
        <ele>674.8</ele>
        <time>2019-04-11T16:08:35.000Z</time>
      </trkpt>
      <trkpt lat="-40.16881" lon="-71.35811">
        <ele>675.2</ele>
        <time>2019-04-11T16:08:37.000Z</time>
      </trkpt>
      <trkpt lat="-40.16886" lon="-71.358128">
        <ele>675.4</ele>
        <time>2019-04-11T16:08:38.000Z</time>
      </trkpt>
      <trkpt lat="-40.168887" lon="-71.358158">
        <ele>675.5</ele>
        <time>2019-04-11T16:08:39.000Z</time>
      </trkpt>
      <trkpt lat="-40.168932" lon="-71.358206">
        <ele>675.7</ele>
        <time>2019-04-11T16:08:40.000Z</time>
      </trkpt>
      <trkpt lat="-40.168952" lon="-71.358249">
        <ele>675.9</ele>
        <time>2019-04-11T16:08:41.000Z</time>
      </trkpt>
      <trkpt lat="-40.168987" lon="-71.358236">
        <ele>676</ele>
        <time>2019-04-11T16:08:42.000Z</time>
      </trkpt>
      <trkpt lat="-40.169025" lon="-71.358279">
        <ele>676.2</ele>
        <time>2019-04-11T16:08:43.000Z</time>
      </trkpt>
      <trkpt lat="-40.169064" lon="-71.358302">
        <ele>676.3</ele>
        <time>2019-04-11T16:08:44.000Z</time>
      </trkpt>
      <trkpt lat="-40.169095" lon="-71.358322">
        <ele>676.4</ele>
        <time>2019-04-11T16:08:45.000Z</time>
      </trkpt>
      <trkpt lat="-40.169138" lon="-71.358341">
        <ele>676.6</ele>
        <time>2019-04-11T16:08:46.000Z</time>
      </trkpt>
      <trkpt lat="-40.169166" lon="-71.358368">
        <ele>676.7</ele>
        <time>2019-04-11T16:08:47.000Z</time>
      </trkpt>
      <trkpt lat="-40.169213" lon="-71.35838">
        <ele>676.8</ele>
        <time>2019-04-11T16:08:48.000Z</time>
      </trkpt>
      <trkpt lat="-40.16925" lon="-71.358407">
        <ele>677</ele>
        <time>2019-04-11T16:08:49.000Z</time>
      </trkpt>
      <trkpt lat="-40.169276" lon="-71.358434">
        <ele>677.1</ele>
        <time>2019-04-11T16:08:50.000Z</time>
      </trkpt>
      <trkpt lat="-40.169301" lon="-71.358468">
        <ele>677.2</ele>
        <time>2019-04-11T16:08:51.000Z</time>
      </trkpt>
      <trkpt lat="-40.169337" lon="-71.358505">
        <ele>677.3</ele>
        <time>2019-04-11T16:08:52.000Z</time>
      </trkpt>
      <trkpt lat="-40.169361" lon="-71.358534">
        <ele>677.5</ele>
        <time>2019-04-11T16:08:53.000Z</time>
      </trkpt>
      <trkpt lat="-40.16939" lon="-71.358551">
        <ele>677.5</ele>
        <time>2019-04-11T16:08:54.000Z</time>
      </trkpt>
      <trkpt lat="-40.169426" lon="-71.358576">
        <ele>677.6</ele>
        <time>2019-04-11T16:08:55.000Z</time>
      </trkpt>
      <trkpt lat="-40.169455" lon="-71.358586">
        <ele>677.7</ele>
        <time>2019-04-11T16:08:56.000Z</time>
      </trkpt>
      <trkpt lat="-40.169494" lon="-71.358617">
        <ele>677.8</ele>
        <time>2019-04-11T16:08:57.000Z</time>
      </trkpt>
      <trkpt lat="-40.169528" lon="-71.35864">
        <ele>677.9</ele>
        <time>2019-04-11T16:08:58.000Z</time>
      </trkpt>
      <trkpt lat="-40.169554" lon="-71.358656">
        <ele>678</ele>
        <time>2019-04-11T16:08:59.000Z</time>
      </trkpt>
      <trkpt lat="-40.169581" lon="-71.358666">
        <ele>678</ele>
        <time>2019-04-11T16:09:00.000Z</time>
      </trkpt>
      <trkpt lat="-40.169622" lon="-71.358691">
        <ele>678.1</ele>
        <time>2019-04-11T16:09:01.000Z</time>
      </trkpt>
      <trkpt lat="-40.169677" lon="-71.358729">
        <ele>678.3</ele>
        <time>2019-04-11T16:09:03.000Z</time>
      </trkpt>
      <trkpt lat="-40.16971" lon="-71.358741">
        <ele>678.3</ele>
        <time>2019-04-11T16:09:04.000Z</time>
      </trkpt>
      <trkpt lat="-40.169733" lon="-71.358768">
        <ele>678.4</ele>
        <time>2019-04-11T16:09:05.000Z</time>
      </trkpt>
      <trkpt lat="-40.169766" lon="-71.358804">
        <ele>678.5</ele>
        <time>2019-04-11T16:09:06.000Z</time>
      </trkpt>
      <trkpt lat="-40.1698" lon="-71.358821">
        <ele>678.6</ele>
        <time>2019-04-11T16:09:07.000Z</time>
      </trkpt>
      <trkpt lat="-40.16983" lon="-71.358842">
        <ele>678.7</ele>
        <time>2019-04-11T16:09:08.000Z</time>
      </trkpt>
      <trkpt lat="-40.169862" lon="-71.358858">
        <ele>678.8</ele>
        <time>2019-04-11T16:09:09.000Z</time>
      </trkpt>
      <trkpt lat="-40.169899" lon="-71.358886">
        <ele>678.9</ele>
        <time>2019-04-11T16:09:10.000Z</time>
      </trkpt>
      <trkpt lat="-40.169926" lon="-71.358902">
        <ele>678.9</ele>
        <time>2019-04-11T16:09:11.000Z</time>
      </trkpt>
      <trkpt lat="-40.169959" lon="-71.358917">
        <ele>679</ele>
        <time>2019-04-11T16:09:12.000Z</time>
      </trkpt>
      <trkpt lat="-40.169988" lon="-71.358942">
        <ele>679.1</ele>
        <time>2019-04-11T16:09:13.000Z</time>
      </trkpt>
      <trkpt lat="-40.170014" lon="-71.358961">
        <ele>679.2</ele>
        <time>2019-04-11T16:09:14.000Z</time>
      </trkpt>
      <trkpt lat="-40.17005" lon="-71.358971">
        <ele>679.2</ele>
        <time>2019-04-11T16:09:15.000Z</time>
      </trkpt>
      <trkpt lat="-40.170087" lon="-71.358994">
        <ele>679.3</ele>
        <time>2019-04-11T16:09:16.000Z</time>
      </trkpt>
      <trkpt lat="-40.170118" lon="-71.359015">
        <ele>679.4</ele>
        <time>2019-04-11T16:09:17.000Z</time>
      </trkpt>
      <trkpt lat="-40.170154" lon="-71.359042">
        <ele>679.5</ele>
        <time>2019-04-11T16:09:18.000Z</time>
      </trkpt>
      <trkpt lat="-40.170186" lon="-71.359065">
        <ele>679.5</ele>
        <time>2019-04-11T16:09:19.000Z</time>
      </trkpt>
      <trkpt lat="-40.170228" lon="-71.359081">
        <ele>679.6</ele>
        <time>2019-04-11T16:09:20.000Z</time>
      </trkpt>
      <trkpt lat="-40.170265" lon="-71.3591">
        <ele>679.7</ele>
        <time>2019-04-11T16:09:21.000Z</time>
      </trkpt>
      <trkpt lat="-40.170305" lon="-71.359116">
        <ele>679.8</ele>
        <time>2019-04-11T16:09:22.000Z</time>
      </trkpt>
      <trkpt lat="-40.170334" lon="-71.359139">
        <ele>679.8</ele>
        <time>2019-04-11T16:09:23.000Z</time>
      </trkpt>
      <trkpt lat="-40.170379" lon="-71.359167">
        <ele>679.9</ele>
        <time>2019-04-11T16:09:24.000Z</time>
      </trkpt>
      <trkpt lat="-40.170419" lon="-71.359192">
        <ele>680</ele>
        <time>2019-04-11T16:09:25.000Z</time>
      </trkpt>
      <trkpt lat="-40.170452" lon="-71.359216">
        <ele>680.1</ele>
        <time>2019-04-11T16:09:26.000Z</time>
      </trkpt>
      <trkpt lat="-40.170493" lon="-71.359246">
        <ele>680.1</ele>
        <time>2019-04-11T16:09:27.000Z</time>
      </trkpt>
      <trkpt lat="-40.170535" lon="-71.359268">
        <ele>680.2</ele>
        <time>2019-04-11T16:09:28.000Z</time>
      </trkpt>
      <trkpt lat="-40.170572" lon="-71.359284">
        <ele>680.3</ele>
        <time>2019-04-11T16:09:29.000Z</time>
      </trkpt>
      <trkpt lat="-40.170614" lon="-71.359312">
        <ele>680.4</ele>
        <time>2019-04-11T16:09:30.000Z</time>
      </trkpt>
      <trkpt lat="-40.170645" lon="-71.359348">
        <ele>680.4</ele>
        <time>2019-04-11T16:09:31.000Z</time>
      </trkpt>
      <trkpt lat="-40.170673" lon="-71.359376">
        <ele>680.5</ele>
        <time>2019-04-11T16:09:32.000Z</time>
      </trkpt>
      <trkpt lat="-40.170714" lon="-71.3594">
        <ele>680.6</ele>
        <time>2019-04-11T16:09:33.000Z</time>
      </trkpt>
      <trkpt lat="-40.170746" lon="-71.359441">
        <ele>680.6</ele>
        <time>2019-04-11T16:09:34.000Z</time>
      </trkpt>
      <trkpt lat="-40.170781" lon="-71.359476">
        <ele>680.7</ele>
        <time>2019-04-11T16:09:35.000Z</time>
      </trkpt>
      <trkpt lat="-40.170811" lon="-71.359516">
        <ele>680.8</ele>
        <time>2019-04-11T16:09:36.000Z</time>
      </trkpt>
      <trkpt lat="-40.170841" lon="-71.359553">
        <ele>680.8</ele>
        <time>2019-04-11T16:09:37.000Z</time>
      </trkpt>
      <trkpt lat="-40.17087" lon="-71.359591">
        <ele>680.9</ele>
        <time>2019-04-11T16:09:38.000Z</time>
      </trkpt>
      <trkpt lat="-40.170901" lon="-71.359638">
        <ele>681</ele>
        <time>2019-04-11T16:09:39.000Z</time>
      </trkpt>
      <trkpt lat="-40.170928" lon="-71.359677">
        <ele>681</ele>
        <time>2019-04-11T16:09:40.000Z</time>
      </trkpt>
      <trkpt lat="-40.170957" lon="-71.359722">
        <ele>681.1</ele>
        <time>2019-04-11T16:09:41.000Z</time>
      </trkpt>
      <trkpt lat="-40.170984" lon="-71.359771">
        <ele>681.1</ele>
        <time>2019-04-11T16:09:42.000Z</time>
      </trkpt>
      <trkpt lat="-40.171022" lon="-71.359826">
        <ele>681.1</ele>
        <time>2019-04-11T16:09:43.000Z</time>
      </trkpt>
      <trkpt lat="-40.171047" lon="-71.359867">
        <ele>681.2</ele>
        <time>2019-04-11T16:09:44.000Z</time>
      </trkpt>
      <trkpt lat="-40.171085" lon="-71.359885">
        <ele>681.2</ele>
        <time>2019-04-11T16:09:45.000Z</time>
      </trkpt>
      <trkpt lat="-40.171122" lon="-71.359904">
        <ele>681.2</ele>
        <time>2019-04-11T16:09:46.000Z</time>
      </trkpt>
      <trkpt lat="-40.171155" lon="-71.359962">
        <ele>681.3</ele>
        <time>2019-04-11T16:09:47.000Z</time>
      </trkpt>
      <trkpt lat="-40.171192" lon="-71.360008">
        <ele>681.3</ele>
        <time>2019-04-11T16:09:48.000Z</time>
      </trkpt>
      <trkpt lat="-40.17122" lon="-71.360048">
        <ele>681.3</ele>
        <time>2019-04-11T16:09:49.000Z</time>
      </trkpt>
      <trkpt lat="-40.171266" lon="-71.360125">
        <ele>681.4</ele>
        <time>2019-04-11T16:09:50.000Z</time>
      </trkpt>
      <trkpt lat="-40.171298" lon="-71.360167">
        <ele>681.4</ele>
        <time>2019-04-11T16:09:51.000Z</time>
      </trkpt>
      <trkpt lat="-40.171335" lon="-71.360199">
        <ele>681.4</ele>
        <time>2019-04-11T16:09:52.000Z</time>
      </trkpt>
      <trkpt lat="-40.171379" lon="-71.360233">
        <ele>681.5</ele>
        <time>2019-04-11T16:09:53.000Z</time>
      </trkpt>
      <trkpt lat="-40.171418" lon="-71.360273">
        <ele>681.5</ele>
        <time>2019-04-11T16:09:54.000Z</time>
      </trkpt>
      <trkpt lat="-40.171462" lon="-71.360316">
        <ele>681.6</ele>
        <time>2019-04-11T16:09:55.000Z</time>
      </trkpt>
      <trkpt lat="-40.171508" lon="-71.360367">
        <ele>681.6</ele>
        <time>2019-04-11T16:09:56.000Z</time>
      </trkpt>
      <trkpt lat="-40.171554" lon="-71.360397">
        <ele>681.7</ele>
        <time>2019-04-11T16:09:57.000Z</time>
      </trkpt>
      <trkpt lat="-40.171611" lon="-71.360443">
        <ele>681.7</ele>
        <time>2019-04-11T16:09:58.000Z</time>
      </trkpt>
      <trkpt lat="-40.171648" lon="-71.360474">
        <ele>681.8</ele>
        <time>2019-04-11T16:09:59.000Z</time>
      </trkpt>
      <trkpt lat="-40.171696" lon="-71.360517">
        <ele>681.8</ele>
        <time>2019-04-11T16:10:00.000Z</time>
      </trkpt>
      <trkpt lat="-40.171741" lon="-71.360535">
        <ele>681.9</ele>
        <time>2019-04-11T16:10:01.000Z</time>
      </trkpt>
      <trkpt lat="-40.171791" lon="-71.360576">
        <ele>682</ele>
        <time>2019-04-11T16:10:02.000Z</time>
      </trkpt>
      <trkpt lat="-40.171848" lon="-71.360614">
        <ele>682.1</ele>
        <time>2019-04-11T16:10:03.000Z</time>
      </trkpt>
      <trkpt lat="-40.1719" lon="-71.360647">
        <ele>682.2</ele>
        <time>2019-04-11T16:10:04.000Z</time>
      </trkpt>
      <trkpt lat="-40.171964" lon="-71.360688">
        <ele>682.3</ele>
        <time>2019-04-11T16:10:05.000Z</time>
      </trkpt>
      <trkpt lat="-40.172018" lon="-71.360727">
        <ele>682.4</ele>
        <time>2019-04-11T16:10:06.000Z</time>
      </trkpt>
      <trkpt lat="-40.172085" lon="-71.360757">
        <ele>682.6</ele>
        <time>2019-04-11T16:10:07.000Z</time>
      </trkpt>
      <trkpt lat="-40.172141" lon="-71.360783">
        <ele>682.7</ele>
        <time>2019-04-11T16:10:08.000Z</time>
      </trkpt>
      <trkpt lat="-40.172195" lon="-71.360803">
        <ele>682.8</ele>
        <time>2019-04-11T16:10:09.000Z</time>
      </trkpt>
      <trkpt lat="-40.172243" lon="-71.360828">
        <ele>683</ele>
        <time>2019-04-11T16:10:10.000Z</time>
      </trkpt>
      <trkpt lat="-40.172315" lon="-71.360871">
        <ele>683.2</ele>
        <time>2019-04-11T16:10:11.000Z</time>
      </trkpt>
      <trkpt lat="-40.172383" lon="-71.360883">
        <ele>683.3</ele>
        <time>2019-04-11T16:10:12.000Z</time>
      </trkpt>
      <trkpt lat="-40.172442" lon="-71.36092">
        <ele>683.6</ele>
        <time>2019-04-11T16:10:13.000Z</time>
      </trkpt>
      <trkpt lat="-40.172486" lon="-71.360927">
        <ele>683.8</ele>
        <time>2019-04-11T16:10:14.000Z</time>
      </trkpt>
      <trkpt lat="-40.172527" lon="-71.360967">
        <ele>684</ele>
        <time>2019-04-11T16:10:15.000Z</time>
      </trkpt>
      <trkpt lat="-40.172584" lon="-71.360987">
        <ele>684.3</ele>
        <time>2019-04-11T16:10:16.000Z</time>
      </trkpt>
      <trkpt lat="-40.172662" lon="-71.361027">
        <ele>684.6</ele>
        <time>2019-04-11T16:10:17.000Z</time>
      </trkpt>
      <trkpt lat="-40.172704" lon="-71.361061">
        <ele>684.8</ele>
        <time>2019-04-11T16:10:18.000Z</time>
      </trkpt>
      <trkpt lat="-40.172754" lon="-71.361081">
        <ele>685</ele>
        <time>2019-04-11T16:10:19.000Z</time>
      </trkpt>
      <trkpt lat="-40.172815" lon="-71.361131">
        <ele>685.3</ele>
        <time>2019-04-11T16:10:20.000Z</time>
      </trkpt>
      <trkpt lat="-40.172868" lon="-71.361164">
        <ele>685.5</ele>
        <time>2019-04-11T16:10:21.000Z</time>
      </trkpt>
      <trkpt lat="-40.172925" lon="-71.361191">
        <ele>685.8</ele>
        <time>2019-04-11T16:10:22.000Z</time>
      </trkpt>
      <trkpt lat="-40.172992" lon="-71.361232">
        <ele>686.1</ele>
        <time>2019-04-11T16:10:23.000Z</time>
      </trkpt>
      <trkpt lat="-40.173042" lon="-71.361271">
        <ele>686.4</ele>
        <time>2019-04-11T16:10:24.000Z</time>
      </trkpt>
      <trkpt lat="-40.173099" lon="-71.361338">
        <ele>686.7</ele>
        <time>2019-04-11T16:10:25.000Z</time>
      </trkpt>
      <trkpt lat="-40.173145" lon="-71.361383">
        <ele>686.9</ele>
        <time>2019-04-11T16:10:26.000Z</time>
      </trkpt>
      <trkpt lat="-40.173181" lon="-71.361439">
        <ele>687.3</ele>
        <time>2019-04-11T16:10:27.000Z</time>
      </trkpt>
      <trkpt lat="-40.173214" lon="-71.361479">
        <ele>687.5</ele>
        <time>2019-04-11T16:10:28.000Z</time>
      </trkpt>
      <trkpt lat="-40.173259" lon="-71.36153">
        <ele>687.7</ele>
        <time>2019-04-11T16:10:29.000Z</time>
      </trkpt>
      <trkpt lat="-40.173297" lon="-71.361573">
        <ele>687.9</ele>
        <time>2019-04-11T16:10:30.000Z</time>
      </trkpt>
      <trkpt lat="-40.173331" lon="-71.361626">
        <ele>688.1</ele>
        <time>2019-04-11T16:10:31.000Z</time>
      </trkpt>
      <trkpt lat="-40.17337" lon="-71.361687">
        <ele>688.4</ele>
        <time>2019-04-11T16:10:32.000Z</time>
      </trkpt>
      <trkpt lat="-40.173406" lon="-71.36172">
        <ele>688.6</ele>
        <time>2019-04-11T16:10:33.000Z</time>
      </trkpt>
      <trkpt lat="-40.173441" lon="-71.361764">
        <ele>688.8</ele>
        <time>2019-04-11T16:10:34.000Z</time>
      </trkpt>
      <trkpt lat="-40.173477" lon="-71.361793">
        <ele>689</ele>
        <time>2019-04-11T16:10:35.000Z</time>
      </trkpt>
      <trkpt lat="-40.173503" lon="-71.361828">
        <ele>689.1</ele>
        <time>2019-04-11T16:10:36.000Z</time>
      </trkpt>
      <trkpt lat="-40.173534" lon="-71.361865">
        <ele>689.3</ele>
        <time>2019-04-11T16:10:37.000Z</time>
      </trkpt>
      <trkpt lat="-40.173573" lon="-71.361908">
        <ele>689.5</ele>
        <time>2019-04-11T16:10:38.000Z</time>
      </trkpt>
      <trkpt lat="-40.173596" lon="-71.361936">
        <ele>689.7</ele>
        <time>2019-04-11T16:10:39.000Z</time>
      </trkpt>
      <trkpt lat="-40.173631" lon="-71.361978">
        <ele>689.9</ele>
        <time>2019-04-11T16:10:40.000Z</time>
      </trkpt>
      <trkpt lat="-40.173664" lon="-71.362029">
        <ele>690.1</ele>
        <time>2019-04-11T16:10:41.000Z</time>
      </trkpt>
      <trkpt lat="-40.1737" lon="-71.362082">
        <ele>690.4</ele>
        <time>2019-04-11T16:10:42.000Z</time>
      </trkpt>
      <trkpt lat="-40.173734" lon="-71.362115">
        <ele>690.6</ele>
        <time>2019-04-11T16:10:43.000Z</time>
      </trkpt>
      <trkpt lat="-40.17377" lon="-71.362192">
        <ele>690.9</ele>
        <time>2019-04-11T16:10:44.000Z</time>
      </trkpt>
      <trkpt lat="-40.173799" lon="-71.362223">
        <ele>691</ele>
        <time>2019-04-11T16:10:45.000Z</time>
      </trkpt>
      <trkpt lat="-40.17383" lon="-71.362258">
        <ele>691.2</ele>
        <time>2019-04-11T16:10:46.000Z</time>
      </trkpt>
      <trkpt lat="-40.17386" lon="-71.362305">
        <ele>691.5</ele>
        <time>2019-04-11T16:10:47.000Z</time>
      </trkpt>
      <trkpt lat="-40.173879" lon="-71.362342">
        <ele>691.6</ele>
        <time>2019-04-11T16:10:48.000Z</time>
      </trkpt>
      <trkpt lat="-40.173906" lon="-71.362387">
        <ele>691.8</ele>
        <time>2019-04-11T16:10:49.000Z</time>
      </trkpt>
      <trkpt lat="-40.17393" lon="-71.362434">
        <ele>692</ele>
        <time>2019-04-11T16:10:50.000Z</time>
      </trkpt>
      <trkpt lat="-40.173961" lon="-71.362471">
        <ele>692.3</ele>
        <time>2019-04-11T16:10:51.000Z</time>
      </trkpt>
      <trkpt lat="-40.17398" lon="-71.362514">
        <ele>692.6</ele>
        <time>2019-04-11T16:10:52.000Z</time>
      </trkpt>
      <trkpt lat="-40.174009" lon="-71.362571">
        <ele>692.8</ele>
        <time>2019-04-11T16:10:53.000Z</time>
      </trkpt>
      <trkpt lat="-40.17404" lon="-71.362618">
        <ele>693</ele>
        <time>2019-04-11T16:10:54.000Z</time>
      </trkpt>
      <trkpt lat="-40.17405" lon="-71.362665">
        <ele>693.2</ele>
        <time>2019-04-11T16:10:55.000Z</time>
      </trkpt>
      <trkpt lat="-40.174078" lon="-71.362711">
        <ele>693.4</ele>
        <time>2019-04-11T16:10:56.000Z</time>
      </trkpt>
      <trkpt lat="-40.1741" lon="-71.362758">
        <ele>693.6</ele>
        <time>2019-04-11T16:10:57.000Z</time>
      </trkpt>
      <trkpt lat="-40.174122" lon="-71.362807">
        <ele>693.9</ele>
        <time>2019-04-11T16:10:58.000Z</time>
      </trkpt>
      <trkpt lat="-40.174147" lon="-71.362849">
        <ele>694.1</ele>
        <time>2019-04-11T16:10:59.000Z</time>
      </trkpt>
      <trkpt lat="-40.174157" lon="-71.362888">
        <ele>694.2</ele>
        <time>2019-04-11T16:11:00.000Z</time>
      </trkpt>
      <trkpt lat="-40.174183" lon="-71.362957">
        <ele>694.6</ele>
        <time>2019-04-11T16:11:01.000Z</time>
      </trkpt>
      <trkpt lat="-40.174205" lon="-71.362991">
        <ele>694.8</ele>
        <time>2019-04-11T16:11:02.000Z</time>
      </trkpt>
      <trkpt lat="-40.174224" lon="-71.363042">
        <ele>695</ele>
        <time>2019-04-11T16:11:03.000Z</time>
      </trkpt>
      <trkpt lat="-40.174243" lon="-71.363097">
        <ele>695.2</ele>
        <time>2019-04-11T16:11:04.000Z</time>
      </trkpt>
      <trkpt lat="-40.174278" lon="-71.363158">
        <ele>695.4</ele>
        <time>2019-04-11T16:11:05.000Z</time>
      </trkpt>
      <trkpt lat="-40.174271" lon="-71.363211">
        <ele>695.6</ele>
        <time>2019-04-11T16:11:06.000Z</time>
      </trkpt>
      <trkpt lat="-40.1743" lon="-71.363256">
        <ele>695.8</ele>
        <time>2019-04-11T16:11:07.000Z</time>
      </trkpt>
      <trkpt lat="-40.174317" lon="-71.363309">
        <ele>696</ele>
        <time>2019-04-11T16:11:08.000Z</time>
      </trkpt>
      <trkpt lat="-40.174329" lon="-71.363349">
        <ele>696.1</ele>
        <time>2019-04-11T16:11:09.000Z</time>
      </trkpt>
      <trkpt lat="-40.174339" lon="-71.363412">
        <ele>696.3</ele>
        <time>2019-04-11T16:11:10.000Z</time>
      </trkpt>
      <trkpt lat="-40.174348" lon="-71.363462">
        <ele>696.4</ele>
        <time>2019-04-11T16:11:11.000Z</time>
      </trkpt>
      <trkpt lat="-40.174363" lon="-71.363514">
        <ele>696.6</ele>
        <time>2019-04-11T16:11:12.000Z</time>
      </trkpt>
      <trkpt lat="-40.174376" lon="-71.363564">
        <ele>696.8</ele>
        <time>2019-04-11T16:11:13.000Z</time>
      </trkpt>
      <trkpt lat="-40.174402" lon="-71.363614">
        <ele>696.9</ele>
        <time>2019-04-11T16:11:14.000Z</time>
      </trkpt>
      <trkpt lat="-40.174419" lon="-71.363655">
        <ele>697.1</ele>
        <time>2019-04-11T16:11:15.000Z</time>
      </trkpt>
      <trkpt lat="-40.17444" lon="-71.363709">
        <ele>697.2</ele>
        <time>2019-04-11T16:11:16.000Z</time>
      </trkpt>
      <trkpt lat="-40.17446" lon="-71.363754">
        <ele>697.4</ele>
        <time>2019-04-11T16:11:17.000Z</time>
      </trkpt>
      <trkpt lat="-40.174476" lon="-71.3638">
        <ele>697.5</ele>
        <time>2019-04-11T16:11:18.000Z</time>
      </trkpt>
      <trkpt lat="-40.174498" lon="-71.363863">
        <ele>697.8</ele>
        <time>2019-04-11T16:11:19.000Z</time>
      </trkpt>
      <trkpt lat="-40.174517" lon="-71.36392">
        <ele>698</ele>
        <time>2019-04-11T16:11:20.000Z</time>
      </trkpt>
      <trkpt lat="-40.174538" lon="-71.363975">
        <ele>698.1</ele>
        <time>2019-04-11T16:11:21.000Z</time>
      </trkpt>
      <trkpt lat="-40.174566" lon="-71.364024">
        <ele>698.3</ele>
        <time>2019-04-11T16:11:22.000Z</time>
      </trkpt>
      <trkpt lat="-40.174587" lon="-71.364069">
        <ele>698.4</ele>
        <time>2019-04-11T16:11:23.000Z</time>
      </trkpt>
      <trkpt lat="-40.174598" lon="-71.364121">
        <ele>698.5</ele>
        <time>2019-04-11T16:11:24.000Z</time>
      </trkpt>
      <trkpt lat="-40.174614" lon="-71.364174">
        <ele>698.6</ele>
        <time>2019-04-11T16:11:25.000Z</time>
      </trkpt>
      <trkpt lat="-40.174631" lon="-71.364218">
        <ele>698.7</ele>
        <time>2019-04-11T16:11:26.000Z</time>
      </trkpt>
      <trkpt lat="-40.174661" lon="-71.36427">
        <ele>698.9</ele>
        <time>2019-04-11T16:11:27.000Z</time>
      </trkpt>
      <trkpt lat="-40.17468" lon="-71.364329">
        <ele>699</ele>
        <time>2019-04-11T16:11:28.000Z</time>
      </trkpt>
      <trkpt lat="-40.174698" lon="-71.364388">
        <ele>699.1</ele>
        <time>2019-04-11T16:11:29.000Z</time>
      </trkpt>
      <trkpt lat="-40.174709" lon="-71.364421">
        <ele>699.2</ele>
        <time>2019-04-11T16:11:30.000Z</time>
      </trkpt>
      <trkpt lat="-40.174726" lon="-71.364472">
        <ele>699.2</ele>
        <time>2019-04-11T16:11:31.000Z</time>
      </trkpt>
      <trkpt lat="-40.174734" lon="-71.364529">
        <ele>699.3</ele>
        <time>2019-04-11T16:11:32.000Z</time>
      </trkpt>
      <trkpt lat="-40.174742" lon="-71.364586">
        <ele>699.4</ele>
        <time>2019-04-11T16:11:33.000Z</time>
      </trkpt>
      <trkpt lat="-40.17476" lon="-71.364636">
        <ele>699.5</ele>
        <time>2019-04-11T16:11:34.000Z</time>
      </trkpt>
      <trkpt lat="-40.174772" lon="-71.364691">
        <ele>699.5</ele>
        <time>2019-04-11T16:11:35.000Z</time>
      </trkpt>
      <trkpt lat="-40.174795" lon="-71.364748">
        <ele>699.6</ele>
        <time>2019-04-11T16:11:36.000Z</time>
      </trkpt>
      <trkpt lat="-40.174817" lon="-71.364812">
        <ele>699.6</ele>
        <time>2019-04-11T16:11:37.000Z</time>
      </trkpt>
      <trkpt lat="-40.174833" lon="-71.364864">
        <ele>699.7</ele>
        <time>2019-04-11T16:11:38.000Z</time>
      </trkpt>
      <trkpt lat="-40.174857" lon="-71.364913">
        <ele>699.7</ele>
        <time>2019-04-11T16:11:39.000Z</time>
      </trkpt>
      <trkpt lat="-40.174884" lon="-71.364965">
        <ele>699.7</ele>
        <time>2019-04-11T16:11:40.000Z</time>
      </trkpt>
      <trkpt lat="-40.174915" lon="-71.365004">
        <ele>699.7</ele>
        <time>2019-04-11T16:11:41.000Z</time>
      </trkpt>
      <trkpt lat="-40.17494" lon="-71.36505">
        <ele>699.7</ele>
        <time>2019-04-11T16:11:42.000Z</time>
      </trkpt>
      <trkpt lat="-40.174962" lon="-71.365098">
        <ele>699.7</ele>
        <time>2019-04-11T16:11:43.000Z</time>
      </trkpt>
      <trkpt lat="-40.174985" lon="-71.36514">
        <ele>699.6</ele>
        <time>2019-04-11T16:11:44.000Z</time>
      </trkpt>
      <trkpt lat="-40.175004" lon="-71.365186">
        <ele>699.6</ele>
        <time>2019-04-11T16:11:45.000Z</time>
      </trkpt>
      <trkpt lat="-40.175023" lon="-71.365224">
        <ele>699.5</ele>
        <time>2019-04-11T16:11:46.000Z</time>
      </trkpt>
      <trkpt lat="-40.175043" lon="-71.365271">
        <ele>699.5</ele>
        <time>2019-04-11T16:11:47.000Z</time>
      </trkpt>
      <trkpt lat="-40.175052" lon="-71.36532">
        <ele>699.4</ele>
        <time>2019-04-11T16:11:48.000Z</time>
      </trkpt>
      <trkpt lat="-40.175036" lon="-71.36538">
        <ele>699.3</ele>
        <time>2019-04-11T16:11:49.000Z</time>
      </trkpt>
      <trkpt lat="-40.175062" lon="-71.365452">
        <ele>699.1</ele>
        <time>2019-04-11T16:11:50.000Z</time>
      </trkpt>
      <trkpt lat="-40.17509" lon="-71.365487">
        <ele>699</ele>
        <time>2019-04-11T16:11:51.000Z</time>
      </trkpt>
      <trkpt lat="-40.175114" lon="-71.365539">
        <ele>698.8</ele>
        <time>2019-04-11T16:11:52.000Z</time>
      </trkpt>
      <trkpt lat="-40.175133" lon="-71.365571">
        <ele>698.7</ele>
        <time>2019-04-11T16:11:53.000Z</time>
      </trkpt>
      <trkpt lat="-40.175148" lon="-71.365624">
        <ele>698.6</ele>
        <time>2019-04-11T16:11:54.000Z</time>
      </trkpt>
      <trkpt lat="-40.175176" lon="-71.365657">
        <ele>698.4</ele>
        <time>2019-04-11T16:11:55.000Z</time>
      </trkpt>
      <trkpt lat="-40.175197" lon="-71.365723">
        <ele>698.3</ele>
        <time>2019-04-11T16:11:56.000Z</time>
      </trkpt>
      <trkpt lat="-40.175225" lon="-71.365783">
        <ele>698</ele>
        <time>2019-04-11T16:11:57.000Z</time>
      </trkpt>
      <trkpt lat="-40.17525" lon="-71.365839">
        <ele>697.8</ele>
        <time>2019-04-11T16:11:58.000Z</time>
      </trkpt>
      <trkpt lat="-40.175283" lon="-71.365894">
        <ele>697.6</ele>
        <time>2019-04-11T16:11:59.000Z</time>
      </trkpt>
      <trkpt lat="-40.175304" lon="-71.365941">
        <ele>697.5</ele>
        <time>2019-04-11T16:12:00.000Z</time>
      </trkpt>
      <trkpt lat="-40.175336" lon="-71.365992">
        <ele>697.3</ele>
        <time>2019-04-11T16:12:01.000Z</time>
      </trkpt>
      <trkpt lat="-40.175355" lon="-71.36605">
        <ele>697.1</ele>
        <time>2019-04-11T16:12:02.000Z</time>
      </trkpt>
      <trkpt lat="-40.17539" lon="-71.366111">
        <ele>696.9</ele>
        <time>2019-04-11T16:12:03.000Z</time>
      </trkpt>
      <trkpt lat="-40.175418" lon="-71.366175">
        <ele>696.6</ele>
        <time>2019-04-11T16:12:04.000Z</time>
      </trkpt>
      <trkpt lat="-40.175447" lon="-71.366234">
        <ele>696.4</ele>
        <time>2019-04-11T16:12:05.000Z</time>
      </trkpt>
      <trkpt lat="-40.175475" lon="-71.366304">
        <ele>696.1</ele>
        <time>2019-04-11T16:12:06.000Z</time>
      </trkpt>
      <trkpt lat="-40.175511" lon="-71.366401">
        <ele>695.6</ele>
        <time>2019-04-11T16:12:07.000Z</time>
      </trkpt>
      <trkpt lat="-40.17555" lon="-71.366484">
        <ele>695.2</ele>
        <time>2019-04-11T16:12:08.000Z</time>
      </trkpt>
      <trkpt lat="-40.17558" lon="-71.366562">
        <ele>694.8</ele>
        <time>2019-04-11T16:12:09.000Z</time>
      </trkpt>
      <trkpt lat="-40.17561" lon="-71.366651">
        <ele>694.4</ele>
        <time>2019-04-11T16:12:10.000Z</time>
      </trkpt>
      <trkpt lat="-40.175637" lon="-71.366748">
        <ele>694</ele>
        <time>2019-04-11T16:12:11.000Z</time>
      </trkpt>
      <trkpt lat="-40.175677" lon="-71.36686">
        <ele>693.5</ele>
        <time>2019-04-11T16:12:12.000Z</time>
      </trkpt>
      <trkpt lat="-40.175715" lon="-71.366961">
        <ele>693</ele>
        <time>2019-04-11T16:12:13.000Z</time>
      </trkpt>
      <trkpt lat="-40.175749" lon="-71.367083">
        <ele>692.5</ele>
        <time>2019-04-11T16:12:14.000Z</time>
      </trkpt>
      <trkpt lat="-40.175793" lon="-71.367196">
        <ele>692.1</ele>
        <time>2019-04-11T16:12:15.000Z</time>
      </trkpt>
      <trkpt lat="-40.175833" lon="-71.367303">
        <ele>691.8</ele>
        <time>2019-04-11T16:12:16.000Z</time>
      </trkpt>
      <trkpt lat="-40.175883" lon="-71.367422">
        <ele>691.4</ele>
        <time>2019-04-11T16:12:17.000Z</time>
      </trkpt>
      <trkpt lat="-40.175936" lon="-71.367544">
        <ele>691.2</ele>
        <time>2019-04-11T16:12:18.000Z</time>
      </trkpt>
      <trkpt lat="-40.175978" lon="-71.367666">
        <ele>691</ele>
        <time>2019-04-11T16:12:19.000Z</time>
      </trkpt>
      <trkpt lat="-40.176031" lon="-71.367782">
        <ele>690.9</ele>
        <time>2019-04-11T16:12:20.000Z</time>
      </trkpt>
      <trkpt lat="-40.176091" lon="-71.367902">
        <ele>690.9</ele>
        <time>2019-04-11T16:12:21.000Z</time>
      </trkpt>
      <trkpt lat="-40.176144" lon="-71.368017">
        <ele>691</ele>
        <time>2019-04-11T16:12:22.000Z</time>
      </trkpt>
      <trkpt lat="-40.176194" lon="-71.368141">
        <ele>691.1</ele>
        <time>2019-04-11T16:12:23.000Z</time>
      </trkpt>
      <trkpt lat="-40.176229" lon="-71.368286">
        <ele>691.4</ele>
        <time>2019-04-11T16:12:24.000Z</time>
      </trkpt>
      <trkpt lat="-40.176253" lon="-71.36844">
        <ele>691.8</ele>
        <time>2019-04-11T16:12:25.000Z</time>
      </trkpt>
      <trkpt lat="-40.176263" lon="-71.368587">
        <ele>692.1</ele>
        <time>2019-04-11T16:12:26.000Z</time>
      </trkpt>
      <trkpt lat="-40.176271" lon="-71.36874">
        <ele>692.5</ele>
        <time>2019-04-11T16:12:27.000Z</time>
      </trkpt>
      <trkpt lat="-40.176283" lon="-71.368892">
        <ele>692.9</ele>
        <time>2019-04-11T16:12:28.000Z</time>
      </trkpt>
      <trkpt lat="-40.176292" lon="-71.369041">
        <ele>693.4</ele>
        <time>2019-04-11T16:12:29.000Z</time>
      </trkpt>
      <trkpt lat="-40.176301" lon="-71.369181">
        <ele>693.8</ele>
        <time>2019-04-11T16:12:30.000Z</time>
      </trkpt>
      <trkpt lat="-40.176308" lon="-71.369326">
        <ele>694.3</ele>
        <time>2019-04-11T16:12:31.000Z</time>
      </trkpt>
      <trkpt lat="-40.176322" lon="-71.36946">
        <ele>694.7</ele>
        <time>2019-04-11T16:12:32.000Z</time>
      </trkpt>
      <trkpt lat="-40.176343" lon="-71.369588">
        <ele>695.1</ele>
        <time>2019-04-11T16:12:33.000Z</time>
      </trkpt>
      <trkpt lat="-40.176368" lon="-71.369712">
        <ele>695.4</ele>
        <time>2019-04-11T16:12:34.000Z</time>
      </trkpt>
      <trkpt lat="-40.176391" lon="-71.36983">
        <ele>695.7</ele>
        <time>2019-04-11T16:12:35.000Z</time>
      </trkpt>
      <trkpt lat="-40.176412" lon="-71.369946">
        <ele>695.9</ele>
        <time>2019-04-11T16:12:36.000Z</time>
      </trkpt>
      <trkpt lat="-40.176435" lon="-71.370056">
        <ele>696</ele>
        <time>2019-04-11T16:12:37.000Z</time>
      </trkpt>
      <trkpt lat="-40.17646" lon="-71.370156">
        <ele>696.1</ele>
        <time>2019-04-11T16:12:38.000Z</time>
      </trkpt>
      <trkpt lat="-40.176483" lon="-71.37025">
        <ele>696.2</ele>
        <time>2019-04-11T16:12:39.000Z</time>
      </trkpt>
      <trkpt lat="-40.17651" lon="-71.370342">
        <ele>696.3</ele>
        <time>2019-04-11T16:12:40.000Z</time>
      </trkpt>
      <trkpt lat="-40.176531" lon="-71.37043">
        <ele>696.4</ele>
        <time>2019-04-11T16:12:41.000Z</time>
      </trkpt>
      <trkpt lat="-40.17655" lon="-71.370518">
        <ele>696.4</ele>
        <time>2019-04-11T16:12:42.000Z</time>
      </trkpt>
      <trkpt lat="-40.176569" lon="-71.3706">
        <ele>696.5</ele>
        <time>2019-04-11T16:12:43.000Z</time>
      </trkpt>
      <trkpt lat="-40.176582" lon="-71.370679">
        <ele>696.6</ele>
        <time>2019-04-11T16:12:44.000Z</time>
      </trkpt>
      <trkpt lat="-40.176595" lon="-71.370751">
        <ele>696.6</ele>
        <time>2019-04-11T16:12:45.000Z</time>
      </trkpt>
      <trkpt lat="-40.176609" lon="-71.37082">
        <ele>696.7</ele>
        <time>2019-04-11T16:12:46.000Z</time>
      </trkpt>
      <trkpt lat="-40.176627" lon="-71.370886">
        <ele>696.7</ele>
        <time>2019-04-11T16:12:47.000Z</time>
      </trkpt>
      <trkpt lat="-40.176645" lon="-71.370953">
        <ele>696.8</ele>
        <time>2019-04-11T16:12:48.000Z</time>
      </trkpt>
      <trkpt lat="-40.176665" lon="-71.371019">
        <ele>696.9</ele>
        <time>2019-04-11T16:12:49.000Z</time>
      </trkpt>
      <trkpt lat="-40.176677" lon="-71.371093">
        <ele>696.9</ele>
        <time>2019-04-11T16:12:50.000Z</time>
      </trkpt>
      <trkpt lat="-40.17669" lon="-71.371172">
        <ele>697</ele>
        <time>2019-04-11T16:12:51.000Z</time>
      </trkpt>
      <trkpt lat="-40.176705" lon="-71.371249">
        <ele>697.1</ele>
        <time>2019-04-11T16:12:52.000Z</time>
      </trkpt>
      <trkpt lat="-40.176719" lon="-71.371325">
        <ele>697.2</ele>
        <time>2019-04-11T16:12:53.000Z</time>
      </trkpt>
      <trkpt lat="-40.176738" lon="-71.371394">
        <ele>697.3</ele>
        <time>2019-04-11T16:12:54.000Z</time>
      </trkpt>
      <trkpt lat="-40.176759" lon="-71.371461">
        <ele>697.4</ele>
        <time>2019-04-11T16:12:55.000Z</time>
      </trkpt>
      <trkpt lat="-40.176784" lon="-71.371531">
        <ele>697.5</ele>
        <time>2019-04-11T16:12:56.000Z</time>
      </trkpt>
      <trkpt lat="-40.17681" lon="-71.371596">
        <ele>697.6</ele>
        <time>2019-04-11T16:12:57.000Z</time>
      </trkpt>
      <trkpt lat="-40.176837" lon="-71.371661">
        <ele>697.7</ele>
        <time>2019-04-11T16:12:58.000Z</time>
      </trkpt>
      <trkpt lat="-40.176863" lon="-71.371727">
        <ele>697.8</ele>
        <time>2019-04-11T16:12:59.000Z</time>
      </trkpt>
      <trkpt lat="-40.176897" lon="-71.3718">
        <ele>698</ele>
        <time>2019-04-11T16:13:00.000Z</time>
      </trkpt>
      <trkpt lat="-40.176933" lon="-71.371879">
        <ele>698.2</ele>
        <time>2019-04-11T16:13:01.000Z</time>
      </trkpt>
      <trkpt lat="-40.176966" lon="-71.371955">
        <ele>698.4</ele>
        <time>2019-04-11T16:13:02.000Z</time>
      </trkpt>
      <trkpt lat="-40.176997" lon="-71.372036">
        <ele>698.6</ele>
        <time>2019-04-11T16:13:03.000Z</time>
      </trkpt>
      <trkpt lat="-40.177037" lon="-71.372119">
        <ele>698.9</ele>
        <time>2019-04-11T16:13:04.000Z</time>
      </trkpt>
      <trkpt lat="-40.177068" lon="-71.372207">
        <ele>699.1</ele>
        <time>2019-04-11T16:13:05.000Z</time>
      </trkpt>
      <trkpt lat="-40.177108" lon="-71.372302">
        <ele>699.4</ele>
        <time>2019-04-11T16:13:06.000Z</time>
      </trkpt>
      <trkpt lat="-40.17714" lon="-71.372386">
        <ele>699.6</ele>
        <time>2019-04-11T16:13:07.000Z</time>
      </trkpt>
      <trkpt lat="-40.17717" lon="-71.372474">
        <ele>699.9</ele>
        <time>2019-04-11T16:13:08.000Z</time>
      </trkpt>
      <trkpt lat="-40.177202" lon="-71.372561">
        <ele>700.1</ele>
        <time>2019-04-11T16:13:09.000Z</time>
      </trkpt>
      <trkpt lat="-40.177223" lon="-71.372651">
        <ele>700.3</ele>
        <time>2019-04-11T16:13:10.000Z</time>
      </trkpt>
      <trkpt lat="-40.177256" lon="-71.372735">
        <ele>700.4</ele>
        <time>2019-04-11T16:13:11.000Z</time>
      </trkpt>
      <trkpt lat="-40.177281" lon="-71.372818">
        <ele>700.5</ele>
        <time>2019-04-11T16:13:12.000Z</time>
      </trkpt>
      <trkpt lat="-40.177307" lon="-71.372898">
        <ele>700.6</ele>
        <time>2019-04-11T16:13:13.000Z</time>
      </trkpt>
      <trkpt lat="-40.177332" lon="-71.372975">
        <ele>700.8</ele>
        <time>2019-04-11T16:13:14.000Z</time>
      </trkpt>
      <trkpt lat="-40.177352" lon="-71.37305">
        <ele>700.9</ele>
        <time>2019-04-11T16:13:15.000Z</time>
      </trkpt>
      <trkpt lat="-40.177374" lon="-71.373125">
        <ele>700.9</ele>
        <time>2019-04-11T16:13:16.000Z</time>
      </trkpt>
      <trkpt lat="-40.177396" lon="-71.373199">
        <ele>701</ele>
        <time>2019-04-11T16:13:17.000Z</time>
      </trkpt>
      <trkpt lat="-40.177416" lon="-71.37326">
        <ele>701.1</ele>
        <time>2019-04-11T16:13:18.000Z</time>
      </trkpt>
      <trkpt lat="-40.177439" lon="-71.373334">
        <ele>701.2</ele>
        <time>2019-04-11T16:13:19.000Z</time>
      </trkpt>
      <trkpt lat="-40.177461" lon="-71.373383">
        <ele>701.2</ele>
        <time>2019-04-11T16:13:20.000Z</time>
      </trkpt>
      <trkpt lat="-40.177479" lon="-71.37343">
        <ele>701.3</ele>
        <time>2019-04-11T16:13:21.000Z</time>
      </trkpt>
      <trkpt lat="-40.177507" lon="-71.373488">
        <ele>701.4</ele>
        <time>2019-04-11T16:13:22.000Z</time>
      </trkpt>
      <trkpt lat="-40.177525" lon="-71.373544">
        <ele>701.4</ele>
        <time>2019-04-11T16:13:23.000Z</time>
      </trkpt>
      <trkpt lat="-40.177531" lon="-71.373607">
        <ele>701.5</ele>
        <time>2019-04-11T16:13:24.000Z</time>
      </trkpt>
      <trkpt lat="-40.177538" lon="-71.373669">
        <ele>701.5</ele>
        <time>2019-04-11T16:13:25.000Z</time>
      </trkpt>
      <trkpt lat="-40.177555" lon="-71.373731">
        <ele>701.5</ele>
        <time>2019-04-11T16:13:26.000Z</time>
      </trkpt>
      <trkpt lat="-40.177564" lon="-71.37378">
        <ele>701.5</ele>
        <time>2019-04-11T16:13:27.000Z</time>
      </trkpt>
      <trkpt lat="-40.177588" lon="-71.373844">
        <ele>701.5</ele>
        <time>2019-04-11T16:13:28.000Z</time>
      </trkpt>
      <trkpt lat="-40.177602" lon="-71.373911">
        <ele>701.5</ele>
        <time>2019-04-11T16:13:29.000Z</time>
      </trkpt>
      <trkpt lat="-40.177609" lon="-71.37397">
        <ele>701.5</ele>
        <time>2019-04-11T16:13:30.000Z</time>
      </trkpt>
      <trkpt lat="-40.177623" lon="-71.374029">
        <ele>701.4</ele>
        <time>2019-04-11T16:13:31.000Z</time>
      </trkpt>
      <trkpt lat="-40.17764" lon="-71.374097">
        <ele>701.3</ele>
        <time>2019-04-11T16:13:32.000Z</time>
      </trkpt>
      <trkpt lat="-40.17766" lon="-71.374157">
        <ele>701.2</ele>
        <time>2019-04-11T16:13:33.000Z</time>
      </trkpt>
      <trkpt lat="-40.177679" lon="-71.374223">
        <ele>701.1</ele>
        <time>2019-04-11T16:13:34.000Z</time>
      </trkpt>
      <trkpt lat="-40.177679" lon="-71.374272">
        <ele>701</ele>
        <time>2019-04-11T16:13:35.000Z</time>
      </trkpt>
      <trkpt lat="-40.177678" lon="-71.374342">
        <ele>700.9</ele>
        <time>2019-04-11T16:13:36.000Z</time>
      </trkpt>
      <trkpt lat="-40.177669" lon="-71.374407">
        <ele>700.8</ele>
        <time>2019-04-11T16:13:37.000Z</time>
      </trkpt>
      <trkpt lat="-40.177672" lon="-71.374479">
        <ele>700.7</ele>
        <time>2019-04-11T16:13:38.000Z</time>
      </trkpt>
      <trkpt lat="-40.177669" lon="-71.374558">
        <ele>700.6</ele>
        <time>2019-04-11T16:13:39.000Z</time>
      </trkpt>
      <trkpt lat="-40.177667" lon="-71.374628">
        <ele>700.5</ele>
        <time>2019-04-11T16:13:40.000Z</time>
      </trkpt>
      <trkpt lat="-40.177657" lon="-71.374694">
        <ele>700.5</ele>
        <time>2019-04-11T16:13:41.000Z</time>
      </trkpt>
      <trkpt lat="-40.177644" lon="-71.374774">
        <ele>700.4</ele>
        <time>2019-04-11T16:13:42.000Z</time>
      </trkpt>
      <trkpt lat="-40.177625" lon="-71.37485">
        <ele>700.3</ele>
        <time>2019-04-11T16:13:43.000Z</time>
      </trkpt>
      <trkpt lat="-40.177607" lon="-71.374911">
        <ele>700.3</ele>
        <time>2019-04-11T16:13:44.000Z</time>
      </trkpt>
      <trkpt lat="-40.177588" lon="-71.374981">
        <ele>700.2</ele>
        <time>2019-04-11T16:13:45.000Z</time>
      </trkpt>
      <trkpt lat="-40.177567" lon="-71.375053">
        <ele>700.1</ele>
        <time>2019-04-11T16:13:46.000Z</time>
      </trkpt>
      <trkpt lat="-40.177547" lon="-71.375132">
        <ele>700</ele>
        <time>2019-04-11T16:13:47.000Z</time>
      </trkpt>
      <trkpt lat="-40.177521" lon="-71.375215">
        <ele>699.9</ele>
        <time>2019-04-11T16:13:48.000Z</time>
      </trkpt>
      <trkpt lat="-40.177505" lon="-71.375302">
        <ele>699.8</ele>
        <time>2019-04-11T16:13:49.000Z</time>
      </trkpt>
      <trkpt lat="-40.177491" lon="-71.37539">
        <ele>699.6</ele>
        <time>2019-04-11T16:13:50.000Z</time>
      </trkpt>
      <trkpt lat="-40.177471" lon="-71.375475">
        <ele>699.4</ele>
        <time>2019-04-11T16:13:51.000Z</time>
      </trkpt>
      <trkpt lat="-40.177445" lon="-71.375573">
        <ele>699.1</ele>
        <time>2019-04-11T16:13:52.000Z</time>
      </trkpt>
      <trkpt lat="-40.177411" lon="-71.375675">
        <ele>698.7</ele>
        <time>2019-04-11T16:13:53.000Z</time>
      </trkpt>
      <trkpt lat="-40.17738" lon="-71.375772">
        <ele>698.2</ele>
        <time>2019-04-11T16:13:54.000Z</time>
      </trkpt>
      <trkpt lat="-40.177352" lon="-71.375866">
        <ele>697.8</ele>
        <time>2019-04-11T16:13:55.000Z</time>
      </trkpt>
      <trkpt lat="-40.17732" lon="-71.375968">
        <ele>697.4</ele>
        <time>2019-04-11T16:13:56.000Z</time>
      </trkpt>
      <trkpt lat="-40.177296" lon="-71.376077">
        <ele>697</ele>
        <time>2019-04-11T16:13:57.000Z</time>
      </trkpt>
      <trkpt lat="-40.177264" lon="-71.376199">
        <ele>696.4</ele>
        <time>2019-04-11T16:13:58.000Z</time>
      </trkpt>
      <trkpt lat="-40.177233" lon="-71.376315">
        <ele>695.9</ele>
        <time>2019-04-11T16:13:59.000Z</time>
      </trkpt>
      <trkpt lat="-40.177208" lon="-71.37644">
        <ele>695.4</ele>
        <time>2019-04-11T16:14:00.000Z</time>
      </trkpt>
      <trkpt lat="-40.177169" lon="-71.376575">
        <ele>694.8</ele>
        <time>2019-04-11T16:14:01.000Z</time>
      </trkpt>
      <trkpt lat="-40.177126" lon="-71.376703">
        <ele>694.2</ele>
        <time>2019-04-11T16:14:02.000Z</time>
      </trkpt>
      <trkpt lat="-40.177085" lon="-71.376816">
        <ele>693.6</ele>
        <time>2019-04-11T16:14:03.000Z</time>
      </trkpt>
      <trkpt lat="-40.177041" lon="-71.376943">
        <ele>693</ele>
        <time>2019-04-11T16:14:04.000Z</time>
      </trkpt>
      <trkpt lat="-40.176997" lon="-71.377075">
        <ele>692.5</ele>
        <time>2019-04-11T16:14:05.000Z</time>
      </trkpt>
      <trkpt lat="-40.176965" lon="-71.377205">
        <ele>691.9</ele>
        <time>2019-04-11T16:14:06.000Z</time>
      </trkpt>
      <trkpt lat="-40.176923" lon="-71.37734">
        <ele>691.3</ele>
        <time>2019-04-11T16:14:07.000Z</time>
      </trkpt>
      <trkpt lat="-40.176877" lon="-71.377481">
        <ele>690.8</ele>
        <time>2019-04-11T16:14:08.000Z</time>
      </trkpt>
      <trkpt lat="-40.176837" lon="-71.377621">
        <ele>690.3</ele>
        <time>2019-04-11T16:14:09.000Z</time>
      </trkpt>
      <trkpt lat="-40.176801" lon="-71.377773">
        <ele>689.7</ele>
        <time>2019-04-11T16:14:10.000Z</time>
      </trkpt>
      <trkpt lat="-40.176792" lon="-71.377959">
        <ele>688.8</ele>
        <time>2019-04-11T16:14:11.000Z</time>
      </trkpt>
      <trkpt lat="-40.176761" lon="-71.378114">
        <ele>688</ele>
        <time>2019-04-11T16:14:12.000Z</time>
      </trkpt>
      <trkpt lat="-40.176739" lon="-71.378274">
        <ele>687.2</ele>
        <time>2019-04-11T16:14:13.000Z</time>
      </trkpt>
      <trkpt lat="-40.176719" lon="-71.378425">
        <ele>686.5</ele>
        <time>2019-04-11T16:14:14.000Z</time>
      </trkpt>
      <trkpt lat="-40.176706" lon="-71.378581">
        <ele>685.8</ele>
        <time>2019-04-11T16:14:15.000Z</time>
      </trkpt>
      <trkpt lat="-40.1767" lon="-71.378735">
        <ele>685.3</ele>
        <time>2019-04-11T16:14:16.000Z</time>
      </trkpt>
      <trkpt lat="-40.176686" lon="-71.37889">
        <ele>684.8</ele>
        <time>2019-04-11T16:14:17.000Z</time>
      </trkpt>
      <trkpt lat="-40.176664" lon="-71.379052">
        <ele>684.5</ele>
        <time>2019-04-11T16:14:18.000Z</time>
      </trkpt>
      <trkpt lat="-40.176652" lon="-71.379226">
        <ele>684.3</ele>
        <time>2019-04-11T16:14:19.000Z</time>
      </trkpt>
      <trkpt lat="-40.176633" lon="-71.379378">
        <ele>684.3</ele>
        <time>2019-04-11T16:14:20.000Z</time>
      </trkpt>
      <trkpt lat="-40.176625" lon="-71.379544">
        <ele>684.3</ele>
        <time>2019-04-11T16:14:21.000Z</time>
      </trkpt>
      <trkpt lat="-40.176643" lon="-71.379703">
        <ele>684.4</ele>
        <time>2019-04-11T16:14:22.000Z</time>
      </trkpt>
      <trkpt lat="-40.176669" lon="-71.37987">
        <ele>684.7</ele>
        <time>2019-04-11T16:14:23.000Z</time>
      </trkpt>
      <trkpt lat="-40.1767" lon="-71.380029">
        <ele>685</ele>
        <time>2019-04-11T16:14:24.000Z</time>
      </trkpt>
      <trkpt lat="-40.176736" lon="-71.380187">
        <ele>685.3</ele>
        <time>2019-04-11T16:14:25.000Z</time>
      </trkpt>
      <trkpt lat="-40.176779" lon="-71.380328">
        <ele>685.7</ele>
        <time>2019-04-11T16:14:26.000Z</time>
      </trkpt>
      <trkpt lat="-40.176809" lon="-71.380481">
        <ele>686.2</ele>
        <time>2019-04-11T16:14:27.000Z</time>
      </trkpt>
      <trkpt lat="-40.176846" lon="-71.380626">
        <ele>686.7</ele>
        <time>2019-04-11T16:14:28.000Z</time>
      </trkpt>
      <trkpt lat="-40.176871" lon="-71.380769">
        <ele>687.2</ele>
        <time>2019-04-11T16:14:29.000Z</time>
      </trkpt>
      <trkpt lat="-40.176895" lon="-71.3809">
        <ele>687.6</ele>
        <time>2019-04-11T16:14:30.000Z</time>
      </trkpt>
      <trkpt lat="-40.176895" lon="-71.381048">
        <ele>688.2</ele>
        <time>2019-04-11T16:14:31.000Z</time>
      </trkpt>
      <trkpt lat="-40.176871" lon="-71.381181">
        <ele>688.7</ele>
        <time>2019-04-11T16:14:32.000Z</time>
      </trkpt>
      <trkpt lat="-40.17685" lon="-71.381311">
        <ele>689.2</ele>
        <time>2019-04-11T16:14:33.000Z</time>
      </trkpt>
      <trkpt lat="-40.176833" lon="-71.381415">
        <ele>689.7</ele>
        <time>2019-04-11T16:14:34.000Z</time>
      </trkpt>
      <trkpt lat="-40.176823" lon="-71.381522">
        <ele>690.1</ele>
        <time>2019-04-11T16:14:35.000Z</time>
      </trkpt>
      <trkpt lat="-40.176807" lon="-71.38164">
        <ele>690.6</ele>
        <time>2019-04-11T16:14:36.000Z</time>
      </trkpt>
      <trkpt lat="-40.176796" lon="-71.381718">
        <ele>690.9</ele>
        <time>2019-04-11T16:14:37.000Z</time>
      </trkpt>
      <trkpt lat="-40.176787" lon="-71.381823">
        <ele>691.4</ele>
        <time>2019-04-11T16:14:38.000Z</time>
      </trkpt>
      <trkpt lat="-40.176796" lon="-71.381901">
        <ele>691.7</ele>
        <time>2019-04-11T16:14:39.000Z</time>
      </trkpt>
      <trkpt lat="-40.176794" lon="-71.381976">
        <ele>692</ele>
        <time>2019-04-11T16:14:40.000Z</time>
      </trkpt>
      <trkpt lat="-40.176798" lon="-71.382067">
        <ele>692.3</ele>
        <time>2019-04-11T16:14:41.000Z</time>
      </trkpt>
      <trkpt lat="-40.1768" lon="-71.382144">
        <ele>692.6</ele>
        <time>2019-04-11T16:14:42.000Z</time>
      </trkpt>
      <trkpt lat="-40.17681" lon="-71.382236">
        <ele>692.9</ele>
        <time>2019-04-11T16:14:43.000Z</time>
      </trkpt>
      <trkpt lat="-40.176828" lon="-71.382311">
        <ele>693.2</ele>
        <time>2019-04-11T16:14:44.000Z</time>
      </trkpt>
      <trkpt lat="-40.176837" lon="-71.382385">
        <ele>693.4</ele>
        <time>2019-04-11T16:14:45.000Z</time>
      </trkpt>
      <trkpt lat="-40.176844" lon="-71.382449">
        <ele>693.6</ele>
        <time>2019-04-11T16:14:46.000Z</time>
      </trkpt>
      <trkpt lat="-40.176842" lon="-71.38251">
        <ele>693.9</ele>
        <time>2019-04-11T16:14:47.000Z</time>
      </trkpt>
      <trkpt lat="-40.176842" lon="-71.382576">
        <ele>694.1</ele>
        <time>2019-04-11T16:14:48.000Z</time>
      </trkpt>
      <trkpt lat="-40.176856" lon="-71.382643">
        <ele>694.3</ele>
        <time>2019-04-11T16:14:49.000Z</time>
      </trkpt>
      <trkpt lat="-40.176865" lon="-71.382705">
        <ele>694.5</ele>
        <time>2019-04-11T16:14:50.000Z</time>
      </trkpt>
      <trkpt lat="-40.17688" lon="-71.382766">
        <ele>694.8</ele>
        <time>2019-04-11T16:14:51.000Z</time>
      </trkpt>
      <trkpt lat="-40.176888" lon="-71.382835">
        <ele>695</ele>
        <time>2019-04-11T16:14:52.000Z</time>
      </trkpt>
      <trkpt lat="-40.176911" lon="-71.382932">
        <ele>695.4</ele>
        <time>2019-04-11T16:14:54.000Z</time>
      </trkpt>
      <trkpt lat="-40.176924" lon="-71.382987">
        <ele>695.6</ele>
        <time>2019-04-11T16:14:55.000Z</time>
      </trkpt>
      <trkpt lat="-40.176924" lon="-71.383028">
        <ele>695.7</ele>
        <time>2019-04-11T16:14:56.000Z</time>
      </trkpt>
      <trkpt lat="-40.176919" lon="-71.383076">
        <ele>695.9</ele>
        <time>2019-04-11T16:14:57.000Z</time>
      </trkpt>
      <trkpt lat="-40.176933" lon="-71.383137">
        <ele>696.1</ele>
        <time>2019-04-11T16:14:58.000Z</time>
      </trkpt>
      <trkpt lat="-40.176942" lon="-71.383193">
        <ele>696.3</ele>
        <time>2019-04-11T16:14:59.000Z</time>
      </trkpt>
      <trkpt lat="-40.176955" lon="-71.383247">
        <ele>696.5</ele>
        <time>2019-04-11T16:15:00.000Z</time>
      </trkpt>
      <trkpt lat="-40.176958" lon="-71.383287">
        <ele>696.6</ele>
        <time>2019-04-11T16:15:01.000Z</time>
      </trkpt>
      <trkpt lat="-40.176967" lon="-71.383355">
        <ele>696.8</ele>
        <time>2019-04-11T16:15:02.000Z</time>
      </trkpt>
      <trkpt lat="-40.176963" lon="-71.383408">
        <ele>696.9</ele>
        <time>2019-04-11T16:15:03.000Z</time>
      </trkpt>
      <trkpt lat="-40.176975" lon="-71.383464">
        <ele>697.1</ele>
        <time>2019-04-11T16:15:04.000Z</time>
      </trkpt>
      <trkpt lat="-40.176984" lon="-71.383511">
        <ele>697.2</ele>
        <time>2019-04-11T16:15:05.000Z</time>
      </trkpt>
      <trkpt lat="-40.176979" lon="-71.383558">
        <ele>697.3</ele>
        <time>2019-04-11T16:15:06.000Z</time>
      </trkpt>
      <trkpt lat="-40.176985" lon="-71.383607">
        <ele>697.4</ele>
        <time>2019-04-11T16:15:07.000Z</time>
      </trkpt>
      <trkpt lat="-40.177004" lon="-71.383651">
        <ele>697.6</ele>
        <time>2019-04-11T16:15:08.000Z</time>
      </trkpt>
      <trkpt lat="-40.177013" lon="-71.383717">
        <ele>697.7</ele>
        <time>2019-04-11T16:15:09.000Z</time>
      </trkpt>
      <trkpt lat="-40.177012" lon="-71.38378">
        <ele>697.9</ele>
        <time>2019-04-11T16:15:10.000Z</time>
      </trkpt>
      <trkpt lat="-40.177025" lon="-71.38382">
        <ele>698</ele>
        <time>2019-04-11T16:15:11.000Z</time>
      </trkpt>
      <trkpt lat="-40.177019" lon="-71.383875">
        <ele>698.1</ele>
        <time>2019-04-11T16:15:12.000Z</time>
      </trkpt>
      <trkpt lat="-40.177029" lon="-71.38393">
        <ele>698.3</ele>
        <time>2019-04-11T16:15:13.000Z</time>
      </trkpt>
      <trkpt lat="-40.177025" lon="-71.383977">
        <ele>698.4</ele>
        <time>2019-04-11T16:15:14.000Z</time>
      </trkpt>
      <trkpt lat="-40.177032" lon="-71.384025">
        <ele>698.5</ele>
        <time>2019-04-11T16:15:15.000Z</time>
      </trkpt>
      <trkpt lat="-40.177058" lon="-71.384103">
        <ele>698.7</ele>
        <time>2019-04-11T16:15:16.000Z</time>
      </trkpt>
      <trkpt lat="-40.177074" lon="-71.384176">
        <ele>698.9</ele>
        <time>2019-04-11T16:15:17.000Z</time>
      </trkpt>
      <trkpt lat="-40.177068" lon="-71.384234">
        <ele>699</ele>
        <time>2019-04-11T16:15:18.000Z</time>
      </trkpt>
      <trkpt lat="-40.177068" lon="-71.384289">
        <ele>699.2</ele>
        <time>2019-04-11T16:15:19.000Z</time>
      </trkpt>
      <trkpt lat="-40.177062" lon="-71.384337">
        <ele>699.3</ele>
        <time>2019-04-11T16:15:20.000Z</time>
      </trkpt>
      <trkpt lat="-40.177054" lon="-71.384393">
        <ele>699.5</ele>
        <time>2019-04-11T16:15:21.000Z</time>
      </trkpt>
      <trkpt lat="-40.177049" lon="-71.384428">
        <ele>699.6</ele>
        <time>2019-04-11T16:15:22.000Z</time>
      </trkpt>
      <trkpt lat="-40.177071" lon="-71.384474">
        <ele>699.7</ele>
        <time>2019-04-11T16:15:23.000Z</time>
      </trkpt>
      <trkpt lat="-40.177081" lon="-71.384515">
        <ele>699.8</ele>
        <time>2019-04-11T16:15:24.000Z</time>
      </trkpt>
      <trkpt lat="-40.177078" lon="-71.384592">
        <ele>700</ele>
        <time>2019-04-11T16:15:25.000Z</time>
      </trkpt>
      <trkpt lat="-40.177084" lon="-71.384654">
        <ele>700.1</ele>
        <time>2019-04-11T16:15:26.000Z</time>
      </trkpt>
      <trkpt lat="-40.177072" lon="-71.384699">
        <ele>700.2</ele>
        <time>2019-04-11T16:15:27.000Z</time>
      </trkpt>
      <trkpt lat="-40.17708" lon="-71.384765">
        <ele>700.3</ele>
        <time>2019-04-11T16:15:28.000Z</time>
      </trkpt>
      <trkpt lat="-40.177085" lon="-71.384822">
        <ele>700.5</ele>
        <time>2019-04-11T16:15:29.000Z</time>
      </trkpt>
      <trkpt lat="-40.177083" lon="-71.384877">
        <ele>700.6</ele>
        <time>2019-04-11T16:15:30.000Z</time>
      </trkpt>
      <trkpt lat="-40.17709" lon="-71.384935">
        <ele>700.7</ele>
        <time>2019-04-11T16:15:31.000Z</time>
      </trkpt>
      <trkpt lat="-40.177103" lon="-71.385">
        <ele>700.9</ele>
        <time>2019-04-11T16:15:32.000Z</time>
      </trkpt>
      <trkpt lat="-40.177088" lon="-71.385062">
        <ele>701</ele>
        <time>2019-04-11T16:15:33.000Z</time>
      </trkpt>
      <trkpt lat="-40.177093" lon="-71.385134">
        <ele>701.2</ele>
        <time>2019-04-11T16:15:34.000Z</time>
      </trkpt>
      <trkpt lat="-40.177105" lon="-71.385194">
        <ele>701.3</ele>
        <time>2019-04-11T16:15:35.000Z</time>
      </trkpt>
      <trkpt lat="-40.177113" lon="-71.385274">
        <ele>701.5</ele>
        <time>2019-04-11T16:15:36.000Z</time>
      </trkpt>
      <trkpt lat="-40.177122" lon="-71.385339">
        <ele>701.7</ele>
        <time>2019-04-11T16:15:37.000Z</time>
      </trkpt>
      <trkpt lat="-40.177131" lon="-71.385422">
        <ele>702</ele>
        <time>2019-04-11T16:15:38.000Z</time>
      </trkpt>
      <trkpt lat="-40.177125" lon="-71.385482">
        <ele>702.1</ele>
        <time>2019-04-11T16:15:39.000Z</time>
      </trkpt>
      <trkpt lat="-40.177119" lon="-71.385539">
        <ele>702.3</ele>
        <time>2019-04-11T16:15:40.000Z</time>
      </trkpt>
      <trkpt lat="-40.17711" lon="-71.385602">
        <ele>702.5</ele>
        <time>2019-04-11T16:15:41.000Z</time>
      </trkpt>
      <trkpt lat="-40.177109" lon="-71.385647">
        <ele>702.6</ele>
        <time>2019-04-11T16:15:42.000Z</time>
      </trkpt>
      <trkpt lat="-40.177101" lon="-71.385725">
        <ele>702.8</ele>
        <time>2019-04-11T16:15:43.000Z</time>
      </trkpt>
      <trkpt lat="-40.177099" lon="-71.385794">
        <ele>703</ele>
        <time>2019-04-11T16:15:44.000Z</time>
      </trkpt>
      <trkpt lat="-40.177089" lon="-71.385851">
        <ele>703.1</ele>
        <time>2019-04-11T16:15:45.000Z</time>
      </trkpt>
      <trkpt lat="-40.177088" lon="-71.385915">
        <ele>703.3</ele>
        <time>2019-04-11T16:15:46.000Z</time>
      </trkpt>
      <trkpt lat="-40.177082" lon="-71.38599">
        <ele>703.5</ele>
        <time>2019-04-11T16:15:47.000Z</time>
      </trkpt>
      <trkpt lat="-40.177066" lon="-71.386043">
        <ele>703.6</ele>
        <time>2019-04-11T16:15:48.000Z</time>
      </trkpt>
      <trkpt lat="-40.177066" lon="-71.386102">
        <ele>703.8</ele>
        <time>2019-04-11T16:15:49.000Z</time>
      </trkpt>
      <trkpt lat="-40.177056" lon="-71.386156">
        <ele>703.9</ele>
        <time>2019-04-11T16:15:50.000Z</time>
      </trkpt>
      <trkpt lat="-40.17704" lon="-71.38621">
        <ele>704</ele>
        <time>2019-04-11T16:15:51.000Z</time>
      </trkpt>
      <trkpt lat="-40.177034" lon="-71.386263">
        <ele>704.2</ele>
        <time>2019-04-11T16:15:52.000Z</time>
      </trkpt>
      <trkpt lat="-40.177018" lon="-71.386322">
        <ele>704.4</ele>
        <time>2019-04-11T16:15:53.000Z</time>
      </trkpt>
      <trkpt lat="-40.176991" lon="-71.386355">
        <ele>704.5</ele>
        <time>2019-04-11T16:15:54.000Z</time>
      </trkpt>
      <trkpt lat="-40.17698" lon="-71.386397">
        <ele>704.6</ele>
        <time>2019-04-11T16:15:55.000Z</time>
      </trkpt>
      <trkpt lat="-40.17697" lon="-71.38644">
        <ele>704.6</ele>
        <time>2019-04-11T16:15:56.000Z</time>
      </trkpt>
      <trkpt lat="-40.176959" lon="-71.386483">
        <ele>704.7</ele>
        <time>2019-04-11T16:15:57.000Z</time>
      </trkpt>
      <trkpt lat="-40.176932" lon="-71.386526">
        <ele>704.8</ele>
        <time>2019-04-11T16:15:58.000Z</time>
      </trkpt>
      <trkpt lat="-40.176927" lon="-71.386584">
        <ele>704.9</ele>
        <time>2019-04-11T16:15:59.000Z</time>
      </trkpt>
      <trkpt lat="-40.176914" lon="-71.386632">
        <ele>705</ele>
        <time>2019-04-11T16:16:00.000Z</time>
      </trkpt>
      <trkpt lat="-40.176916" lon="-71.386697">
        <ele>705.1</ele>
        <time>2019-04-11T16:16:01.000Z</time>
      </trkpt>
      <trkpt lat="-40.176898" lon="-71.38674">
        <ele>705.2</ele>
        <time>2019-04-11T16:16:02.000Z</time>
      </trkpt>
      <trkpt lat="-40.176887" lon="-71.386792">
        <ele>705.3</ele>
        <time>2019-04-11T16:16:03.000Z</time>
      </trkpt>
      <trkpt lat="-40.176877" lon="-71.386837">
        <ele>705.4</ele>
        <time>2019-04-11T16:16:04.000Z</time>
      </trkpt>
      <trkpt lat="-40.176862" lon="-71.386894">
        <ele>705.5</ele>
        <time>2019-04-11T16:16:05.000Z</time>
      </trkpt>
      <trkpt lat="-40.176852" lon="-71.386952">
        <ele>705.6</ele>
        <time>2019-04-11T16:16:06.000Z</time>
      </trkpt>
      <trkpt lat="-40.176836" lon="-71.387002">
        <ele>705.6</ele>
        <time>2019-04-11T16:16:07.000Z</time>
      </trkpt>
      <trkpt lat="-40.176825" lon="-71.387052">
        <ele>705.7</ele>
        <time>2019-04-11T16:16:08.000Z</time>
      </trkpt>
      <trkpt lat="-40.176814" lon="-71.387106">
        <ele>705.8</ele>
        <time>2019-04-11T16:16:09.000Z</time>
      </trkpt>
      <trkpt lat="-40.176798" lon="-71.387159">
        <ele>705.9</ele>
        <time>2019-04-11T16:16:10.000Z</time>
      </trkpt>
      <trkpt lat="-40.176777" lon="-71.387191">
        <ele>705.9</ele>
        <time>2019-04-11T16:16:11.000Z</time>
      </trkpt>
      <trkpt lat="-40.176761" lon="-71.38724">
        <ele>706</ele>
        <time>2019-04-11T16:16:12.000Z</time>
      </trkpt>
      <trkpt lat="-40.176744" lon="-71.387293">
        <ele>706.1</ele>
        <time>2019-04-11T16:16:13.000Z</time>
      </trkpt>
      <trkpt lat="-40.176728" lon="-71.387342">
        <ele>706.2</ele>
        <time>2019-04-11T16:16:14.000Z</time>
      </trkpt>
      <trkpt lat="-40.176702" lon="-71.387379">
        <ele>706.2</ele>
        <time>2019-04-11T16:16:15.000Z</time>
      </trkpt>
      <trkpt lat="-40.176685" lon="-71.387427">
        <ele>706.3</ele>
        <time>2019-04-11T16:16:16.000Z</time>
      </trkpt>
      <trkpt lat="-40.176669" lon="-71.387481">
        <ele>706.5</ele>
        <time>2019-04-11T16:16:17.000Z</time>
      </trkpt>
      <trkpt lat="-40.176648" lon="-71.387524">
        <ele>706.6</ele>
        <time>2019-04-11T16:16:18.000Z</time>
      </trkpt>
      <trkpt lat="-40.176621" lon="-71.38754">
        <ele>706.6</ele>
        <time>2019-04-11T16:16:19.000Z</time>
      </trkpt>
      <trkpt lat="-40.17661" lon="-71.387604">
        <ele>706.7</ele>
        <time>2019-04-11T16:16:20.000Z</time>
      </trkpt>
      <trkpt lat="-40.176584" lon="-71.387647">
        <ele>706.8</ele>
        <time>2019-04-11T16:16:21.000Z</time>
      </trkpt>
      <trkpt lat="-40.176584" lon="-71.387706">
        <ele>706.9</ele>
        <time>2019-04-11T16:16:22.000Z</time>
      </trkpt>
      <trkpt lat="-40.176557" lon="-71.387755">
        <ele>707</ele>
        <time>2019-04-11T16:16:23.000Z</time>
      </trkpt>
      <trkpt lat="-40.176519" lon="-71.387808">
        <ele>707.2</ele>
        <time>2019-04-11T16:16:24.000Z</time>
      </trkpt>
      <trkpt lat="-40.176498" lon="-71.387851">
        <ele>707.3</ele>
        <time>2019-04-11T16:16:25.000Z</time>
      </trkpt>
      <trkpt lat="-40.176476" lon="-71.387905">
        <ele>707.4</ele>
        <time>2019-04-11T16:16:26.000Z</time>
      </trkpt>
      <trkpt lat="-40.176466" lon="-71.387959">
        <ele>707.5</ele>
        <time>2019-04-11T16:16:27.000Z</time>
      </trkpt>
      <trkpt lat="-40.176449" lon="-71.388018">
        <ele>707.6</ele>
        <time>2019-04-11T16:16:28.000Z</time>
      </trkpt>
      <trkpt lat="-40.176423" lon="-71.388077">
        <ele>707.8</ele>
        <time>2019-04-11T16:16:29.000Z</time>
      </trkpt>
      <trkpt lat="-40.176407" lon="-71.38813">
        <ele>707.9</ele>
        <time>2019-04-11T16:16:30.000Z</time>
      </trkpt>
      <trkpt lat="-40.176385" lon="-71.388178">
        <ele>708.1</ele>
        <time>2019-04-11T16:16:31.000Z</time>
      </trkpt>
      <trkpt lat="-40.176364" lon="-71.388227">
        <ele>708.3</ele>
        <time>2019-04-11T16:16:32.000Z</time>
      </trkpt>
      <trkpt lat="-40.176342" lon="-71.388275">
        <ele>708.5</ele>
        <time>2019-04-11T16:16:33.000Z</time>
      </trkpt>
      <trkpt lat="-40.176315" lon="-71.388329">
        <ele>708.7</ele>
        <time>2019-04-11T16:16:34.000Z</time>
      </trkpt>
      <trkpt lat="-40.176294" lon="-71.388377">
        <ele>708.8</ele>
        <time>2019-04-11T16:16:35.000Z</time>
      </trkpt>
      <trkpt lat="-40.176274" lon="-71.38843">
        <ele>709</ele>
        <time>2019-04-11T16:16:36.000Z</time>
      </trkpt>
      <trkpt lat="-40.176239" lon="-71.388449">
        <ele>709.2</ele>
        <time>2019-04-11T16:16:37.000Z</time>
      </trkpt>
      <trkpt lat="-40.176214" lon="-71.388497">
        <ele>709.4</ele>
        <time>2019-04-11T16:16:38.000Z</time>
      </trkpt>
      <trkpt lat="-40.176196" lon="-71.388553">
        <ele>709.6</ele>
        <time>2019-04-11T16:16:39.000Z</time>
      </trkpt>
      <trkpt lat="-40.176178" lon="-71.388605">
        <ele>709.7</ele>
        <time>2019-04-11T16:16:40.000Z</time>
      </trkpt>
      <trkpt lat="-40.176154" lon="-71.388657">
        <ele>709.9</ele>
        <time>2019-04-11T16:16:41.000Z</time>
      </trkpt>
      <trkpt lat="-40.176135" lon="-71.388711">
        <ele>710.1</ele>
        <time>2019-04-11T16:16:42.000Z</time>
      </trkpt>
      <trkpt lat="-40.176118" lon="-71.388767">
        <ele>710.3</ele>
        <time>2019-04-11T16:16:43.000Z</time>
      </trkpt>
      <trkpt lat="-40.176096" lon="-71.388811">
        <ele>710.4</ele>
        <time>2019-04-11T16:16:44.000Z</time>
      </trkpt>
      <trkpt lat="-40.176078" lon="-71.388852">
        <ele>710.5</ele>
        <time>2019-04-11T16:16:45.000Z</time>
      </trkpt>
      <trkpt lat="-40.176058" lon="-71.388892">
        <ele>710.7</ele>
        <time>2019-04-11T16:16:46.000Z</time>
      </trkpt>
      <trkpt lat="-40.17605" lon="-71.388943">
        <ele>710.8</ele>
        <time>2019-04-11T16:16:47.000Z</time>
      </trkpt>
      <trkpt lat="-40.176042" lon="-71.388986">
        <ele>710.9</ele>
        <time>2019-04-11T16:16:48.000Z</time>
      </trkpt>
      <trkpt lat="-40.176033" lon="-71.389033">
        <ele>711</ele>
        <time>2019-04-11T16:16:49.000Z</time>
      </trkpt>
      <trkpt lat="-40.176026" lon="-71.389083">
        <ele>711</ele>
        <time>2019-04-11T16:16:50.000Z</time>
      </trkpt>
      <trkpt lat="-40.175997" lon="-71.389131">
        <ele>711.2</ele>
        <time>2019-04-11T16:16:51.000Z</time>
      </trkpt>
      <trkpt lat="-40.175988" lon="-71.389182">
        <ele>711.2</ele>
        <time>2019-04-11T16:16:52.000Z</time>
      </trkpt>
      <trkpt lat="-40.175981" lon="-71.389232">
        <ele>711.3</ele>
        <time>2019-04-11T16:16:53.000Z</time>
      </trkpt>
      <trkpt lat="-40.175966" lon="-71.389271">
        <ele>711.4</ele>
        <time>2019-04-11T16:16:54.000Z</time>
      </trkpt>
      <trkpt lat="-40.175951" lon="-71.389323">
        <ele>711.4</ele>
        <time>2019-04-11T16:16:55.000Z</time>
      </trkpt>
      <trkpt lat="-40.175938" lon="-71.389356">
        <ele>711.5</ele>
        <time>2019-04-11T16:16:56.000Z</time>
      </trkpt>
      <trkpt lat="-40.175935" lon="-71.389412">
        <ele>711.6</ele>
        <time>2019-04-11T16:16:57.000Z</time>
      </trkpt>
      <trkpt lat="-40.175932" lon="-71.389453">
        <ele>711.6</ele>
        <time>2019-04-11T16:16:58.000Z</time>
      </trkpt>
      <trkpt lat="-40.175928" lon="-71.389493">
        <ele>711.7</ele>
        <time>2019-04-11T16:16:59.000Z</time>
      </trkpt>
      <trkpt lat="-40.175919" lon="-71.389544">
        <ele>711.7</ele>
        <time>2019-04-11T16:17:00.000Z</time>
      </trkpt>
      <trkpt lat="-40.175904" lon="-71.389605">
        <ele>711.7</ele>
        <time>2019-04-11T16:17:01.000Z</time>
      </trkpt>
      <trkpt lat="-40.175896" lon="-71.389664">
        <ele>711.7</ele>
        <time>2019-04-11T16:17:02.000Z</time>
      </trkpt>
      <trkpt lat="-40.175891" lon="-71.389717">
        <ele>711.7</ele>
        <time>2019-04-11T16:17:03.000Z</time>
      </trkpt>
      <trkpt lat="-40.175877" lon="-71.389767">
        <ele>711.7</ele>
        <time>2019-04-11T16:17:04.000Z</time>
      </trkpt>
      <trkpt lat="-40.175868" lon="-71.389825">
        <ele>711.7</ele>
        <time>2019-04-11T16:17:05.000Z</time>
      </trkpt>
      <trkpt lat="-40.175855" lon="-71.389868">
        <ele>711.7</ele>
        <time>2019-04-11T16:17:06.000Z</time>
      </trkpt>
      <trkpt lat="-40.175856" lon="-71.389938">
        <ele>711.7</ele>
        <time>2019-04-11T16:17:07.000Z</time>
      </trkpt>
      <trkpt lat="-40.175834" lon="-71.389976">
        <ele>711.7</ele>
        <time>2019-04-11T16:17:08.000Z</time>
      </trkpt>
      <trkpt lat="-40.175828" lon="-71.390022">
        <ele>711.6</ele>
        <time>2019-04-11T16:17:09.000Z</time>
      </trkpt>
      <trkpt lat="-40.175804" lon="-71.390087">
        <ele>711.6</ele>
        <time>2019-04-11T16:17:10.000Z</time>
      </trkpt>
      <trkpt lat="-40.175787" lon="-71.390134">
        <ele>711.6</ele>
        <time>2019-04-11T16:17:11.000Z</time>
      </trkpt>
      <trkpt lat="-40.175767" lon="-71.390176">
        <ele>711.5</ele>
        <time>2019-04-11T16:17:12.000Z</time>
      </trkpt>
      <trkpt lat="-40.175757" lon="-71.39023">
        <ele>711.5</ele>
        <time>2019-04-11T16:17:13.000Z</time>
      </trkpt>
      <trkpt lat="-40.175736" lon="-71.390278">
        <ele>711.4</ele>
        <time>2019-04-11T16:17:14.000Z</time>
      </trkpt>
      <trkpt lat="-40.175717" lon="-71.390333">
        <ele>711.3</ele>
        <time>2019-04-11T16:17:15.000Z</time>
      </trkpt>
      <trkpt lat="-40.175693" lon="-71.390398">
        <ele>711.2</ele>
        <time>2019-04-11T16:17:16.000Z</time>
      </trkpt>
      <trkpt lat="-40.175651" lon="-71.390446">
        <ele>711.1</ele>
        <time>2019-04-11T16:17:17.000Z</time>
      </trkpt>
      <trkpt lat="-40.175622" lon="-71.390501">
        <ele>711</ele>
        <time>2019-04-11T16:17:18.000Z</time>
      </trkpt>
      <trkpt lat="-40.17559" lon="-71.390544">
        <ele>710.9</ele>
        <time>2019-04-11T16:17:19.000Z</time>
      </trkpt>
      <trkpt lat="-40.175569" lon="-71.39061">
        <ele>710.8</ele>
        <time>2019-04-11T16:17:20.000Z</time>
      </trkpt>
      <trkpt lat="-40.175526" lon="-71.390662">
        <ele>710.7</ele>
        <time>2019-04-11T16:17:21.000Z</time>
      </trkpt>
      <trkpt lat="-40.175485" lon="-71.390715">
        <ele>710.6</ele>
        <time>2019-04-11T16:17:22.000Z</time>
      </trkpt>
      <trkpt lat="-40.175445" lon="-71.39077">
        <ele>710.5</ele>
        <time>2019-04-11T16:17:23.000Z</time>
      </trkpt>
      <trkpt lat="-40.175407" lon="-71.390834">
        <ele>710.4</ele>
        <time>2019-04-11T16:17:24.000Z</time>
      </trkpt>
      <trkpt lat="-40.175375" lon="-71.390905">
        <ele>710.3</ele>
        <time>2019-04-11T16:17:25.000Z</time>
      </trkpt>
      <trkpt lat="-40.175327" lon="-71.390965">
        <ele>710.3</ele>
        <time>2019-04-11T16:17:26.000Z</time>
      </trkpt>
      <trkpt lat="-40.175286" lon="-71.391029">
        <ele>710.3</ele>
        <time>2019-04-11T16:17:27.000Z</time>
      </trkpt>
      <trkpt lat="-40.175234" lon="-71.391112">
        <ele>710.3</ele>
        <time>2019-04-11T16:17:28.000Z</time>
      </trkpt>
      <trkpt lat="-40.175185" lon="-71.391174">
        <ele>710.3</ele>
        <time>2019-04-11T16:17:29.000Z</time>
      </trkpt>
      <trkpt lat="-40.175135" lon="-71.391259">
        <ele>710.3</ele>
        <time>2019-04-11T16:17:30.000Z</time>
      </trkpt>
      <trkpt lat="-40.175078" lon="-71.391334">
        <ele>710.4</ele>
        <time>2019-04-11T16:17:31.000Z</time>
      </trkpt>
      <trkpt lat="-40.175034" lon="-71.391411">
        <ele>710.4</ele>
        <time>2019-04-11T16:17:32.000Z</time>
      </trkpt>
      <trkpt lat="-40.174978" lon="-71.3915">
        <ele>710.6</ele>
        <time>2019-04-11T16:17:33.000Z</time>
      </trkpt>
      <trkpt lat="-40.17493" lon="-71.391602">
        <ele>710.9</ele>
        <time>2019-04-11T16:17:34.000Z</time>
      </trkpt>
      <trkpt lat="-40.174871" lon="-71.3917">
        <ele>711.1</ele>
        <time>2019-04-11T16:17:35.000Z</time>
      </trkpt>
      <trkpt lat="-40.174839" lon="-71.391796">
        <ele>711.4</ele>
        <time>2019-04-11T16:17:36.000Z</time>
      </trkpt>
      <trkpt lat="-40.174818" lon="-71.391909">
        <ele>711.8</ele>
        <time>2019-04-11T16:17:37.000Z</time>
      </trkpt>
      <trkpt lat="-40.174775" lon="-71.392">
        <ele>712.2</ele>
        <time>2019-04-11T16:17:38.000Z</time>
      </trkpt>
      <trkpt lat="-40.174754" lon="-71.392127">
        <ele>712.7</ele>
        <time>2019-04-11T16:17:39.000Z</time>
      </trkpt>
      <trkpt lat="-40.174727" lon="-71.392239">
        <ele>713.2</ele>
        <time>2019-04-11T16:17:40.000Z</time>
      </trkpt>
      <trkpt lat="-40.174701" lon="-71.392347">
        <ele>713.7</ele>
        <time>2019-04-11T16:17:41.000Z</time>
      </trkpt>
      <trkpt lat="-40.174679" lon="-71.392459">
        <ele>714.2</ele>
        <time>2019-04-11T16:17:42.000Z</time>
      </trkpt>
      <trkpt lat="-40.174647" lon="-71.392567">
        <ele>714.7</ele>
        <time>2019-04-11T16:17:43.000Z</time>
      </trkpt>
      <trkpt lat="-40.174615" lon="-71.392652">
        <ele>715.1</ele>
        <time>2019-04-11T16:17:44.000Z</time>
      </trkpt>
      <trkpt lat="-40.174604" lon="-71.392776">
        <ele>715.8</ele>
        <time>2019-04-11T16:17:45.000Z</time>
      </trkpt>
      <trkpt lat="-40.174583" lon="-71.392867">
        <ele>716.2</ele>
        <time>2019-04-11T16:17:46.000Z</time>
      </trkpt>
      <trkpt lat="-40.174567" lon="-71.392974">
        <ele>716.8</ele>
        <time>2019-04-11T16:17:47.000Z</time>
      </trkpt>
      <trkpt lat="-40.174567" lon="-71.393082">
        <ele>717.3</ele>
        <time>2019-04-11T16:17:48.000Z</time>
      </trkpt>
      <trkpt lat="-40.174556" lon="-71.393167">
        <ele>717.7</ele>
        <time>2019-04-11T16:17:49.000Z</time>
      </trkpt>
      <trkpt lat="-40.174556" lon="-71.393264">
        <ele>718.2</ele>
        <time>2019-04-11T16:17:50.000Z</time>
      </trkpt>
      <trkpt lat="-40.174545" lon="-71.393334">
        <ele>718.5</ele>
        <time>2019-04-11T16:17:51.000Z</time>
      </trkpt>
      <trkpt lat="-40.174534" lon="-71.393403">
        <ele>718.9</ele>
        <time>2019-04-11T16:17:52.000Z</time>
      </trkpt>
      <trkpt lat="-40.174529" lon="-71.393489">
        <ele>719.3</ele>
        <time>2019-04-11T16:17:53.000Z</time>
      </trkpt>
      <trkpt lat="-40.174518" lon="-71.393564">
        <ele>719.6</ele>
        <time>2019-04-11T16:17:54.000Z</time>
      </trkpt>
      <trkpt lat="-40.174512" lon="-71.393611">
        <ele>719.8</ele>
        <time>2019-04-11T16:17:55.000Z</time>
      </trkpt>
      <trkpt lat="-40.17452" lon="-71.393665">
        <ele>720.1</ele>
        <time>2019-04-11T16:17:56.000Z</time>
      </trkpt>
      <trkpt lat="-40.174517" lon="-71.393723">
        <ele>720.3</ele>
        <time>2019-04-11T16:17:57.000Z</time>
      </trkpt>
      <trkpt lat="-40.174516" lon="-71.39377">
        <ele>720.5</ele>
        <time>2019-04-11T16:17:58.000Z</time>
      </trkpt>
      <trkpt lat="-40.174517" lon="-71.393823">
        <ele>720.7</ele>
        <time>2019-04-11T16:17:59.000Z</time>
      </trkpt>
      <trkpt lat="-40.174514" lon="-71.393871">
        <ele>721</ele>
        <time>2019-04-11T16:18:00.000Z</time>
      </trkpt>
      <trkpt lat="-40.174515" lon="-71.393921">
        <ele>721.2</ele>
        <time>2019-04-11T16:18:01.000Z</time>
      </trkpt>
      <trkpt lat="-40.17452" lon="-71.394007">
        <ele>721.6</ele>
        <time>2019-04-11T16:18:03.000Z</time>
      </trkpt>
      <trkpt lat="-40.174523" lon="-71.394054">
        <ele>721.8</ele>
        <time>2019-04-11T16:18:04.000Z</time>
      </trkpt>
      <trkpt lat="-40.174527" lon="-71.394099">
        <ele>722</ele>
        <time>2019-04-11T16:18:05.000Z</time>
      </trkpt>
      <trkpt lat="-40.174539" lon="-71.39414">
        <ele>722.2</ele>
        <time>2019-04-11T16:18:06.000Z</time>
      </trkpt>
      <trkpt lat="-40.174547" lon="-71.394182">
        <ele>722.4</ele>
        <time>2019-04-11T16:18:07.000Z</time>
      </trkpt>
      <trkpt lat="-40.174546" lon="-71.394229">
        <ele>722.6</ele>
        <time>2019-04-11T16:18:08.000Z</time>
      </trkpt>
      <trkpt lat="-40.17456" lon="-71.394266">
        <ele>722.8</ele>
        <time>2019-04-11T16:18:09.000Z</time>
      </trkpt>
      <trkpt lat="-40.174574" lon="-71.394306">
        <ele>723.1</ele>
        <time>2019-04-11T16:18:10.000Z</time>
      </trkpt>
      <trkpt lat="-40.174588" lon="-71.394353">
        <ele>723.3</ele>
        <time>2019-04-11T16:18:11.000Z</time>
      </trkpt>
      <trkpt lat="-40.174609" lon="-71.39439">
        <ele>723.5</ele>
        <time>2019-04-11T16:18:12.000Z</time>
      </trkpt>
      <trkpt lat="-40.17462" lon="-71.394428">
        <ele>723.7</ele>
        <time>2019-04-11T16:18:13.000Z</time>
      </trkpt>
      <trkpt lat="-40.174642" lon="-71.394466">
        <ele>724</ele>
        <time>2019-04-11T16:18:14.000Z</time>
      </trkpt>
      <trkpt lat="-40.174674" lon="-71.39453">
        <ele>724.4</ele>
        <time>2019-04-11T16:18:16.000Z</time>
      </trkpt>
      <trkpt lat="-40.17469" lon="-71.394567">
        <ele>724.6</ele>
        <time>2019-04-11T16:18:17.000Z</time>
      </trkpt>
      <trkpt lat="-40.174706" lon="-71.394605">
        <ele>724.9</ele>
        <time>2019-04-11T16:18:18.000Z</time>
      </trkpt>
      <trkpt lat="-40.174733" lon="-71.394637">
        <ele>725.1</ele>
        <time>2019-04-11T16:18:19.000Z</time>
      </trkpt>
      <trkpt lat="-40.174754" lon="-71.394669">
        <ele>725.3</ele>
        <time>2019-04-11T16:18:20.000Z</time>
      </trkpt>
      <trkpt lat="-40.174776" lon="-71.394702">
        <ele>725.6</ele>
        <time>2019-04-11T16:18:21.000Z</time>
      </trkpt>
      <trkpt lat="-40.174819" lon="-71.394761">
        <ele>726</ele>
        <time>2019-04-11T16:18:23.000Z</time>
      </trkpt>
      <trkpt lat="-40.174829" lon="-71.394798">
        <ele>726.2</ele>
        <time>2019-04-11T16:18:24.000Z</time>
      </trkpt>
      <trkpt lat="-40.174856" lon="-71.39483">
        <ele>726.4</ele>
        <time>2019-04-11T16:18:25.000Z</time>
      </trkpt>
      <trkpt lat="-40.174883" lon="-71.394863">
        <ele>726.7</ele>
        <time>2019-04-11T16:18:26.000Z</time>
      </trkpt>
      <trkpt lat="-40.174904" lon="-71.394889">
        <ele>726.9</ele>
        <time>2019-04-11T16:18:27.000Z</time>
      </trkpt>
      <trkpt lat="-40.174931" lon="-71.394922">
        <ele>727.2</ele>
        <time>2019-04-11T16:18:28.000Z</time>
      </trkpt>
      <trkpt lat="-40.174958" lon="-71.394943">
        <ele>727.4</ele>
        <time>2019-04-11T16:18:29.000Z</time>
      </trkpt>
      <trkpt lat="-40.174985" lon="-71.39497">
        <ele>727.6</ele>
        <time>2019-04-11T16:18:30.000Z</time>
      </trkpt>
      <trkpt lat="-40.175006" lon="-71.394997">
        <ele>727.8</ele>
        <time>2019-04-11T16:18:31.000Z</time>
      </trkpt>
      <trkpt lat="-40.175033" lon="-71.395015">
        <ele>728</ele>
        <time>2019-04-11T16:18:32.000Z</time>
      </trkpt>
      <trkpt lat="-40.175081" lon="-71.39506">
        <ele>728.4</ele>
        <time>2019-04-11T16:18:34.000Z</time>
      </trkpt>
      <trkpt lat="-40.175106" lon="-71.395085">
        <ele>728.6</ele>
        <time>2019-04-11T16:18:35.000Z</time>
      </trkpt>
      <trkpt lat="-40.175135" lon="-71.395105">
        <ele>728.9</ele>
        <time>2019-04-11T16:18:36.000Z</time>
      </trkpt>
      <trkpt lat="-40.175161" lon="-71.395124">
        <ele>729.1</ele>
        <time>2019-04-11T16:18:37.000Z</time>
      </trkpt>
      <trkpt lat="-40.175187" lon="-71.395146">
        <ele>729.3</ele>
        <time>2019-04-11T16:18:38.000Z</time>
      </trkpt>
      <trkpt lat="-40.175213" lon="-71.395164">
        <ele>729.5</ele>
        <time>2019-04-11T16:18:39.000Z</time>
      </trkpt>
      <trkpt lat="-40.175247" lon="-71.3952">
        <ele>729.8</ele>
        <time>2019-04-11T16:18:40.000Z</time>
      </trkpt>
      <trkpt lat="-40.175277" lon="-71.395226">
        <ele>730</ele>
        <time>2019-04-11T16:18:41.000Z</time>
      </trkpt>
      <trkpt lat="-40.175311" lon="-71.395222">
        <ele>730</ele>
        <time>2019-04-11T16:18:42.000Z</time>
      </trkpt>
      <trkpt lat="-40.175339" lon="-71.395239">
        <ele>730</ele>
        <time>2019-04-11T16:18:43.000Z</time>
      </trkpt>
      <trkpt lat="-40.175397" lon="-71.395254">
        <ele>730</ele>
        <time>2019-04-11T16:18:45.000Z</time>
      </trkpt>
      <trkpt lat="-40.175429" lon="-71.395269">
        <ele>730</ele>
        <time>2019-04-11T16:18:46.000Z</time>
      </trkpt>
      <trkpt lat="-40.175473" lon="-71.395308">
        <ele>730</ele>
        <time>2019-04-11T16:18:48.000Z</time>
      </trkpt>
      <trkpt lat="-40.175495" lon="-71.395335">
        <ele>730</ele>
        <time>2019-04-11T16:18:49.000Z</time>
      </trkpt>
      <trkpt lat="-40.175548" lon="-71.395367">
        <ele>730</ele>
        <time>2019-04-11T16:18:51.000Z</time>
      </trkpt>
      <trkpt lat="-40.175591" lon="-71.395388">
        <ele>730</ele>
        <time>2019-04-11T16:18:53.000Z</time>
      </trkpt>
      <trkpt lat="-40.175629" lon="-71.39541">
        <ele>730</ele>
        <time>2019-04-11T16:18:54.000Z</time>
      </trkpt>
      <trkpt lat="-40.175661" lon="-71.39541">
        <ele>730</ele>
        <time>2019-04-11T16:18:55.000Z</time>
      </trkpt>
      <trkpt lat="-40.175688" lon="-71.395415">
        <ele>730</ele>
        <time>2019-04-11T16:18:56.000Z</time>
      </trkpt>
      <trkpt lat="-40.175714" lon="-71.395442">
        <ele>730</ele>
        <time>2019-04-11T16:18:57.000Z</time>
      </trkpt>
      <trkpt lat="-40.175736" lon="-71.395463">
        <ele>730</ele>
        <time>2019-04-11T16:18:58.000Z</time>
      </trkpt>
      <trkpt lat="-40.17579" lon="-71.395501">
        <ele>730</ele>
        <time>2019-04-11T16:19:00.000Z</time>
      </trkpt>
      <trkpt lat="-40.175833" lon="-71.395528">
        <ele>730.1</ele>
        <time>2019-04-11T16:19:02.000Z</time>
      </trkpt>
      <trkpt lat="-40.175865" lon="-71.395549">
        <ele>730.2</ele>
        <time>2019-04-11T16:19:03.000Z</time>
      </trkpt>
      <trkpt lat="-40.175892" lon="-71.395565">
        <ele>730.3</ele>
        <time>2019-04-11T16:19:04.000Z</time>
      </trkpt>
      <trkpt lat="-40.175924" lon="-71.395587">
        <ele>730.5</ele>
        <time>2019-04-11T16:19:05.000Z</time>
      </trkpt>
      <trkpt lat="-40.175956" lon="-71.395608">
        <ele>730.7</ele>
        <time>2019-04-11T16:19:06.000Z</time>
      </trkpt>
      <trkpt lat="-40.17601" lon="-71.395646">
        <ele>730.9</ele>
        <time>2019-04-11T16:19:08.000Z</time>
      </trkpt>
      <trkpt lat="-40.176042" lon="-71.395662">
        <ele>731.1</ele>
        <time>2019-04-11T16:19:09.000Z</time>
      </trkpt>
      <trkpt lat="-40.176074" lon="-71.395662">
        <ele>731.2</ele>
        <time>2019-04-11T16:19:10.000Z</time>
      </trkpt>
      <trkpt lat="-40.176101" lon="-71.395689">
        <ele>731.4</ele>
        <time>2019-04-11T16:19:11.000Z</time>
      </trkpt>
      <trkpt lat="-40.176133" lon="-71.39571">
        <ele>731.5</ele>
        <time>2019-04-11T16:19:12.000Z</time>
      </trkpt>
      <trkpt lat="-40.176181" lon="-71.395742">
        <ele>731.7</ele>
        <time>2019-04-11T16:19:14.000Z</time>
      </trkpt>
      <trkpt lat="-40.176213" lon="-71.395769">
        <ele>731.9</ele>
        <time>2019-04-11T16:19:15.000Z</time>
      </trkpt>
      <trkpt lat="-40.176246" lon="-71.395785">
        <ele>732</ele>
        <time>2019-04-11T16:19:16.000Z</time>
      </trkpt>
      <trkpt lat="-40.176278" lon="-71.395801">
        <ele>732.2</ele>
        <time>2019-04-11T16:19:17.000Z</time>
      </trkpt>
      <trkpt lat="-40.17631" lon="-71.395823">
        <ele>732.3</ele>
        <time>2019-04-11T16:19:18.000Z</time>
      </trkpt>
      <trkpt lat="-40.176358" lon="-71.39585">
        <ele>732.5</ele>
        <time>2019-04-11T16:19:20.000Z</time>
      </trkpt>
      <trkpt lat="-40.17639" lon="-71.395866">
        <ele>732.6</ele>
        <time>2019-04-11T16:19:21.000Z</time>
      </trkpt>
      <trkpt lat="-40.176444" lon="-71.395887">
        <ele>732.8</ele>
        <time>2019-04-11T16:19:23.000Z</time>
      </trkpt>
      <trkpt lat="-40.176482" lon="-71.395898">
        <ele>733</ele>
        <time>2019-04-11T16:19:24.000Z</time>
      </trkpt>
      <trkpt lat="-40.176514" lon="-71.395909">
        <ele>733.1</ele>
        <time>2019-04-11T16:19:25.000Z</time>
      </trkpt>
      <trkpt lat="-40.176551" lon="-71.395919">
        <ele>733.2</ele>
        <time>2019-04-11T16:19:26.000Z</time>
      </trkpt>
      <trkpt lat="-40.176578" lon="-71.395925">
        <ele>733.3</ele>
        <time>2019-04-11T16:19:27.000Z</time>
      </trkpt>
      <trkpt lat="-40.176605" lon="-71.39593">
        <ele>733.4</ele>
        <time>2019-04-11T16:19:28.000Z</time>
      </trkpt>
      <trkpt lat="-40.176637" lon="-71.395935">
        <ele>733.5</ele>
        <time>2019-04-11T16:19:29.000Z</time>
      </trkpt>
      <trkpt lat="-40.17668" lon="-71.39593">
        <ele>733.7</ele>
        <time>2019-04-11T16:19:31.000Z</time>
      </trkpt>
      <trkpt lat="-40.176712" lon="-71.395925">
        <ele>733.8</ele>
        <time>2019-04-11T16:19:32.000Z</time>
      </trkpt>
      <trkpt lat="-40.176744" lon="-71.395925">
        <ele>733.9</ele>
        <time>2019-04-11T16:19:33.000Z</time>
      </trkpt>
      <trkpt lat="-40.176777" lon="-71.39593">
        <ele>734</ele>
        <time>2019-04-11T16:19:34.000Z</time>
      </trkpt>
      <trkpt lat="-40.176803" lon="-71.395919">
        <ele>734.1</ele>
        <time>2019-04-11T16:19:35.000Z</time>
      </trkpt>
      <trkpt lat="-40.17683" lon="-71.395925">
        <ele>734.2</ele>
        <time>2019-04-11T16:19:36.000Z</time>
      </trkpt>
      <trkpt lat="-40.176889" lon="-71.395914">
        <ele>734.5</ele>
        <time>2019-04-11T16:19:38.000Z</time>
      </trkpt>
      <trkpt lat="-40.176927" lon="-71.395914">
        <ele>734.6</ele>
        <time>2019-04-11T16:19:39.000Z</time>
      </trkpt>
      <trkpt lat="-40.176959" lon="-71.395919">
        <ele>734.7</ele>
        <time>2019-04-11T16:19:40.000Z</time>
      </trkpt>
      <trkpt lat="-40.176997" lon="-71.395909">
        <ele>734.9</ele>
        <time>2019-04-11T16:19:41.000Z</time>
      </trkpt>
      <trkpt lat="-40.177034" lon="-71.395909">
        <ele>735.1</ele>
        <time>2019-04-11T16:19:42.000Z</time>
      </trkpt>
      <trkpt lat="-40.177066" lon="-71.395903">
        <ele>735.2</ele>
        <time>2019-04-11T16:19:43.000Z</time>
      </trkpt>
      <trkpt lat="-40.177085" lon="-71.39587">
        <ele>735.3</ele>
        <time>2019-04-11T16:19:44.000Z</time>
      </trkpt>
      <trkpt lat="-40.177117" lon="-71.39587">
        <ele>735.5</ele>
        <time>2019-04-11T16:19:45.000Z</time>
      </trkpt>
      <trkpt lat="-40.177153" lon="-71.395867">
        <ele>735.6</ele>
        <time>2019-04-11T16:19:46.000Z</time>
      </trkpt>
      <trkpt lat="-40.177184" lon="-71.395855">
        <ele>735.8</ele>
        <time>2019-04-11T16:19:47.000Z</time>
      </trkpt>
      <trkpt lat="-40.177212" lon="-71.395845">
        <ele>735.9</ele>
        <time>2019-04-11T16:19:48.000Z</time>
      </trkpt>
      <trkpt lat="-40.177246" lon="-71.395843">
        <ele>736.1</ele>
        <time>2019-04-11T16:19:49.000Z</time>
      </trkpt>
      <trkpt lat="-40.177283" lon="-71.395841">
        <ele>736.2</ele>
        <time>2019-04-11T16:19:50.000Z</time>
      </trkpt>
      <trkpt lat="-40.177318" lon="-71.395839">
        <ele>736.4</ele>
        <time>2019-04-11T16:19:51.000Z</time>
      </trkpt>
      <trkpt lat="-40.177351" lon="-71.395833">
        <ele>736.5</ele>
        <time>2019-04-11T16:19:52.000Z</time>
      </trkpt>
      <trkpt lat="-40.177383" lon="-71.395828">
        <ele>736.7</ele>
        <time>2019-04-11T16:19:53.000Z</time>
      </trkpt>
      <trkpt lat="-40.177436" lon="-71.395812">
        <ele>736.9</ele>
        <time>2019-04-11T16:19:55.000Z</time>
      </trkpt>
      <trkpt lat="-40.177479" lon="-71.395812">
        <ele>737</ele>
        <time>2019-04-11T16:19:56.000Z</time>
      </trkpt>
      <trkpt lat="-40.177517" lon="-71.395812">
        <ele>737.2</ele>
        <time>2019-04-11T16:19:57.000Z</time>
      </trkpt>
      <trkpt lat="-40.177538" lon="-71.395791">
        <ele>737.3</ele>
        <time>2019-04-11T16:19:58.000Z</time>
      </trkpt>
      <trkpt lat="-40.177587" lon="-71.39578">
        <ele>737.5</ele>
        <time>2019-04-11T16:20:00.000Z</time>
      </trkpt>
      <trkpt lat="-40.177613" lon="-71.395769">
        <ele>737.6</ele>
        <time>2019-04-11T16:20:01.000Z</time>
      </trkpt>
      <trkpt lat="-40.177646" lon="-71.395764">
        <ele>737.7</ele>
        <time>2019-04-11T16:20:02.000Z</time>
      </trkpt>
      <trkpt lat="-40.177683" lon="-71.395753">
        <ele>737.8</ele>
        <time>2019-04-11T16:20:03.000Z</time>
      </trkpt>
      <trkpt lat="-40.177715" lon="-71.395758">
        <ele>737.9</ele>
        <time>2019-04-11T16:20:04.000Z</time>
      </trkpt>
      <trkpt lat="-40.177748" lon="-71.395758">
        <ele>738.1</ele>
        <time>2019-04-11T16:20:05.000Z</time>
      </trkpt>
      <trkpt lat="-40.177796" lon="-71.395748">
        <ele>738.2</ele>
        <time>2019-04-11T16:20:07.000Z</time>
      </trkpt>
      <trkpt lat="-40.177828" lon="-71.395742">
        <ele>738.3</ele>
        <time>2019-04-11T16:20:08.000Z</time>
      </trkpt>
      <trkpt lat="-40.177855" lon="-71.395726">
        <ele>738.4</ele>
        <time>2019-04-11T16:20:09.000Z</time>
      </trkpt>
      <trkpt lat="-40.177909" lon="-71.395715">
        <ele>738.6</ele>
        <time>2019-04-11T16:20:11.000Z</time>
      </trkpt>
      <trkpt lat="-40.177935" lon="-71.395705">
        <ele>738.7</ele>
        <time>2019-04-11T16:20:12.000Z</time>
      </trkpt>
      <trkpt lat="-40.177962" lon="-71.395689">
        <ele>738.8</ele>
        <time>2019-04-11T16:20:13.000Z</time>
      </trkpt>
      <trkpt lat="-40.177994" lon="-71.395683">
        <ele>738.9</ele>
        <time>2019-04-11T16:20:14.000Z</time>
      </trkpt>
      <trkpt lat="-40.178053" lon="-71.395689">
        <ele>739.1</ele>
        <time>2019-04-11T16:20:16.000Z</time>
      </trkpt>
      <trkpt lat="-40.17808" lon="-71.395678">
        <ele>739.2</ele>
        <time>2019-04-11T16:20:17.000Z</time>
      </trkpt>
      <trkpt lat="-40.178112" lon="-71.395683">
        <ele>739.3</ele>
        <time>2019-04-11T16:20:18.000Z</time>
      </trkpt>
      <trkpt lat="-40.178145" lon="-71.395662">
        <ele>739.4</ele>
        <time>2019-04-11T16:20:19.000Z</time>
      </trkpt>
      <trkpt lat="-40.178177" lon="-71.395662">
        <ele>739.5</ele>
        <time>2019-04-11T16:20:20.000Z</time>
      </trkpt>
      <trkpt lat="-40.178204" lon="-71.395635">
        <ele>739.6</ele>
        <time>2019-04-11T16:20:21.000Z</time>
      </trkpt>
      <trkpt lat="-40.178252" lon="-71.395656">
        <ele>739.8</ele>
        <time>2019-04-11T16:20:22.000Z</time>
      </trkpt>
      <trkpt lat="-40.1783" lon="-71.395635">
        <ele>740</ele>
        <time>2019-04-11T16:20:24.000Z</time>
      </trkpt>
      <trkpt lat="-40.178343" lon="-71.395667">
        <ele>740.1</ele>
        <time>2019-04-11T16:20:25.000Z</time>
      </trkpt>
      <trkpt lat="-40.178386" lon="-71.395662">
        <ele>740.3</ele>
        <time>2019-04-11T16:20:26.000Z</time>
      </trkpt>
      <trkpt lat="-40.178424" lon="-71.395683">
        <ele>740.4</ele>
        <time>2019-04-11T16:20:27.000Z</time>
      </trkpt>
      <trkpt lat="-40.178461" lon="-71.395689">
        <ele>740.6</ele>
        <time>2019-04-11T16:20:28.000Z</time>
      </trkpt>
      <trkpt lat="-40.178493" lon="-71.395699">
        <ele>740.6</ele>
        <time>2019-04-11T16:20:29.000Z</time>
      </trkpt>
      <trkpt lat="-40.178558" lon="-71.395694">
        <ele>740.8</ele>
        <time>2019-04-11T16:20:31.000Z</time>
      </trkpt>
      <trkpt lat="-40.178601" lon="-71.395678">
        <ele>741</ele>
        <time>2019-04-11T16:20:33.000Z</time>
      </trkpt>
      <trkpt lat="-40.178643" lon="-71.395699">
        <ele>741.2</ele>
        <time>2019-04-11T16:20:34.000Z</time>
      </trkpt>
      <trkpt lat="-40.178681" lon="-71.395683">
        <ele>741.3</ele>
        <time>2019-04-11T16:20:36.000Z</time>
      </trkpt>
      <trkpt lat="-40.178729" lon="-71.395699">
        <ele>741.4</ele>
        <time>2019-04-11T16:20:37.000Z</time>
      </trkpt>
      <trkpt lat="-40.178767" lon="-71.395689">
        <ele>741.5</ele>
        <time>2019-04-11T16:20:38.000Z</time>
      </trkpt>
      <trkpt lat="-40.178799" lon="-71.395705">
        <ele>741.6</ele>
        <time>2019-04-11T16:20:39.000Z</time>
      </trkpt>
      <trkpt lat="-40.178842" lon="-71.395715">
        <ele>741.7</ele>
        <time>2019-04-11T16:20:40.000Z</time>
      </trkpt>
      <trkpt lat="-40.178869" lon="-71.395721">
        <ele>741.8</ele>
        <time>2019-04-11T16:20:41.000Z</time>
      </trkpt>
      <trkpt lat="-40.178906" lon="-71.395737">
        <ele>741.9</ele>
        <time>2019-04-11T16:20:42.000Z</time>
      </trkpt>
      <trkpt lat="-40.178939" lon="-71.395737">
        <ele>742</ele>
        <time>2019-04-11T16:20:43.000Z</time>
      </trkpt>
      <trkpt lat="-40.178971" lon="-71.395721">
        <ele>742.1</ele>
        <time>2019-04-11T16:20:44.000Z</time>
      </trkpt>
      <trkpt lat="-40.179003" lon="-71.395721">
        <ele>742.2</ele>
        <time>2019-04-11T16:20:45.000Z</time>
      </trkpt>
      <trkpt lat="-40.179051" lon="-71.395742">
        <ele>742.3</ele>
        <time>2019-04-11T16:20:46.000Z</time>
      </trkpt>
      <trkpt lat="-40.17911" lon="-71.395758">
        <ele>742.4</ele>
        <time>2019-04-11T16:20:48.000Z</time>
      </trkpt>
      <trkpt lat="-40.179148" lon="-71.395753">
        <ele>742.5</ele>
        <time>2019-04-11T16:20:49.000Z</time>
      </trkpt>
      <trkpt lat="-40.179169" lon="-71.395732">
        <ele>742.6</ele>
        <time>2019-04-11T16:20:50.000Z</time>
      </trkpt>
      <trkpt lat="-40.179207" lon="-71.395742">
        <ele>742.7</ele>
        <time>2019-04-11T16:20:51.000Z</time>
      </trkpt>
      <trkpt lat="-40.179239" lon="-71.395748">
        <ele>742.8</ele>
        <time>2019-04-11T16:20:52.000Z</time>
      </trkpt>
      <trkpt lat="-40.179276" lon="-71.395737">
        <ele>743</ele>
        <time>2019-04-11T16:20:53.000Z</time>
      </trkpt>
      <trkpt lat="-40.179309" lon="-71.395721">
        <ele>743.1</ele>
        <time>2019-04-11T16:20:54.000Z</time>
      </trkpt>
      <trkpt lat="-40.179341" lon="-71.395726">
        <ele>743.2</ele>
        <time>2019-04-11T16:20:55.000Z</time>
      </trkpt>
      <trkpt lat="-40.179378" lon="-71.395715">
        <ele>743.3</ele>
        <time>2019-04-11T16:20:56.000Z</time>
      </trkpt>
      <trkpt lat="-40.179411" lon="-71.395689">
        <ele>743.4</ele>
        <time>2019-04-11T16:20:57.000Z</time>
      </trkpt>
      <trkpt lat="-40.179448" lon="-71.395694">
        <ele>743.5</ele>
        <time>2019-04-11T16:20:58.000Z</time>
      </trkpt>
      <trkpt lat="-40.179475" lon="-71.395673">
        <ele>743.6</ele>
        <time>2019-04-11T16:20:59.000Z</time>
      </trkpt>
      <trkpt lat="-40.179513" lon="-71.395667">
        <ele>743.8</ele>
        <time>2019-04-11T16:21:00.000Z</time>
      </trkpt>
      <trkpt lat="-40.17955" lon="-71.395656">
        <ele>743.9</ele>
        <time>2019-04-11T16:21:01.000Z</time>
      </trkpt>
      <trkpt lat="-40.179577" lon="-71.39564">
        <ele>744</ele>
        <time>2019-04-11T16:21:02.000Z</time>
      </trkpt>
      <trkpt lat="-40.179604" lon="-71.395608">
        <ele>744.1</ele>
        <time>2019-04-11T16:21:03.000Z</time>
      </trkpt>
      <trkpt lat="-40.179647" lon="-71.395603">
        <ele>744.3</ele>
        <time>2019-04-11T16:21:04.000Z</time>
      </trkpt>
      <trkpt lat="-40.179673" lon="-71.395565">
        <ele>744.4</ele>
        <time>2019-04-11T16:21:05.000Z</time>
      </trkpt>
      <trkpt lat="-40.1797" lon="-71.395538">
        <ele>744.5</ele>
        <time>2019-04-11T16:21:06.000Z</time>
      </trkpt>
      <trkpt lat="-40.179732" lon="-71.395522">
        <ele>744.7</ele>
        <time>2019-04-11T16:21:07.000Z</time>
      </trkpt>
      <trkpt lat="-40.179765" lon="-71.395496">
        <ele>744.8</ele>
        <time>2019-04-11T16:21:08.000Z</time>
      </trkpt>
      <trkpt lat="-40.179802" lon="-71.395469">
        <ele>744.9</ele>
        <time>2019-04-11T16:21:09.000Z</time>
      </trkpt>
      <trkpt lat="-40.179834" lon="-71.395447">
        <ele>745</ele>
        <time>2019-04-11T16:21:10.000Z</time>
      </trkpt>
      <trkpt lat="-40.179867" lon="-71.39542">
        <ele>745.1</ele>
        <time>2019-04-11T16:21:11.000Z</time>
      </trkpt>
      <trkpt lat="-40.179899" lon="-71.395404">
        <ele>745.2</ele>
        <time>2019-04-11T16:21:12.000Z</time>
      </trkpt>
      <trkpt lat="-40.179936" lon="-71.395388">
        <ele>745.3</ele>
        <time>2019-04-11T16:21:13.000Z</time>
      </trkpt>
      <trkpt lat="-40.179968" lon="-71.395372">
        <ele>745.4</ele>
        <time>2019-04-11T16:21:14.000Z</time>
      </trkpt>
      <trkpt lat="-40.180011" lon="-71.395351">
        <ele>745.6</ele>
        <time>2019-04-11T16:21:15.000Z</time>
      </trkpt>
      <trkpt lat="-40.180049" lon="-71.39534">
        <ele>745.7</ele>
        <time>2019-04-11T16:21:16.000Z</time>
      </trkpt>
      <trkpt lat="-40.180092" lon="-71.39534">
        <ele>745.8</ele>
        <time>2019-04-11T16:21:17.000Z</time>
      </trkpt>
      <trkpt lat="-40.180129" lon="-71.395329">
        <ele>745.9</ele>
        <time>2019-04-11T16:21:18.000Z</time>
      </trkpt>
      <trkpt lat="-40.180167" lon="-71.395319">
        <ele>746.1</ele>
        <time>2019-04-11T16:21:19.000Z</time>
      </trkpt>
      <trkpt lat="-40.180205" lon="-71.39531">
        <ele>746.2</ele>
        <time>2019-04-11T16:21:20.000Z</time>
      </trkpt>
      <trkpt lat="-40.180239" lon="-71.395294">
        <ele>746.3</ele>
        <time>2019-04-11T16:21:21.000Z</time>
      </trkpt>
      <trkpt lat="-40.180279" lon="-71.395298">
        <ele>746.5</ele>
        <time>2019-04-11T16:21:22.000Z</time>
      </trkpt>
      <trkpt lat="-40.18032" lon="-71.395304">
        <ele>746.6</ele>
        <time>2019-04-11T16:21:23.000Z</time>
      </trkpt>
      <trkpt lat="-40.180357" lon="-71.395303">
        <ele>746.7</ele>
        <time>2019-04-11T16:21:24.000Z</time>
      </trkpt>
      <trkpt lat="-40.180394" lon="-71.395309">
        <ele>746.8</ele>
        <time>2019-04-11T16:21:25.000Z</time>
      </trkpt>
      <trkpt lat="-40.180432" lon="-71.39532">
        <ele>746.9</ele>
        <time>2019-04-11T16:21:26.000Z</time>
      </trkpt>
      <trkpt lat="-40.180471" lon="-71.395327">
        <ele>747.1</ele>
        <time>2019-04-11T16:21:27.000Z</time>
      </trkpt>
      <trkpt lat="-40.180511" lon="-71.395338">
        <ele>747.2</ele>
        <time>2019-04-11T16:21:28.000Z</time>
      </trkpt>
      <trkpt lat="-40.180552" lon="-71.395346">
        <ele>747.4</ele>
        <time>2019-04-11T16:21:29.000Z</time>
      </trkpt>
      <trkpt lat="-40.180618" lon="-71.395368">
        <ele>747.6</ele>
        <time>2019-04-11T16:21:31.000Z</time>
      </trkpt>
      <trkpt lat="-40.18069" lon="-71.39538">
        <ele>747.9</ele>
        <time>2019-04-11T16:21:33.000Z</time>
      </trkpt>
      <trkpt lat="-40.180726" lon="-71.395385">
        <ele>748.1</ele>
        <time>2019-04-11T16:21:34.000Z</time>
      </trkpt>
      <trkpt lat="-40.180766" lon="-71.395385">
        <ele>748.2</ele>
        <time>2019-04-11T16:21:35.000Z</time>
      </trkpt>
      <trkpt lat="-40.180808" lon="-71.395406">
        <ele>748.5</ele>
        <time>2019-04-11T16:21:36.000Z</time>
      </trkpt>
      <trkpt lat="-40.180845" lon="-71.39541">
        <ele>748.7</ele>
        <time>2019-04-11T16:21:37.000Z</time>
      </trkpt>
      <trkpt lat="-40.180881" lon="-71.395413">
        <ele>748.9</ele>
        <time>2019-04-11T16:21:38.000Z</time>
      </trkpt>
      <trkpt lat="-40.18092" lon="-71.395422">
        <ele>749</ele>
        <time>2019-04-11T16:21:39.000Z</time>
      </trkpt>
      <trkpt lat="-40.180948" lon="-71.395419">
        <ele>749.1</ele>
        <time>2019-04-11T16:21:40.000Z</time>
      </trkpt>
      <trkpt lat="-40.18101" lon="-71.395423">
        <ele>749.4</ele>
        <time>2019-04-11T16:21:42.000Z</time>
      </trkpt>
      <trkpt lat="-40.181041" lon="-71.395415">
        <ele>749.5</ele>
        <time>2019-04-11T16:21:43.000Z</time>
      </trkpt>
      <trkpt lat="-40.181068" lon="-71.39542">
        <ele>749.6</ele>
        <time>2019-04-11T16:21:44.000Z</time>
      </trkpt>
      <trkpt lat="-40.1811" lon="-71.395415">
        <ele>749.8</ele>
        <time>2019-04-11T16:21:45.000Z</time>
      </trkpt>
      <trkpt lat="-40.181143" lon="-71.39541">
        <ele>750</ele>
        <time>2019-04-11T16:21:46.000Z</time>
      </trkpt>
      <trkpt lat="-40.181202" lon="-71.395378">
        <ele>750.3</ele>
        <time>2019-04-11T16:21:48.000Z</time>
      </trkpt>
      <trkpt lat="-40.181261" lon="-71.395372">
        <ele>750.5</ele>
        <time>2019-04-11T16:21:50.000Z</time>
      </trkpt>
      <trkpt lat="-40.181304" lon="-71.395372">
        <ele>750.6</ele>
        <time>2019-04-11T16:21:51.000Z</time>
      </trkpt>
      <trkpt lat="-40.181342" lon="-71.395351">
        <ele>750.8</ele>
        <time>2019-04-11T16:21:52.000Z</time>
      </trkpt>
      <trkpt lat="-40.181369" lon="-71.395319">
        <ele>750.9</ele>
        <time>2019-04-11T16:21:53.000Z</time>
      </trkpt>
      <trkpt lat="-40.181401" lon="-71.395292">
        <ele>751</ele>
        <time>2019-04-11T16:21:54.000Z</time>
      </trkpt>
      <trkpt lat="-40.181433" lon="-71.395259">
        <ele>751.2</ele>
        <time>2019-04-11T16:21:55.000Z</time>
      </trkpt>
      <trkpt lat="-40.181465" lon="-71.395227">
        <ele>751.3</ele>
        <time>2019-04-11T16:21:56.000Z</time>
      </trkpt>
      <trkpt lat="-40.181492" lon="-71.395206">
        <ele>751.4</ele>
        <time>2019-04-11T16:21:57.000Z</time>
      </trkpt>
      <trkpt lat="-40.181525" lon="-71.395178">
        <ele>751.6</ele>
        <time>2019-04-11T16:21:58.000Z</time>
      </trkpt>
      <trkpt lat="-40.181547" lon="-71.395143">
        <ele>751.7</ele>
        <time>2019-04-11T16:21:59.000Z</time>
      </trkpt>
      <trkpt lat="-40.181571" lon="-71.395113">
        <ele>751.8</ele>
        <time>2019-04-11T16:22:00.000Z</time>
      </trkpt>
      <trkpt lat="-40.181592" lon="-71.395079">
        <ele>751.9</ele>
        <time>2019-04-11T16:22:01.000Z</time>
      </trkpt>
      <trkpt lat="-40.181615" lon="-71.395043">
        <ele>752.1</ele>
        <time>2019-04-11T16:22:02.000Z</time>
      </trkpt>
      <trkpt lat="-40.181643" lon="-71.395007">
        <ele>752.3</ele>
        <time>2019-04-11T16:22:03.000Z</time>
      </trkpt>
      <trkpt lat="-40.18167" lon="-71.39497">
        <ele>752.4</ele>
        <time>2019-04-11T16:22:04.000Z</time>
      </trkpt>
      <trkpt lat="-40.181693" lon="-71.394933">
        <ele>752.5</ele>
        <time>2019-04-11T16:22:05.000Z</time>
      </trkpt>
      <trkpt lat="-40.181713" lon="-71.394896">
        <ele>752.6</ele>
        <time>2019-04-11T16:22:06.000Z</time>
      </trkpt>
      <trkpt lat="-40.181736" lon="-71.394859">
        <ele>752.7</ele>
        <time>2019-04-11T16:22:07.000Z</time>
      </trkpt>
      <trkpt lat="-40.181747" lon="-71.394818">
        <ele>752.7</ele>
        <time>2019-04-11T16:22:08.000Z</time>
      </trkpt>
      <trkpt lat="-40.181757" lon="-71.394776">
        <ele>752.8</ele>
        <time>2019-04-11T16:22:09.000Z</time>
      </trkpt>
      <trkpt lat="-40.181775" lon="-71.39474">
        <ele>752.9</ele>
        <time>2019-04-11T16:22:10.000Z</time>
      </trkpt>
      <trkpt lat="-40.181789" lon="-71.394701">
        <ele>753</ele>
        <time>2019-04-11T16:22:11.000Z</time>
      </trkpt>
      <trkpt lat="-40.181792" lon="-71.394621">
        <ele>753.2</ele>
        <time>2019-04-11T16:22:13.000Z</time>
      </trkpt>
      <trkpt lat="-40.181808" lon="-71.394573">
        <ele>753.3</ele>
        <time>2019-04-11T16:22:14.000Z</time>
      </trkpt>
      <trkpt lat="-40.18183" lon="-71.394535">
        <ele>753.4</ele>
        <time>2019-04-11T16:22:15.000Z</time>
      </trkpt>
      <trkpt lat="-40.181846" lon="-71.394487">
        <ele>753.5</ele>
        <time>2019-04-11T16:22:16.000Z</time>
      </trkpt>
      <trkpt lat="-40.181851" lon="-71.394444">
        <ele>753.6</ele>
        <time>2019-04-11T16:22:17.000Z</time>
      </trkpt>
      <trkpt lat="-40.181873" lon="-71.394364">
        <ele>753.7</ele>
        <time>2019-04-11T16:22:19.000Z</time>
      </trkpt>
      <trkpt lat="-40.181867" lon="-71.394309">
        <ele>753.9</ele>
        <time>2019-04-11T16:22:20.000Z</time>
      </trkpt>
      <trkpt lat="-40.18187" lon="-71.394262">
        <ele>754</ele>
        <time>2019-04-11T16:22:21.000Z</time>
      </trkpt>
      <trkpt lat="-40.181885" lon="-71.394219">
        <ele>754.3</ele>
        <time>2019-04-11T16:22:22.000Z</time>
      </trkpt>
      <trkpt lat="-40.181882" lon="-71.394166">
        <ele>754.8</ele>
        <time>2019-04-11T16:22:23.000Z</time>
      </trkpt>
      <trkpt lat="-40.181885" lon="-71.394112">
        <ele>755.6</ele>
        <time>2019-04-11T16:22:24.000Z</time>
      </trkpt>
      <trkpt lat="-40.181882" lon="-71.394057">
        <ele>756.1</ele>
        <time>2019-04-11T16:22:25.000Z</time>
      </trkpt>
      <trkpt lat="-40.181882" lon="-71.394007">
        <ele>756.6</ele>
        <time>2019-04-11T16:22:26.000Z</time>
      </trkpt>
      <trkpt lat="-40.181882" lon="-71.393954">
        <ele>757.3</ele>
        <time>2019-04-11T16:22:27.000Z</time>
      </trkpt>
      <trkpt lat="-40.181882" lon="-71.393902">
        <ele>757.8</ele>
        <time>2019-04-11T16:22:28.000Z</time>
      </trkpt>
      <trkpt lat="-40.181882" lon="-71.393852">
        <ele>758.2</ele>
        <time>2019-04-11T16:22:29.000Z</time>
      </trkpt>
      <trkpt lat="-40.181884" lon="-71.393802">
        <ele>758.5</ele>
        <time>2019-04-11T16:22:30.000Z</time>
      </trkpt>
      <trkpt lat="-40.181876" lon="-71.393754">
        <ele>758.7</ele>
        <time>2019-04-11T16:22:31.000Z</time>
      </trkpt>
      <trkpt lat="-40.181874" lon="-71.393703">
        <ele>758.9</ele>
        <time>2019-04-11T16:22:32.000Z</time>
      </trkpt>
      <trkpt lat="-40.181866" lon="-71.393652">
        <ele>759.2</ele>
        <time>2019-04-11T16:22:33.000Z</time>
      </trkpt>
      <trkpt lat="-40.181856" lon="-71.393606">
        <ele>759.4</ele>
        <time>2019-04-11T16:22:34.000Z</time>
      </trkpt>
      <trkpt lat="-40.181853" lon="-71.393549">
        <ele>759.7</ele>
        <time>2019-04-11T16:22:35.000Z</time>
      </trkpt>
      <trkpt lat="-40.181844" lon="-71.393503">
        <ele>760</ele>
        <time>2019-04-11T16:22:36.000Z</time>
      </trkpt>
      <trkpt lat="-40.181838" lon="-71.393454">
        <ele>760.1</ele>
        <time>2019-04-11T16:22:37.000Z</time>
      </trkpt>
      <trkpt lat="-40.181841" lon="-71.393409">
        <ele>760.3</ele>
        <time>2019-04-11T16:22:38.000Z</time>
      </trkpt>
      <trkpt lat="-40.181842" lon="-71.39336">
        <ele>760.5</ele>
        <time>2019-04-11T16:22:39.000Z</time>
      </trkpt>
      <trkpt lat="-40.18184" lon="-71.393305">
        <ele>760.6</ele>
        <time>2019-04-11T16:22:40.000Z</time>
      </trkpt>
      <trkpt lat="-40.181844" lon="-71.393262">
        <ele>760.8</ele>
        <time>2019-04-11T16:22:41.000Z</time>
      </trkpt>
      <trkpt lat="-40.181833" lon="-71.393216">
        <ele>760.9</ele>
        <time>2019-04-11T16:22:42.000Z</time>
      </trkpt>
      <trkpt lat="-40.181825" lon="-71.393175">
        <ele>761</ele>
        <time>2019-04-11T16:22:43.000Z</time>
      </trkpt>
      <trkpt lat="-40.181822" lon="-71.393132">
        <ele>761.1</ele>
        <time>2019-04-11T16:22:44.000Z</time>
      </trkpt>
      <trkpt lat="-40.181797" lon="-71.393089">
        <ele>761.3</ele>
        <time>2019-04-11T16:22:45.000Z</time>
      </trkpt>
      <trkpt lat="-40.181789" lon="-71.393045">
        <ele>761.4</ele>
        <time>2019-04-11T16:22:46.000Z</time>
      </trkpt>
      <trkpt lat="-40.181775" lon="-71.393011">
        <ele>761.5</ele>
        <time>2019-04-11T16:22:47.000Z</time>
      </trkpt>
      <trkpt lat="-40.181754" lon="-71.392981">
        <ele>761.6</ele>
        <time>2019-04-11T16:22:48.000Z</time>
      </trkpt>
      <trkpt lat="-40.181753" lon="-71.392943">
        <ele>761.7</ele>
        <time>2019-04-11T16:22:49.000Z</time>
      </trkpt>
      <trkpt lat="-40.181734" lon="-71.392904">
        <ele>761.9</ele>
        <time>2019-04-11T16:22:50.000Z</time>
      </trkpt>
      <trkpt lat="-40.181719" lon="-71.392854">
        <ele>762</ele>
        <time>2019-04-11T16:22:51.000Z</time>
      </trkpt>
      <trkpt lat="-40.181699" lon="-71.392809">
        <ele>762.2</ele>
        <time>2019-04-11T16:22:52.000Z</time>
      </trkpt>
      <trkpt lat="-40.181666" lon="-71.392739">
        <ele>762.4</ele>
        <time>2019-04-11T16:22:54.000Z</time>
      </trkpt>
      <trkpt lat="-40.181651" lon="-71.392706">
        <ele>762.6</ele>
        <time>2019-04-11T16:22:55.000Z</time>
      </trkpt>
      <trkpt lat="-40.181634" lon="-71.392675">
        <ele>762.7</ele>
        <time>2019-04-11T16:22:56.000Z</time>
      </trkpt>
      <trkpt lat="-40.181619" lon="-71.392641">
        <ele>762.9</ele>
        <time>2019-04-11T16:22:57.000Z</time>
      </trkpt>
      <trkpt lat="-40.181609" lon="-71.392598">
        <ele>763.1</ele>
        <time>2019-04-11T16:22:58.000Z</time>
      </trkpt>
      <trkpt lat="-40.181597" lon="-71.392558">
        <ele>763.3</ele>
        <time>2019-04-11T16:22:59.000Z</time>
      </trkpt>
      <trkpt lat="-40.181578" lon="-71.392525">
        <ele>763.5</ele>
        <time>2019-04-11T16:23:00.000Z</time>
      </trkpt>
      <trkpt lat="-40.18157" lon="-71.392485">
        <ele>763.6</ele>
        <time>2019-04-11T16:23:01.000Z</time>
      </trkpt>
      <trkpt lat="-40.181557" lon="-71.392437">
        <ele>763.8</ele>
        <time>2019-04-11T16:23:02.000Z</time>
      </trkpt>
      <trkpt lat="-40.181545" lon="-71.392395">
        <ele>764</ele>
        <time>2019-04-11T16:23:03.000Z</time>
      </trkpt>
      <trkpt lat="-40.181534" lon="-71.392357">
        <ele>764.1</ele>
        <time>2019-04-11T16:23:04.000Z</time>
      </trkpt>
      <trkpt lat="-40.181517" lon="-71.392316">
        <ele>764.3</ele>
        <time>2019-04-11T16:23:05.000Z</time>
      </trkpt>
      <trkpt lat="-40.181495" lon="-71.392275">
        <ele>764.5</ele>
        <time>2019-04-11T16:23:06.000Z</time>
      </trkpt>
      <trkpt lat="-40.181478" lon="-71.39224">
        <ele>764.7</ele>
        <time>2019-04-11T16:23:07.000Z</time>
      </trkpt>
      <trkpt lat="-40.181461" lon="-71.392173">
        <ele>764.9</ele>
        <time>2019-04-11T16:23:09.000Z</time>
      </trkpt>
      <trkpt lat="-40.181453" lon="-71.392138">
        <ele>765.1</ele>
        <time>2019-04-11T16:23:10.000Z</time>
      </trkpt>
      <trkpt lat="-40.181434" lon="-71.3921">
        <ele>765.3</ele>
        <time>2019-04-11T16:23:11.000Z</time>
      </trkpt>
      <trkpt lat="-40.18141" lon="-71.392056">
        <ele>765.5</ele>
        <time>2019-04-11T16:23:12.000Z</time>
      </trkpt>
      <trkpt lat="-40.181394" lon="-71.392027">
        <ele>765.8</ele>
        <time>2019-04-11T16:23:13.000Z</time>
      </trkpt>
      <trkpt lat="-40.181373" lon="-71.391997">
        <ele>766</ele>
        <time>2019-04-11T16:23:14.000Z</time>
      </trkpt>
      <trkpt lat="-40.181377" lon="-71.391952">
        <ele>766.2</ele>
        <time>2019-04-11T16:23:15.000Z</time>
      </trkpt>
      <trkpt lat="-40.181362" lon="-71.391908">
        <ele>766.4</ele>
        <time>2019-04-11T16:23:16.000Z</time>
      </trkpt>
      <trkpt lat="-40.181359" lon="-71.39187">
        <ele>766.5</ele>
        <time>2019-04-11T16:23:17.000Z</time>
      </trkpt>
      <trkpt lat="-40.181343" lon="-71.391834">
        <ele>766.7</ele>
        <time>2019-04-11T16:23:18.000Z</time>
      </trkpt>
      <trkpt lat="-40.181335" lon="-71.391783">
        <ele>766.9</ele>
        <time>2019-04-11T16:23:19.000Z</time>
      </trkpt>
      <trkpt lat="-40.181319" lon="-71.391743">
        <ele>767.1</ele>
        <time>2019-04-11T16:23:20.000Z</time>
      </trkpt>
      <trkpt lat="-40.181316" lon="-71.391703">
        <ele>767.2</ele>
        <time>2019-04-11T16:23:21.000Z</time>
      </trkpt>
      <trkpt lat="-40.181325" lon="-71.391668">
        <ele>767.4</ele>
        <time>2019-04-11T16:23:22.000Z</time>
      </trkpt>
      <trkpt lat="-40.181319" lon="-71.391634">
        <ele>767.5</ele>
        <time>2019-04-11T16:23:23.000Z</time>
      </trkpt>
      <trkpt lat="-40.181313" lon="-71.391595">
        <ele>767.7</ele>
        <time>2019-04-11T16:23:24.000Z</time>
      </trkpt>
      <trkpt lat="-40.181312" lon="-71.39154">
        <ele>767.9</ele>
        <time>2019-04-11T16:23:25.000Z</time>
      </trkpt>
      <trkpt lat="-40.181314" lon="-71.391491">
        <ele>768.2</ele>
        <time>2019-04-11T16:23:26.000Z</time>
      </trkpt>
      <trkpt lat="-40.181325" lon="-71.391443">
        <ele>768.4</ele>
        <time>2019-04-11T16:23:27.000Z</time>
      </trkpt>
      <trkpt lat="-40.181326" lon="-71.3914">
        <ele>768.6</ele>
        <time>2019-04-11T16:23:28.000Z</time>
      </trkpt>
      <trkpt lat="-40.181316" lon="-71.391341">
        <ele>768.9</ele>
        <time>2019-04-11T16:23:29.000Z</time>
      </trkpt>
      <trkpt lat="-40.18132" lon="-71.391299">
        <ele>769.1</ele>
        <time>2019-04-11T16:23:30.000Z</time>
      </trkpt>
      <trkpt lat="-40.181317" lon="-71.391255">
        <ele>769.2</ele>
        <time>2019-04-11T16:23:31.000Z</time>
      </trkpt>
      <trkpt lat="-40.181321" lon="-71.391203">
        <ele>769.5</ele>
        <time>2019-04-11T16:23:32.000Z</time>
      </trkpt>
      <trkpt lat="-40.181335" lon="-71.391165">
        <ele>769.6</ele>
        <time>2019-04-11T16:23:33.000Z</time>
      </trkpt>
      <trkpt lat="-40.181337" lon="-71.391118">
        <ele>769.8</ele>
        <time>2019-04-11T16:23:34.000Z</time>
      </trkpt>
      <trkpt lat="-40.181335" lon="-71.391075">
        <ele>770</ele>
        <time>2019-04-11T16:23:35.000Z</time>
      </trkpt>
      <trkpt lat="-40.181345" lon="-71.391032">
        <ele>770.2</ele>
        <time>2019-04-11T16:23:36.000Z</time>
      </trkpt>
      <trkpt lat="-40.181354" lon="-71.390988">
        <ele>770.4</ele>
        <time>2019-04-11T16:23:37.000Z</time>
      </trkpt>
      <trkpt lat="-40.181358" lon="-71.390947">
        <ele>770.6</ele>
        <time>2019-04-11T16:23:38.000Z</time>
      </trkpt>
      <trkpt lat="-40.181362" lon="-71.390905">
        <ele>770.8</ele>
        <time>2019-04-11T16:23:39.000Z</time>
      </trkpt>
      <trkpt lat="-40.181369" lon="-71.390818">
        <ele>771.2</ele>
        <time>2019-04-11T16:23:41.000Z</time>
      </trkpt>
      <trkpt lat="-40.18139" lon="-71.390787">
        <ele>771.3</ele>
        <time>2019-04-11T16:23:42.000Z</time>
      </trkpt>
      <trkpt lat="-40.181401" lon="-71.390748">
        <ele>771.5</ele>
        <time>2019-04-11T16:23:43.000Z</time>
      </trkpt>
      <trkpt lat="-40.1814" lon="-71.390704">
        <ele>771.7</ele>
        <time>2019-04-11T16:23:44.000Z</time>
      </trkpt>
      <trkpt lat="-40.181422" lon="-71.390673">
        <ele>771.9</ele>
        <time>2019-04-11T16:23:45.000Z</time>
      </trkpt>
      <trkpt lat="-40.181422" lon="-71.390631">
        <ele>772.1</ele>
        <time>2019-04-11T16:23:46.000Z</time>
      </trkpt>
      <trkpt lat="-40.181431" lon="-71.390595">
        <ele>772.2</ele>
        <time>2019-04-11T16:23:47.000Z</time>
      </trkpt>
      <trkpt lat="-40.181417" lon="-71.390539">
        <ele>772.5</ele>
        <time>2019-04-11T16:23:48.000Z</time>
      </trkpt>
      <trkpt lat="-40.181424" lon="-71.390503">
        <ele>772.7</ele>
        <time>2019-04-11T16:23:49.000Z</time>
      </trkpt>
      <trkpt lat="-40.181423" lon="-71.390449">
        <ele>773</ele>
        <time>2019-04-11T16:23:50.000Z</time>
      </trkpt>
      <trkpt lat="-40.181418" lon="-71.3904">
        <ele>773.2</ele>
        <time>2019-04-11T16:23:51.000Z</time>
      </trkpt>
      <trkpt lat="-40.181422" lon="-71.390344">
        <ele>773.4</ele>
        <time>2019-04-11T16:23:52.000Z</time>
      </trkpt>
      <trkpt lat="-40.181427" lon="-71.390301">
        <ele>773.6</ele>
        <time>2019-04-11T16:23:53.000Z</time>
      </trkpt>
      <trkpt lat="-40.181456" lon="-71.39025">
        <ele>773.8</ele>
        <time>2019-04-11T16:23:54.000Z</time>
      </trkpt>
      <trkpt lat="-40.181471" lon="-71.390193">
        <ele>774</ele>
        <time>2019-04-11T16:23:55.000Z</time>
      </trkpt>
      <trkpt lat="-40.181485" lon="-71.390109">
        <ele>774.3</ele>
        <time>2019-04-11T16:23:57.000Z</time>
      </trkpt>
      <trkpt lat="-40.181488" lon="-71.390064">
        <ele>774.4</ele>
        <time>2019-04-11T16:23:58.000Z</time>
      </trkpt>
      <trkpt lat="-40.181496" lon="-71.390015">
        <ele>774.6</ele>
        <time>2019-04-11T16:23:59.000Z</time>
      </trkpt>
      <trkpt lat="-40.181497" lon="-71.389971">
        <ele>774.7</ele>
        <time>2019-04-11T16:24:00.000Z</time>
      </trkpt>
      <trkpt lat="-40.181505" lon="-71.389932">
        <ele>774.8</ele>
        <time>2019-04-11T16:24:01.000Z</time>
      </trkpt>
      <trkpt lat="-40.181511" lon="-71.389887">
        <ele>774.9</ele>
        <time>2019-04-11T16:24:02.000Z</time>
      </trkpt>
      <trkpt lat="-40.181529" lon="-71.389851">
        <ele>775.1</ele>
        <time>2019-04-11T16:24:03.000Z</time>
      </trkpt>
      <trkpt lat="-40.181525" lon="-71.389807">
        <ele>775.2</ele>
        <time>2019-04-11T16:24:04.000Z</time>
      </trkpt>
      <trkpt lat="-40.181535" lon="-71.389759">
        <ele>775.3</ele>
        <time>2019-04-11T16:24:05.000Z</time>
      </trkpt>
      <trkpt lat="-40.18155" lon="-71.38971">
        <ele>775.4</ele>
        <time>2019-04-11T16:24:06.000Z</time>
      </trkpt>
      <trkpt lat="-40.18155" lon="-71.389636">
        <ele>775.5</ele>
        <time>2019-04-11T16:24:08.000Z</time>
      </trkpt>
      <trkpt lat="-40.181569" lon="-71.389596">
        <ele>775.6</ele>
        <time>2019-04-11T16:24:09.000Z</time>
      </trkpt>
      <trkpt lat="-40.181568" lon="-71.389546">
        <ele>775.7</ele>
        <time>2019-04-11T16:24:10.000Z</time>
      </trkpt>
      <trkpt lat="-40.181575" lon="-71.389502">
        <ele>775.8</ele>
        <time>2019-04-11T16:24:11.000Z</time>
      </trkpt>
      <trkpt lat="-40.181581" lon="-71.389453">
        <ele>775.9</ele>
        <time>2019-04-11T16:24:12.000Z</time>
      </trkpt>
      <trkpt lat="-40.181589" lon="-71.389401">
        <ele>776</ele>
        <time>2019-04-11T16:24:13.000Z</time>
      </trkpt>
      <trkpt lat="-40.181599" lon="-71.389362">
        <ele>776.1</ele>
        <time>2019-04-11T16:24:14.000Z</time>
      </trkpt>
      <trkpt lat="-40.181606" lon="-71.389317">
        <ele>776.2</ele>
        <time>2019-04-11T16:24:15.000Z</time>
      </trkpt>
      <trkpt lat="-40.18161" lon="-71.389269">
        <ele>776.4</ele>
        <time>2019-04-11T16:24:16.000Z</time>
      </trkpt>
      <trkpt lat="-40.181622" lon="-71.389227">
        <ele>776.4</ele>
        <time>2019-04-11T16:24:17.000Z</time>
      </trkpt>
      <trkpt lat="-40.181631" lon="-71.389174">
        <ele>776.6</ele>
        <time>2019-04-11T16:24:18.000Z</time>
      </trkpt>
      <trkpt lat="-40.18163" lon="-71.38913">
        <ele>776.6</ele>
        <time>2019-04-11T16:24:19.000Z</time>
      </trkpt>
      <trkpt lat="-40.181637" lon="-71.389085">
        <ele>776.7</ele>
        <time>2019-04-11T16:24:20.000Z</time>
      </trkpt>
      <trkpt lat="-40.18164" lon="-71.389037">
        <ele>776.8</ele>
        <time>2019-04-11T16:24:21.000Z</time>
      </trkpt>
      <trkpt lat="-40.181644" lon="-71.388988">
        <ele>777</ele>
        <time>2019-04-11T16:24:22.000Z</time>
      </trkpt>
      <trkpt lat="-40.181653" lon="-71.388946">
        <ele>777.1</ele>
        <time>2019-04-11T16:24:23.000Z</time>
      </trkpt>
      <trkpt lat="-40.181667" lon="-71.388914">
        <ele>777.1</ele>
        <time>2019-04-11T16:24:24.000Z</time>
      </trkpt>
      <trkpt lat="-40.181673" lon="-71.388876">
        <ele>777.2</ele>
        <time>2019-04-11T16:24:25.000Z</time>
      </trkpt>
      <trkpt lat="-40.181673" lon="-71.388835">
        <ele>777.4</ele>
        <time>2019-04-11T16:24:26.000Z</time>
      </trkpt>
      <trkpt lat="-40.181678" lon="-71.388786">
        <ele>777.5</ele>
        <time>2019-04-11T16:24:27.000Z</time>
      </trkpt>
      <trkpt lat="-40.181684" lon="-71.388744">
        <ele>777.6</ele>
        <time>2019-04-11T16:24:28.000Z</time>
      </trkpt>
      <trkpt lat="-40.181694" lon="-71.388698">
        <ele>777.8</ele>
        <time>2019-04-11T16:24:29.000Z</time>
      </trkpt>
      <trkpt lat="-40.181694" lon="-71.388646">
        <ele>777.9</ele>
        <time>2019-04-11T16:24:30.000Z</time>
      </trkpt>
      <trkpt lat="-40.181703" lon="-71.388606">
        <ele>778.1</ele>
        <time>2019-04-11T16:24:31.000Z</time>
      </trkpt>
      <trkpt lat="-40.181713" lon="-71.388561">
        <ele>778.2</ele>
        <time>2019-04-11T16:24:32.000Z</time>
      </trkpt>
      <trkpt lat="-40.181718" lon="-71.38852">
        <ele>778.4</ele>
        <time>2019-04-11T16:24:33.000Z</time>
      </trkpt>
      <trkpt lat="-40.181725" lon="-71.388478">
        <ele>778.5</ele>
        <time>2019-04-11T16:24:34.000Z</time>
      </trkpt>
      <trkpt lat="-40.181731" lon="-71.388433">
        <ele>778.7</ele>
        <time>2019-04-11T16:24:35.000Z</time>
      </trkpt>
      <trkpt lat="-40.181728" lon="-71.388378">
        <ele>779</ele>
        <time>2019-04-11T16:24:36.000Z</time>
      </trkpt>
      <trkpt lat="-40.181735" lon="-71.388328">
        <ele>779.2</ele>
        <time>2019-04-11T16:24:37.000Z</time>
      </trkpt>
      <trkpt lat="-40.181741" lon="-71.388287">
        <ele>779.3</ele>
        <time>2019-04-11T16:24:38.000Z</time>
      </trkpt>
      <trkpt lat="-40.181737" lon="-71.388234">
        <ele>779.5</ele>
        <time>2019-04-11T16:24:39.000Z</time>
      </trkpt>
      <trkpt lat="-40.181754" lon="-71.388185">
        <ele>779.7</ele>
        <time>2019-04-11T16:24:40.000Z</time>
      </trkpt>
      <trkpt lat="-40.181754" lon="-71.388144">
        <ele>779.9</ele>
        <time>2019-04-11T16:24:41.000Z</time>
      </trkpt>
      <trkpt lat="-40.181755" lon="-71.388095">
        <ele>780.1</ele>
        <time>2019-04-11T16:24:42.000Z</time>
      </trkpt>
      <trkpt lat="-40.181767" lon="-71.388058">
        <ele>780.2</ele>
        <time>2019-04-11T16:24:43.000Z</time>
      </trkpt>
      <trkpt lat="-40.181768" lon="-71.388009">
        <ele>780.4</ele>
        <time>2019-04-11T16:24:44.000Z</time>
      </trkpt>
      <trkpt lat="-40.181768" lon="-71.387953">
        <ele>780.8</ele>
        <time>2019-04-11T16:24:45.000Z</time>
      </trkpt>
      <trkpt lat="-40.181773" lon="-71.387907">
        <ele>781</ele>
        <time>2019-04-11T16:24:46.000Z</time>
      </trkpt>
      <trkpt lat="-40.181771" lon="-71.387847">
        <ele>781.3</ele>
        <time>2019-04-11T16:24:47.000Z</time>
      </trkpt>
      <trkpt lat="-40.18177" lon="-71.387779">
        <ele>781.6</ele>
        <time>2019-04-11T16:24:48.000Z</time>
      </trkpt>
      <trkpt lat="-40.181778" lon="-71.387723">
        <ele>781.8</ele>
        <time>2019-04-11T16:24:49.000Z</time>
      </trkpt>
      <trkpt lat="-40.181777" lon="-71.387665">
        <ele>782.1</ele>
        <time>2019-04-11T16:24:50.000Z</time>
      </trkpt>
      <trkpt lat="-40.181776" lon="-71.387602">
        <ele>782.5</ele>
        <time>2019-04-11T16:24:51.000Z</time>
      </trkpt>
      <trkpt lat="-40.181789" lon="-71.387551">
        <ele>782.8</ele>
        <time>2019-04-11T16:24:52.000Z</time>
      </trkpt>
      <trkpt lat="-40.181793" lon="-71.387488">
        <ele>783.1</ele>
        <time>2019-04-11T16:24:53.000Z</time>
      </trkpt>
      <trkpt lat="-40.181793" lon="-71.387417">
        <ele>783.5</ele>
        <time>2019-04-11T16:24:54.000Z</time>
      </trkpt>
      <trkpt lat="-40.181798" lon="-71.387347">
        <ele>783.8</ele>
        <time>2019-04-11T16:24:55.000Z</time>
      </trkpt>
      <trkpt lat="-40.181799" lon="-71.387273">
        <ele>784.2</ele>
        <time>2019-04-11T16:24:56.000Z</time>
      </trkpt>
      <trkpt lat="-40.181811" lon="-71.387215">
        <ele>784.4</ele>
        <time>2019-04-11T16:24:57.000Z</time>
      </trkpt>
      <trkpt lat="-40.181824" lon="-71.387174">
        <ele>784.6</ele>
        <time>2019-04-11T16:24:58.000Z</time>
      </trkpt>
      <trkpt lat="-40.181833" lon="-71.387122">
        <ele>784.9</ele>
        <time>2019-04-11T16:24:59.000Z</time>
      </trkpt>
      <trkpt lat="-40.181846" lon="-71.387059">
        <ele>785.2</ele>
        <time>2019-04-11T16:25:00.000Z</time>
      </trkpt>
      <trkpt lat="-40.18186" lon="-71.386991">
        <ele>785.5</ele>
        <time>2019-04-11T16:25:01.000Z</time>
      </trkpt>
      <trkpt lat="-40.181867" lon="-71.386929">
        <ele>785.8</ele>
        <time>2019-04-11T16:25:02.000Z</time>
      </trkpt>
      <trkpt lat="-40.181881" lon="-71.386872">
        <ele>786.1</ele>
        <time>2019-04-11T16:25:03.000Z</time>
      </trkpt>
      <trkpt lat="-40.181889" lon="-71.386821">
        <ele>786.3</ele>
        <time>2019-04-11T16:25:04.000Z</time>
      </trkpt>
      <trkpt lat="-40.181891" lon="-71.386755">
        <ele>786.6</ele>
        <time>2019-04-11T16:25:05.000Z</time>
      </trkpt>
      <trkpt lat="-40.181895" lon="-71.386687">
        <ele>787</ele>
        <time>2019-04-11T16:25:06.000Z</time>
      </trkpt>
      <trkpt lat="-40.181895" lon="-71.386619">
        <ele>787.3</ele>
        <time>2019-04-11T16:25:07.000Z</time>
      </trkpt>
      <trkpt lat="-40.181894" lon="-71.386562">
        <ele>787.5</ele>
        <time>2019-04-11T16:25:08.000Z</time>
      </trkpt>
      <trkpt lat="-40.181898" lon="-71.386503">
        <ele>787.8</ele>
        <time>2019-04-11T16:25:09.000Z</time>
      </trkpt>
      <trkpt lat="-40.181907" lon="-71.386451">
        <ele>788.1</ele>
        <time>2019-04-11T16:25:10.000Z</time>
      </trkpt>
      <trkpt lat="-40.181908" lon="-71.386396">
        <ele>788.3</ele>
        <time>2019-04-11T16:25:11.000Z</time>
      </trkpt>
      <trkpt lat="-40.181911" lon="-71.386341">
        <ele>788.5</ele>
        <time>2019-04-11T16:25:12.000Z</time>
      </trkpt>
      <trkpt lat="-40.181927" lon="-71.386288">
        <ele>788.8</ele>
        <time>2019-04-11T16:25:13.000Z</time>
      </trkpt>
      <trkpt lat="-40.181937" lon="-71.386241">
        <ele>789</ele>
        <time>2019-04-11T16:25:14.000Z</time>
      </trkpt>
      <trkpt lat="-40.181943" lon="-71.386189">
        <ele>789.2</ele>
        <time>2019-04-11T16:25:15.000Z</time>
      </trkpt>
      <trkpt lat="-40.181947" lon="-71.386141">
        <ele>789.4</ele>
        <time>2019-04-11T16:25:16.000Z</time>
      </trkpt>
      <trkpt lat="-40.181955" lon="-71.386096">
        <ele>789.6</ele>
        <time>2019-04-11T16:25:17.000Z</time>
      </trkpt>
      <trkpt lat="-40.181962" lon="-71.386054">
        <ele>789.8</ele>
        <time>2019-04-11T16:25:18.000Z</time>
      </trkpt>
      <trkpt lat="-40.181969" lon="-71.386005">
        <ele>789.9</ele>
        <time>2019-04-11T16:25:19.000Z</time>
      </trkpt>
      <trkpt lat="-40.181975" lon="-71.385962">
        <ele>790.1</ele>
        <time>2019-04-11T16:25:20.000Z</time>
      </trkpt>
      <trkpt lat="-40.181987" lon="-71.385914">
        <ele>790.3</ele>
        <time>2019-04-11T16:25:21.000Z</time>
      </trkpt>
      <trkpt lat="-40.18199" lon="-71.385866">
        <ele>790.5</ele>
        <time>2019-04-11T16:25:22.000Z</time>
      </trkpt>
      <trkpt lat="-40.181993" lon="-71.385816">
        <ele>790.7</ele>
        <time>2019-04-11T16:25:23.000Z</time>
      </trkpt>
      <trkpt lat="-40.181998" lon="-71.385772">
        <ele>790.8</ele>
        <time>2019-04-11T16:25:24.000Z</time>
      </trkpt>
      <trkpt lat="-40.182008" lon="-71.385729">
        <ele>791</ele>
        <time>2019-04-11T16:25:25.000Z</time>
      </trkpt>
      <trkpt lat="-40.18201" lon="-71.385681">
        <ele>791.2</ele>
        <time>2019-04-11T16:25:26.000Z</time>
      </trkpt>
      <trkpt lat="-40.182019" lon="-71.385638">
        <ele>791.3</ele>
        <time>2019-04-11T16:25:27.000Z</time>
      </trkpt>
      <trkpt lat="-40.182031" lon="-71.385595">
        <ele>791.5</ele>
        <time>2019-04-11T16:25:28.000Z</time>
      </trkpt>
      <trkpt lat="-40.182038" lon="-71.385553">
        <ele>791.6</ele>
        <time>2019-04-11T16:25:29.000Z</time>
      </trkpt>
      <trkpt lat="-40.182045" lon="-71.385511">
        <ele>791.8</ele>
        <time>2019-04-11T16:25:30.000Z</time>
      </trkpt>
      <trkpt lat="-40.182054" lon="-71.385471">
        <ele>791.9</ele>
        <time>2019-04-11T16:25:31.000Z</time>
      </trkpt>
      <trkpt lat="-40.182068" lon="-71.385433">
        <ele>792.1</ele>
        <time>2019-04-11T16:25:32.000Z</time>
      </trkpt>
      <trkpt lat="-40.182086" lon="-71.385392">
        <ele>792.2</ele>
        <time>2019-04-11T16:25:33.000Z</time>
      </trkpt>
      <trkpt lat="-40.182101" lon="-71.385351">
        <ele>792.4</ele>
        <time>2019-04-11T16:25:34.000Z</time>
      </trkpt>
      <trkpt lat="-40.182116" lon="-71.385311">
        <ele>792.5</ele>
        <time>2019-04-11T16:25:35.000Z</time>
      </trkpt>
      <trkpt lat="-40.18213" lon="-71.385271">
        <ele>792.7</ele>
        <time>2019-04-11T16:25:36.000Z</time>
      </trkpt>
      <trkpt lat="-40.182141" lon="-71.385228">
        <ele>792.9</ele>
        <time>2019-04-11T16:25:37.000Z</time>
      </trkpt>
      <trkpt lat="-40.182157" lon="-71.385185">
        <ele>793</ele>
        <time>2019-04-11T16:25:38.000Z</time>
      </trkpt>
      <trkpt lat="-40.182168" lon="-71.385148">
        <ele>793.2</ele>
        <time>2019-04-11T16:25:39.000Z</time>
      </trkpt>
      <trkpt lat="-40.182184" lon="-71.385105">
        <ele>793.4</ele>
        <time>2019-04-11T16:25:40.000Z</time>
      </trkpt>
      <trkpt lat="-40.182195" lon="-71.385062">
        <ele>793.6</ele>
        <time>2019-04-11T16:25:41.000Z</time>
      </trkpt>
      <trkpt lat="-40.182205" lon="-71.385019">
        <ele>793.8</ele>
        <time>2019-04-11T16:25:42.000Z</time>
      </trkpt>
      <trkpt lat="-40.182222" lon="-71.384981">
        <ele>794</ele>
        <time>2019-04-11T16:25:43.000Z</time>
      </trkpt>
      <trkpt lat="-40.182232" lon="-71.384938">
        <ele>794.2</ele>
        <time>2019-04-11T16:25:44.000Z</time>
      </trkpt>
      <trkpt lat="-40.182248" lon="-71.384895">
        <ele>794.4</ele>
        <time>2019-04-11T16:25:45.000Z</time>
      </trkpt>
      <trkpt lat="-40.182259" lon="-71.384858">
        <ele>794.6</ele>
        <time>2019-04-11T16:25:46.000Z</time>
      </trkpt>
      <trkpt lat="-40.182275" lon="-71.384815">
        <ele>794.9</ele>
        <time>2019-04-11T16:25:47.000Z</time>
      </trkpt>
      <trkpt lat="-40.182286" lon="-71.384772">
        <ele>795.1</ele>
        <time>2019-04-11T16:25:48.000Z</time>
      </trkpt>
      <trkpt lat="-40.182297" lon="-71.384729">
        <ele>795.4</ele>
        <time>2019-04-11T16:25:49.000Z</time>
      </trkpt>
      <trkpt lat="-40.183161" lon="-71.383992">
        <ele>802.3</ele>
        <time>2019-04-11T16:26:18.000Z</time>
      </trkpt>
      <trkpt lat="-40.183206" lon="-71.384001">
        <ele>802.6</ele>
        <time>2019-04-11T16:26:19.000Z</time>
      </trkpt>
      <trkpt lat="-40.183242" lon="-71.384001">
        <ele>802.8</ele>
        <time>2019-04-11T16:26:20.000Z</time>
      </trkpt>
      <trkpt lat="-40.183275" lon="-71.383988">
        <ele>803</ele>
        <time>2019-04-11T16:26:21.000Z</time>
      </trkpt>
      <trkpt lat="-40.183302" lon="-71.383975">
        <ele>803.2</ele>
        <time>2019-04-11T16:26:22.000Z</time>
      </trkpt>
      <trkpt lat="-40.183329" lon="-71.383956">
        <ele>803.4</ele>
        <time>2019-04-11T16:26:23.000Z</time>
      </trkpt>
      <trkpt lat="-40.183357" lon="-71.383946">
        <ele>803.6</ele>
        <time>2019-04-11T16:26:24.000Z</time>
      </trkpt>
      <trkpt lat="-40.183389" lon="-71.383932">
        <ele>803.8</ele>
        <time>2019-04-11T16:26:25.000Z</time>
      </trkpt>
      <trkpt lat="-40.183425" lon="-71.383927">
        <ele>804.1</ele>
        <time>2019-04-11T16:26:26.000Z</time>
      </trkpt>
      <trkpt lat="-40.183462" lon="-71.383924">
        <ele>804.3</ele>
        <time>2019-04-11T16:26:27.000Z</time>
      </trkpt>
      <trkpt lat="-40.183494" lon="-71.383921">
        <ele>804.6</ele>
        <time>2019-04-11T16:26:28.000Z</time>
      </trkpt>
      <trkpt lat="-40.18353" lon="-71.383919">
        <ele>804.8</ele>
        <time>2019-04-11T16:26:29.000Z</time>
      </trkpt>
      <trkpt lat="-40.183566" lon="-71.383913">
        <ele>805.1</ele>
        <time>2019-04-11T16:26:30.000Z</time>
      </trkpt>
      <trkpt lat="-40.183602" lon="-71.383904">
        <ele>805.4</ele>
        <time>2019-04-11T16:26:31.000Z</time>
      </trkpt>
      <trkpt lat="-40.183638" lon="-71.383902">
        <ele>805.7</ele>
        <time>2019-04-11T16:26:32.000Z</time>
      </trkpt>
      <trkpt lat="-40.183669" lon="-71.383897">
        <ele>805.9</ele>
        <time>2019-04-11T16:26:33.000Z</time>
      </trkpt>
      <trkpt lat="-40.183703" lon="-71.383888">
        <ele>806.2</ele>
        <time>2019-04-11T16:26:34.000Z</time>
      </trkpt>
      <trkpt lat="-40.183736" lon="-71.383883">
        <ele>806.4</ele>
        <time>2019-04-11T16:26:35.000Z</time>
      </trkpt>
      <trkpt lat="-40.183773" lon="-71.383876">
        <ele>806.7</ele>
        <time>2019-04-11T16:26:36.000Z</time>
      </trkpt>
      <trkpt lat="-40.18381" lon="-71.383875">
        <ele>807</ele>
        <time>2019-04-11T16:26:37.000Z</time>
      </trkpt>
      <trkpt lat="-40.183847" lon="-71.383876">
        <ele>807.3</ele>
        <time>2019-04-11T16:26:38.000Z</time>
      </trkpt>
      <trkpt lat="-40.183895" lon="-71.383849">
        <ele>807.6</ele>
        <time>2019-04-11T16:26:40.000Z</time>
      </trkpt>
      <trkpt lat="-40.183944" lon="-71.383839">
        <ele>807.8</ele>
        <time>2019-04-11T16:26:41.000Z</time>
      </trkpt>
      <trkpt lat="-40.183992" lon="-71.383817">
        <ele>808.1</ele>
        <time>2019-04-11T16:26:43.000Z</time>
      </trkpt>
      <trkpt lat="-40.184024" lon="-71.383812">
        <ele>808.3</ele>
        <time>2019-04-11T16:26:44.000Z</time>
      </trkpt>
      <trkpt lat="-40.184051" lon="-71.383817">
        <ele>808.5</ele>
        <time>2019-04-11T16:26:45.000Z</time>
      </trkpt>
      <trkpt lat="-40.184078" lon="-71.383806">
        <ele>808.6</ele>
        <time>2019-04-11T16:26:46.000Z</time>
      </trkpt>
      <trkpt lat="-40.184115" lon="-71.383812">
        <ele>808.8</ele>
        <time>2019-04-11T16:26:47.000Z</time>
      </trkpt>
      <trkpt lat="-40.184147" lon="-71.383806">
        <ele>809</ele>
        <time>2019-04-11T16:26:48.000Z</time>
      </trkpt>
      <trkpt lat="-40.184174" lon="-71.383785">
        <ele>809.2</ele>
        <time>2019-04-11T16:26:49.000Z</time>
      </trkpt>
      <trkpt lat="-40.184206" lon="-71.383774">
        <ele>809.4</ele>
        <time>2019-04-11T16:26:50.000Z</time>
      </trkpt>
      <trkpt lat="-40.184233" lon="-71.383758">
        <ele>809.6</ele>
        <time>2019-04-11T16:26:51.000Z</time>
      </trkpt>
      <trkpt lat="-40.184271" lon="-71.383774">
        <ele>809.8</ele>
        <time>2019-04-11T16:26:52.000Z</time>
      </trkpt>
      <trkpt lat="-40.184314" lon="-71.383769">
        <ele>810</ele>
        <time>2019-04-11T16:26:53.000Z</time>
      </trkpt>
      <trkpt lat="-40.18434" lon="-71.383753">
        <ele>810.2</ele>
        <time>2019-04-11T16:26:54.000Z</time>
      </trkpt>
      <trkpt lat="-40.184373" lon="-71.383747">
        <ele>810.4</ele>
        <time>2019-04-11T16:26:55.000Z</time>
      </trkpt>
      <trkpt lat="-40.18441" lon="-71.383731">
        <ele>810.6</ele>
        <time>2019-04-11T16:26:56.000Z</time>
      </trkpt>
      <trkpt lat="-40.184437" lon="-71.38371">
        <ele>810.8</ele>
        <time>2019-04-11T16:26:57.000Z</time>
      </trkpt>
      <trkpt lat="-40.184458" lon="-71.383683">
        <ele>811</ele>
        <time>2019-04-11T16:26:58.000Z</time>
      </trkpt>
      <trkpt lat="-40.184527" lon="-71.383742">
        <ele>811.5</ele>
        <time>2019-04-11T16:26:59.000Z</time>
      </trkpt>
      <trkpt lat="-40.184566" lon="-71.383745">
        <ele>811.8</ele>
        <time>2019-04-11T16:27:00.000Z</time>
      </trkpt>
      <trkpt lat="-40.184599" lon="-71.383735">
        <ele>812.1</ele>
        <time>2019-04-11T16:27:01.000Z</time>
      </trkpt>
      <trkpt lat="-40.184633" lon="-71.383727">
        <ele>812.3</ele>
        <time>2019-04-11T16:27:02.000Z</time>
      </trkpt>
      <trkpt lat="-40.184669" lon="-71.38372">
        <ele>812.5</ele>
        <time>2019-04-11T16:27:03.000Z</time>
      </trkpt>
      <trkpt lat="-40.184705" lon="-71.383708">
        <ele>812.7</ele>
        <time>2019-04-11T16:27:04.000Z</time>
      </trkpt>
      <trkpt lat="-40.184738" lon="-71.3837">
        <ele>813</ele>
        <time>2019-04-11T16:27:05.000Z</time>
      </trkpt>
      <trkpt lat="-40.184771" lon="-71.383688">
        <ele>813.2</ele>
        <time>2019-04-11T16:27:06.000Z</time>
      </trkpt>
      <trkpt lat="-40.184798" lon="-71.383675">
        <ele>813.3</ele>
        <time>2019-04-11T16:27:07.000Z</time>
      </trkpt>
      <trkpt lat="-40.184828" lon="-71.383672">
        <ele>813.5</ele>
        <time>2019-04-11T16:27:08.000Z</time>
      </trkpt>
      <trkpt lat="-40.184861" lon="-71.383665">
        <ele>813.7</ele>
        <time>2019-04-11T16:27:09.000Z</time>
      </trkpt>
      <trkpt lat="-40.18489" lon="-71.383656">
        <ele>813.9</ele>
        <time>2019-04-11T16:27:10.000Z</time>
      </trkpt>
      <trkpt lat="-40.184916" lon="-71.383639">
        <ele>814</ele>
        <time>2019-04-11T16:27:11.000Z</time>
      </trkpt>
      <trkpt lat="-40.184942" lon="-71.383622">
        <ele>814.2</ele>
        <time>2019-04-11T16:27:12.000Z</time>
      </trkpt>
      <trkpt lat="-40.184967" lon="-71.383602">
        <ele>814.4</ele>
        <time>2019-04-11T16:27:13.000Z</time>
      </trkpt>
      <trkpt lat="-40.184995" lon="-71.383588">
        <ele>814.6</ele>
        <time>2019-04-11T16:27:14.000Z</time>
      </trkpt>
      <trkpt lat="-40.185022" lon="-71.383571">
        <ele>814.7</ele>
        <time>2019-04-11T16:27:15.000Z</time>
      </trkpt>
      <trkpt lat="-40.185054" lon="-71.383562">
        <ele>814.9</ele>
        <time>2019-04-11T16:27:16.000Z</time>
      </trkpt>
      <trkpt lat="-40.185092" lon="-71.383551">
        <ele>815.1</ele>
        <time>2019-04-11T16:27:17.000Z</time>
      </trkpt>
      <trkpt lat="-40.185118" lon="-71.383536">
        <ele>815.3</ele>
        <time>2019-04-11T16:27:18.000Z</time>
      </trkpt>
      <trkpt lat="-40.185147" lon="-71.383515">
        <ele>815.5</ele>
        <time>2019-04-11T16:27:19.000Z</time>
      </trkpt>
      <trkpt lat="-40.185187" lon="-71.383512">
        <ele>815.7</ele>
        <time>2019-04-11T16:27:20.000Z</time>
      </trkpt>
      <trkpt lat="-40.185228" lon="-71.383517">
        <ele>816</ele>
        <time>2019-04-11T16:27:21.000Z</time>
      </trkpt>
      <trkpt lat="-40.185271" lon="-71.383518">
        <ele>816.2</ele>
        <time>2019-04-11T16:27:22.000Z</time>
      </trkpt>
      <trkpt lat="-40.185301" lon="-71.383509">
        <ele>816.4</ele>
        <time>2019-04-11T16:27:23.000Z</time>
      </trkpt>
      <trkpt lat="-40.185337" lon="-71.383505">
        <ele>816.6</ele>
        <time>2019-04-11T16:27:24.000Z</time>
      </trkpt>
      <trkpt lat="-40.185371" lon="-71.3835">
        <ele>816.8</ele>
        <time>2019-04-11T16:27:25.000Z</time>
      </trkpt>
      <trkpt lat="-40.185408" lon="-71.383493">
        <ele>817</ele>
        <time>2019-04-11T16:27:26.000Z</time>
      </trkpt>
      <trkpt lat="-40.185446" lon="-71.383485">
        <ele>817.2</ele>
        <time>2019-04-11T16:27:27.000Z</time>
      </trkpt>
      <trkpt lat="-40.185484" lon="-71.383482">
        <ele>817.4</ele>
        <time>2019-04-11T16:27:28.000Z</time>
      </trkpt>
      <trkpt lat="-40.185528" lon="-71.383477">
        <ele>817.6</ele>
        <time>2019-04-11T16:27:29.000Z</time>
      </trkpt>
      <trkpt lat="-40.185563" lon="-71.383469">
        <ele>817.8</ele>
        <time>2019-04-11T16:27:30.000Z</time>
      </trkpt>
      <trkpt lat="-40.185582" lon="-71.383441">
        <ele>818</ele>
        <time>2019-04-11T16:27:31.000Z</time>
      </trkpt>
      <trkpt lat="-40.185614" lon="-71.383435">
        <ele>818.1</ele>
        <time>2019-04-11T16:27:32.000Z</time>
      </trkpt>
      <trkpt lat="-40.185642" lon="-71.383428">
        <ele>818.3</ele>
        <time>2019-04-11T16:27:33.000Z</time>
      </trkpt>
      <trkpt lat="-40.18571" lon="-71.383411">
        <ele>818.6</ele>
        <time>2019-04-11T16:27:35.000Z</time>
      </trkpt>
      <trkpt lat="-40.185738" lon="-71.383389">
        <ele>818.8</ele>
        <time>2019-04-11T16:27:36.000Z</time>
      </trkpt>
      <trkpt lat="-40.185773" lon="-71.383387">
        <ele>819</ele>
        <time>2019-04-11T16:27:37.000Z</time>
      </trkpt>
      <trkpt lat="-40.185805" lon="-71.383374">
        <ele>819.1</ele>
        <time>2019-04-11T16:27:38.000Z</time>
      </trkpt>
      <trkpt lat="-40.185837" lon="-71.383373">
        <ele>819.3</ele>
        <time>2019-04-11T16:27:39.000Z</time>
      </trkpt>
      <trkpt lat="-40.18588" lon="-71.383359">
        <ele>819.5</ele>
        <time>2019-04-11T16:27:40.000Z</time>
      </trkpt>
      <trkpt lat="-40.185912" lon="-71.383348">
        <ele>819.7</ele>
        <time>2019-04-11T16:27:41.000Z</time>
      </trkpt>
      <trkpt lat="-40.18594" lon="-71.38333">
        <ele>819.8</ele>
        <time>2019-04-11T16:27:42.000Z</time>
      </trkpt>
      <trkpt lat="-40.185975" lon="-71.383324">
        <ele>820</ele>
        <time>2019-04-11T16:27:43.000Z</time>
      </trkpt>
      <trkpt lat="-40.185998" lon="-71.383302">
        <ele>820.1</ele>
        <time>2019-04-11T16:27:44.000Z</time>
      </trkpt>
      <trkpt lat="-40.186027" lon="-71.383272">
        <ele>820.3</ele>
        <time>2019-04-11T16:27:45.000Z</time>
      </trkpt>
      <trkpt lat="-40.186075" lon="-71.383258">
        <ele>820.6</ele>
        <time>2019-04-11T16:27:46.000Z</time>
      </trkpt>
      <trkpt lat="-40.186103" lon="-71.383238">
        <ele>820.7</ele>
        <time>2019-04-11T16:27:47.000Z</time>
      </trkpt>
      <trkpt lat="-40.186139" lon="-71.383228">
        <ele>820.9</ele>
        <time>2019-04-11T16:27:48.000Z</time>
      </trkpt>
      <trkpt lat="-40.186169" lon="-71.383226">
        <ele>821.1</ele>
        <time>2019-04-11T16:27:49.000Z</time>
      </trkpt>
      <trkpt lat="-40.186199" lon="-71.383209">
        <ele>821.2</ele>
        <time>2019-04-11T16:27:50.000Z</time>
      </trkpt>
      <trkpt lat="-40.186236" lon="-71.383197">
        <ele>821.4</ele>
        <time>2019-04-11T16:27:51.000Z</time>
      </trkpt>
      <trkpt lat="-40.18627" lon="-71.383191">
        <ele>821.6</ele>
        <time>2019-04-11T16:27:52.000Z</time>
      </trkpt>
      <trkpt lat="-40.186306" lon="-71.383163">
        <ele>821.8</ele>
        <time>2019-04-11T16:27:53.000Z</time>
      </trkpt>
      <trkpt lat="-40.186344" lon="-71.383151">
        <ele>822</ele>
        <time>2019-04-11T16:27:54.000Z</time>
      </trkpt>
      <trkpt lat="-40.186397" lon="-71.383115">
        <ele>822.3</ele>
        <time>2019-04-11T16:27:56.000Z</time>
      </trkpt>
      <trkpt lat="-40.186426" lon="-71.383104">
        <ele>822.4</ele>
        <time>2019-04-11T16:27:57.000Z</time>
      </trkpt>
      <trkpt lat="-40.186448" lon="-71.383071">
        <ele>822.6</ele>
        <time>2019-04-11T16:27:58.000Z</time>
      </trkpt>
      <trkpt lat="-40.186497" lon="-71.383077">
        <ele>822.8</ele>
        <time>2019-04-11T16:27:59.000Z</time>
      </trkpt>
      <trkpt lat="-40.186536" lon="-71.383072">
        <ele>822.9</ele>
        <time>2019-04-11T16:28:00.000Z</time>
      </trkpt>
      <trkpt lat="-40.186559" lon="-71.383046">
        <ele>823</ele>
        <time>2019-04-11T16:28:01.000Z</time>
      </trkpt>
      <trkpt lat="-40.186599" lon="-71.383029">
        <ele>823.2</ele>
        <time>2019-04-11T16:28:02.000Z</time>
      </trkpt>
      <trkpt lat="-40.186631" lon="-71.383018">
        <ele>823.4</ele>
        <time>2019-04-11T16:28:03.000Z</time>
      </trkpt>
      <trkpt lat="-40.18666" lon="-71.383003">
        <ele>823.6</ele>
        <time>2019-04-11T16:28:04.000Z</time>
      </trkpt>
      <trkpt lat="-40.186707" lon="-71.382999">
        <ele>823.9</ele>
        <time>2019-04-11T16:28:05.000Z</time>
      </trkpt>
      <trkpt lat="-40.186746" lon="-71.382984">
        <ele>824</ele>
        <time>2019-04-11T16:28:06.000Z</time>
      </trkpt>
      <trkpt lat="-40.186774" lon="-71.382996">
        <ele>824.2</ele>
        <time>2019-04-11T16:28:07.000Z</time>
      </trkpt>
      <trkpt lat="-40.186808" lon="-71.383002">
        <ele>824.3</ele>
        <time>2019-04-11T16:28:08.000Z</time>
      </trkpt>
      <trkpt lat="-40.186844" lon="-71.382978">
        <ele>824.5</ele>
        <time>2019-04-11T16:28:09.000Z</time>
      </trkpt>
      <trkpt lat="-40.186873" lon="-71.382952">
        <ele>824.6</ele>
        <time>2019-04-11T16:28:10.000Z</time>
      </trkpt>
      <trkpt lat="-40.186906" lon="-71.382955">
        <ele>824.8</ele>
        <time>2019-04-11T16:28:11.000Z</time>
      </trkpt>
      <trkpt lat="-40.186933" lon="-71.382938">
        <ele>824.9</ele>
        <time>2019-04-11T16:28:12.000Z</time>
      </trkpt>
      <trkpt lat="-40.186996" lon="-71.382937">
        <ele>825.2</ele>
        <time>2019-04-11T16:28:14.000Z</time>
      </trkpt>
      <trkpt lat="-40.187044" lon="-71.382937">
        <ele>825.4</ele>
        <time>2019-04-11T16:28:16.000Z</time>
      </trkpt>
      <trkpt lat="-40.187088" lon="-71.382945">
        <ele>825.7</ele>
        <time>2019-04-11T16:28:17.000Z</time>
      </trkpt>
      <trkpt lat="-40.187122" lon="-71.382932">
        <ele>825.9</ele>
        <time>2019-04-11T16:28:18.000Z</time>
      </trkpt>
      <trkpt lat="-40.187181" lon="-71.382926">
        <ele>826.2</ele>
        <time>2019-04-11T16:28:20.000Z</time>
      </trkpt>
      <trkpt lat="-40.18721" lon="-71.382913">
        <ele>826.3</ele>
        <time>2019-04-11T16:28:21.000Z</time>
      </trkpt>
      <trkpt lat="-40.187244" lon="-71.38291">
        <ele>826.5</ele>
        <time>2019-04-11T16:28:22.000Z</time>
      </trkpt>
      <trkpt lat="-40.187296" lon="-71.382902">
        <ele>826.8</ele>
        <time>2019-04-11T16:28:23.000Z</time>
      </trkpt>
      <trkpt lat="-40.187324" lon="-71.382886">
        <ele>827</ele>
        <time>2019-04-11T16:28:24.000Z</time>
      </trkpt>
      <trkpt lat="-40.187345" lon="-71.382852">
        <ele>827.2</ele>
        <time>2019-04-11T16:28:25.000Z</time>
      </trkpt>
      <trkpt lat="-40.187379" lon="-71.382843">
        <ele>827.4</ele>
        <time>2019-04-11T16:28:26.000Z</time>
      </trkpt>
      <trkpt lat="-40.187418" lon="-71.382841">
        <ele>827.7</ele>
        <time>2019-04-11T16:28:27.000Z</time>
      </trkpt>
      <trkpt lat="-40.187458" lon="-71.382835">
        <ele>827.9</ele>
        <time>2019-04-11T16:28:28.000Z</time>
      </trkpt>
      <trkpt lat="-40.187511" lon="-71.382847">
        <ele>828.2</ele>
        <time>2019-04-11T16:28:29.000Z</time>
      </trkpt>
      <trkpt lat="-40.187562" lon="-71.382835">
        <ele>828.4</ele>
        <time>2019-04-11T16:28:30.000Z</time>
      </trkpt>
      <trkpt lat="-40.187589" lon="-71.382816">
        <ele>828.6</ele>
        <time>2019-04-11T16:28:31.000Z</time>
      </trkpt>
      <trkpt lat="-40.18762" lon="-71.382808">
        <ele>828.8</ele>
        <time>2019-04-11T16:28:32.000Z</time>
      </trkpt>
      <trkpt lat="-40.187676" lon="-71.382775">
        <ele>829.1</ele>
        <time>2019-04-11T16:28:34.000Z</time>
      </trkpt>
      <trkpt lat="-40.187708" lon="-71.38278">
        <ele>829.2</ele>
        <time>2019-04-11T16:28:35.000Z</time>
      </trkpt>
      <trkpt lat="-40.187742" lon="-71.382771">
        <ele>829.4</ele>
        <time>2019-04-11T16:28:36.000Z</time>
      </trkpt>
      <trkpt lat="-40.187765" lon="-71.38274">
        <ele>829.5</ele>
        <time>2019-04-11T16:28:37.000Z</time>
      </trkpt>
      <trkpt lat="-40.187805" lon="-71.382742">
        <ele>829.7</ele>
        <time>2019-04-11T16:28:38.000Z</time>
      </trkpt>
      <trkpt lat="-40.187842" lon="-71.38271">
        <ele>829.9</ele>
        <time>2019-04-11T16:28:40.000Z</time>
      </trkpt>
      <trkpt lat="-40.187875" lon="-71.382688">
        <ele>829.9</ele>
        <time>2019-04-11T16:28:41.000Z</time>
      </trkpt>
      <trkpt lat="-40.187898" lon="-71.382657">
        <ele>830</ele>
        <time>2019-04-11T16:28:42.000Z</time>
      </trkpt>
      <trkpt lat="-40.187956" lon="-71.382617">
        <ele>830.2</ele>
        <time>2019-04-11T16:28:44.000Z</time>
      </trkpt>
      <trkpt lat="-40.187994" lon="-71.38261">
        <ele>830.3</ele>
        <time>2019-04-11T16:28:45.000Z</time>
      </trkpt>
      <trkpt lat="-40.188037" lon="-71.382594">
        <ele>830.4</ele>
        <time>2019-04-11T16:28:46.000Z</time>
      </trkpt>
      <trkpt lat="-40.188074" lon="-71.382578">
        <ele>830.5</ele>
        <time>2019-04-11T16:28:47.000Z</time>
      </trkpt>
      <trkpt lat="-40.188106" lon="-71.382551">
        <ele>830.5</ele>
        <time>2019-04-11T16:28:48.000Z</time>
      </trkpt>
      <trkpt lat="-40.188133" lon="-71.382508">
        <ele>830.6</ele>
        <time>2019-04-11T16:28:49.000Z</time>
      </trkpt>
      <trkpt lat="-40.188176" lon="-71.382481">
        <ele>830.7</ele>
        <time>2019-04-11T16:28:50.000Z</time>
      </trkpt>
      <trkpt lat="-40.188208" lon="-71.38246">
        <ele>830.8</ele>
        <time>2019-04-11T16:28:51.000Z</time>
      </trkpt>
      <trkpt lat="-40.18823" lon="-71.382428">
        <ele>830.9</ele>
        <time>2019-04-11T16:28:52.000Z</time>
      </trkpt>
      <trkpt lat="-40.188262" lon="-71.38239">
        <ele>831</ele>
        <time>2019-04-11T16:28:53.000Z</time>
      </trkpt>
      <trkpt lat="-40.188289" lon="-71.382358">
        <ele>831.1</ele>
        <time>2019-04-11T16:28:54.000Z</time>
      </trkpt>
      <trkpt lat="-40.188316" lon="-71.382315">
        <ele>831.2</ele>
        <time>2019-04-11T16:28:55.000Z</time>
      </trkpt>
      <trkpt lat="-40.188353" lon="-71.382283">
        <ele>831.3</ele>
        <time>2019-04-11T16:28:56.000Z</time>
      </trkpt>
      <trkpt lat="-40.188375" lon="-71.382251">
        <ele>831.4</ele>
        <time>2019-04-11T16:28:57.000Z</time>
      </trkpt>
      <trkpt lat="-40.188417" lon="-71.382219">
        <ele>831.6</ele>
        <time>2019-04-11T16:28:58.000Z</time>
      </trkpt>
      <trkpt lat="-40.18845" lon="-71.382197">
        <ele>831.7</ele>
        <time>2019-04-11T16:28:59.000Z</time>
      </trkpt>
      <trkpt lat="-40.188476" lon="-71.382138">
        <ele>831.9</ele>
        <time>2019-04-11T16:29:00.000Z</time>
      </trkpt>
      <trkpt lat="-40.188503" lon="-71.382095">
        <ele>832</ele>
        <time>2019-04-11T16:29:01.000Z</time>
      </trkpt>
      <trkpt lat="-40.188541" lon="-71.382058">
        <ele>832.2</ele>
        <time>2019-04-11T16:29:02.000Z</time>
      </trkpt>
      <trkpt lat="-40.188568" lon="-71.382015">
        <ele>832.3</ele>
        <time>2019-04-11T16:29:03.000Z</time>
      </trkpt>
      <trkpt lat="-40.1886" lon="-71.381972">
        <ele>832.5</ele>
        <time>2019-04-11T16:29:04.000Z</time>
      </trkpt>
      <trkpt lat="-40.188632" lon="-71.381929">
        <ele>832.7</ele>
        <time>2019-04-11T16:29:05.000Z</time>
      </trkpt>
      <trkpt lat="-40.188664" lon="-71.381886">
        <ele>832.9</ele>
        <time>2019-04-11T16:29:06.000Z</time>
      </trkpt>
      <trkpt lat="-40.188691" lon="-71.381843">
        <ele>833.1</ele>
        <time>2019-04-11T16:29:07.000Z</time>
      </trkpt>
      <trkpt lat="-40.188723" lon="-71.381795">
        <ele>833.3</ele>
        <time>2019-04-11T16:29:08.000Z</time>
      </trkpt>
      <trkpt lat="-40.188755" lon="-71.381757">
        <ele>833.5</ele>
        <time>2019-04-11T16:29:09.000Z</time>
      </trkpt>
      <trkpt lat="-40.188788" lon="-71.381714">
        <ele>833.7</ele>
        <time>2019-04-11T16:29:10.000Z</time>
      </trkpt>
      <trkpt lat="-40.18882" lon="-71.381671">
        <ele>834</ele>
        <time>2019-04-11T16:29:11.000Z</time>
      </trkpt>
      <trkpt lat="-40.188847" lon="-71.381629">
        <ele>834.3</ele>
        <time>2019-04-11T16:29:12.000Z</time>
      </trkpt>
      <trkpt lat="-40.188879" lon="-71.38158">
        <ele>834.6</ele>
        <time>2019-04-11T16:29:13.000Z</time>
      </trkpt>
      <trkpt lat="-40.188911" lon="-71.381543">
        <ele>834.9</ele>
        <time>2019-04-11T16:29:14.000Z</time>
      </trkpt>
      <trkpt lat="-40.188943" lon="-71.3815">
        <ele>835.1</ele>
        <time>2019-04-11T16:29:15.000Z</time>
      </trkpt>
      <trkpt lat="-40.189473" lon="-71.380617">
        <ele>840.5</ele>
        <time>2019-04-11T16:29:36.000Z</time>
      </trkpt>
      <trkpt lat="-40.189488" lon="-71.380526">
        <ele>840.9</ele>
        <time>2019-04-11T16:29:37.000Z</time>
      </trkpt>
      <trkpt lat="-40.189534" lon="-71.380532">
        <ele>841.1</ele>
        <time>2019-04-11T16:29:38.000Z</time>
      </trkpt>
      <trkpt lat="-40.189549" lon="-71.380481">
        <ele>841.3</ele>
        <time>2019-04-11T16:29:39.000Z</time>
      </trkpt>
      <trkpt lat="-40.189582" lon="-71.380448">
        <ele>841.5</ele>
        <time>2019-04-11T16:29:40.000Z</time>
      </trkpt>
      <trkpt lat="-40.189603" lon="-71.380405">
        <ele>841.7</ele>
        <time>2019-04-11T16:29:41.000Z</time>
      </trkpt>
      <trkpt lat="-40.189624" lon="-71.380368">
        <ele>841.9</ele>
        <time>2019-04-11T16:29:42.000Z</time>
      </trkpt>
      <trkpt lat="-40.189641" lon="-71.380314">
        <ele>842.1</ele>
        <time>2019-04-11T16:29:43.000Z</time>
      </trkpt>
      <trkpt lat="-40.189662" lon="-71.380266">
        <ele>842.3</ele>
        <time>2019-04-11T16:29:44.000Z</time>
      </trkpt>
      <trkpt lat="-40.189683" lon="-71.380228">
        <ele>842.5</ele>
        <time>2019-04-11T16:29:45.000Z</time>
      </trkpt>
      <trkpt lat="-40.18971" lon="-71.380191">
        <ele>842.7</ele>
        <time>2019-04-11T16:29:46.000Z</time>
      </trkpt>
      <trkpt lat="-40.189737" lon="-71.380153">
        <ele>842.9</ele>
        <time>2019-04-11T16:29:47.000Z</time>
      </trkpt>
      <trkpt lat="-40.189759" lon="-71.38011">
        <ele>843.1</ele>
        <time>2019-04-11T16:29:48.000Z</time>
      </trkpt>
      <trkpt lat="-40.189785" lon="-71.380073">
        <ele>843.4</ele>
        <time>2019-04-11T16:29:49.000Z</time>
      </trkpt>
      <trkpt lat="-40.189818" lon="-71.380046">
        <ele>843.6</ele>
        <time>2019-04-11T16:29:50.000Z</time>
      </trkpt>
      <trkpt lat="-40.189839" lon="-71.379998">
        <ele>843.8</ele>
        <time>2019-04-11T16:29:51.000Z</time>
      </trkpt>
      <trkpt lat="-40.18986" lon="-71.379955">
        <ele>844</ele>
        <time>2019-04-11T16:29:52.000Z</time>
      </trkpt>
      <trkpt lat="-40.189882" lon="-71.379917">
        <ele>844.2</ele>
        <time>2019-04-11T16:29:53.000Z</time>
      </trkpt>
      <trkpt lat="-40.189909" lon="-71.37988">
        <ele>844.4</ele>
        <time>2019-04-11T16:29:54.000Z</time>
      </trkpt>
      <trkpt lat="-40.18993" lon="-71.379837">
        <ele>844.5</ele>
        <time>2019-04-11T16:29:55.000Z</time>
      </trkpt>
      <trkpt lat="-40.189957" lon="-71.379794">
        <ele>844.7</ele>
        <time>2019-04-11T16:29:56.000Z</time>
      </trkpt>
      <trkpt lat="-40.189978" lon="-71.379767">
        <ele>844.8</ele>
        <time>2019-04-11T16:29:57.000Z</time>
      </trkpt>
      <trkpt lat="-40.189995" lon="-71.379708">
        <ele>845</ele>
        <time>2019-04-11T16:29:58.000Z</time>
      </trkpt>
      <trkpt lat="-40.190037" lon="-71.379676">
        <ele>845.3</ele>
        <time>2019-04-11T16:29:59.000Z</time>
      </trkpt>
      <trkpt lat="-40.190054" lon="-71.379622">
        <ele>845.5</ele>
        <time>2019-04-11T16:30:00.000Z</time>
      </trkpt>
      <trkpt lat="-40.19007" lon="-71.379574">
        <ele>845.6</ele>
        <time>2019-04-11T16:30:01.000Z</time>
      </trkpt>
      <trkpt lat="-40.190096" lon="-71.379531">
        <ele>845.8</ele>
        <time>2019-04-11T16:30:02.000Z</time>
      </trkpt>
      <trkpt lat="-40.190113" lon="-71.379483">
        <ele>846</ele>
        <time>2019-04-11T16:30:03.000Z</time>
      </trkpt>
      <trkpt lat="-40.190145" lon="-71.379445">
        <ele>846.2</ele>
        <time>2019-04-11T16:30:04.000Z</time>
      </trkpt>
      <trkpt lat="-40.190156" lon="-71.379397">
        <ele>846.3</ele>
        <time>2019-04-11T16:30:05.000Z</time>
      </trkpt>
      <trkpt lat="-40.190182" lon="-71.379349">
        <ele>846.5</ele>
        <time>2019-04-11T16:30:06.000Z</time>
      </trkpt>
      <trkpt lat="-40.190209" lon="-71.379295">
        <ele>846.7</ele>
        <time>2019-04-11T16:30:07.000Z</time>
      </trkpt>
      <trkpt lat="-40.190231" lon="-71.379252">
        <ele>846.9</ele>
        <time>2019-04-11T16:30:08.000Z</time>
      </trkpt>
      <trkpt lat="-40.190257" lon="-71.379215">
        <ele>847.1</ele>
        <time>2019-04-11T16:30:09.000Z</time>
      </trkpt>
      <trkpt lat="-40.190279" lon="-71.379182">
        <ele>847.2</ele>
        <time>2019-04-11T16:30:10.000Z</time>
      </trkpt>
      <trkpt lat="-40.190306" lon="-71.379134">
        <ele>847.4</ele>
        <time>2019-04-11T16:30:11.000Z</time>
      </trkpt>
      <trkpt lat="-40.190327" lon="-71.379097">
        <ele>847.6</ele>
        <time>2019-04-11T16:30:12.000Z</time>
      </trkpt>
      <trkpt lat="-40.190365" lon="-71.379075">
        <ele>847.8</ele>
        <time>2019-04-11T16:30:13.000Z</time>
      </trkpt>
      <trkpt lat="-40.190402" lon="-71.379048">
        <ele>848</ele>
        <time>2019-04-11T16:30:14.000Z</time>
      </trkpt>
      <trkpt lat="-40.190429" lon="-71.379011">
        <ele>848.2</ele>
        <time>2019-04-11T16:30:15.000Z</time>
      </trkpt>
      <trkpt lat="-40.190451" lon="-71.378973">
        <ele>848.4</ele>
        <time>2019-04-11T16:30:16.000Z</time>
      </trkpt>
      <trkpt lat="-40.190477" lon="-71.378919">
        <ele>848.6</ele>
        <time>2019-04-11T16:30:17.000Z</time>
      </trkpt>
      <trkpt lat="-40.190504" lon="-71.378893">
        <ele>848.8</ele>
        <time>2019-04-11T16:30:18.000Z</time>
      </trkpt>
      <trkpt lat="-40.190531" lon="-71.378844">
        <ele>849</ele>
        <time>2019-04-11T16:30:19.000Z</time>
      </trkpt>
      <trkpt lat="-40.190547" lon="-71.378791">
        <ele>849.2</ele>
        <time>2019-04-11T16:30:20.000Z</time>
      </trkpt>
      <trkpt lat="-40.190574" lon="-71.378759">
        <ele>849.4</ele>
        <time>2019-04-11T16:30:21.000Z</time>
      </trkpt>
      <trkpt lat="-40.190595" lon="-71.37871">
        <ele>849.6</ele>
        <time>2019-04-11T16:30:22.000Z</time>
      </trkpt>
      <trkpt lat="-40.190622" lon="-71.378673">
        <ele>849.7</ele>
        <time>2019-04-11T16:30:23.000Z</time>
      </trkpt>
      <trkpt lat="-40.190654" lon="-71.378651">
        <ele>849.9</ele>
        <time>2019-04-11T16:30:24.000Z</time>
      </trkpt>
      <trkpt lat="-40.190687" lon="-71.378619">
        <ele>850.1</ele>
        <time>2019-04-11T16:30:25.000Z</time>
      </trkpt>
      <trkpt lat="-40.190697" lon="-71.378576">
        <ele>850.2</ele>
        <time>2019-04-11T16:30:26.000Z</time>
      </trkpt>
      <trkpt lat="-40.190724" lon="-71.378544">
        <ele>850.4</ele>
        <time>2019-04-11T16:30:27.000Z</time>
      </trkpt>
      <trkpt lat="-40.190756" lon="-71.378533">
        <ele>850.5</ele>
        <time>2019-04-11T16:30:28.000Z</time>
      </trkpt>
      <trkpt lat="-40.190762" lon="-71.37848">
        <ele>850.7</ele>
        <time>2019-04-11T16:30:29.000Z</time>
      </trkpt>
      <trkpt lat="-40.190789" lon="-71.378437">
        <ele>850.9</ele>
        <time>2019-04-11T16:30:30.000Z</time>
      </trkpt>
      <trkpt lat="-40.190815" lon="-71.378399">
        <ele>851</ele>
        <time>2019-04-11T16:30:31.000Z</time>
      </trkpt>
      <trkpt lat="-40.190848" lon="-71.378345">
        <ele>851.3</ele>
        <time>2019-04-11T16:30:32.000Z</time>
      </trkpt>
      <trkpt lat="-40.19088" lon="-71.378308">
        <ele>851.4</ele>
        <time>2019-04-11T16:30:33.000Z</time>
      </trkpt>
      <trkpt lat="-40.190923" lon="-71.378276">
        <ele>851.7</ele>
        <time>2019-04-11T16:30:34.000Z</time>
      </trkpt>
      <trkpt lat="-40.190944" lon="-71.378222">
        <ele>851.9</ele>
        <time>2019-04-11T16:30:35.000Z</time>
      </trkpt>
      <trkpt lat="-40.190971" lon="-71.378174">
        <ele>852.1</ele>
        <time>2019-04-11T16:30:36.000Z</time>
      </trkpt>
      <trkpt lat="-40.191019" lon="-71.378163">
        <ele>852.3</ele>
        <time>2019-04-11T16:30:37.000Z</time>
      </trkpt>
      <trkpt lat="-40.191046" lon="-71.378142">
        <ele>852.5</ele>
        <time>2019-04-11T16:30:38.000Z</time>
      </trkpt>
      <trkpt lat="-40.191073" lon="-71.378115">
        <ele>852.6</ele>
        <time>2019-04-11T16:30:39.000Z</time>
      </trkpt>
      <trkpt lat="-40.191089" lon="-71.378072">
        <ele>852.8</ele>
        <time>2019-04-11T16:30:40.000Z</time>
      </trkpt>
      <trkpt lat="-40.19111" lon="-71.378024">
        <ele>853</ele>
        <time>2019-04-11T16:30:41.000Z</time>
      </trkpt>
      <trkpt lat="-40.191126" lon="-71.377975">
        <ele>853.2</ele>
        <time>2019-04-11T16:30:42.000Z</time>
      </trkpt>
      <trkpt lat="-40.191159" lon="-71.377954">
        <ele>853.4</ele>
        <time>2019-04-11T16:30:43.000Z</time>
      </trkpt>
      <trkpt lat="-40.19118" lon="-71.377922">
        <ele>853.6</ele>
        <time>2019-04-11T16:30:44.000Z</time>
      </trkpt>
      <trkpt lat="-40.191202" lon="-71.37789">
        <ele>853.7</ele>
        <time>2019-04-11T16:30:45.000Z</time>
      </trkpt>
      <trkpt lat="-40.191228" lon="-71.377841">
        <ele>854</ele>
        <time>2019-04-11T16:30:46.000Z</time>
      </trkpt>
      <trkpt lat="-40.19125" lon="-71.377788">
        <ele>854.2</ele>
        <time>2019-04-11T16:30:47.000Z</time>
      </trkpt>
      <trkpt lat="-40.191271" lon="-71.377745">
        <ele>854.5</ele>
        <time>2019-04-11T16:30:48.000Z</time>
      </trkpt>
      <trkpt lat="-40.191316" lon="-71.377749">
        <ele>854.8</ele>
        <time>2019-04-11T16:30:49.000Z</time>
      </trkpt>
      <trkpt lat="-40.191345" lon="-71.377715">
        <ele>855</ele>
        <time>2019-04-11T16:30:50.000Z</time>
      </trkpt>
      <trkpt lat="-40.191372" lon="-71.377679">
        <ele>855.2</ele>
        <time>2019-04-11T16:30:51.000Z</time>
      </trkpt>
      <trkpt lat="-40.191404" lon="-71.377656">
        <ele>855.4</ele>
        <time>2019-04-11T16:30:52.000Z</time>
      </trkpt>
      <trkpt lat="-40.191434" lon="-71.377618">
        <ele>855.6</ele>
        <time>2019-04-11T16:30:53.000Z</time>
      </trkpt>
      <trkpt lat="-40.191453" lon="-71.377573">
        <ele>855.8</ele>
        <time>2019-04-11T16:30:54.000Z</time>
      </trkpt>
      <trkpt lat="-40.191475" lon="-71.377543">
        <ele>855.9</ele>
        <time>2019-04-11T16:30:55.000Z</time>
      </trkpt>
      <trkpt lat="-40.191504" lon="-71.377513">
        <ele>856.1</ele>
        <time>2019-04-11T16:30:56.000Z</time>
      </trkpt>
      <trkpt lat="-40.19153" lon="-71.377477">
        <ele>856.2</ele>
        <time>2019-04-11T16:30:57.000Z</time>
      </trkpt>
      <trkpt lat="-40.191562" lon="-71.377452">
        <ele>856.4</ele>
        <time>2019-04-11T16:30:58.000Z</time>
      </trkpt>
      <trkpt lat="-40.191587" lon="-71.377415">
        <ele>856.6</ele>
        <time>2019-04-11T16:30:59.000Z</time>
      </trkpt>
      <trkpt lat="-40.191608" lon="-71.377359">
        <ele>856.7</ele>
        <time>2019-04-11T16:31:00.000Z</time>
      </trkpt>
      <trkpt lat="-40.191642" lon="-71.377361">
        <ele>856.9</ele>
        <time>2019-04-11T16:31:01.000Z</time>
      </trkpt>
      <trkpt lat="-40.191644" lon="-71.377303">
        <ele>857</ele>
        <time>2019-04-11T16:31:02.000Z</time>
      </trkpt>
      <trkpt lat="-40.191679" lon="-71.377269">
        <ele>857.2</ele>
        <time>2019-04-11T16:31:03.000Z</time>
      </trkpt>
      <trkpt lat="-40.191701" lon="-71.377209">
        <ele>857.4</ele>
        <time>2019-04-11T16:31:04.000Z</time>
      </trkpt>
      <trkpt lat="-40.19172" lon="-71.377161">
        <ele>857.6</ele>
        <time>2019-04-11T16:31:05.000Z</time>
      </trkpt>
      <trkpt lat="-40.191749" lon="-71.377133">
        <ele>857.7</ele>
        <time>2019-04-11T16:31:06.000Z</time>
      </trkpt>
      <trkpt lat="-40.191776" lon="-71.377099">
        <ele>857.8</ele>
        <time>2019-04-11T16:31:07.000Z</time>
      </trkpt>
      <trkpt lat="-40.191788" lon="-71.377042">
        <ele>857.9</ele>
        <time>2019-04-11T16:31:08.000Z</time>
      </trkpt>
      <trkpt lat="-40.191808" lon="-71.37701">
        <ele>858</ele>
        <time>2019-04-11T16:31:09.000Z</time>
      </trkpt>
      <trkpt lat="-40.191817" lon="-71.376949">
        <ele>858.1</ele>
        <time>2019-04-11T16:31:10.000Z</time>
      </trkpt>
      <trkpt lat="-40.191827" lon="-71.37689">
        <ele>858.2</ele>
        <time>2019-04-11T16:31:11.000Z</time>
      </trkpt>
      <trkpt lat="-40.191861" lon="-71.376865">
        <ele>858.3</ele>
        <time>2019-04-11T16:31:12.000Z</time>
      </trkpt>
      <trkpt lat="-40.191877" lon="-71.376817">
        <ele>858.5</ele>
        <time>2019-04-11T16:31:13.000Z</time>
      </trkpt>
      <trkpt lat="-40.191907" lon="-71.376773">
        <ele>858.6</ele>
        <time>2019-04-11T16:31:14.000Z</time>
      </trkpt>
      <trkpt lat="-40.191936" lon="-71.376744">
        <ele>858.7</ele>
        <time>2019-04-11T16:31:15.000Z</time>
      </trkpt>
      <trkpt lat="-40.191948" lon="-71.376703">
        <ele>858.8</ele>
        <time>2019-04-11T16:31:16.000Z</time>
      </trkpt>
      <trkpt lat="-40.19197" lon="-71.376659">
        <ele>858.9</ele>
        <time>2019-04-11T16:31:17.000Z</time>
      </trkpt>
      <trkpt lat="-40.191993" lon="-71.376619">
        <ele>859</ele>
        <time>2019-04-11T16:31:18.000Z</time>
      </trkpt>
      <trkpt lat="-40.192008" lon="-71.376566">
        <ele>859.2</ele>
        <time>2019-04-11T16:31:19.000Z</time>
      </trkpt>
      <trkpt lat="-40.192024" lon="-71.376517">
        <ele>859.3</ele>
        <time>2019-04-11T16:31:20.000Z</time>
      </trkpt>
      <trkpt lat="-40.192044" lon="-71.376469">
        <ele>859.4</ele>
        <time>2019-04-11T16:31:21.000Z</time>
      </trkpt>
      <trkpt lat="-40.192058" lon="-71.376418">
        <ele>859.6</ele>
        <time>2019-04-11T16:31:22.000Z</time>
      </trkpt>
      <trkpt lat="-40.192081" lon="-71.376383">
        <ele>859.7</ele>
        <time>2019-04-11T16:31:23.000Z</time>
      </trkpt>
      <trkpt lat="-40.192115" lon="-71.376339">
        <ele>859.8</ele>
        <time>2019-04-11T16:31:24.000Z</time>
      </trkpt>
      <trkpt lat="-40.192137" lon="-71.376299">
        <ele>860</ele>
        <time>2019-04-11T16:31:25.000Z</time>
      </trkpt>
      <trkpt lat="-40.192152" lon="-71.376259">
        <ele>860.1</ele>
        <time>2019-04-11T16:31:26.000Z</time>
      </trkpt>
      <trkpt lat="-40.192177" lon="-71.376216">
        <ele>860.2</ele>
        <time>2019-04-11T16:31:27.000Z</time>
      </trkpt>
      <trkpt lat="-40.192194" lon="-71.376172">
        <ele>860.3</ele>
        <time>2019-04-11T16:31:28.000Z</time>
      </trkpt>
      <trkpt lat="-40.192208" lon="-71.37612">
        <ele>860.5</ele>
        <time>2019-04-11T16:31:29.000Z</time>
      </trkpt>
      <trkpt lat="-40.192223" lon="-71.37607">
        <ele>860.8</ele>
        <time>2019-04-11T16:31:30.000Z</time>
      </trkpt>
      <trkpt lat="-40.192239" lon="-71.37599">
        <ele>861</ele>
        <time>2019-04-11T16:31:31.000Z</time>
      </trkpt>
      <trkpt lat="-40.192268" lon="-71.37594">
        <ele>861.2</ele>
        <time>2019-04-11T16:31:32.000Z</time>
      </trkpt>
      <trkpt lat="-40.192293" lon="-71.375903">
        <ele>861.4</ele>
        <time>2019-04-11T16:31:33.000Z</time>
      </trkpt>
      <trkpt lat="-40.192322" lon="-71.375867">
        <ele>861.6</ele>
        <time>2019-04-11T16:31:34.000Z</time>
      </trkpt>
      <trkpt lat="-40.192337" lon="-71.375821">
        <ele>861.8</ele>
        <time>2019-04-11T16:31:35.000Z</time>
      </trkpt>
      <trkpt lat="-40.192367" lon="-71.375788">
        <ele>862</ele>
        <time>2019-04-11T16:31:36.000Z</time>
      </trkpt>
      <trkpt lat="-40.192374" lon="-71.375738">
        <ele>862.2</ele>
        <time>2019-04-11T16:31:37.000Z</time>
      </trkpt>
      <trkpt lat="-40.192395" lon="-71.375712">
        <ele>862.3</ele>
        <time>2019-04-11T16:31:38.000Z</time>
      </trkpt>
      <trkpt lat="-40.192415" lon="-71.375687">
        <ele>862.4</ele>
        <time>2019-04-11T16:31:39.000Z</time>
      </trkpt>
      <trkpt lat="-40.192422" lon="-71.375647">
        <ele>862.6</ele>
        <time>2019-04-11T16:31:40.000Z</time>
      </trkpt>
      <trkpt lat="-40.192446" lon="-71.375609">
        <ele>862.7</ele>
        <time>2019-04-11T16:31:41.000Z</time>
      </trkpt>
      <trkpt lat="-40.19247" lon="-71.375587">
        <ele>862.9</ele>
        <time>2019-04-11T16:31:42.000Z</time>
      </trkpt>
      <trkpt lat="-40.192481" lon="-71.375543">
        <ele>863</ele>
        <time>2019-04-11T16:31:43.000Z</time>
      </trkpt>
      <trkpt lat="-40.192502" lon="-71.375511">
        <ele>863.2</ele>
        <time>2019-04-11T16:31:44.000Z</time>
      </trkpt>
      <trkpt lat="-40.192521" lon="-71.375465">
        <ele>863.3</ele>
        <time>2019-04-11T16:31:45.000Z</time>
      </trkpt>
      <trkpt lat="-40.192536" lon="-71.375407">
        <ele>863.6</ele>
        <time>2019-04-11T16:31:46.000Z</time>
      </trkpt>
      <trkpt lat="-40.192553" lon="-71.37535">
        <ele>863.8</ele>
        <time>2019-04-11T16:31:47.000Z</time>
      </trkpt>
      <trkpt lat="-40.192575" lon="-71.375304">
        <ele>864</ele>
        <time>2019-04-11T16:31:48.000Z</time>
      </trkpt>
      <trkpt lat="-40.19259" lon="-71.37526">
        <ele>864.1</ele>
        <time>2019-04-11T16:31:49.000Z</time>
      </trkpt>
      <trkpt lat="-40.192612" lon="-71.375216">
        <ele>864.3</ele>
        <time>2019-04-11T16:31:50.000Z</time>
      </trkpt>
      <trkpt lat="-40.19263" lon="-71.375172">
        <ele>864.5</ele>
        <time>2019-04-11T16:31:51.000Z</time>
      </trkpt>
      <trkpt lat="-40.192673" lon="-71.375117">
        <ele>864.8</ele>
        <time>2019-04-11T16:31:53.000Z</time>
      </trkpt>
      <trkpt lat="-40.192692" lon="-71.375075">
        <ele>865</ele>
        <time>2019-04-11T16:31:54.000Z</time>
      </trkpt>
      <trkpt lat="-40.192716" lon="-71.375032">
        <ele>865.2</ele>
        <time>2019-04-11T16:31:55.000Z</time>
      </trkpt>
      <trkpt lat="-40.192739" lon="-71.374998">
        <ele>865.4</ele>
        <time>2019-04-11T16:31:56.000Z</time>
      </trkpt>
      <trkpt lat="-40.192762" lon="-71.374963">
        <ele>865.6</ele>
        <time>2019-04-11T16:31:57.000Z</time>
      </trkpt>
      <trkpt lat="-40.19279" lon="-71.374924">
        <ele>865.8</ele>
        <time>2019-04-11T16:31:58.000Z</time>
      </trkpt>
      <trkpt lat="-40.192807" lon="-71.374892">
        <ele>866</ele>
        <time>2019-04-11T16:31:59.000Z</time>
      </trkpt>
      <trkpt lat="-40.192838" lon="-71.374857">
        <ele>866.3</ele>
        <time>2019-04-11T16:32:00.000Z</time>
      </trkpt>
      <trkpt lat="-40.192853" lon="-71.374809">
        <ele>866.6</ele>
        <time>2019-04-11T16:32:01.000Z</time>
      </trkpt>
      <trkpt lat="-40.192873" lon="-71.374774">
        <ele>866.9</ele>
        <time>2019-04-11T16:32:02.000Z</time>
      </trkpt>
      <trkpt lat="-40.192907" lon="-71.374742">
        <ele>867.3</ele>
        <time>2019-04-11T16:32:03.000Z</time>
      </trkpt>
      <trkpt lat="-40.192922" lon="-71.374702">
        <ele>867.5</ele>
        <time>2019-04-11T16:32:04.000Z</time>
      </trkpt>
      <trkpt lat="-40.192948" lon="-71.374677">
        <ele>867.8</ele>
        <time>2019-04-11T16:32:05.000Z</time>
      </trkpt>
      <trkpt lat="-40.192993" lon="-71.374649">
        <ele>868.2</ele>
        <time>2019-04-11T16:32:06.000Z</time>
      </trkpt>
      <trkpt lat="-40.193019" lon="-71.374598">
        <ele>868.4</ele>
        <time>2019-04-11T16:32:07.000Z</time>
      </trkpt>
      <trkpt lat="-40.193051" lon="-71.374568">
        <ele>868.7</ele>
        <time>2019-04-11T16:32:08.000Z</time>
      </trkpt>
      <trkpt lat="-40.193074" lon="-71.374533">
        <ele>868.9</ele>
        <time>2019-04-11T16:32:09.000Z</time>
      </trkpt>
      <trkpt lat="-40.193105" lon="-71.374501">
        <ele>869.1</ele>
        <time>2019-04-11T16:32:10.000Z</time>
      </trkpt>
      <trkpt lat="-40.193133" lon="-71.374481">
        <ele>869.3</ele>
        <time>2019-04-11T16:32:11.000Z</time>
      </trkpt>
      <trkpt lat="-40.193171" lon="-71.37444">
        <ele>869.7</ele>
        <time>2019-04-11T16:32:12.000Z</time>
      </trkpt>
      <trkpt lat="-40.193203" lon="-71.374406">
        <ele>870</ele>
        <time>2019-04-11T16:32:13.000Z</time>
      </trkpt>
      <trkpt lat="-40.193225" lon="-71.374371">
        <ele>870.1</ele>
        <time>2019-04-11T16:32:14.000Z</time>
      </trkpt>
      <trkpt lat="-40.193241" lon="-71.374333">
        <ele>870.3</ele>
        <time>2019-04-11T16:32:15.000Z</time>
      </trkpt>
      <trkpt lat="-40.193292" lon="-71.374312">
        <ele>870.6</ele>
        <time>2019-04-11T16:32:16.000Z</time>
      </trkpt>
      <trkpt lat="-40.193325" lon="-71.374286">
        <ele>870.8</ele>
        <time>2019-04-11T16:32:17.000Z</time>
      </trkpt>
      <trkpt lat="-40.193352" lon="-71.374268">
        <ele>870.9</ele>
        <time>2019-04-11T16:32:18.000Z</time>
      </trkpt>
      <trkpt lat="-40.193387" lon="-71.374262">
        <ele>871.1</ele>
        <time>2019-04-11T16:32:19.000Z</time>
      </trkpt>
      <trkpt lat="-40.19343" lon="-71.374248">
        <ele>871.3</ele>
        <time>2019-04-11T16:32:20.000Z</time>
      </trkpt>
      <trkpt lat="-40.1935" lon="-71.374217">
        <ele>871.7</ele>
        <time>2019-04-11T16:32:22.000Z</time>
      </trkpt>
      <trkpt lat="-40.19357" lon="-71.374201">
        <ele>872.1</ele>
        <time>2019-04-11T16:32:23.000Z</time>
      </trkpt>
      <trkpt lat="-40.193613" lon="-71.374193">
        <ele>872.3</ele>
        <time>2019-04-11T16:32:24.000Z</time>
      </trkpt>
      <trkpt lat="-40.193655" lon="-71.37419">
        <ele>872.5</ele>
        <time>2019-04-11T16:32:25.000Z</time>
      </trkpt>
      <trkpt lat="-40.193687" lon="-71.374197">
        <ele>872.6</ele>
        <time>2019-04-11T16:32:26.000Z</time>
      </trkpt>
      <trkpt lat="-40.193729" lon="-71.374198">
        <ele>872.8</ele>
        <time>2019-04-11T16:32:27.000Z</time>
      </trkpt>
      <trkpt lat="-40.193757" lon="-71.374191">
        <ele>873</ele>
        <time>2019-04-11T16:32:28.000Z</time>
      </trkpt>
      <trkpt lat="-40.193791" lon="-71.374194">
        <ele>873.2</ele>
        <time>2019-04-11T16:32:29.000Z</time>
      </trkpt>
      <trkpt lat="-40.193825" lon="-71.374188">
        <ele>873.4</ele>
        <time>2019-04-11T16:32:30.000Z</time>
      </trkpt>
      <trkpt lat="-40.193875" lon="-71.374179">
        <ele>873.7</ele>
        <time>2019-04-11T16:32:31.000Z</time>
      </trkpt>
      <trkpt lat="-40.193907" lon="-71.374168">
        <ele>873.9</ele>
        <time>2019-04-11T16:32:32.000Z</time>
      </trkpt>
      <trkpt lat="-40.193942" lon="-71.374147">
        <ele>874.1</ele>
        <time>2019-04-11T16:32:33.000Z</time>
      </trkpt>
      <trkpt lat="-40.193983" lon="-71.37417">
        <ele>874.4</ele>
        <time>2019-04-11T16:32:34.000Z</time>
      </trkpt>
      <trkpt lat="-40.194015" lon="-71.374158">
        <ele>874.6</ele>
        <time>2019-04-11T16:32:35.000Z</time>
      </trkpt>
      <trkpt lat="-40.194055" lon="-71.374161">
        <ele>874.8</ele>
        <time>2019-04-11T16:32:36.000Z</time>
      </trkpt>
      <trkpt lat="-40.194089" lon="-71.374174">
        <ele>875</ele>
        <time>2019-04-11T16:32:37.000Z</time>
      </trkpt>
      <trkpt lat="-40.194126" lon="-71.374181">
        <ele>875.2</ele>
        <time>2019-04-11T16:32:38.000Z</time>
      </trkpt>
      <trkpt lat="-40.194172" lon="-71.374171">
        <ele>875.5</ele>
        <time>2019-04-11T16:32:39.000Z</time>
      </trkpt>
      <trkpt lat="-40.194202" lon="-71.374167">
        <ele>875.6</ele>
        <time>2019-04-11T16:32:40.000Z</time>
      </trkpt>
      <trkpt lat="-40.19424" lon="-71.374168">
        <ele>875.9</ele>
        <time>2019-04-11T16:32:41.000Z</time>
      </trkpt>
      <trkpt lat="-40.194284" lon="-71.374136">
        <ele>876.1</ele>
        <time>2019-04-11T16:32:43.000Z</time>
      </trkpt>
      <trkpt lat="-40.194316" lon="-71.374127">
        <ele>876.3</ele>
        <time>2019-04-11T16:32:44.000Z</time>
      </trkpt>
      <trkpt lat="-40.194353" lon="-71.374131">
        <ele>876.5</ele>
        <time>2019-04-11T16:32:45.000Z</time>
      </trkpt>
      <trkpt lat="-40.194397" lon="-71.374129">
        <ele>876.7</ele>
        <time>2019-04-11T16:32:46.000Z</time>
      </trkpt>
      <trkpt lat="-40.194437" lon="-71.374129">
        <ele>876.9</ele>
        <time>2019-04-11T16:32:47.000Z</time>
      </trkpt>
      <trkpt lat="-40.194467" lon="-71.374111">
        <ele>877</ele>
        <time>2019-04-11T16:32:48.000Z</time>
      </trkpt>
      <trkpt lat="-40.194512" lon="-71.374115">
        <ele>877.2</ele>
        <time>2019-04-11T16:32:49.000Z</time>
      </trkpt>
      <trkpt lat="-40.194546" lon="-71.374109">
        <ele>877.4</ele>
        <time>2019-04-11T16:32:50.000Z</time>
      </trkpt>
      <trkpt lat="-40.194582" lon="-71.374112">
        <ele>877.5</ele>
        <time>2019-04-11T16:32:51.000Z</time>
      </trkpt>
      <trkpt lat="-40.194628" lon="-71.374124">
        <ele>877.7</ele>
        <time>2019-04-11T16:32:52.000Z</time>
      </trkpt>
      <trkpt lat="-40.194655" lon="-71.374113">
        <ele>877.8</ele>
        <time>2019-04-11T16:32:53.000Z</time>
      </trkpt>
      <trkpt lat="-40.194699" lon="-71.374105">
        <ele>878</ele>
        <time>2019-04-11T16:32:54.000Z</time>
      </trkpt>
      <trkpt lat="-40.194746" lon="-71.374103">
        <ele>878.2</ele>
        <time>2019-04-11T16:32:55.000Z</time>
      </trkpt>
      <trkpt lat="-40.194802" lon="-71.374099">
        <ele>878.4</ele>
        <time>2019-04-11T16:32:57.000Z</time>
      </trkpt>
      <trkpt lat="-40.194849" lon="-71.374102">
        <ele>878.6</ele>
        <time>2019-04-11T16:32:58.000Z</time>
      </trkpt>
      <trkpt lat="-40.194883" lon="-71.374094">
        <ele>878.7</ele>
        <time>2019-04-11T16:32:59.000Z</time>
      </trkpt>
      <trkpt lat="-40.194927" lon="-71.37412">
        <ele>878.9</ele>
        <time>2019-04-11T16:33:00.000Z</time>
      </trkpt>
      <trkpt lat="-40.194969" lon="-71.374118">
        <ele>879</ele>
        <time>2019-04-11T16:33:01.000Z</time>
      </trkpt>
      <trkpt lat="-40.195007" lon="-71.374118">
        <ele>879.1</ele>
        <time>2019-04-11T16:33:02.000Z</time>
      </trkpt>
      <trkpt lat="-40.195044" lon="-71.374114">
        <ele>879.3</ele>
        <time>2019-04-11T16:33:03.000Z</time>
      </trkpt>
      <trkpt lat="-40.195083" lon="-71.374117">
        <ele>879.4</ele>
        <time>2019-04-11T16:33:04.000Z</time>
      </trkpt>
      <trkpt lat="-40.195118" lon="-71.374119">
        <ele>879.5</ele>
        <time>2019-04-11T16:33:05.000Z</time>
      </trkpt>
      <trkpt lat="-40.195155" lon="-71.374115">
        <ele>879.6</ele>
        <time>2019-04-11T16:33:06.000Z</time>
      </trkpt>
      <trkpt lat="-40.195192" lon="-71.374116">
        <ele>879.7</ele>
        <time>2019-04-11T16:33:07.000Z</time>
      </trkpt>
      <trkpt lat="-40.195226" lon="-71.374108">
        <ele>879.8</ele>
        <time>2019-04-11T16:33:08.000Z</time>
      </trkpt>
      <trkpt lat="-40.195266" lon="-71.374109">
        <ele>879.9</ele>
        <time>2019-04-11T16:33:09.000Z</time>
      </trkpt>
      <trkpt lat="-40.195314" lon="-71.374111">
        <ele>880</ele>
        <time>2019-04-11T16:33:10.000Z</time>
      </trkpt>
      <trkpt lat="-40.195345" lon="-71.374105">
        <ele>880.1</ele>
        <time>2019-04-11T16:33:11.000Z</time>
      </trkpt>
      <trkpt lat="-40.195373" lon="-71.374102">
        <ele>880.2</ele>
        <time>2019-04-11T16:33:12.000Z</time>
      </trkpt>
      <trkpt lat="-40.195413" lon="-71.374108">
        <ele>880.3</ele>
        <time>2019-04-11T16:33:13.000Z</time>
      </trkpt>
      <trkpt lat="-40.195444" lon="-71.374105">
        <ele>880.5</ele>
        <time>2019-04-11T16:33:14.000Z</time>
      </trkpt>
      <trkpt lat="-40.195483" lon="-71.374105">
        <ele>880.6</ele>
        <time>2019-04-11T16:33:15.000Z</time>
      </trkpt>
      <trkpt lat="-40.195528" lon="-71.374106">
        <ele>880.8</ele>
        <time>2019-04-11T16:33:16.000Z</time>
      </trkpt>
      <trkpt lat="-40.195557" lon="-71.374089">
        <ele>880.9</ele>
        <time>2019-04-11T16:33:17.000Z</time>
      </trkpt>
      <trkpt lat="-40.195595" lon="-71.374081">
        <ele>881</ele>
        <time>2019-04-11T16:33:18.000Z</time>
      </trkpt>
      <trkpt lat="-40.19564" lon="-71.37408">
        <ele>881.1</ele>
        <time>2019-04-11T16:33:19.000Z</time>
      </trkpt>
      <trkpt lat="-40.195674" lon="-71.374063">
        <ele>881.2</ele>
        <time>2019-04-11T16:33:20.000Z</time>
      </trkpt>
      <trkpt lat="-40.195714" lon="-71.374047">
        <ele>881.4</ele>
        <time>2019-04-11T16:33:21.000Z</time>
      </trkpt>
      <trkpt lat="-40.195747" lon="-71.374041">
        <ele>881.4</ele>
        <time>2019-04-11T16:33:22.000Z</time>
      </trkpt>
      <trkpt lat="-40.195773" lon="-71.374018">
        <ele>881.5</ele>
        <time>2019-04-11T16:33:23.000Z</time>
      </trkpt>
      <trkpt lat="-40.195808" lon="-71.374009">
        <ele>881.6</ele>
        <time>2019-04-11T16:33:24.000Z</time>
      </trkpt>
      <trkpt lat="-40.195843" lon="-71.373999">
        <ele>881.7</ele>
        <time>2019-04-11T16:33:25.000Z</time>
      </trkpt>
      <trkpt lat="-40.195877" lon="-71.37398">
        <ele>881.8</ele>
        <time>2019-04-11T16:33:26.000Z</time>
      </trkpt>
      <trkpt lat="-40.195906" lon="-71.373946">
        <ele>882</ele>
        <time>2019-04-11T16:33:27.000Z</time>
      </trkpt>
      <trkpt lat="-40.195951" lon="-71.373924">
        <ele>882.2</ele>
        <time>2019-04-11T16:33:28.000Z</time>
      </trkpt>
      <trkpt lat="-40.195976" lon="-71.373884">
        <ele>882.4</ele>
        <time>2019-04-11T16:33:29.000Z</time>
      </trkpt>
      <trkpt lat="-40.196013" lon="-71.373864">
        <ele>882.5</ele>
        <time>2019-04-11T16:33:30.000Z</time>
      </trkpt>
      <trkpt lat="-40.19605" lon="-71.373831">
        <ele>882.6</ele>
        <time>2019-04-11T16:33:31.000Z</time>
      </trkpt>
      <trkpt lat="-40.196076" lon="-71.373797">
        <ele>882.7</ele>
        <time>2019-04-11T16:33:32.000Z</time>
      </trkpt>
      <trkpt lat="-40.196114" lon="-71.373777">
        <ele>882.8</ele>
        <time>2019-04-11T16:33:33.000Z</time>
      </trkpt>
      <trkpt lat="-40.196143" lon="-71.373746">
        <ele>883</ele>
        <time>2019-04-11T16:33:34.000Z</time>
      </trkpt>
      <trkpt lat="-40.196166" lon="-71.373718">
        <ele>883.2</ele>
        <time>2019-04-11T16:33:35.000Z</time>
      </trkpt>
      <trkpt lat="-40.1962" lon="-71.373675">
        <ele>883.4</ele>
        <time>2019-04-11T16:33:36.000Z</time>
      </trkpt>
      <trkpt lat="-40.196224" lon="-71.373633">
        <ele>883.6</ele>
        <time>2019-04-11T16:33:37.000Z</time>
      </trkpt>
      <trkpt lat="-40.196246" lon="-71.373584">
        <ele>883.8</ele>
        <time>2019-04-11T16:33:38.000Z</time>
      </trkpt>
      <trkpt lat="-40.196274" lon="-71.373546">
        <ele>883.9</ele>
        <time>2019-04-11T16:33:39.000Z</time>
      </trkpt>
      <trkpt lat="-40.196303" lon="-71.373496">
        <ele>884.2</ele>
        <time>2019-04-11T16:33:40.000Z</time>
      </trkpt>
      <trkpt lat="-40.19632" lon="-71.373452">
        <ele>884.3</ele>
        <time>2019-04-11T16:33:41.000Z</time>
      </trkpt>
      <trkpt lat="-40.19635" lon="-71.3734">
        <ele>884.5</ele>
        <time>2019-04-11T16:33:42.000Z</time>
      </trkpt>
      <trkpt lat="-40.196368" lon="-71.373346">
        <ele>884.7</ele>
        <time>2019-04-11T16:33:43.000Z</time>
      </trkpt>
      <trkpt lat="-40.196402" lon="-71.373303">
        <ele>884.9</ele>
        <time>2019-04-11T16:33:44.000Z</time>
      </trkpt>
      <trkpt lat="-40.196433" lon="-71.373239">
        <ele>885.1</ele>
        <time>2019-04-11T16:33:45.000Z</time>
      </trkpt>
      <trkpt lat="-40.19646" lon="-71.373188">
        <ele>885.3</ele>
        <time>2019-04-11T16:33:46.000Z</time>
      </trkpt>
      <trkpt lat="-40.196492" lon="-71.373138">
        <ele>885.5</ele>
        <time>2019-04-11T16:33:47.000Z</time>
      </trkpt>
      <trkpt lat="-40.196525" lon="-71.373089">
        <ele>885.8</ele>
        <time>2019-04-11T16:33:48.000Z</time>
      </trkpt>
      <trkpt lat="-40.196553" lon="-71.373023">
        <ele>886.1</ele>
        <time>2019-04-11T16:33:49.000Z</time>
      </trkpt>
      <trkpt lat="-40.196583" lon="-71.372957">
        <ele>886.3</ele>
        <time>2019-04-11T16:33:50.000Z</time>
      </trkpt>
      <trkpt lat="-40.19662" lon="-71.372904">
        <ele>886.6</ele>
        <time>2019-04-11T16:33:51.000Z</time>
      </trkpt>
      <trkpt lat="-40.19665" lon="-71.37283">
        <ele>886.9</ele>
        <time>2019-04-11T16:33:52.000Z</time>
      </trkpt>
      <trkpt lat="-40.196692" lon="-71.372774">
        <ele>887.1</ele>
        <time>2019-04-11T16:33:53.000Z</time>
      </trkpt>
      <trkpt lat="-40.196736" lon="-71.372741">
        <ele>887.3</ele>
        <time>2019-04-11T16:33:54.000Z</time>
      </trkpt>
      <trkpt lat="-40.196773" lon="-71.372688">
        <ele>887.6</ele>
        <time>2019-04-11T16:33:55.000Z</time>
      </trkpt>
      <trkpt lat="-40.19682" lon="-71.372636">
        <ele>887.8</ele>
        <time>2019-04-11T16:33:56.000Z</time>
      </trkpt>
      <trkpt lat="-40.196856" lon="-71.372581">
        <ele>888.1</ele>
        <time>2019-04-11T16:33:57.000Z</time>
      </trkpt>
      <trkpt lat="-40.19688" lon="-71.372515">
        <ele>888.3</ele>
        <time>2019-04-11T16:33:58.000Z</time>
      </trkpt>
      <trkpt lat="-40.196926" lon="-71.372466">
        <ele>888.6</ele>
        <time>2019-04-11T16:33:59.000Z</time>
      </trkpt>
      <trkpt lat="-40.196966" lon="-71.372438">
        <ele>888.8</ele>
        <time>2019-04-11T16:34:00.000Z</time>
      </trkpt>
      <trkpt lat="-40.197" lon="-71.372424">
        <ele>889</ele>
        <time>2019-04-11T16:34:01.000Z</time>
      </trkpt>
      <trkpt lat="-40.197046" lon="-71.372409">
        <ele>889.2</ele>
        <time>2019-04-11T16:34:02.000Z</time>
      </trkpt>
      <trkpt lat="-40.197093" lon="-71.372383">
        <ele>889.5</ele>
        <time>2019-04-11T16:34:03.000Z</time>
      </trkpt>
      <trkpt lat="-40.19714" lon="-71.372377">
        <ele>889.8</ele>
        <time>2019-04-11T16:34:04.000Z</time>
      </trkpt>
      <trkpt lat="-40.197185" lon="-71.372366">
        <ele>890</ele>
        <time>2019-04-11T16:34:05.000Z</time>
      </trkpt>
      <trkpt lat="-40.19722" lon="-71.37237">
        <ele>890.2</ele>
        <time>2019-04-11T16:34:06.000Z</time>
      </trkpt>
      <trkpt lat="-40.19726" lon="-71.372353">
        <ele>890.4</ele>
        <time>2019-04-11T16:34:07.000Z</time>
      </trkpt>
      <trkpt lat="-40.197302" lon="-71.37234">
        <ele>890.6</ele>
        <time>2019-04-11T16:34:08.000Z</time>
      </trkpt>
      <trkpt lat="-40.197337" lon="-71.372347">
        <ele>890.8</ele>
        <time>2019-04-11T16:34:09.000Z</time>
      </trkpt>
      <trkpt lat="-40.197376" lon="-71.372336">
        <ele>891</ele>
        <time>2019-04-11T16:34:10.000Z</time>
      </trkpt>
      <trkpt lat="-40.19741" lon="-71.372327">
        <ele>891.2</ele>
        <time>2019-04-11T16:34:11.000Z</time>
      </trkpt>
      <trkpt lat="-40.197455" lon="-71.372315">
        <ele>891.4</ele>
        <time>2019-04-11T16:34:12.000Z</time>
      </trkpt>
      <trkpt lat="-40.197495" lon="-71.372298">
        <ele>891.6</ele>
        <time>2019-04-11T16:34:13.000Z</time>
      </trkpt>
      <trkpt lat="-40.197537" lon="-71.372283">
        <ele>891.8</ele>
        <time>2019-04-11T16:34:14.000Z</time>
      </trkpt>
      <trkpt lat="-40.19757" lon="-71.372261">
        <ele>892</ele>
        <time>2019-04-11T16:34:15.000Z</time>
      </trkpt>
      <trkpt lat="-40.197598" lon="-71.372232">
        <ele>892.2</ele>
        <time>2019-04-11T16:34:16.000Z</time>
      </trkpt>
      <trkpt lat="-40.197628" lon="-71.372203">
        <ele>892.4</ele>
        <time>2019-04-11T16:34:17.000Z</time>
      </trkpt>
      <trkpt lat="-40.19765" lon="-71.372177">
        <ele>892.5</ele>
        <time>2019-04-11T16:34:18.000Z</time>
      </trkpt>
      <trkpt lat="-40.197681" lon="-71.372155">
        <ele>892.6</ele>
        <time>2019-04-11T16:34:19.000Z</time>
      </trkpt>
      <trkpt lat="-40.19771" lon="-71.372135">
        <ele>892.7</ele>
        <time>2019-04-11T16:34:20.000Z</time>
      </trkpt>
      <trkpt lat="-40.197744" lon="-71.372109">
        <ele>892.9</ele>
        <time>2019-04-11T16:34:21.000Z</time>
      </trkpt>
      <trkpt lat="-40.197772" lon="-71.372085">
        <ele>893</ele>
        <time>2019-04-11T16:34:22.000Z</time>
      </trkpt>
      <trkpt lat="-40.197816" lon="-71.372069">
        <ele>893.2</ele>
        <time>2019-04-11T16:34:23.000Z</time>
      </trkpt>
      <trkpt lat="-40.19786" lon="-71.372055">
        <ele>893.4</ele>
        <time>2019-04-11T16:34:24.000Z</time>
      </trkpt>
      <trkpt lat="-40.197898" lon="-71.372042">
        <ele>893.6</ele>
        <time>2019-04-11T16:34:25.000Z</time>
      </trkpt>
      <trkpt lat="-40.197923" lon="-71.372015">
        <ele>893.7</ele>
        <time>2019-04-11T16:34:26.000Z</time>
      </trkpt>
      <trkpt lat="-40.19796" lon="-71.372004">
        <ele>893.9</ele>
        <time>2019-04-11T16:34:27.000Z</time>
      </trkpt>
      <trkpt lat="-40.198004" lon="-71.371991">
        <ele>894.1</ele>
        <time>2019-04-11T16:34:28.000Z</time>
      </trkpt>
      <trkpt lat="-40.198047" lon="-71.371973">
        <ele>894.3</ele>
        <time>2019-04-11T16:34:29.000Z</time>
      </trkpt>
      <trkpt lat="-40.198075" lon="-71.371953">
        <ele>894.5</ele>
        <time>2019-04-11T16:34:30.000Z</time>
      </trkpt>
      <trkpt lat="-40.198112" lon="-71.371942">
        <ele>894.7</ele>
        <time>2019-04-11T16:34:31.000Z</time>
      </trkpt>
      <trkpt lat="-40.198154" lon="-71.371924">
        <ele>894.9</ele>
        <time>2019-04-11T16:34:32.000Z</time>
      </trkpt>
      <trkpt lat="-40.198192" lon="-71.371882">
        <ele>895.2</ele>
        <time>2019-04-11T16:34:33.000Z</time>
      </trkpt>
      <trkpt lat="-40.198234" lon="-71.371863">
        <ele>895.4</ele>
        <time>2019-04-11T16:34:34.000Z</time>
      </trkpt>
      <trkpt lat="-40.198271" lon="-71.371846">
        <ele>895.6</ele>
        <time>2019-04-11T16:34:35.000Z</time>
      </trkpt>
      <trkpt lat="-40.198298" lon="-71.371792">
        <ele>895.9</ele>
        <time>2019-04-11T16:34:36.000Z</time>
      </trkpt>
      <trkpt lat="-40.198333" lon="-71.371781">
        <ele>896.2</ele>
        <time>2019-04-11T16:34:37.000Z</time>
      </trkpt>
      <trkpt lat="-40.198368" lon="-71.37176">
        <ele>896.5</ele>
        <time>2019-04-11T16:34:38.000Z</time>
      </trkpt>
      <trkpt lat="-40.19841" lon="-71.371735">
        <ele>896.8</ele>
        <time>2019-04-11T16:34:39.000Z</time>
      </trkpt>
      <trkpt lat="-40.198437" lon="-71.371698">
        <ele>897</ele>
        <time>2019-04-11T16:34:40.000Z</time>
      </trkpt>
      <trkpt lat="-40.198463" lon="-71.37167">
        <ele>897.2</ele>
        <time>2019-04-11T16:34:41.000Z</time>
      </trkpt>
      <trkpt lat="-40.198496" lon="-71.371652">
        <ele>897.4</ele>
        <time>2019-04-11T16:34:42.000Z</time>
      </trkpt>
      <trkpt lat="-40.198532" lon="-71.371638">
        <ele>897.6</ele>
        <time>2019-04-11T16:34:43.000Z</time>
      </trkpt>
      <trkpt lat="-40.198561" lon="-71.371616">
        <ele>897.9</ele>
        <time>2019-04-11T16:34:44.000Z</time>
      </trkpt>
      <trkpt lat="-40.198593" lon="-71.371591">
        <ele>898.2</ele>
        <time>2019-04-11T16:34:45.000Z</time>
      </trkpt>
      <trkpt lat="-40.198624" lon="-71.37157">
        <ele>898.4</ele>
        <time>2019-04-11T16:34:46.000Z</time>
      </trkpt>
      <trkpt lat="-40.198661" lon="-71.371543">
        <ele>898.6</ele>
        <time>2019-04-11T16:34:47.000Z</time>
      </trkpt>
      <trkpt lat="-40.198694" lon="-71.371518">
        <ele>898.8</ele>
        <time>2019-04-11T16:34:48.000Z</time>
      </trkpt>
      <trkpt lat="-40.198717" lon="-71.371498">
        <ele>899</ele>
        <time>2019-04-11T16:34:49.000Z</time>
      </trkpt>
      <trkpt lat="-40.198754" lon="-71.371479">
        <ele>899.2</ele>
        <time>2019-04-11T16:34:50.000Z</time>
      </trkpt>
      <trkpt lat="-40.198773" lon="-71.371446">
        <ele>899.4</ele>
        <time>2019-04-11T16:34:51.000Z</time>
      </trkpt>
      <trkpt lat="-40.198802" lon="-71.371426">
        <ele>899.5</ele>
        <time>2019-04-11T16:34:52.000Z</time>
      </trkpt>
      <trkpt lat="-40.198837" lon="-71.371402">
        <ele>899.8</ele>
        <time>2019-04-11T16:34:53.000Z</time>
      </trkpt>
      <trkpt lat="-40.198868" lon="-71.371387">
        <ele>900</ele>
        <time>2019-04-11T16:34:54.000Z</time>
      </trkpt>
      <trkpt lat="-40.198898" lon="-71.371353">
        <ele>900.2</ele>
        <time>2019-04-11T16:34:55.000Z</time>
      </trkpt>
      <trkpt lat="-40.198936" lon="-71.371328">
        <ele>900.5</ele>
        <time>2019-04-11T16:34:56.000Z</time>
      </trkpt>
      <trkpt lat="-40.19896" lon="-71.371294">
        <ele>900.8</ele>
        <time>2019-04-11T16:34:57.000Z</time>
      </trkpt>
      <trkpt lat="-40.198997" lon="-71.371265">
        <ele>901.1</ele>
        <time>2019-04-11T16:34:58.000Z</time>
      </trkpt>
      <trkpt lat="-40.199023" lon="-71.371245">
        <ele>901.3</ele>
        <time>2019-04-11T16:34:59.000Z</time>
      </trkpt>
      <trkpt lat="-40.199051" lon="-71.371216">
        <ele>901.6</ele>
        <time>2019-04-11T16:35:00.000Z</time>
      </trkpt>
      <trkpt lat="-40.199084" lon="-71.371174">
        <ele>901.9</ele>
        <time>2019-04-11T16:35:01.000Z</time>
      </trkpt>
      <trkpt lat="-40.199128" lon="-71.371126">
        <ele>902.3</ele>
        <time>2019-04-11T16:35:03.000Z</time>
      </trkpt>
      <trkpt lat="-40.199153" lon="-71.371104">
        <ele>902.5</ele>
        <time>2019-04-11T16:35:04.000Z</time>
      </trkpt>
      <trkpt lat="-40.199183" lon="-71.371066">
        <ele>902.8</ele>
        <time>2019-04-11T16:35:05.000Z</time>
      </trkpt>
      <trkpt lat="-40.199195" lon="-71.371022">
        <ele>903</ele>
        <time>2019-04-11T16:35:06.000Z</time>
      </trkpt>
      <trkpt lat="-40.199222" lon="-71.370981">
        <ele>903.3</ele>
        <time>2019-04-11T16:35:07.000Z</time>
      </trkpt>
      <trkpt lat="-40.199237" lon="-71.370939">
        <ele>903.5</ele>
        <time>2019-04-11T16:35:08.000Z</time>
      </trkpt>
      <trkpt lat="-40.199253" lon="-71.370896">
        <ele>903.8</ele>
        <time>2019-04-11T16:35:09.000Z</time>
      </trkpt>
      <trkpt lat="-40.199269" lon="-71.370844">
        <ele>904.1</ele>
        <time>2019-04-11T16:35:10.000Z</time>
      </trkpt>
      <trkpt lat="-40.199284" lon="-71.370798">
        <ele>904.3</ele>
        <time>2019-04-11T16:35:11.000Z</time>
      </trkpt>
      <trkpt lat="-40.199293" lon="-71.370745">
        <ele>904.6</ele>
        <time>2019-04-11T16:35:12.000Z</time>
      </trkpt>
      <trkpt lat="-40.199314" lon="-71.370704">
        <ele>904.8</ele>
        <time>2019-04-11T16:35:13.000Z</time>
      </trkpt>
      <trkpt lat="-40.199324" lon="-71.370658">
        <ele>905.1</ele>
        <time>2019-04-11T16:35:14.000Z</time>
      </trkpt>
      <trkpt lat="-40.19934" lon="-71.370623">
        <ele>905.3</ele>
        <time>2019-04-11T16:35:15.000Z</time>
      </trkpt>
      <trkpt lat="-40.199356" lon="-71.370589">
        <ele>905.5</ele>
        <time>2019-04-11T16:35:16.000Z</time>
      </trkpt>
      <trkpt lat="-40.199373" lon="-71.370552">
        <ele>905.7</ele>
        <time>2019-04-11T16:35:17.000Z</time>
      </trkpt>
      <trkpt lat="-40.199389" lon="-71.370514">
        <ele>905.9</ele>
        <time>2019-04-11T16:35:18.000Z</time>
      </trkpt>
      <trkpt lat="-40.19941" lon="-71.370464">
        <ele>906.2</ele>
        <time>2019-04-11T16:35:19.000Z</time>
      </trkpt>
      <trkpt lat="-40.199422" lon="-71.370412">
        <ele>906.5</ele>
        <time>2019-04-11T16:35:20.000Z</time>
      </trkpt>
      <trkpt lat="-40.199448" lon="-71.370363">
        <ele>906.8</ele>
        <time>2019-04-11T16:35:21.000Z</time>
      </trkpt>
      <trkpt lat="-40.199465" lon="-71.370318">
        <ele>907</ele>
        <time>2019-04-11T16:35:22.000Z</time>
      </trkpt>
      <trkpt lat="-40.199475" lon="-71.370262">
        <ele>907.3</ele>
        <time>2019-04-11T16:35:23.000Z</time>
      </trkpt>
      <trkpt lat="-40.199494" lon="-71.370225">
        <ele>907.6</ele>
        <time>2019-04-11T16:35:24.000Z</time>
      </trkpt>
      <trkpt lat="-40.199507" lon="-71.370184">
        <ele>907.8</ele>
        <time>2019-04-11T16:35:25.000Z</time>
      </trkpt>
      <trkpt lat="-40.199546" lon="-71.370143">
        <ele>908.1</ele>
        <time>2019-04-11T16:35:26.000Z</time>
      </trkpt>
      <trkpt lat="-40.199558" lon="-71.370108">
        <ele>908.3</ele>
        <time>2019-04-11T16:35:27.000Z</time>
      </trkpt>
      <trkpt lat="-40.199584" lon="-71.37006">
        <ele>908.6</ele>
        <time>2019-04-11T16:35:28.000Z</time>
      </trkpt>
      <trkpt lat="-40.199611" lon="-71.370023">
        <ele>908.9</ele>
        <time>2019-04-11T16:35:29.000Z</time>
      </trkpt>
      <trkpt lat="-40.199636" lon="-71.369991">
        <ele>909.1</ele>
        <time>2019-04-11T16:35:30.000Z</time>
      </trkpt>
      <trkpt lat="-40.19966" lon="-71.369949">
        <ele>909.4</ele>
        <time>2019-04-11T16:35:31.000Z</time>
      </trkpt>
      <trkpt lat="-40.199686" lon="-71.36991">
        <ele>909.7</ele>
        <time>2019-04-11T16:35:32.000Z</time>
      </trkpt>
      <trkpt lat="-40.199723" lon="-71.369876">
        <ele>910</ele>
        <time>2019-04-11T16:35:33.000Z</time>
      </trkpt>
      <trkpt lat="-40.199743" lon="-71.369838">
        <ele>910.2</ele>
        <time>2019-04-11T16:35:34.000Z</time>
      </trkpt>
      <trkpt lat="-40.199758" lon="-71.369792">
        <ele>910.4</ele>
        <time>2019-04-11T16:35:35.000Z</time>
      </trkpt>
      <trkpt lat="-40.199788" lon="-71.369774">
        <ele>910.6</ele>
        <time>2019-04-11T16:35:36.000Z</time>
      </trkpt>
      <trkpt lat="-40.199806" lon="-71.369743">
        <ele>910.8</ele>
        <time>2019-04-11T16:35:37.000Z</time>
      </trkpt>
      <trkpt lat="-40.199823" lon="-71.369705">
        <ele>911</ele>
        <time>2019-04-11T16:35:38.000Z</time>
      </trkpt>
      <trkpt lat="-40.199859" lon="-71.369685">
        <ele>911.2</ele>
        <time>2019-04-11T16:35:39.000Z</time>
      </trkpt>
      <trkpt lat="-40.199887" lon="-71.369652">
        <ele>911.4</ele>
        <time>2019-04-11T16:35:40.000Z</time>
      </trkpt>
      <trkpt lat="-40.199905" lon="-71.369616">
        <ele>911.6</ele>
        <time>2019-04-11T16:35:41.000Z</time>
      </trkpt>
      <trkpt lat="-40.199939" lon="-71.369593">
        <ele>911.8</ele>
        <time>2019-04-11T16:35:42.000Z</time>
      </trkpt>
      <trkpt lat="-40.199975" lon="-71.369586">
        <ele>912</ele>
        <time>2019-04-11T16:35:43.000Z</time>
      </trkpt>
      <trkpt lat="-40.199996" lon="-71.369559">
        <ele>912.2</ele>
        <time>2019-04-11T16:35:44.000Z</time>
      </trkpt>
      <trkpt lat="-40.200029" lon="-71.369545">
        <ele>912.4</ele>
        <time>2019-04-11T16:35:45.000Z</time>
      </trkpt>
      <trkpt lat="-40.200083" lon="-71.369499">
        <ele>912.7</ele>
        <time>2019-04-11T16:35:47.000Z</time>
      </trkpt>
      <trkpt lat="-40.200118" lon="-71.369481">
        <ele>912.9</ele>
        <time>2019-04-11T16:35:48.000Z</time>
      </trkpt>
      <trkpt lat="-40.200143" lon="-71.369452">
        <ele>913</ele>
        <time>2019-04-11T16:35:49.000Z</time>
      </trkpt>
      <trkpt lat="-40.200178" lon="-71.369415">
        <ele>913.3</ele>
        <time>2019-04-11T16:35:50.000Z</time>
      </trkpt>
      <trkpt lat="-40.200214" lon="-71.369397">
        <ele>913.5</ele>
        <time>2019-04-11T16:35:51.000Z</time>
      </trkpt>
      <trkpt lat="-40.200245" lon="-71.369372">
        <ele>913.6</ele>
        <time>2019-04-11T16:35:52.000Z</time>
      </trkpt>
      <trkpt lat="-40.200275" lon="-71.369343">
        <ele>913.8</ele>
        <time>2019-04-11T16:35:53.000Z</time>
      </trkpt>
      <trkpt lat="-40.200324" lon="-71.369326">
        <ele>914.1</ele>
        <time>2019-04-11T16:35:54.000Z</time>
      </trkpt>
      <trkpt lat="-40.200351" lon="-71.369301">
        <ele>914.2</ele>
        <time>2019-04-11T16:35:55.000Z</time>
      </trkpt>
      <trkpt lat="-40.200361" lon="-71.369253">
        <ele>914.4</ele>
        <time>2019-04-11T16:35:56.000Z</time>
      </trkpt>
      <trkpt lat="-40.20039" lon="-71.369225">
        <ele>914.6</ele>
        <time>2019-04-11T16:35:57.000Z</time>
      </trkpt>
      <trkpt lat="-40.200414" lon="-71.369184">
        <ele>914.7</ele>
        <time>2019-04-11T16:35:58.000Z</time>
      </trkpt>
      <trkpt lat="-40.20044" lon="-71.369157">
        <ele>914.9</ele>
        <time>2019-04-11T16:35:59.000Z</time>
      </trkpt>
      <trkpt lat="-40.200466" lon="-71.369123">
        <ele>915.1</ele>
        <time>2019-04-11T16:36:00.000Z</time>
      </trkpt>
      <trkpt lat="-40.200467" lon="-71.369078">
        <ele>915.2</ele>
        <time>2019-04-11T16:36:01.000Z</time>
      </trkpt>
      <trkpt lat="-40.200504" lon="-71.369049">
        <ele>915.5</ele>
        <time>2019-04-11T16:36:02.000Z</time>
      </trkpt>
      <trkpt lat="-40.200536" lon="-71.369019">
        <ele>915.7</ele>
        <time>2019-04-11T16:36:03.000Z</time>
      </trkpt>
      <trkpt lat="-40.20056" lon="-71.368988">
        <ele>915.8</ele>
        <time>2019-04-11T16:36:04.000Z</time>
      </trkpt>
      <trkpt lat="-40.200579" lon="-71.368953">
        <ele>916</ele>
        <time>2019-04-11T16:36:05.000Z</time>
      </trkpt>
      <trkpt lat="-40.200605" lon="-71.368909">
        <ele>916.2</ele>
        <time>2019-04-11T16:36:06.000Z</time>
      </trkpt>
      <trkpt lat="-40.200616" lon="-71.368874">
        <ele>916.3</ele>
        <time>2019-04-11T16:36:07.000Z</time>
      </trkpt>
      <trkpt lat="-40.200644" lon="-71.36884">
        <ele>916.5</ele>
        <time>2019-04-11T16:36:08.000Z</time>
      </trkpt>
      <trkpt lat="-40.200673" lon="-71.368805">
        <ele>916.7</ele>
        <time>2019-04-11T16:36:09.000Z</time>
      </trkpt>
      <trkpt lat="-40.200692" lon="-71.368764">
        <ele>916.9</ele>
        <time>2019-04-11T16:36:10.000Z</time>
      </trkpt>
      <trkpt lat="-40.200715" lon="-71.368724">
        <ele>917.1</ele>
        <time>2019-04-11T16:36:11.000Z</time>
      </trkpt>
      <trkpt lat="-40.200735" lon="-71.368688">
        <ele>917.3</ele>
        <time>2019-04-11T16:36:12.000Z</time>
      </trkpt>
      <trkpt lat="-40.200759" lon="-71.368648">
        <ele>917.5</ele>
        <time>2019-04-11T16:36:13.000Z</time>
      </trkpt>
      <trkpt lat="-40.20079" lon="-71.368619">
        <ele>917.7</ele>
        <time>2019-04-11T16:36:14.000Z</time>
      </trkpt>
      <trkpt lat="-40.200817" lon="-71.368588">
        <ele>917.9</ele>
        <time>2019-04-11T16:36:15.000Z</time>
      </trkpt>
      <trkpt lat="-40.200846" lon="-71.368553">
        <ele>918.1</ele>
        <time>2019-04-11T16:36:16.000Z</time>
      </trkpt>
      <trkpt lat="-40.200884" lon="-71.368526">
        <ele>918.3</ele>
        <time>2019-04-11T16:36:17.000Z</time>
      </trkpt>
      <trkpt lat="-40.200903" lon="-71.368488">
        <ele>918.5</ele>
        <time>2019-04-11T16:36:18.000Z</time>
      </trkpt>
      <trkpt lat="-40.20093" lon="-71.368455">
        <ele>918.7</ele>
        <time>2019-04-11T16:36:19.000Z</time>
      </trkpt>
      <trkpt lat="-40.200959" lon="-71.368425">
        <ele>918.9</ele>
        <time>2019-04-11T16:36:20.000Z</time>
      </trkpt>
      <trkpt lat="-40.200981" lon="-71.368389">
        <ele>919.1</ele>
        <time>2019-04-11T16:36:21.000Z</time>
      </trkpt>
      <trkpt lat="-40.201009" lon="-71.368357">
        <ele>919.3</ele>
        <time>2019-04-11T16:36:22.000Z</time>
      </trkpt>
      <trkpt lat="-40.201031" lon="-71.368325">
        <ele>919.4</ele>
        <time>2019-04-11T16:36:23.000Z</time>
      </trkpt>
      <trkpt lat="-40.20106" lon="-71.368303">
        <ele>919.6</ele>
        <time>2019-04-11T16:36:24.000Z</time>
      </trkpt>
      <trkpt lat="-40.201088" lon="-71.368264">
        <ele>919.8</ele>
        <time>2019-04-11T16:36:25.000Z</time>
      </trkpt>
      <trkpt lat="-40.201121" lon="-71.368238">
        <ele>920</ele>
        <time>2019-04-11T16:36:26.000Z</time>
      </trkpt>
      <trkpt lat="-40.201138" lon="-71.368201">
        <ele>920.2</ele>
        <time>2019-04-11T16:36:27.000Z</time>
      </trkpt>
      <trkpt lat="-40.201164" lon="-71.368172">
        <ele>920.3</ele>
        <time>2019-04-11T16:36:28.000Z</time>
      </trkpt>
      <trkpt lat="-40.201187" lon="-71.368141">
        <ele>920.5</ele>
        <time>2019-04-11T16:36:29.000Z</time>
      </trkpt>
      <trkpt lat="-40.201211" lon="-71.368116">
        <ele>920.7</ele>
        <time>2019-04-11T16:36:30.000Z</time>
      </trkpt>
      <trkpt lat="-40.20124" lon="-71.368079">
        <ele>920.9</ele>
        <time>2019-04-11T16:36:31.000Z</time>
      </trkpt>
      <trkpt lat="-40.20126" lon="-71.368042">
        <ele>921</ele>
        <time>2019-04-11T16:36:32.000Z</time>
      </trkpt>
      <trkpt lat="-40.201287" lon="-71.368018">
        <ele>921.2</ele>
        <time>2019-04-11T16:36:33.000Z</time>
      </trkpt>
      <trkpt lat="-40.201314" lon="-71.367975">
        <ele>921.4</ele>
        <time>2019-04-11T16:36:34.000Z</time>
      </trkpt>
      <trkpt lat="-40.201342" lon="-71.367949">
        <ele>921.6</ele>
        <time>2019-04-11T16:36:35.000Z</time>
      </trkpt>
      <trkpt lat="-40.20137" lon="-71.367921">
        <ele>921.7</ele>
        <time>2019-04-11T16:36:36.000Z</time>
      </trkpt>
      <trkpt lat="-40.201398" lon="-71.367896">
        <ele>921.9</ele>
        <time>2019-04-11T16:36:37.000Z</time>
      </trkpt>
      <trkpt lat="-40.201424" lon="-71.367868">
        <ele>922.1</ele>
        <time>2019-04-11T16:36:38.000Z</time>
      </trkpt>
      <trkpt lat="-40.201451" lon="-71.367841">
        <ele>922.3</ele>
        <time>2019-04-11T16:36:39.000Z</time>
      </trkpt>
      <trkpt lat="-40.201464" lon="-71.367804">
        <ele>922.4</ele>
        <time>2019-04-11T16:36:40.000Z</time>
      </trkpt>
      <trkpt lat="-40.201486" lon="-71.367759">
        <ele>922.6</ele>
        <time>2019-04-11T16:36:41.000Z</time>
      </trkpt>
      <trkpt lat="-40.2015" lon="-71.367722">
        <ele>922.7</ele>
        <time>2019-04-11T16:36:42.000Z</time>
      </trkpt>
      <trkpt lat="-40.201527" lon="-71.36769">
        <ele>922.9</ele>
        <time>2019-04-11T16:36:43.000Z</time>
      </trkpt>
      <trkpt lat="-40.201541" lon="-71.367659">
        <ele>923</ele>
        <time>2019-04-11T16:36:44.000Z</time>
      </trkpt>
      <trkpt lat="-40.201564" lon="-71.367618">
        <ele>923.1</ele>
        <time>2019-04-11T16:36:45.000Z</time>
      </trkpt>
      <trkpt lat="-40.201577" lon="-71.367579">
        <ele>923.2</ele>
        <time>2019-04-11T16:36:46.000Z</time>
      </trkpt>
      <trkpt lat="-40.201618" lon="-71.367555">
        <ele>923.4</ele>
        <time>2019-04-11T16:36:47.000Z</time>
      </trkpt>
      <trkpt lat="-40.201647" lon="-71.367519">
        <ele>923.6</ele>
        <time>2019-04-11T16:36:48.000Z</time>
      </trkpt>
      <trkpt lat="-40.201648" lon="-71.367469">
        <ele>923.8</ele>
        <time>2019-04-11T16:36:49.000Z</time>
      </trkpt>
      <trkpt lat="-40.201659" lon="-71.367407">
        <ele>924</ele>
        <time>2019-04-11T16:36:50.000Z</time>
      </trkpt>
      <trkpt lat="-40.20168" lon="-71.367347">
        <ele>924.1</ele>
        <time>2019-04-11T16:36:52.000Z</time>
      </trkpt>
      <trkpt lat="-40.201688" lon="-71.3673">
        <ele>924.3</ele>
        <time>2019-04-11T16:36:53.000Z</time>
      </trkpt>
      <trkpt lat="-40.201677" lon="-71.367245">
        <ele>924.4</ele>
        <time>2019-04-11T16:36:54.000Z</time>
      </trkpt>
      <trkpt lat="-40.201677" lon="-71.367193">
        <ele>924.5</ele>
        <time>2019-04-11T16:36:55.000Z</time>
      </trkpt>
      <trkpt lat="-40.201675" lon="-71.367149">
        <ele>924.7</ele>
        <time>2019-04-11T16:36:56.000Z</time>
      </trkpt>
      <trkpt lat="-40.201677" lon="-71.367109">
        <ele>924.8</ele>
        <time>2019-04-11T16:36:57.000Z</time>
      </trkpt>
      <trkpt lat="-40.201678" lon="-71.367064">
        <ele>924.9</ele>
        <time>2019-04-11T16:36:58.000Z</time>
      </trkpt>
      <trkpt lat="-40.201677" lon="-71.367016">
        <ele>925</ele>
        <time>2019-04-11T16:36:59.000Z</time>
      </trkpt>
      <trkpt lat="-40.20167" lon="-71.36697">
        <ele>925.2</ele>
        <time>2019-04-11T16:37:00.000Z</time>
      </trkpt>
      <trkpt lat="-40.201665" lon="-71.36693">
        <ele>925.3</ele>
        <time>2019-04-11T16:37:01.000Z</time>
      </trkpt>
      <trkpt lat="-40.201655" lon="-71.366882">
        <ele>925.4</ele>
        <time>2019-04-11T16:37:02.000Z</time>
      </trkpt>
      <trkpt lat="-40.201637" lon="-71.366842">
        <ele>925.5</ele>
        <time>2019-04-11T16:37:03.000Z</time>
      </trkpt>
      <trkpt lat="-40.201625" lon="-71.366788">
        <ele>925.6</ele>
        <time>2019-04-11T16:37:04.000Z</time>
      </trkpt>
      <trkpt lat="-40.201614" lon="-71.366728">
        <ele>925.8</ele>
        <time>2019-04-11T16:37:05.000Z</time>
      </trkpt>
      <trkpt lat="-40.201604" lon="-71.36667">
        <ele>926</ele>
        <time>2019-04-11T16:37:06.000Z</time>
      </trkpt>
      <trkpt lat="-40.201582" lon="-71.366624">
        <ele>926.3</ele>
        <time>2019-04-11T16:37:07.000Z</time>
      </trkpt>
      <trkpt lat="-40.20156" lon="-71.366572">
        <ele>926.5</ele>
        <time>2019-04-11T16:37:08.000Z</time>
      </trkpt>
      <trkpt lat="-40.201534" lon="-71.366536">
        <ele>926.7</ele>
        <time>2019-04-11T16:37:09.000Z</time>
      </trkpt>
      <trkpt lat="-40.201501" lon="-71.36649">
        <ele>926.9</ele>
        <time>2019-04-11T16:37:10.000Z</time>
      </trkpt>
      <trkpt lat="-40.201463" lon="-71.36644">
        <ele>927.2</ele>
        <time>2019-04-11T16:37:11.000Z</time>
      </trkpt>
      <trkpt lat="-40.201433" lon="-71.366386">
        <ele>927.5</ele>
        <time>2019-04-11T16:37:12.000Z</time>
      </trkpt>
      <trkpt lat="-40.201399" lon="-71.36634">
        <ele>927.8</ele>
        <time>2019-04-11T16:37:13.000Z</time>
      </trkpt>
      <trkpt lat="-40.201359" lon="-71.366295">
        <ele>928.1</ele>
        <time>2019-04-11T16:37:14.000Z</time>
      </trkpt>
      <trkpt lat="-40.201307" lon="-71.366252">
        <ele>928.5</ele>
        <time>2019-04-11T16:37:15.000Z</time>
      </trkpt>
      <trkpt lat="-40.20126" lon="-71.366211">
        <ele>928.8</ele>
        <time>2019-04-11T16:37:16.000Z</time>
      </trkpt>
      <trkpt lat="-40.201209" lon="-71.366169">
        <ele>929.2</ele>
        <time>2019-04-11T16:37:17.000Z</time>
      </trkpt>
      <trkpt lat="-40.201166" lon="-71.366135">
        <ele>929.5</ele>
        <time>2019-04-11T16:37:18.000Z</time>
      </trkpt>
      <trkpt lat="-40.201122" lon="-71.366095">
        <ele>929.9</ele>
        <time>2019-04-11T16:37:19.000Z</time>
      </trkpt>
      <trkpt lat="-40.201076" lon="-71.36606">
        <ele>930.2</ele>
        <time>2019-04-11T16:37:20.000Z</time>
      </trkpt>
      <trkpt lat="-40.201027" lon="-71.366017">
        <ele>930.5</ele>
        <time>2019-04-11T16:37:21.000Z</time>
      </trkpt>
      <trkpt lat="-40.200981" lon="-71.36598">
        <ele>930.8</ele>
        <time>2019-04-11T16:37:22.000Z</time>
      </trkpt>
      <trkpt lat="-40.200937" lon="-71.365938">
        <ele>931.1</ele>
        <time>2019-04-11T16:37:23.000Z</time>
      </trkpt>
      <trkpt lat="-40.20089" lon="-71.365899">
        <ele>931.3</ele>
        <time>2019-04-11T16:37:24.000Z</time>
      </trkpt>
      <trkpt lat="-40.200845" lon="-71.365858">
        <ele>931.6</ele>
        <time>2019-04-11T16:37:25.000Z</time>
      </trkpt>
      <trkpt lat="-40.200799" lon="-71.365819">
        <ele>931.8</ele>
        <time>2019-04-11T16:37:26.000Z</time>
      </trkpt>
      <trkpt lat="-40.200751" lon="-71.365782">
        <ele>932.1</ele>
        <time>2019-04-11T16:37:27.000Z</time>
      </trkpt>
      <trkpt lat="-40.200724" lon="-71.365738">
        <ele>932.3</ele>
        <time>2019-04-11T16:37:28.000Z</time>
      </trkpt>
      <trkpt lat="-40.200685" lon="-71.365707">
        <ele>932.4</ele>
        <time>2019-04-11T16:37:29.000Z</time>
      </trkpt>
      <trkpt lat="-40.200649" lon="-71.365684">
        <ele>932.6</ele>
        <time>2019-04-11T16:37:30.000Z</time>
      </trkpt>
      <trkpt lat="-40.200611" lon="-71.365664">
        <ele>932.8</ele>
        <time>2019-04-11T16:37:31.000Z</time>
      </trkpt>
      <trkpt lat="-40.200578" lon="-71.365637">
        <ele>932.9</ele>
        <time>2019-04-11T16:37:32.000Z</time>
      </trkpt>
      <trkpt lat="-40.200541" lon="-71.365616">
        <ele>933</ele>
        <time>2019-04-11T16:37:33.000Z</time>
      </trkpt>
      <trkpt lat="-40.200504" lon="-71.365593">
        <ele>933.2</ele>
        <time>2019-04-11T16:37:34.000Z</time>
      </trkpt>
      <trkpt lat="-40.200463" lon="-71.365569">
        <ele>933.3</ele>
        <time>2019-04-11T16:37:35.000Z</time>
      </trkpt>
      <trkpt lat="-40.200427" lon="-71.365548">
        <ele>933.5</ele>
        <time>2019-04-11T16:37:36.000Z</time>
      </trkpt>
      <trkpt lat="-40.200389" lon="-71.365528">
        <ele>933.6</ele>
        <time>2019-04-11T16:37:37.000Z</time>
      </trkpt>
      <trkpt lat="-40.200352" lon="-71.36552">
        <ele>933.7</ele>
        <time>2019-04-11T16:37:38.000Z</time>
      </trkpt>
      <trkpt lat="-40.200314" lon="-71.365505">
        <ele>933.8</ele>
        <time>2019-04-11T16:37:39.000Z</time>
      </trkpt>
      <trkpt lat="-40.200273" lon="-71.365499">
        <ele>934</ele>
        <time>2019-04-11T16:37:40.000Z</time>
      </trkpt>
      <trkpt lat="-40.200234" lon="-71.365489">
        <ele>934.1</ele>
        <time>2019-04-11T16:37:41.000Z</time>
      </trkpt>
      <trkpt lat="-40.200196" lon="-71.365485">
        <ele>934.2</ele>
        <time>2019-04-11T16:37:42.000Z</time>
      </trkpt>
      <trkpt lat="-40.200158" lon="-71.365483">
        <ele>934.3</ele>
        <time>2019-04-11T16:37:43.000Z</time>
      </trkpt>
      <trkpt lat="-40.200118" lon="-71.365481">
        <ele>934.3</ele>
        <time>2019-04-11T16:37:44.000Z</time>
      </trkpt>
      <trkpt lat="-40.20008" lon="-71.365483">
        <ele>934.4</ele>
        <time>2019-04-11T16:37:45.000Z</time>
      </trkpt>
      <trkpt lat="-40.200041" lon="-71.365481">
        <ele>934.4</ele>
        <time>2019-04-11T16:37:46.000Z</time>
      </trkpt>
      <trkpt lat="-40.200004" lon="-71.365482">
        <ele>934.5</ele>
        <time>2019-04-11T16:37:47.000Z</time>
      </trkpt>
      <trkpt lat="-40.199964" lon="-71.365484">
        <ele>934.5</ele>
        <time>2019-04-11T16:37:48.000Z</time>
      </trkpt>
      <trkpt lat="-40.199926" lon="-71.365486">
        <ele>934.6</ele>
        <time>2019-04-11T16:37:49.000Z</time>
      </trkpt>
      <trkpt lat="-40.199888" lon="-71.365486">
        <ele>934.6</ele>
        <time>2019-04-11T16:37:50.000Z</time>
      </trkpt>
      <trkpt lat="-40.199849" lon="-71.36549">
        <ele>934.6</ele>
        <time>2019-04-11T16:37:51.000Z</time>
      </trkpt>
      <trkpt lat="-40.199811" lon="-71.365491">
        <ele>934.7</ele>
        <time>2019-04-11T16:37:52.000Z</time>
      </trkpt>
      <trkpt lat="-40.199771" lon="-71.365494">
        <ele>934.7</ele>
        <time>2019-04-11T16:37:53.000Z</time>
      </trkpt>
      <trkpt lat="-40.199733" lon="-71.365502">
        <ele>934.7</ele>
        <time>2019-04-11T16:37:54.000Z</time>
      </trkpt>
      <trkpt lat="-40.199692" lon="-71.365505">
        <ele>934.7</ele>
        <time>2019-04-11T16:37:55.000Z</time>
      </trkpt>
      <trkpt lat="-40.199655" lon="-71.365514">
        <ele>934.7</ele>
        <time>2019-04-11T16:37:56.000Z</time>
      </trkpt>
      <trkpt lat="-40.199615" lon="-71.36552">
        <ele>934.8</ele>
        <time>2019-04-11T16:37:57.000Z</time>
      </trkpt>
      <trkpt lat="-40.199575" lon="-71.365527">
        <ele>934.7</ele>
        <time>2019-04-11T16:37:58.000Z</time>
      </trkpt>
      <trkpt lat="-40.199538" lon="-71.365532">
        <ele>934.7</ele>
        <time>2019-04-11T16:37:59.000Z</time>
      </trkpt>
      <trkpt lat="-40.199504" lon="-71.36554">
        <ele>934.7</ele>
        <time>2019-04-11T16:38:00.000Z</time>
      </trkpt>
      <trkpt lat="-40.199466" lon="-71.365546">
        <ele>934.7</ele>
        <time>2019-04-11T16:38:01.000Z</time>
      </trkpt>
      <trkpt lat="-40.19943" lon="-71.365554">
        <ele>934.7</ele>
        <time>2019-04-11T16:38:02.000Z</time>
      </trkpt>
      <trkpt lat="-40.199391" lon="-71.365557">
        <ele>934.7</ele>
        <time>2019-04-11T16:38:03.000Z</time>
      </trkpt>
      <trkpt lat="-40.199353" lon="-71.365562">
        <ele>934.6</ele>
        <time>2019-04-11T16:38:04.000Z</time>
      </trkpt>
      <trkpt lat="-40.199308" lon="-71.365562">
        <ele>934.6</ele>
        <time>2019-04-11T16:38:05.000Z</time>
      </trkpt>
      <trkpt lat="-40.199266" lon="-71.365563">
        <ele>934.5</ele>
        <time>2019-04-11T16:38:06.000Z</time>
      </trkpt>
      <trkpt lat="-40.199238" lon="-71.365586">
        <ele>934.5</ele>
        <time>2019-04-11T16:38:07.000Z</time>
      </trkpt>
      <trkpt lat="-40.199186" lon="-71.365587">
        <ele>934.4</ele>
        <time>2019-04-11T16:38:08.000Z</time>
      </trkpt>
      <trkpt lat="-40.199144" lon="-71.365579">
        <ele>934.4</ele>
        <time>2019-04-11T16:38:09.000Z</time>
      </trkpt>
      <trkpt lat="-40.199103" lon="-71.365578">
        <ele>934.3</ele>
        <time>2019-04-11T16:38:10.000Z</time>
      </trkpt>
      <trkpt lat="-40.199051" lon="-71.365576">
        <ele>934.3</ele>
        <time>2019-04-11T16:38:11.000Z</time>
      </trkpt>
      <trkpt lat="-40.199002" lon="-71.365572">
        <ele>934.2</ele>
        <time>2019-04-11T16:38:12.000Z</time>
      </trkpt>
      <trkpt lat="-40.198956" lon="-71.365564">
        <ele>934.2</ele>
        <time>2019-04-11T16:38:13.000Z</time>
      </trkpt>
      <trkpt lat="-40.198911" lon="-71.36556">
        <ele>934.2</ele>
        <time>2019-04-11T16:38:14.000Z</time>
      </trkpt>
      <trkpt lat="-40.198859" lon="-71.36555">
        <ele>934.1</ele>
        <time>2019-04-11T16:38:15.000Z</time>
      </trkpt>
      <trkpt lat="-40.198815" lon="-71.365548">
        <ele>934.1</ele>
        <time>2019-04-11T16:38:16.000Z</time>
      </trkpt>
      <trkpt lat="-40.198773" lon="-71.365532">
        <ele>934.1</ele>
        <time>2019-04-11T16:38:17.000Z</time>
      </trkpt>
      <trkpt lat="-40.198726" lon="-71.365508">
        <ele>934.2</ele>
        <time>2019-04-11T16:38:18.000Z</time>
      </trkpt>
      <trkpt lat="-40.198672" lon="-71.365485">
        <ele>934.2</ele>
        <time>2019-04-11T16:38:19.000Z</time>
      </trkpt>
      <trkpt lat="-40.198627" lon="-71.365454">
        <ele>934.2</ele>
        <time>2019-04-11T16:38:20.000Z</time>
      </trkpt>
      <trkpt lat="-40.198575" lon="-71.365437">
        <ele>934.3</ele>
        <time>2019-04-11T16:38:21.000Z</time>
      </trkpt>
      <trkpt lat="-40.198535" lon="-71.365408">
        <ele>934.3</ele>
        <time>2019-04-11T16:38:22.000Z</time>
      </trkpt>
      <trkpt lat="-40.198482" lon="-71.365356">
        <ele>934.4</ele>
        <time>2019-04-11T16:38:23.000Z</time>
      </trkpt>
      <trkpt lat="-40.198424" lon="-71.365326">
        <ele>934.5</ele>
        <time>2019-04-11T16:38:24.000Z</time>
      </trkpt>
      <trkpt lat="-40.19837" lon="-71.365294">
        <ele>934.6</ele>
        <time>2019-04-11T16:38:25.000Z</time>
      </trkpt>
      <trkpt lat="-40.19831" lon="-71.365251">
        <ele>934.7</ele>
        <time>2019-04-11T16:38:26.000Z</time>
      </trkpt>
      <trkpt lat="-40.198264" lon="-71.365184">
        <ele>934.8</ele>
        <time>2019-04-11T16:38:27.000Z</time>
      </trkpt>
      <trkpt lat="-40.198221" lon="-71.365126">
        <ele>934.9</ele>
        <time>2019-04-11T16:38:28.000Z</time>
      </trkpt>
      <trkpt lat="-40.198165" lon="-71.365069">
        <ele>935.1</ele>
        <time>2019-04-11T16:38:29.000Z</time>
      </trkpt>
      <trkpt lat="-40.198112" lon="-71.364998">
        <ele>935.2</ele>
        <time>2019-04-11T16:38:30.000Z</time>
      </trkpt>
      <trkpt lat="-40.198071" lon="-71.364928">
        <ele>935.4</ele>
        <time>2019-04-11T16:38:31.000Z</time>
      </trkpt>
      <trkpt lat="-40.198026" lon="-71.364849">
        <ele>935.6</ele>
        <time>2019-04-11T16:38:32.000Z</time>
      </trkpt>
      <trkpt lat="-40.197987" lon="-71.364776">
        <ele>935.7</ele>
        <time>2019-04-11T16:38:33.000Z</time>
      </trkpt>
      <trkpt lat="-40.197945" lon="-71.364697">
        <ele>935.9</ele>
        <time>2019-04-11T16:38:34.000Z</time>
      </trkpt>
      <trkpt lat="-40.197896" lon="-71.364616">
        <ele>936.2</ele>
        <time>2019-04-11T16:38:35.000Z</time>
      </trkpt>
      <trkpt lat="-40.197853" lon="-71.364539">
        <ele>936.4</ele>
        <time>2019-04-11T16:38:36.000Z</time>
      </trkpt>
      <trkpt lat="-40.197816" lon="-71.364465">
        <ele>936.6</ele>
        <time>2019-04-11T16:38:37.000Z</time>
      </trkpt>
      <trkpt lat="-40.197778" lon="-71.364389">
        <ele>936.8</ele>
        <time>2019-04-11T16:38:38.000Z</time>
      </trkpt>
      <trkpt lat="-40.197745" lon="-71.364309">
        <ele>937.1</ele>
        <time>2019-04-11T16:38:39.000Z</time>
      </trkpt>
      <trkpt lat="-40.197715" lon="-71.364234">
        <ele>937.3</ele>
        <time>2019-04-11T16:38:40.000Z</time>
      </trkpt>
      <trkpt lat="-40.197669" lon="-71.364156">
        <ele>937.6</ele>
        <time>2019-04-11T16:38:41.000Z</time>
      </trkpt>
      <trkpt lat="-40.197635" lon="-71.36407">
        <ele>937.8</ele>
        <time>2019-04-11T16:38:42.000Z</time>
      </trkpt>
      <trkpt lat="-40.197599" lon="-71.364004">
        <ele>938.1</ele>
        <time>2019-04-11T16:38:43.000Z</time>
      </trkpt>
      <trkpt lat="-40.197572" lon="-71.363924">
        <ele>938.4</ele>
        <time>2019-04-11T16:38:44.000Z</time>
      </trkpt>
      <trkpt lat="-40.197529" lon="-71.363846">
        <ele>938.7</ele>
        <time>2019-04-11T16:38:45.000Z</time>
      </trkpt>
      <trkpt lat="-40.197483" lon="-71.36377">
        <ele>939</ele>
        <time>2019-04-11T16:38:46.000Z</time>
      </trkpt>
      <trkpt lat="-40.197432" lon="-71.363705">
        <ele>939.2</ele>
        <time>2019-04-11T16:38:47.000Z</time>
      </trkpt>
      <trkpt lat="-40.197399" lon="-71.363633">
        <ele>939.5</ele>
        <time>2019-04-11T16:38:48.000Z</time>
      </trkpt>
      <trkpt lat="-40.197349" lon="-71.363565">
        <ele>939.7</ele>
        <time>2019-04-11T16:38:49.000Z</time>
      </trkpt>
      <trkpt lat="-40.197305" lon="-71.363499">
        <ele>940</ele>
        <time>2019-04-11T16:38:50.000Z</time>
      </trkpt>
      <trkpt lat="-40.197266" lon="-71.363427">
        <ele>940.2</ele>
        <time>2019-04-11T16:38:51.000Z</time>
      </trkpt>
      <trkpt lat="-40.197226" lon="-71.363357">
        <ele>940.6</ele>
        <time>2019-04-11T16:38:52.000Z</time>
      </trkpt>
      <trkpt lat="-40.197183" lon="-71.363286">
        <ele>940.9</ele>
        <time>2019-04-11T16:38:53.000Z</time>
      </trkpt>
      <trkpt lat="-40.197152" lon="-71.363205">
        <ele>941.3</ele>
        <time>2019-04-11T16:38:54.000Z</time>
      </trkpt>
      <trkpt lat="-40.197107" lon="-71.363132">
        <ele>941.6</ele>
        <time>2019-04-11T16:38:55.000Z</time>
      </trkpt>
      <trkpt lat="-40.197062" lon="-71.363067">
        <ele>941.9</ele>
        <time>2019-04-11T16:38:56.000Z</time>
      </trkpt>
      <trkpt lat="-40.197024" lon="-71.362999">
        <ele>942.2</ele>
        <time>2019-04-11T16:38:57.000Z</time>
      </trkpt>
      <trkpt lat="-40.196987" lon="-71.362924">
        <ele>942.5</ele>
        <time>2019-04-11T16:38:58.000Z</time>
      </trkpt>
      <trkpt lat="-40.196946" lon="-71.362861">
        <ele>942.7</ele>
        <time>2019-04-11T16:38:59.000Z</time>
      </trkpt>
      <trkpt lat="-40.196918" lon="-71.362794">
        <ele>943</ele>
        <time>2019-04-11T16:39:00.000Z</time>
      </trkpt>
      <trkpt lat="-40.196876" lon="-71.362739">
        <ele>943.2</ele>
        <time>2019-04-11T16:39:01.000Z</time>
      </trkpt>
      <trkpt lat="-40.196863" lon="-71.362685">
        <ele>943.3</ele>
        <time>2019-04-11T16:39:02.000Z</time>
      </trkpt>
      <trkpt lat="-40.196831" lon="-71.362632">
        <ele>943.5</ele>
        <time>2019-04-11T16:39:03.000Z</time>
      </trkpt>
      <trkpt lat="-40.196793" lon="-71.362578">
        <ele>943.6</ele>
        <time>2019-04-11T16:39:04.000Z</time>
      </trkpt>
      <trkpt lat="-40.196774" lon="-71.362532">
        <ele>943.7</ele>
        <time>2019-04-11T16:39:05.000Z</time>
      </trkpt>
      <trkpt lat="-40.196745" lon="-71.362485">
        <ele>943.9</ele>
        <time>2019-04-11T16:39:06.000Z</time>
      </trkpt>
      <trkpt lat="-40.196712" lon="-71.362442">
        <ele>944</ele>
        <time>2019-04-11T16:39:07.000Z</time>
      </trkpt>
      <trkpt lat="-40.196681" lon="-71.362398">
        <ele>944.1</ele>
        <time>2019-04-11T16:39:08.000Z</time>
      </trkpt>
      <trkpt lat="-40.196651" lon="-71.362369">
        <ele>944.2</ele>
        <time>2019-04-11T16:39:09.000Z</time>
      </trkpt>
      <trkpt lat="-40.19663" lon="-71.362321">
        <ele>944.3</ele>
        <time>2019-04-11T16:39:10.000Z</time>
      </trkpt>
      <trkpt lat="-40.196598" lon="-71.362277">
        <ele>944.4</ele>
        <time>2019-04-11T16:39:11.000Z</time>
      </trkpt>
      <trkpt lat="-40.196566" lon="-71.362239">
        <ele>944.5</ele>
        <time>2019-04-11T16:39:12.000Z</time>
      </trkpt>
      <trkpt lat="-40.196535" lon="-71.362212">
        <ele>944.6</ele>
        <time>2019-04-11T16:39:13.000Z</time>
      </trkpt>
      <trkpt lat="-40.196499" lon="-71.362175">
        <ele>944.8</ele>
        <time>2019-04-11T16:39:14.000Z</time>
      </trkpt>
      <trkpt lat="-40.196468" lon="-71.362151">
        <ele>944.8</ele>
        <time>2019-04-11T16:39:15.000Z</time>
      </trkpt>
      <trkpt lat="-40.196446" lon="-71.362104">
        <ele>944.9</ele>
        <time>2019-04-11T16:39:16.000Z</time>
      </trkpt>
      <trkpt lat="-40.196416" lon="-71.362074">
        <ele>945</ele>
        <time>2019-04-11T16:39:17.000Z</time>
      </trkpt>
      <trkpt lat="-40.196388" lon="-71.362038">
        <ele>945.1</ele>
        <time>2019-04-11T16:39:18.000Z</time>
      </trkpt>
      <trkpt lat="-40.196346" lon="-71.362007">
        <ele>945.2</ele>
        <time>2019-04-11T16:39:19.000Z</time>
      </trkpt>
      <trkpt lat="-40.196303" lon="-71.361979">
        <ele>945.3</ele>
        <time>2019-04-11T16:39:20.000Z</time>
      </trkpt>
      <trkpt lat="-40.196269" lon="-71.361943">
        <ele>945.4</ele>
        <time>2019-04-11T16:39:21.000Z</time>
      </trkpt>
      <trkpt lat="-40.196231" lon="-71.361904">
        <ele>945.5</ele>
        <time>2019-04-11T16:39:22.000Z</time>
      </trkpt>
      <trkpt lat="-40.196197" lon="-71.36188">
        <ele>945.6</ele>
        <time>2019-04-11T16:39:23.000Z</time>
      </trkpt>
      <trkpt lat="-40.196159" lon="-71.361854">
        <ele>945.7</ele>
        <time>2019-04-11T16:39:24.000Z</time>
      </trkpt>
      <trkpt lat="-40.196121" lon="-71.361809">
        <ele>945.8</ele>
        <time>2019-04-11T16:39:25.000Z</time>
      </trkpt>
      <trkpt lat="-40.196082" lon="-71.361792">
        <ele>945.9</ele>
        <time>2019-04-11T16:39:26.000Z</time>
      </trkpt>
      <trkpt lat="-40.196042" lon="-71.361754">
        <ele>946</ele>
        <time>2019-04-11T16:39:27.000Z</time>
      </trkpt>
      <trkpt lat="-40.195996" lon="-71.361722">
        <ele>946.1</ele>
        <time>2019-04-11T16:39:28.000Z</time>
      </trkpt>
      <trkpt lat="-40.195954" lon="-71.361694">
        <ele>946.2</ele>
        <time>2019-04-11T16:39:29.000Z</time>
      </trkpt>
      <trkpt lat="-40.195909" lon="-71.361661">
        <ele>946.3</ele>
        <time>2019-04-11T16:39:30.000Z</time>
      </trkpt>
      <trkpt lat="-40.19587" lon="-71.361629">
        <ele>946.4</ele>
        <time>2019-04-11T16:39:31.000Z</time>
      </trkpt>
      <trkpt lat="-40.195828" lon="-71.36159">
        <ele>946.5</ele>
        <time>2019-04-11T16:39:32.000Z</time>
      </trkpt>
      <trkpt lat="-40.195783" lon="-71.361571">
        <ele>946.7</ele>
        <time>2019-04-11T16:39:33.000Z</time>
      </trkpt>
      <trkpt lat="-40.195738" lon="-71.36153">
        <ele>946.8</ele>
        <time>2019-04-11T16:39:34.000Z</time>
      </trkpt>
      <trkpt lat="-40.195703" lon="-71.361501">
        <ele>946.9</ele>
        <time>2019-04-11T16:39:35.000Z</time>
      </trkpt>
      <trkpt lat="-40.195659" lon="-71.361462">
        <ele>947</ele>
        <time>2019-04-11T16:39:36.000Z</time>
      </trkpt>
      <trkpt lat="-40.195606" lon="-71.361423">
        <ele>947.1</ele>
        <time>2019-04-11T16:39:37.000Z</time>
      </trkpt>
      <trkpt lat="-40.195562" lon="-71.361388">
        <ele>947.2</ele>
        <time>2019-04-11T16:39:38.000Z</time>
      </trkpt>
      <trkpt lat="-40.195522" lon="-71.361346">
        <ele>947.3</ele>
        <time>2019-04-11T16:39:39.000Z</time>
      </trkpt>
      <trkpt lat="-40.195475" lon="-71.361297">
        <ele>947.5</ele>
        <time>2019-04-11T16:39:40.000Z</time>
      </trkpt>
      <trkpt lat="-40.195438" lon="-71.361266">
        <ele>947.5</ele>
        <time>2019-04-11T16:39:41.000Z</time>
      </trkpt>
      <trkpt lat="-40.195393" lon="-71.36122">
        <ele>947.6</ele>
        <time>2019-04-11T16:39:42.000Z</time>
      </trkpt>
      <trkpt lat="-40.195347" lon="-71.361168">
        <ele>947.8</ele>
        <time>2019-04-11T16:39:43.000Z</time>
      </trkpt>
      <trkpt lat="-40.1953" lon="-71.361121">
        <ele>947.9</ele>
        <time>2019-04-11T16:39:44.000Z</time>
      </trkpt>
      <trkpt lat="-40.195264" lon="-71.361078">
        <ele>948</ele>
        <time>2019-04-11T16:39:45.000Z</time>
      </trkpt>
      <trkpt lat="-40.195226" lon="-71.361036">
        <ele>948.1</ele>
        <time>2019-04-11T16:39:46.000Z</time>
      </trkpt>
      <trkpt lat="-40.195187" lon="-71.360981">
        <ele>948.2</ele>
        <time>2019-04-11T16:39:47.000Z</time>
      </trkpt>
      <trkpt lat="-40.195151" lon="-71.360931">
        <ele>948.4</ele>
        <time>2019-04-11T16:39:48.000Z</time>
      </trkpt>
      <trkpt lat="-40.195115" lon="-71.360875">
        <ele>948.5</ele>
        <time>2019-04-11T16:39:49.000Z</time>
      </trkpt>
      <trkpt lat="-40.19508" lon="-71.360823">
        <ele>948.6</ele>
        <time>2019-04-11T16:39:50.000Z</time>
      </trkpt>
      <trkpt lat="-40.195043" lon="-71.360759">
        <ele>948.8</ele>
        <time>2019-04-11T16:39:51.000Z</time>
      </trkpt>
      <trkpt lat="-40.195008" lon="-71.360697">
        <ele>948.9</ele>
        <time>2019-04-11T16:39:52.000Z</time>
      </trkpt>
      <trkpt lat="-40.19498" lon="-71.360637">
        <ele>949.1</ele>
        <time>2019-04-11T16:39:53.000Z</time>
      </trkpt>
      <trkpt lat="-40.194951" lon="-71.360582">
        <ele>949.2</ele>
        <time>2019-04-11T16:39:54.000Z</time>
      </trkpt>
      <trkpt lat="-40.19493" lon="-71.360534">
        <ele>949.3</ele>
        <time>2019-04-11T16:39:55.000Z</time>
      </trkpt>
      <trkpt lat="-40.194894" lon="-71.360469">
        <ele>949.5</ele>
        <time>2019-04-11T16:39:56.000Z</time>
      </trkpt>
      <trkpt lat="-40.194873" lon="-71.360417">
        <ele>949.6</ele>
        <time>2019-04-11T16:39:57.000Z</time>
      </trkpt>
      <trkpt lat="-40.194848" lon="-71.360347">
        <ele>949.7</ele>
        <time>2019-04-11T16:39:58.000Z</time>
      </trkpt>
      <trkpt lat="-40.194828" lon="-71.360278">
        <ele>949.9</ele>
        <time>2019-04-11T16:39:59.000Z</time>
      </trkpt>
      <trkpt lat="-40.194801" lon="-71.360223">
        <ele>950</ele>
        <time>2019-04-11T16:40:00.000Z</time>
      </trkpt>
      <trkpt lat="-40.194767" lon="-71.360152">
        <ele>950.2</ele>
        <time>2019-04-11T16:40:01.000Z</time>
      </trkpt>
      <trkpt lat="-40.194751" lon="-71.360098">
        <ele>950.3</ele>
        <time>2019-04-11T16:40:02.000Z</time>
      </trkpt>
      <trkpt lat="-40.194736" lon="-71.360031">
        <ele>950.4</ele>
        <time>2019-04-11T16:40:03.000Z</time>
      </trkpt>
      <trkpt lat="-40.194714" lon="-71.359961">
        <ele>950.6</ele>
        <time>2019-04-11T16:40:04.000Z</time>
      </trkpt>
      <trkpt lat="-40.194699" lon="-71.359891">
        <ele>950.7</ele>
        <time>2019-04-11T16:40:05.000Z</time>
      </trkpt>
      <trkpt lat="-40.194686" lon="-71.359822">
        <ele>950.8</ele>
        <time>2019-04-11T16:40:06.000Z</time>
      </trkpt>
      <trkpt lat="-40.194675" lon="-71.359749">
        <ele>951</ele>
        <time>2019-04-11T16:40:07.000Z</time>
      </trkpt>
      <trkpt lat="-40.194666" lon="-71.359655">
        <ele>951.2</ele>
        <time>2019-04-11T16:40:08.000Z</time>
      </trkpt>
      <trkpt lat="-40.194647" lon="-71.359585">
        <ele>951.4</ele>
        <time>2019-04-11T16:40:09.000Z</time>
      </trkpt>
      <trkpt lat="-40.194615" lon="-71.359525">
        <ele>951.5</ele>
        <time>2019-04-11T16:40:10.000Z</time>
      </trkpt>
      <trkpt lat="-40.194601" lon="-71.359463">
        <ele>951.6</ele>
        <time>2019-04-11T16:40:11.000Z</time>
      </trkpt>
      <trkpt lat="-40.194581" lon="-71.35939">
        <ele>951.8</ele>
        <time>2019-04-11T16:40:12.000Z</time>
      </trkpt>
      <trkpt lat="-40.194554" lon="-71.359328">
        <ele>951.9</ele>
        <time>2019-04-11T16:40:13.000Z</time>
      </trkpt>
      <trkpt lat="-40.194537" lon="-71.359255">
        <ele>952.1</ele>
        <time>2019-04-11T16:40:14.000Z</time>
      </trkpt>
      <trkpt lat="-40.194518" lon="-71.359174">
        <ele>952.3</ele>
        <time>2019-04-11T16:40:15.000Z</time>
      </trkpt>
      <trkpt lat="-40.194505" lon="-71.359097">
        <ele>952.5</ele>
        <time>2019-04-11T16:40:16.000Z</time>
      </trkpt>
      <trkpt lat="-40.194497" lon="-71.359026">
        <ele>952.6</ele>
        <time>2019-04-11T16:40:17.000Z</time>
      </trkpt>
      <trkpt lat="-40.194484" lon="-71.358951">
        <ele>952.7</ele>
        <time>2019-04-11T16:40:18.000Z</time>
      </trkpt>
      <trkpt lat="-40.194471" lon="-71.358873">
        <ele>952.9</ele>
        <time>2019-04-11T16:40:19.000Z</time>
      </trkpt>
      <trkpt lat="-40.19446" lon="-71.358802">
        <ele>953</ele>
        <time>2019-04-11T16:40:20.000Z</time>
      </trkpt>
      <trkpt lat="-40.194446" lon="-71.358747">
        <ele>953.1</ele>
        <time>2019-04-11T16:40:21.000Z</time>
      </trkpt>
      <trkpt lat="-40.194432" lon="-71.358676">
        <ele>953.3</ele>
        <time>2019-04-11T16:40:22.000Z</time>
      </trkpt>
      <trkpt lat="-40.194421" lon="-71.358601">
        <ele>953.4</ele>
        <time>2019-04-11T16:40:23.000Z</time>
      </trkpt>
      <trkpt lat="-40.194407" lon="-71.35854">
        <ele>953.5</ele>
        <time>2019-04-11T16:40:24.000Z</time>
      </trkpt>
      <trkpt lat="-40.194394" lon="-71.358467">
        <ele>953.7</ele>
        <time>2019-04-11T16:40:25.000Z</time>
      </trkpt>
      <trkpt lat="-40.194383" lon="-71.358395">
        <ele>953.8</ele>
        <time>2019-04-11T16:40:26.000Z</time>
      </trkpt>
      <trkpt lat="-40.194378" lon="-71.358303">
        <ele>954</ele>
        <time>2019-04-11T16:40:27.000Z</time>
      </trkpt>
      <trkpt lat="-40.194368" lon="-71.358238">
        <ele>954.1</ele>
        <time>2019-04-11T16:40:28.000Z</time>
      </trkpt>
      <trkpt lat="-40.194366" lon="-71.358161">
        <ele>954.2</ele>
        <time>2019-04-11T16:40:29.000Z</time>
      </trkpt>
      <trkpt lat="-40.19436" lon="-71.358092">
        <ele>954.4</ele>
        <time>2019-04-11T16:40:30.000Z</time>
      </trkpt>
      <trkpt lat="-40.194368" lon="-71.358025">
        <ele>954.5</ele>
        <time>2019-04-11T16:40:31.000Z</time>
      </trkpt>
      <trkpt lat="-40.194374" lon="-71.357947">
        <ele>954.6</ele>
        <time>2019-04-11T16:40:32.000Z</time>
      </trkpt>
      <trkpt lat="-40.194373" lon="-71.357863">
        <ele>954.7</ele>
        <time>2019-04-11T16:40:33.000Z</time>
      </trkpt>
      <trkpt lat="-40.194381" lon="-71.35778">
        <ele>954.8</ele>
        <time>2019-04-11T16:40:34.000Z</time>
      </trkpt>
      <trkpt lat="-40.1944" lon="-71.357701">
        <ele>954.9</ele>
        <time>2019-04-11T16:40:35.000Z</time>
      </trkpt>
      <trkpt lat="-40.194411" lon="-71.357635">
        <ele>955</ele>
        <time>2019-04-11T16:40:36.000Z</time>
      </trkpt>
      <trkpt lat="-40.194435" lon="-71.357567">
        <ele>955.1</ele>
        <time>2019-04-11T16:40:37.000Z</time>
      </trkpt>
      <trkpt lat="-40.194455" lon="-71.357492">
        <ele>955.2</ele>
        <time>2019-04-11T16:40:38.000Z</time>
      </trkpt>
      <trkpt lat="-40.194494" lon="-71.357422">
        <ele>955.2</ele>
        <time>2019-04-11T16:40:39.000Z</time>
      </trkpt>
      <trkpt lat="-40.194531" lon="-71.35736">
        <ele>955.3</ele>
        <time>2019-04-11T16:40:40.000Z</time>
      </trkpt>
      <trkpt lat="-40.194566" lon="-71.357295">
        <ele>955.4</ele>
        <time>2019-04-11T16:40:41.000Z</time>
      </trkpt>
      <trkpt lat="-40.194595" lon="-71.357237">
        <ele>955.5</ele>
        <time>2019-04-11T16:40:42.000Z</time>
      </trkpt>
      <trkpt lat="-40.19463" lon="-71.357167">
        <ele>955.6</ele>
        <time>2019-04-11T16:40:43.000Z</time>
      </trkpt>
      <trkpt lat="-40.194658" lon="-71.357112">
        <ele>955.7</ele>
        <time>2019-04-11T16:40:44.000Z</time>
      </trkpt>
      <trkpt lat="-40.194696" lon="-71.357066">
        <ele>955.8</ele>
        <time>2019-04-11T16:40:45.000Z</time>
      </trkpt>
      <trkpt lat="-40.194729" lon="-71.357024">
        <ele>955.8</ele>
        <time>2019-04-11T16:40:46.000Z</time>
      </trkpt>
      <trkpt lat="-40.194769" lon="-71.356984">
        <ele>955.9</ele>
        <time>2019-04-11T16:40:47.000Z</time>
      </trkpt>
      <trkpt lat="-40.194809" lon="-71.356942">
        <ele>956</ele>
        <time>2019-04-11T16:40:48.000Z</time>
      </trkpt>
      <trkpt lat="-40.194857" lon="-71.356902">
        <ele>956.1</ele>
        <time>2019-04-11T16:40:49.000Z</time>
      </trkpt>
      <trkpt lat="-40.194897" lon="-71.356874">
        <ele>956.2</ele>
        <time>2019-04-11T16:40:50.000Z</time>
      </trkpt>
      <trkpt lat="-40.194943" lon="-71.35684">
        <ele>956.4</ele>
        <time>2019-04-11T16:40:51.000Z</time>
      </trkpt>
      <trkpt lat="-40.194982" lon="-71.356807">
        <ele>956.5</ele>
        <time>2019-04-11T16:40:52.000Z</time>
      </trkpt>
      <trkpt lat="-40.195019" lon="-71.356781">
        <ele>956.6</ele>
        <time>2019-04-11T16:40:53.000Z</time>
      </trkpt>
      <trkpt lat="-40.195064" lon="-71.356761">
        <ele>956.8</ele>
        <time>2019-04-11T16:40:54.000Z</time>
      </trkpt>
      <trkpt lat="-40.195113" lon="-71.356734">
        <ele>957</ele>
        <time>2019-04-11T16:40:55.000Z</time>
      </trkpt>
      <trkpt lat="-40.195152" lon="-71.356707">
        <ele>957.1</ele>
        <time>2019-04-11T16:40:56.000Z</time>
      </trkpt>
      <trkpt lat="-40.195199" lon="-71.356701">
        <ele>957.2</ele>
        <time>2019-04-11T16:40:57.000Z</time>
      </trkpt>
      <trkpt lat="-40.195242" lon="-71.356685">
        <ele>957.4</ele>
        <time>2019-04-11T16:40:58.000Z</time>
      </trkpt>
      <trkpt lat="-40.195281" lon="-71.35667">
        <ele>957.6</ele>
        <time>2019-04-11T16:40:59.000Z</time>
      </trkpt>
      <trkpt lat="-40.195315" lon="-71.356657">
        <ele>957.7</ele>
        <time>2019-04-11T16:41:00.000Z</time>
      </trkpt>
      <trkpt lat="-40.195359" lon="-71.356651">
        <ele>957.9</ele>
        <time>2019-04-11T16:41:01.000Z</time>
      </trkpt>
      <trkpt lat="-40.195413" lon="-71.356663">
        <ele>958.1</ele>
        <time>2019-04-11T16:41:02.000Z</time>
      </trkpt>
      <trkpt lat="-40.195451" lon="-71.356648">
        <ele>958.3</ele>
        <time>2019-04-11T16:41:03.000Z</time>
      </trkpt>
      <trkpt lat="-40.195499" lon="-71.356654">
        <ele>958.5</ele>
        <time>2019-04-11T16:41:04.000Z</time>
      </trkpt>
      <trkpt lat="-40.195541" lon="-71.356671">
        <ele>958.6</ele>
        <time>2019-04-11T16:41:05.000Z</time>
      </trkpt>
      <trkpt lat="-40.195581" lon="-71.356651">
        <ele>958.8</ele>
        <time>2019-04-11T16:41:06.000Z</time>
      </trkpt>
      <trkpt lat="-40.195632" lon="-71.356672">
        <ele>959.2</ele>
        <time>2019-04-11T16:41:07.000Z</time>
      </trkpt>
      <trkpt lat="-40.195669" lon="-71.356685">
        <ele>959.5</ele>
        <time>2019-04-11T16:41:08.000Z</time>
      </trkpt>
      <trkpt lat="-40.195702" lon="-71.356692">
        <ele>959.6</ele>
        <time>2019-04-11T16:41:09.000Z</time>
      </trkpt>
      <trkpt lat="-40.19575" lon="-71.356715">
        <ele>959.9</ele>
        <time>2019-04-11T16:41:10.000Z</time>
      </trkpt>
      <trkpt lat="-40.195799" lon="-71.356733">
        <ele>960.2</ele>
        <time>2019-04-11T16:41:11.000Z</time>
      </trkpt>
      <trkpt lat="-40.195832" lon="-71.356739">
        <ele>960.3</ele>
        <time>2019-04-11T16:41:12.000Z</time>
      </trkpt>
      <trkpt lat="-40.195869" lon="-71.356766">
        <ele>960.5</ele>
        <time>2019-04-11T16:41:13.000Z</time>
      </trkpt>
      <trkpt lat="-40.195899" lon="-71.356774">
        <ele>960.7</ele>
        <time>2019-04-11T16:41:14.000Z</time>
      </trkpt>
      <trkpt lat="-40.195942" lon="-71.356806">
        <ele>961.1</ele>
        <time>2019-04-11T16:41:15.000Z</time>
      </trkpt>
      <trkpt lat="-40.195988" lon="-71.356839">
        <ele>961.6</ele>
        <time>2019-04-11T16:41:16.000Z</time>
      </trkpt>
      <trkpt lat="-40.19603" lon="-71.356877">
        <ele>961.9</ele>
        <time>2019-04-11T16:41:17.000Z</time>
      </trkpt>
      <trkpt lat="-40.196063" lon="-71.356905">
        <ele>962.2</ele>
        <time>2019-04-11T16:41:18.000Z</time>
      </trkpt>
      <trkpt lat="-40.196108" lon="-71.356949">
        <ele>962.6</ele>
        <time>2019-04-11T16:41:19.000Z</time>
      </trkpt>
      <trkpt lat="-40.196146" lon="-71.356982">
        <ele>963</ele>
        <time>2019-04-11T16:41:20.000Z</time>
      </trkpt>
      <trkpt lat="-40.196172" lon="-71.357021">
        <ele>963.3</ele>
        <time>2019-04-11T16:41:21.000Z</time>
      </trkpt>
      <trkpt lat="-40.196202" lon="-71.357063">
        <ele>963.7</ele>
        <time>2019-04-11T16:41:22.000Z</time>
      </trkpt>
      <trkpt lat="-40.196245" lon="-71.357121">
        <ele>964.3</ele>
        <time>2019-04-11T16:41:23.000Z</time>
      </trkpt>
      <trkpt lat="-40.196273" lon="-71.357164">
        <ele>964.6</ele>
        <time>2019-04-11T16:41:24.000Z</time>
      </trkpt>
      <trkpt lat="-40.196303" lon="-71.357215">
        <ele>964.9</ele>
        <time>2019-04-11T16:41:25.000Z</time>
      </trkpt>
      <trkpt lat="-40.196333" lon="-71.357258">
        <ele>965.3</ele>
        <time>2019-04-11T16:41:26.000Z</time>
      </trkpt>
      <trkpt lat="-40.196364" lon="-71.35731">
        <ele>965.6</ele>
        <time>2019-04-11T16:41:27.000Z</time>
      </trkpt>
      <trkpt lat="-40.196389" lon="-71.357369">
        <ele>965.9</ele>
        <time>2019-04-11T16:41:28.000Z</time>
      </trkpt>
      <trkpt lat="-40.196414" lon="-71.357427">
        <ele>966.2</ele>
        <time>2019-04-11T16:41:29.000Z</time>
      </trkpt>
      <trkpt lat="-40.196431" lon="-71.357484">
        <ele>966.5</ele>
        <time>2019-04-11T16:41:30.000Z</time>
      </trkpt>
      <trkpt lat="-40.196454" lon="-71.357535">
        <ele>966.7</ele>
        <time>2019-04-11T16:41:31.000Z</time>
      </trkpt>
      <trkpt lat="-40.196462" lon="-71.357582">
        <ele>966.9</ele>
        <time>2019-04-11T16:41:32.000Z</time>
      </trkpt>
      <trkpt lat="-40.19648" lon="-71.357624">
        <ele>967.1</ele>
        <time>2019-04-11T16:41:33.000Z</time>
      </trkpt>
      <trkpt lat="-40.196502" lon="-71.357669">
        <ele>967.3</ele>
        <time>2019-04-11T16:41:34.000Z</time>
      </trkpt>
      <trkpt lat="-40.196542" lon="-71.357748">
        <ele>967.6</ele>
        <time>2019-04-11T16:41:36.000Z</time>
      </trkpt>
      <trkpt lat="-40.196559" lon="-71.357803">
        <ele>967.8</ele>
        <time>2019-04-11T16:41:37.000Z</time>
      </trkpt>
      <trkpt lat="-40.196573" lon="-71.357836">
        <ele>968</ele>
        <time>2019-04-11T16:41:38.000Z</time>
      </trkpt>
      <trkpt lat="-40.196586" lon="-71.357878">
        <ele>968.1</ele>
        <time>2019-04-11T16:41:39.000Z</time>
      </trkpt>
      <trkpt lat="-40.196604" lon="-71.357927">
        <ele>968.3</ele>
        <time>2019-04-11T16:41:40.000Z</time>
      </trkpt>
      <trkpt lat="-40.196622" lon="-71.357969">
        <ele>968.4</ele>
        <time>2019-04-11T16:41:41.000Z</time>
      </trkpt>
      <trkpt lat="-40.196629" lon="-71.358012">
        <ele>968.6</ele>
        <time>2019-04-11T16:41:42.000Z</time>
      </trkpt>
      <trkpt lat="-40.196653" lon="-71.358057">
        <ele>968.7</ele>
        <time>2019-04-11T16:41:43.000Z</time>
      </trkpt>
      <trkpt lat="-40.196668" lon="-71.358096">
        <ele>968.8</ele>
        <time>2019-04-11T16:41:44.000Z</time>
      </trkpt>
      <trkpt lat="-40.196679" lon="-71.358137">
        <ele>968.9</ele>
        <time>2019-04-11T16:41:45.000Z</time>
      </trkpt>
      <trkpt lat="-40.196689" lon="-71.358182">
        <ele>969</ele>
        <time>2019-04-11T16:41:46.000Z</time>
      </trkpt>
      <trkpt lat="-40.196703" lon="-71.358217">
        <ele>969.2</ele>
        <time>2019-04-11T16:41:47.000Z</time>
      </trkpt>
      <trkpt lat="-40.196716" lon="-71.358262">
        <ele>969.3</ele>
        <time>2019-04-11T16:41:48.000Z</time>
      </trkpt>
      <trkpt lat="-40.196733" lon="-71.358302">
        <ele>969.4</ele>
        <time>2019-04-11T16:41:49.000Z</time>
      </trkpt>
      <trkpt lat="-40.196749" lon="-71.358339">
        <ele>969.6</ele>
        <time>2019-04-11T16:41:50.000Z</time>
      </trkpt>
      <trkpt lat="-40.196769" lon="-71.358382">
        <ele>969.8</ele>
        <time>2019-04-11T16:41:51.000Z</time>
      </trkpt>
      <trkpt lat="-40.196787" lon="-71.358426">
        <ele>969.9</ele>
        <time>2019-04-11T16:41:52.000Z</time>
      </trkpt>
      <trkpt lat="-40.196795" lon="-71.358461">
        <ele>970</ele>
        <time>2019-04-11T16:41:53.000Z</time>
      </trkpt>
      <trkpt lat="-40.196815" lon="-71.358507">
        <ele>970.2</ele>
        <time>2019-04-11T16:41:54.000Z</time>
      </trkpt>
      <trkpt lat="-40.196845" lon="-71.358551">
        <ele>970.4</ele>
        <time>2019-04-11T16:41:55.000Z</time>
      </trkpt>
      <trkpt lat="-40.196856" lon="-71.35859">
        <ele>970.5</ele>
        <time>2019-04-11T16:41:56.000Z</time>
      </trkpt>
      <trkpt lat="-40.196877" lon="-71.358627">
        <ele>970.7</ele>
        <time>2019-04-11T16:41:57.000Z</time>
      </trkpt>
      <trkpt lat="-40.1969" lon="-71.35867">
        <ele>970.8</ele>
        <time>2019-04-11T16:41:58.000Z</time>
      </trkpt>
      <trkpt lat="-40.196915" lon="-71.358705">
        <ele>971</ele>
        <time>2019-04-11T16:41:59.000Z</time>
      </trkpt>
      <trkpt lat="-40.196933" lon="-71.358747">
        <ele>971.1</ele>
        <time>2019-04-11T16:42:00.000Z</time>
      </trkpt>
      <trkpt lat="-40.196958" lon="-71.358788">
        <ele>971.3</ele>
        <time>2019-04-11T16:42:01.000Z</time>
      </trkpt>
      <trkpt lat="-40.196982" lon="-71.358825">
        <ele>971.4</ele>
        <time>2019-04-11T16:42:02.000Z</time>
      </trkpt>
      <trkpt lat="-40.197008" lon="-71.358861">
        <ele>971.5</ele>
        <time>2019-04-11T16:42:03.000Z</time>
      </trkpt>
      <trkpt lat="-40.197031" lon="-71.358885">
        <ele>971.6</ele>
        <time>2019-04-11T16:42:04.000Z</time>
      </trkpt>
      <trkpt lat="-40.197058" lon="-71.358928">
        <ele>971.8</ele>
        <time>2019-04-11T16:42:05.000Z</time>
      </trkpt>
      <trkpt lat="-40.197092" lon="-71.358965">
        <ele>971.9</ele>
        <time>2019-04-11T16:42:06.000Z</time>
      </trkpt>
      <trkpt lat="-40.197116" lon="-71.359002">
        <ele>972</ele>
        <time>2019-04-11T16:42:07.000Z</time>
      </trkpt>
      <trkpt lat="-40.19715" lon="-71.359033">
        <ele>972.2</ele>
        <time>2019-04-11T16:42:08.000Z</time>
      </trkpt>
      <trkpt lat="-40.197183" lon="-71.359059">
        <ele>972.3</ele>
        <time>2019-04-11T16:42:09.000Z</time>
      </trkpt>
      <trkpt lat="-40.197209" lon="-71.359083">
        <ele>972.4</ele>
        <time>2019-04-11T16:42:10.000Z</time>
      </trkpt>
      <trkpt lat="-40.197241" lon="-71.359112">
        <ele>972.5</ele>
        <time>2019-04-11T16:42:11.000Z</time>
      </trkpt>
      <trkpt lat="-40.197271" lon="-71.359155">
        <ele>972.6</ele>
        <time>2019-04-11T16:42:12.000Z</time>
      </trkpt>
      <trkpt lat="-40.197302" lon="-71.359177">
        <ele>972.7</ele>
        <time>2019-04-11T16:42:13.000Z</time>
      </trkpt>
      <trkpt lat="-40.197329" lon="-71.3592">
        <ele>972.7</ele>
        <time>2019-04-11T16:42:14.000Z</time>
      </trkpt>
      <trkpt lat="-40.197352" lon="-71.359234">
        <ele>972.8</ele>
        <time>2019-04-11T16:42:15.000Z</time>
      </trkpt>
      <trkpt lat="-40.19738" lon="-71.359262">
        <ele>972.8</ele>
        <time>2019-04-11T16:42:16.000Z</time>
      </trkpt>
      <trkpt lat="-40.197408" lon="-71.359282">
        <ele>972.9</ele>
        <time>2019-04-11T16:42:17.000Z</time>
      </trkpt>
      <trkpt lat="-40.197445" lon="-71.35931">
        <ele>972.9</ele>
        <time>2019-04-11T16:42:18.000Z</time>
      </trkpt>
      <trkpt lat="-40.197472" lon="-71.359332">
        <ele>973</ele>
        <time>2019-04-11T16:42:19.000Z</time>
      </trkpt>
      <trkpt lat="-40.197501" lon="-71.359356">
        <ele>973</ele>
        <time>2019-04-11T16:42:20.000Z</time>
      </trkpt>
      <trkpt lat="-40.197532" lon="-71.359388">
        <ele>973</ele>
        <time>2019-04-11T16:42:21.000Z</time>
      </trkpt>
      <trkpt lat="-40.197563" lon="-71.359417">
        <ele>973.1</ele>
        <time>2019-04-11T16:42:22.000Z</time>
      </trkpt>
      <trkpt lat="-40.197593" lon="-71.359446">
        <ele>973.1</ele>
        <time>2019-04-11T16:42:23.000Z</time>
      </trkpt>
      <trkpt lat="-40.197628" lon="-71.359479">
        <ele>973.1</ele>
        <time>2019-04-11T16:42:24.000Z</time>
      </trkpt>
      <trkpt lat="-40.197665" lon="-71.359511">
        <ele>973.1</ele>
        <time>2019-04-11T16:42:25.000Z</time>
      </trkpt>
      <trkpt lat="-40.197702" lon="-71.359534">
        <ele>973.1</ele>
        <time>2019-04-11T16:42:26.000Z</time>
      </trkpt>
      <trkpt lat="-40.197739" lon="-71.359569">
        <ele>973.1</ele>
        <time>2019-04-11T16:42:27.000Z</time>
      </trkpt>
      <trkpt lat="-40.197762" lon="-71.359615">
        <ele>973.1</ele>
        <time>2019-04-11T16:42:28.000Z</time>
      </trkpt>
      <trkpt lat="-40.197793" lon="-71.359639">
        <ele>973.1</ele>
        <time>2019-04-11T16:42:29.000Z</time>
      </trkpt>
      <trkpt lat="-40.197829" lon="-71.359673">
        <ele>973.1</ele>
        <time>2019-04-11T16:42:30.000Z</time>
      </trkpt>
      <trkpt lat="-40.197854" lon="-71.3597">
        <ele>973.1</ele>
        <time>2019-04-11T16:42:31.000Z</time>
      </trkpt>
      <trkpt lat="-40.197885" lon="-71.359723">
        <ele>973.2</ele>
        <time>2019-04-11T16:42:32.000Z</time>
      </trkpt>
      <trkpt lat="-40.197928" lon="-71.359754">
        <ele>973.2</ele>
        <time>2019-04-11T16:42:33.000Z</time>
      </trkpt>
      <trkpt lat="-40.197959" lon="-71.359783">
        <ele>973.2</ele>
        <time>2019-04-11T16:42:34.000Z</time>
      </trkpt>
      <trkpt lat="-40.197994" lon="-71.35981">
        <ele>973.2</ele>
        <time>2019-04-11T16:42:35.000Z</time>
      </trkpt>
      <trkpt lat="-40.198029" lon="-71.359847">
        <ele>973.2</ele>
        <time>2019-04-11T16:42:36.000Z</time>
      </trkpt>
      <trkpt lat="-40.198062" lon="-71.35987">
        <ele>973.2</ele>
        <time>2019-04-11T16:42:37.000Z</time>
      </trkpt>
      <trkpt lat="-40.198107" lon="-71.35992">
        <ele>973.3</ele>
        <time>2019-04-11T16:42:38.000Z</time>
      </trkpt>
      <trkpt lat="-40.198142" lon="-71.35996">
        <ele>973.3</ele>
        <time>2019-04-11T16:42:39.000Z</time>
      </trkpt>
      <trkpt lat="-40.198188" lon="-71.359991">
        <ele>973.4</ele>
        <time>2019-04-11T16:42:40.000Z</time>
      </trkpt>
      <trkpt lat="-40.198223" lon="-71.360028">
        <ele>973.5</ele>
        <time>2019-04-11T16:42:41.000Z</time>
      </trkpt>
      <trkpt lat="-40.198268" lon="-71.360068">
        <ele>973.6</ele>
        <time>2019-04-11T16:42:42.000Z</time>
      </trkpt>
      <trkpt lat="-40.198312" lon="-71.360092">
        <ele>973.7</ele>
        <time>2019-04-11T16:42:43.000Z</time>
      </trkpt>
      <trkpt lat="-40.198351" lon="-71.36013">
        <ele>973.8</ele>
        <time>2019-04-11T16:42:44.000Z</time>
      </trkpt>
      <trkpt lat="-40.198395" lon="-71.360159">
        <ele>974</ele>
        <time>2019-04-11T16:42:45.000Z</time>
      </trkpt>
      <trkpt lat="-40.198444" lon="-71.360184">
        <ele>974.2</ele>
        <time>2019-04-11T16:42:46.000Z</time>
      </trkpt>
      <trkpt lat="-40.19849" lon="-71.360201">
        <ele>974.3</ele>
        <time>2019-04-11T16:42:47.000Z</time>
      </trkpt>
      <trkpt lat="-40.198545" lon="-71.360235">
        <ele>974.5</ele>
        <time>2019-04-11T16:42:48.000Z</time>
      </trkpt>
      <trkpt lat="-40.198596" lon="-71.360248">
        <ele>974.7</ele>
        <time>2019-04-11T16:42:49.000Z</time>
      </trkpt>
      <trkpt lat="-40.198647" lon="-71.360263">
        <ele>974.9</ele>
        <time>2019-04-11T16:42:50.000Z</time>
      </trkpt>
      <trkpt lat="-40.198692" lon="-71.360269">
        <ele>975.2</ele>
        <time>2019-04-11T16:42:51.000Z</time>
      </trkpt>
      <trkpt lat="-40.198746" lon="-71.360253">
        <ele>975.4</ele>
        <time>2019-04-11T16:42:52.000Z</time>
      </trkpt>
      <trkpt lat="-40.198808" lon="-71.360262">
        <ele>975.7</ele>
        <time>2019-04-11T16:42:53.000Z</time>
      </trkpt>
      <trkpt lat="-40.198859" lon="-71.360266">
        <ele>975.9</ele>
        <time>2019-04-11T16:42:54.000Z</time>
      </trkpt>
      <trkpt lat="-40.198908" lon="-71.360255">
        <ele>976.2</ele>
        <time>2019-04-11T16:42:55.000Z</time>
      </trkpt>
      <trkpt lat="-40.198962" lon="-71.36024">
        <ele>976.5</ele>
        <time>2019-04-11T16:42:56.000Z</time>
      </trkpt>
      <trkpt lat="-40.199011" lon="-71.360239">
        <ele>976.8</ele>
        <time>2019-04-11T16:42:57.000Z</time>
      </trkpt>
      <trkpt lat="-40.199056" lon="-71.36021">
        <ele>977.1</ele>
        <time>2019-04-11T16:42:58.000Z</time>
      </trkpt>
      <trkpt lat="-40.199109" lon="-71.360185">
        <ele>977.4</ele>
        <time>2019-04-11T16:42:59.000Z</time>
      </trkpt>
      <trkpt lat="-40.199149" lon="-71.360162">
        <ele>977.6</ele>
        <time>2019-04-11T16:43:00.000Z</time>
      </trkpt>
      <trkpt lat="-40.19919" lon="-71.360143">
        <ele>977.9</ele>
        <time>2019-04-11T16:43:01.000Z</time>
      </trkpt>
      <trkpt lat="-40.199229" lon="-71.360117">
        <ele>978.1</ele>
        <time>2019-04-11T16:43:02.000Z</time>
      </trkpt>
      <trkpt lat="-40.199257" lon="-71.360094">
        <ele>978.3</ele>
        <time>2019-04-11T16:43:03.000Z</time>
      </trkpt>
      <trkpt lat="-40.199292" lon="-71.360065">
        <ele>978.5</ele>
        <time>2019-04-11T16:43:04.000Z</time>
      </trkpt>
      <trkpt lat="-40.199329" lon="-71.360028">
        <ele>978.7</ele>
        <time>2019-04-11T16:43:05.000Z</time>
      </trkpt>
      <trkpt lat="-40.199372" lon="-71.359996">
        <ele>979</ele>
        <time>2019-04-11T16:43:06.000Z</time>
      </trkpt>
      <trkpt lat="-40.199411" lon="-71.359962">
        <ele>979.3</ele>
        <time>2019-04-11T16:43:07.000Z</time>
      </trkpt>
      <trkpt lat="-40.199449" lon="-71.359924">
        <ele>979.5</ele>
        <time>2019-04-11T16:43:08.000Z</time>
      </trkpt>
      <trkpt lat="-40.19949" lon="-71.359888">
        <ele>979.8</ele>
        <time>2019-04-11T16:43:09.000Z</time>
      </trkpt>
      <trkpt lat="-40.199534" lon="-71.35986">
        <ele>980.1</ele>
        <time>2019-04-11T16:43:10.000Z</time>
      </trkpt>
      <trkpt lat="-40.199565" lon="-71.359838">
        <ele>980.3</ele>
        <time>2019-04-11T16:43:11.000Z</time>
      </trkpt>
      <trkpt lat="-40.199598" lon="-71.359809">
        <ele>980.5</ele>
        <time>2019-04-11T16:43:12.000Z</time>
      </trkpt>
      <trkpt lat="-40.199629" lon="-71.359781">
        <ele>980.7</ele>
        <time>2019-04-11T16:43:13.000Z</time>
      </trkpt>
      <trkpt lat="-40.199664" lon="-71.359755">
        <ele>980.9</ele>
        <time>2019-04-11T16:43:14.000Z</time>
      </trkpt>
      <trkpt lat="-40.199698" lon="-71.359721">
        <ele>981.2</ele>
        <time>2019-04-11T16:43:15.000Z</time>
      </trkpt>
      <trkpt lat="-40.199728" lon="-71.359692">
        <ele>981.4</ele>
        <time>2019-04-11T16:43:16.000Z</time>
      </trkpt>
      <trkpt lat="-40.199763" lon="-71.359668">
        <ele>981.6</ele>
        <time>2019-04-11T16:43:17.000Z</time>
      </trkpt>
      <trkpt lat="-40.199801" lon="-71.359645">
        <ele>981.9</ele>
        <time>2019-04-11T16:43:18.000Z</time>
      </trkpt>
      <trkpt lat="-40.199834" lon="-71.359623">
        <ele>982.1</ele>
        <time>2019-04-11T16:43:19.000Z</time>
      </trkpt>
      <trkpt lat="-40.199865" lon="-71.3596">
        <ele>982.3</ele>
        <time>2019-04-11T16:43:20.000Z</time>
      </trkpt>
      <trkpt lat="-40.199898" lon="-71.359572">
        <ele>982.6</ele>
        <time>2019-04-11T16:43:21.000Z</time>
      </trkpt>
      <trkpt lat="-40.199936" lon="-71.359546">
        <ele>982.9</ele>
        <time>2019-04-11T16:43:22.000Z</time>
      </trkpt>
      <trkpt lat="-40.199971" lon="-71.359524">
        <ele>983.1</ele>
        <time>2019-04-11T16:43:23.000Z</time>
      </trkpt>
      <trkpt lat="-40.200007" lon="-71.359513">
        <ele>983.3</ele>
        <time>2019-04-11T16:43:24.000Z</time>
      </trkpt>
      <trkpt lat="-40.200038" lon="-71.359491">
        <ele>983.5</ele>
        <time>2019-04-11T16:43:25.000Z</time>
      </trkpt>
      <trkpt lat="-40.200068" lon="-71.35948">
        <ele>983.7</ele>
        <time>2019-04-11T16:43:26.000Z</time>
      </trkpt>
      <trkpt lat="-40.200103" lon="-71.359464">
        <ele>983.8</ele>
        <time>2019-04-11T16:43:27.000Z</time>
      </trkpt>
      <trkpt lat="-40.200137" lon="-71.359464">
        <ele>984</ele>
        <time>2019-04-11T16:43:28.000Z</time>
      </trkpt>
      <trkpt lat="-40.200169" lon="-71.359452">
        <ele>984.2</ele>
        <time>2019-04-11T16:43:29.000Z</time>
      </trkpt>
      <trkpt lat="-40.200206" lon="-71.359433">
        <ele>984.4</ele>
        <time>2019-04-11T16:43:30.000Z</time>
      </trkpt>
      <trkpt lat="-40.200241" lon="-71.359419">
        <ele>984.6</ele>
        <time>2019-04-11T16:43:31.000Z</time>
      </trkpt>
      <trkpt lat="-40.200276" lon="-71.359403">
        <ele>984.8</ele>
        <time>2019-04-11T16:43:32.000Z</time>
      </trkpt>
      <trkpt lat="-40.200318" lon="-71.359394">
        <ele>985</ele>
        <time>2019-04-11T16:43:33.000Z</time>
      </trkpt>
      <trkpt lat="-40.200356" lon="-71.359377">
        <ele>985.2</ele>
        <time>2019-04-11T16:43:34.000Z</time>
      </trkpt>
      <trkpt lat="-40.200398" lon="-71.359368">
        <ele>985.4</ele>
        <time>2019-04-11T16:43:35.000Z</time>
      </trkpt>
      <trkpt lat="-40.200435" lon="-71.359358">
        <ele>985.7</ele>
        <time>2019-04-11T16:43:36.000Z</time>
      </trkpt>
      <trkpt lat="-40.200474" lon="-71.359348">
        <ele>985.9</ele>
        <time>2019-04-11T16:43:37.000Z</time>
      </trkpt>
      <trkpt lat="-40.200511" lon="-71.359345">
        <ele>986.1</ele>
        <time>2019-04-11T16:43:38.000Z</time>
      </trkpt>
      <trkpt lat="-40.200547" lon="-71.359336">
        <ele>986.3</ele>
        <time>2019-04-11T16:43:39.000Z</time>
      </trkpt>
      <trkpt lat="-40.200588" lon="-71.359326">
        <ele>986.6</ele>
        <time>2019-04-11T16:43:40.000Z</time>
      </trkpt>
      <trkpt lat="-40.200622" lon="-71.359312">
        <ele>986.8</ele>
        <time>2019-04-11T16:43:41.000Z</time>
      </trkpt>
      <trkpt lat="-40.200659" lon="-71.359301">
        <ele>987</ele>
        <time>2019-04-11T16:43:42.000Z</time>
      </trkpt>
      <trkpt lat="-40.200691" lon="-71.359291">
        <ele>987.2</ele>
        <time>2019-04-11T16:43:43.000Z</time>
      </trkpt>
      <trkpt lat="-40.200729" lon="-71.359286">
        <ele>987.5</ele>
        <time>2019-04-11T16:43:44.000Z</time>
      </trkpt>
      <trkpt lat="-40.200766" lon="-71.359275">
        <ele>987.7</ele>
        <time>2019-04-11T16:43:45.000Z</time>
      </trkpt>
      <trkpt lat="-40.200801" lon="-71.359268">
        <ele>987.9</ele>
        <time>2019-04-11T16:43:46.000Z</time>
      </trkpt>
      <trkpt lat="-40.200845" lon="-71.359252">
        <ele>988.2</ele>
        <time>2019-04-11T16:43:47.000Z</time>
      </trkpt>
      <trkpt lat="-40.200876" lon="-71.359235">
        <ele>988.5</ele>
        <time>2019-04-11T16:43:48.000Z</time>
      </trkpt>
      <trkpt lat="-40.200915" lon="-71.359222">
        <ele>988.8</ele>
        <time>2019-04-11T16:43:49.000Z</time>
      </trkpt>
      <trkpt lat="-40.200949" lon="-71.359217">
        <ele>989.1</ele>
        <time>2019-04-11T16:43:50.000Z</time>
      </trkpt>
      <trkpt lat="-40.200993" lon="-71.359192">
        <ele>989.5</ele>
        <time>2019-04-11T16:43:51.000Z</time>
      </trkpt>
      <trkpt lat="-40.201021" lon="-71.359184">
        <ele>989.8</ele>
        <time>2019-04-11T16:43:52.000Z</time>
      </trkpt>
      <trkpt lat="-40.201061" lon="-71.359161">
        <ele>990.1</ele>
        <time>2019-04-11T16:43:53.000Z</time>
      </trkpt>
      <trkpt lat="-40.201091" lon="-71.359146">
        <ele>990.4</ele>
        <time>2019-04-11T16:43:54.000Z</time>
      </trkpt>
      <trkpt lat="-40.201133" lon="-71.359124">
        <ele>990.7</ele>
        <time>2019-04-11T16:43:55.000Z</time>
      </trkpt>
      <trkpt lat="-40.201165" lon="-71.359106">
        <ele>991</ele>
        <time>2019-04-11T16:43:56.000Z</time>
      </trkpt>
      <trkpt lat="-40.201197" lon="-71.359078">
        <ele>991.3</ele>
        <time>2019-04-11T16:43:57.000Z</time>
      </trkpt>
      <trkpt lat="-40.201233" lon="-71.35906">
        <ele>991.5</ele>
        <time>2019-04-11T16:43:58.000Z</time>
      </trkpt>
      <trkpt lat="-40.201265" lon="-71.359031">
        <ele>991.8</ele>
        <time>2019-04-11T16:43:59.000Z</time>
      </trkpt>
      <trkpt lat="-40.201294" lon="-71.359008">
        <ele>992.1</ele>
        <time>2019-04-11T16:44:00.000Z</time>
      </trkpt>
      <trkpt lat="-40.201328" lon="-71.358988">
        <ele>992.3</ele>
        <time>2019-04-11T16:44:01.000Z</time>
      </trkpt>
      <trkpt lat="-40.201364" lon="-71.358962">
        <ele>992.6</ele>
        <time>2019-04-11T16:44:02.000Z</time>
      </trkpt>
      <trkpt lat="-40.201393" lon="-71.358943">
        <ele>992.8</ele>
        <time>2019-04-11T16:44:03.000Z</time>
      </trkpt>
      <trkpt lat="-40.201421" lon="-71.358921">
        <ele>993</ele>
        <time>2019-04-11T16:44:04.000Z</time>
      </trkpt>
      <trkpt lat="-40.201449" lon="-71.358893">
        <ele>993.3</ele>
        <time>2019-04-11T16:44:05.000Z</time>
      </trkpt>
      <trkpt lat="-40.20148" lon="-71.358863">
        <ele>993.5</ele>
        <time>2019-04-11T16:44:06.000Z</time>
      </trkpt>
      <trkpt lat="-40.201502" lon="-71.358834">
        <ele>993.7</ele>
        <time>2019-04-11T16:44:07.000Z</time>
      </trkpt>
      <trkpt lat="-40.201525" lon="-71.358797">
        <ele>994</ele>
        <time>2019-04-11T16:44:08.000Z</time>
      </trkpt>
      <trkpt lat="-40.201553" lon="-71.358773">
        <ele>994.2</ele>
        <time>2019-04-11T16:44:09.000Z</time>
      </trkpt>
      <trkpt lat="-40.201576" lon="-71.358749">
        <ele>994.4</ele>
        <time>2019-04-11T16:44:10.000Z</time>
      </trkpt>
      <trkpt lat="-40.201605" lon="-71.358711">
        <ele>994.6</ele>
        <time>2019-04-11T16:44:11.000Z</time>
      </trkpt>
      <trkpt lat="-40.201631" lon="-71.358676">
        <ele>994.9</ele>
        <time>2019-04-11T16:44:12.000Z</time>
      </trkpt>
      <trkpt lat="-40.201656" lon="-71.358638">
        <ele>995.1</ele>
        <time>2019-04-11T16:44:13.000Z</time>
      </trkpt>
      <trkpt lat="-40.201674" lon="-71.358597">
        <ele>995.4</ele>
        <time>2019-04-11T16:44:14.000Z</time>
      </trkpt>
      <trkpt lat="-40.201696" lon="-71.358557">
        <ele>995.6</ele>
        <time>2019-04-11T16:44:15.000Z</time>
      </trkpt>
      <trkpt lat="-40.201717" lon="-71.35852">
        <ele>995.8</ele>
        <time>2019-04-11T16:44:16.000Z</time>
      </trkpt>
      <trkpt lat="-40.201735" lon="-71.358482">
        <ele>996.1</ele>
        <time>2019-04-11T16:44:17.000Z</time>
      </trkpt>
      <trkpt lat="-40.201754" lon="-71.358441">
        <ele>996.3</ele>
        <time>2019-04-11T16:44:18.000Z</time>
      </trkpt>
      <trkpt lat="-40.201773" lon="-71.358403">
        <ele>996.6</ele>
        <time>2019-04-11T16:44:19.000Z</time>
      </trkpt>
      <trkpt lat="-40.20179" lon="-71.358365">
        <ele>996.8</ele>
        <time>2019-04-11T16:44:20.000Z</time>
      </trkpt>
      <trkpt lat="-40.201811" lon="-71.358324">
        <ele>997</ele>
        <time>2019-04-11T16:44:21.000Z</time>
      </trkpt>
      <trkpt lat="-40.201823" lon="-71.358287">
        <ele>997.2</ele>
        <time>2019-04-11T16:44:22.000Z</time>
      </trkpt>
      <trkpt lat="-40.201838" lon="-71.358247">
        <ele>997.4</ele>
        <time>2019-04-11T16:44:23.000Z</time>
      </trkpt>
      <trkpt lat="-40.201855" lon="-71.358204">
        <ele>997.7</ele>
        <time>2019-04-11T16:44:24.000Z</time>
      </trkpt>
      <trkpt lat="-40.201866" lon="-71.358167">
        <ele>997.8</ele>
        <time>2019-04-11T16:44:25.000Z</time>
      </trkpt>
      <trkpt lat="-40.201877" lon="-71.358123">
        <ele>998.1</ele>
        <time>2019-04-11T16:44:26.000Z</time>
      </trkpt>
      <trkpt lat="-40.201889" lon="-71.358084">
        <ele>998.2</ele>
        <time>2019-04-11T16:44:27.000Z</time>
      </trkpt>
      <trkpt lat="-40.2019" lon="-71.358043">
        <ele>998.4</ele>
        <time>2019-04-11T16:44:28.000Z</time>
      </trkpt>
      <trkpt lat="-40.201917" lon="-71.358004">
        <ele>998.6</ele>
        <time>2019-04-11T16:44:29.000Z</time>
      </trkpt>
      <trkpt lat="-40.201926" lon="-71.357957">
        <ele>998.8</ele>
        <time>2019-04-11T16:44:30.000Z</time>
      </trkpt>
      <trkpt lat="-40.201935" lon="-71.357915">
        <ele>999</ele>
        <time>2019-04-11T16:44:31.000Z</time>
      </trkpt>
      <trkpt lat="-40.201948" lon="-71.357865">
        <ele>999.2</ele>
        <time>2019-04-11T16:44:32.000Z</time>
      </trkpt>
      <trkpt lat="-40.201961" lon="-71.357822">
        <ele>999.4</ele>
        <time>2019-04-11T16:44:33.000Z</time>
      </trkpt>
      <trkpt lat="-40.201967" lon="-71.357773">
        <ele>999.5</ele>
        <time>2019-04-11T16:44:34.000Z</time>
      </trkpt>
      <trkpt lat="-40.201978" lon="-71.357722">
        <ele>999.7</ele>
        <time>2019-04-11T16:44:35.000Z</time>
      </trkpt>
      <trkpt lat="-40.201989" lon="-71.357684">
        <ele>999.9</ele>
        <time>2019-04-11T16:44:36.000Z</time>
      </trkpt>
      <trkpt lat="-40.202004" lon="-71.357642">
        <ele>1000</ele>
        <time>2019-04-11T16:44:37.000Z</time>
      </trkpt>
      <trkpt lat="-40.20201" lon="-71.357601">
        <ele>1000.2</ele>
        <time>2019-04-11T16:44:38.000Z</time>
      </trkpt>
      <trkpt lat="-40.202022" lon="-71.357553">
        <ele>1000.3</ele>
        <time>2019-04-11T16:44:39.000Z</time>
      </trkpt>
      <trkpt lat="-40.202033" lon="-71.35751">
        <ele>1000.5</ele>
        <time>2019-04-11T16:44:40.000Z</time>
      </trkpt>
      <trkpt lat="-40.202048" lon="-71.357463">
        <ele>1000.7</ele>
        <time>2019-04-11T16:44:41.000Z</time>
      </trkpt>
      <trkpt lat="-40.202066" lon="-71.357422">
        <ele>1000.8</ele>
        <time>2019-04-11T16:44:42.000Z</time>
      </trkpt>
      <trkpt lat="-40.20208" lon="-71.357384">
        <ele>1001</ele>
        <time>2019-04-11T16:44:43.000Z</time>
      </trkpt>
      <trkpt lat="-40.202092" lon="-71.357341">
        <ele>1001.1</ele>
        <time>2019-04-11T16:44:44.000Z</time>
      </trkpt>
      <trkpt lat="-40.202103" lon="-71.357299">
        <ele>1001.3</ele>
        <time>2019-04-11T16:44:45.000Z</time>
      </trkpt>
      <trkpt lat="-40.202117" lon="-71.35726">
        <ele>1001.4</ele>
        <time>2019-04-11T16:44:46.000Z</time>
      </trkpt>
      <trkpt lat="-40.202131" lon="-71.357214">
        <ele>1001.6</ele>
        <time>2019-04-11T16:44:47.000Z</time>
      </trkpt>
      <trkpt lat="-40.202148" lon="-71.35717">
        <ele>1001.8</ele>
        <time>2019-04-11T16:44:48.000Z</time>
      </trkpt>
      <trkpt lat="-40.202153" lon="-71.357124">
        <ele>1001.9</ele>
        <time>2019-04-11T16:44:49.000Z</time>
      </trkpt>
      <trkpt lat="-40.202169" lon="-71.357081">
        <ele>1002.1</ele>
        <time>2019-04-11T16:44:50.000Z</time>
      </trkpt>
      <trkpt lat="-40.202179" lon="-71.357032">
        <ele>1002.3</ele>
        <time>2019-04-11T16:44:51.000Z</time>
      </trkpt>
      <trkpt lat="-40.202194" lon="-71.356982">
        <ele>1002.5</ele>
        <time>2019-04-11T16:44:52.000Z</time>
      </trkpt>
      <trkpt lat="-40.202206" lon="-71.35692">
        <ele>1002.7</ele>
        <time>2019-04-11T16:44:53.000Z</time>
      </trkpt>
      <trkpt lat="-40.202226" lon="-71.356875">
        <ele>1002.8</ele>
        <time>2019-04-11T16:44:54.000Z</time>
      </trkpt>
      <trkpt lat="-40.202239" lon="-71.356835">
        <ele>1003</ele>
        <time>2019-04-11T16:44:55.000Z</time>
      </trkpt>
      <trkpt lat="-40.202253" lon="-71.356799">
        <ele>1003.1</ele>
        <time>2019-04-11T16:44:56.000Z</time>
      </trkpt>
      <trkpt lat="-40.202265" lon="-71.356753">
        <ele>1003.2</ele>
        <time>2019-04-11T16:44:57.000Z</time>
      </trkpt>
      <trkpt lat="-40.202274" lon="-71.356707">
        <ele>1003.4</ele>
        <time>2019-04-11T16:44:58.000Z</time>
      </trkpt>
      <trkpt lat="-40.202292" lon="-71.356656">
        <ele>1003.5</ele>
        <time>2019-04-11T16:44:59.000Z</time>
      </trkpt>
      <trkpt lat="-40.202308" lon="-71.356611">
        <ele>1003.7</ele>
        <time>2019-04-11T16:45:00.000Z</time>
      </trkpt>
      <trkpt lat="-40.202311" lon="-71.356565">
        <ele>1003.8</ele>
        <time>2019-04-11T16:45:01.000Z</time>
      </trkpt>
      <trkpt lat="-40.202327" lon="-71.35652">
        <ele>1003.9</ele>
        <time>2019-04-11T16:45:02.000Z</time>
      </trkpt>
      <trkpt lat="-40.202345" lon="-71.356472">
        <ele>1004</ele>
        <time>2019-04-11T16:45:03.000Z</time>
      </trkpt>
      <trkpt lat="-40.20236" lon="-71.356421">
        <ele>1004.1</ele>
        <time>2019-04-11T16:45:04.000Z</time>
      </trkpt>
      <trkpt lat="-40.202376" lon="-71.356376">
        <ele>1004.2</ele>
        <time>2019-04-11T16:45:05.000Z</time>
      </trkpt>
      <trkpt lat="-40.202388" lon="-71.356328">
        <ele>1004.3</ele>
        <time>2019-04-11T16:45:06.000Z</time>
      </trkpt>
      <trkpt lat="-40.202407" lon="-71.356284">
        <ele>1004.4</ele>
        <time>2019-04-11T16:45:07.000Z</time>
      </trkpt>
      <trkpt lat="-40.202421" lon="-71.35624">
        <ele>1004.5</ele>
        <time>2019-04-11T16:45:08.000Z</time>
      </trkpt>
      <trkpt lat="-40.202438" lon="-71.356194">
        <ele>1004.6</ele>
        <time>2019-04-11T16:45:09.000Z</time>
      </trkpt>
      <trkpt lat="-40.202467" lon="-71.356151">
        <ele>1004.7</ele>
        <time>2019-04-11T16:45:10.000Z</time>
      </trkpt>
      <trkpt lat="-40.202493" lon="-71.356112">
        <ele>1004.9</ele>
        <time>2019-04-11T16:45:11.000Z</time>
      </trkpt>
      <trkpt lat="-40.202511" lon="-71.356067">
        <ele>1005</ele>
        <time>2019-04-11T16:45:12.000Z</time>
      </trkpt>
      <trkpt lat="-40.202534" lon="-71.356028">
        <ele>1005.1</ele>
        <time>2019-04-11T16:45:13.000Z</time>
      </trkpt>
      <trkpt lat="-40.202559" lon="-71.355987">
        <ele>1005.2</ele>
        <time>2019-04-11T16:45:14.000Z</time>
      </trkpt>
      <trkpt lat="-40.202584" lon="-71.355945">
        <ele>1005.3</ele>
        <time>2019-04-11T16:45:15.000Z</time>
      </trkpt>
      <trkpt lat="-40.202608" lon="-71.355899">
        <ele>1005.4</ele>
        <time>2019-04-11T16:45:16.000Z</time>
      </trkpt>
      <trkpt lat="-40.202637" lon="-71.355862">
        <ele>1005.6</ele>
        <time>2019-04-11T16:45:17.000Z</time>
      </trkpt>
      <trkpt lat="-40.202663" lon="-71.355822">
        <ele>1005.7</ele>
        <time>2019-04-11T16:45:18.000Z</time>
      </trkpt>
      <trkpt lat="-40.202686" lon="-71.35579">
        <ele>1005.8</ele>
        <time>2019-04-11T16:45:19.000Z</time>
      </trkpt>
      <trkpt lat="-40.202718" lon="-71.355757">
        <ele>1005.9</ele>
        <time>2019-04-11T16:45:20.000Z</time>
      </trkpt>
      <trkpt lat="-40.20275" lon="-71.355719">
        <ele>1006.1</ele>
        <time>2019-04-11T16:45:21.000Z</time>
      </trkpt>
      <trkpt lat="-40.202778" lon="-71.35568">
        <ele>1006.2</ele>
        <time>2019-04-11T16:45:22.000Z</time>
      </trkpt>
      <trkpt lat="-40.20281" lon="-71.355649">
        <ele>1006.3</ele>
        <time>2019-04-11T16:45:23.000Z</time>
      </trkpt>
      <trkpt lat="-40.202837" lon="-71.355611">
        <ele>1006.4</ele>
        <time>2019-04-11T16:45:24.000Z</time>
      </trkpt>
      <trkpt lat="-40.202868" lon="-71.355581">
        <ele>1006.5</ele>
        <time>2019-04-11T16:45:25.000Z</time>
      </trkpt>
      <trkpt lat="-40.202891" lon="-71.355557">
        <ele>1006.5</ele>
        <time>2019-04-11T16:45:26.000Z</time>
      </trkpt>
      <trkpt lat="-40.20292" lon="-71.355525">
        <ele>1006.6</ele>
        <time>2019-04-11T16:45:27.000Z</time>
      </trkpt>
      <trkpt lat="-40.202955" lon="-71.355492">
        <ele>1006.7</ele>
        <time>2019-04-11T16:45:28.000Z</time>
      </trkpt>
      <trkpt lat="-40.202987" lon="-71.355456">
        <ele>1006.9</ele>
        <time>2019-04-11T16:45:29.000Z</time>
      </trkpt>
      <trkpt lat="-40.203024" lon="-71.355424">
        <ele>1007</ele>
        <time>2019-04-11T16:45:30.000Z</time>
      </trkpt>
      <trkpt lat="-40.203059" lon="-71.355393">
        <ele>1007.2</ele>
        <time>2019-04-11T16:45:31.000Z</time>
      </trkpt>
      <trkpt lat="-40.203093" lon="-71.355364">
        <ele>1007.3</ele>
        <time>2019-04-11T16:45:32.000Z</time>
      </trkpt>
      <trkpt lat="-40.203134" lon="-71.355341">
        <ele>1007.4</ele>
        <time>2019-04-11T16:45:33.000Z</time>
      </trkpt>
      <trkpt lat="-40.203172" lon="-71.355316">
        <ele>1007.6</ele>
        <time>2019-04-11T16:45:34.000Z</time>
      </trkpt>
      <trkpt lat="-40.203213" lon="-71.355293">
        <ele>1007.7</ele>
        <time>2019-04-11T16:45:35.000Z</time>
      </trkpt>
      <trkpt lat="-40.203256" lon="-71.355276">
        <ele>1007.8</ele>
        <time>2019-04-11T16:45:36.000Z</time>
      </trkpt>
      <trkpt lat="-40.203296" lon="-71.355249">
        <ele>1008</ele>
        <time>2019-04-11T16:45:37.000Z</time>
      </trkpt>
      <trkpt lat="-40.203326" lon="-71.355228">
        <ele>1008.1</ele>
        <time>2019-04-11T16:45:38.000Z</time>
      </trkpt>
      <trkpt lat="-40.203356" lon="-71.355208">
        <ele>1008.2</ele>
        <time>2019-04-11T16:45:39.000Z</time>
      </trkpt>
      <trkpt lat="-40.203383" lon="-71.355195">
        <ele>1008.3</ele>
        <time>2019-04-11T16:45:40.000Z</time>
      </trkpt>
      <trkpt lat="-40.203419" lon="-71.355187">
        <ele>1008.4</ele>
        <time>2019-04-11T16:45:41.000Z</time>
      </trkpt>
      <trkpt lat="-40.20345" lon="-71.355163">
        <ele>1008.6</ele>
        <time>2019-04-11T16:45:42.000Z</time>
      </trkpt>
      <trkpt lat="-40.203485" lon="-71.355141">
        <ele>1008.7</ele>
        <time>2019-04-11T16:45:43.000Z</time>
      </trkpt>
      <trkpt lat="-40.20352" lon="-71.355141">
        <ele>1008.8</ele>
        <time>2019-04-11T16:45:44.000Z</time>
      </trkpt>
      <trkpt lat="-40.20356" lon="-71.355124">
        <ele>1009</ele>
        <time>2019-04-11T16:45:45.000Z</time>
      </trkpt>
      <trkpt lat="-40.2036" lon="-71.355109">
        <ele>1009.2</ele>
        <time>2019-04-11T16:45:46.000Z</time>
      </trkpt>
      <trkpt lat="-40.203637" lon="-71.355102">
        <ele>1009.3</ele>
        <time>2019-04-11T16:45:47.000Z</time>
      </trkpt>
      <trkpt lat="-40.203678" lon="-71.355085">
        <ele>1009.4</ele>
        <time>2019-04-11T16:45:48.000Z</time>
      </trkpt>
      <trkpt lat="-40.203712" lon="-71.355079">
        <ele>1009.6</ele>
        <time>2019-04-11T16:45:49.000Z</time>
      </trkpt>
      <trkpt lat="-40.203753" lon="-71.355071">
        <ele>1009.8</ele>
        <time>2019-04-11T16:45:50.000Z</time>
      </trkpt>
      <trkpt lat="-40.203792" lon="-71.355063">
        <ele>1010</ele>
        <time>2019-04-11T16:45:51.000Z</time>
      </trkpt>
      <trkpt lat="-40.203834" lon="-71.355056">
        <ele>1010.2</ele>
        <time>2019-04-11T16:45:52.000Z</time>
      </trkpt>
      <trkpt lat="-40.203879" lon="-71.355054">
        <ele>1010.4</ele>
        <time>2019-04-11T16:45:53.000Z</time>
      </trkpt>
      <trkpt lat="-40.20391" lon="-71.355043">
        <ele>1010.5</ele>
        <time>2019-04-11T16:45:54.000Z</time>
      </trkpt>
      <trkpt lat="-40.203955" lon="-71.355043">
        <ele>1010.7</ele>
        <time>2019-04-11T16:45:55.000Z</time>
      </trkpt>
      <trkpt lat="-40.203993" lon="-71.35505">
        <ele>1010.9</ele>
        <time>2019-04-11T16:45:56.000Z</time>
      </trkpt>
      <trkpt lat="-40.204039" lon="-71.355044">
        <ele>1011.1</ele>
        <time>2019-04-11T16:45:57.000Z</time>
      </trkpt>
      <trkpt lat="-40.204083" lon="-71.355049">
        <ele>1011.3</ele>
        <time>2019-04-11T16:45:58.000Z</time>
      </trkpt>
      <trkpt lat="-40.204128" lon="-71.355057">
        <ele>1011.5</ele>
        <time>2019-04-11T16:45:59.000Z</time>
      </trkpt>
      <trkpt lat="-40.204173" lon="-71.355053">
        <ele>1011.8</ele>
        <time>2019-04-11T16:46:00.000Z</time>
      </trkpt>
      <trkpt lat="-40.204219" lon="-71.355056">
        <ele>1012</ele>
        <time>2019-04-11T16:46:01.000Z</time>
      </trkpt>
      <trkpt lat="-40.204259" lon="-71.355063">
        <ele>1012.2</ele>
        <time>2019-04-11T16:46:02.000Z</time>
      </trkpt>
      <trkpt lat="-40.204301" lon="-71.355065">
        <ele>1012.4</ele>
        <time>2019-04-11T16:46:03.000Z</time>
      </trkpt>
      <trkpt lat="-40.204346" lon="-71.355079">
        <ele>1012.7</ele>
        <time>2019-04-11T16:46:04.000Z</time>
      </trkpt>
      <trkpt lat="-40.204384" lon="-71.355088">
        <ele>1012.9</ele>
        <time>2019-04-11T16:46:05.000Z</time>
      </trkpt>
      <trkpt lat="-40.204425" lon="-71.355093">
        <ele>1013.1</ele>
        <time>2019-04-11T16:46:06.000Z</time>
      </trkpt>
      <trkpt lat="-40.204465" lon="-71.355116">
        <ele>1013.3</ele>
        <time>2019-04-11T16:46:07.000Z</time>
      </trkpt>
      <trkpt lat="-40.204502" lon="-71.35513">
        <ele>1013.6</ele>
        <time>2019-04-11T16:46:08.000Z</time>
      </trkpt>
      <trkpt lat="-40.204543" lon="-71.35514">
        <ele>1013.8</ele>
        <time>2019-04-11T16:46:09.000Z</time>
      </trkpt>
      <trkpt lat="-40.204588" lon="-71.355157">
        <ele>1014</ele>
        <time>2019-04-11T16:46:10.000Z</time>
      </trkpt>
      <trkpt lat="-40.204629" lon="-71.355175">
        <ele>1014.3</ele>
        <time>2019-04-11T16:46:11.000Z</time>
      </trkpt>
      <trkpt lat="-40.204658" lon="-71.355196">
        <ele>1014.4</ele>
        <time>2019-04-11T16:46:12.000Z</time>
      </trkpt>
      <trkpt lat="-40.2047" lon="-71.355222">
        <ele>1014.7</ele>
        <time>2019-04-11T16:46:13.000Z</time>
      </trkpt>
      <trkpt lat="-40.204739" lon="-71.355247">
        <ele>1014.9</ele>
        <time>2019-04-11T16:46:14.000Z</time>
      </trkpt>
      <trkpt lat="-40.204774" lon="-71.355271">
        <ele>1015.2</ele>
        <time>2019-04-11T16:46:15.000Z</time>
      </trkpt>
      <trkpt lat="-40.204808" lon="-71.3553">
        <ele>1015.4</ele>
        <time>2019-04-11T16:46:16.000Z</time>
      </trkpt>
      <trkpt lat="-40.204838" lon="-71.355323">
        <ele>1015.6</ele>
        <time>2019-04-11T16:46:17.000Z</time>
      </trkpt>
      <trkpt lat="-40.20487" lon="-71.355353">
        <ele>1015.8</ele>
        <time>2019-04-11T16:46:18.000Z</time>
      </trkpt>
      <trkpt lat="-40.204899" lon="-71.35538">
        <ele>1016</ele>
        <time>2019-04-11T16:46:19.000Z</time>
      </trkpt>
      <trkpt lat="-40.204935" lon="-71.355398">
        <ele>1016.2</ele>
        <time>2019-04-11T16:46:20.000Z</time>
      </trkpt>
      <trkpt lat="-40.204974" lon="-71.355424">
        <ele>1016.5</ele>
        <time>2019-04-11T16:46:21.000Z</time>
      </trkpt>
      <trkpt lat="-40.205006" lon="-71.355467">
        <ele>1016.8</ele>
        <time>2019-04-11T16:46:22.000Z</time>
      </trkpt>
      <trkpt lat="-40.205044" lon="-71.355492">
        <ele>1017</ele>
        <time>2019-04-11T16:46:23.000Z</time>
      </trkpt>
      <trkpt lat="-40.205075" lon="-71.355527">
        <ele>1017.3</ele>
        <time>2019-04-11T16:46:24.000Z</time>
      </trkpt>
      <trkpt lat="-40.205111" lon="-71.355555">
        <ele>1017.5</ele>
        <time>2019-04-11T16:46:25.000Z</time>
      </trkpt>
      <trkpt lat="-40.205134" lon="-71.355585">
        <ele>1017.7</ele>
        <time>2019-04-11T16:46:26.000Z</time>
      </trkpt>
      <trkpt lat="-40.205162" lon="-71.35562">
        <ele>1018</ele>
        <time>2019-04-11T16:46:27.000Z</time>
      </trkpt>
      <trkpt lat="-40.205192" lon="-71.355649">
        <ele>1018.2</ele>
        <time>2019-04-11T16:46:28.000Z</time>
      </trkpt>
      <trkpt lat="-40.205221" lon="-71.355674">
        <ele>1018.4</ele>
        <time>2019-04-11T16:46:29.000Z</time>
      </trkpt>
      <trkpt lat="-40.205247" lon="-71.355711">
        <ele>1018.7</ele>
        <time>2019-04-11T16:46:30.000Z</time>
      </trkpt>
      <trkpt lat="-40.205275" lon="-71.355745">
        <ele>1018.9</ele>
        <time>2019-04-11T16:46:31.000Z</time>
      </trkpt>
      <trkpt lat="-40.205298" lon="-71.35578">
        <ele>1019.2</ele>
        <time>2019-04-11T16:46:32.000Z</time>
      </trkpt>
      <trkpt lat="-40.205326" lon="-71.355815">
        <ele>1019.4</ele>
        <time>2019-04-11T16:46:33.000Z</time>
      </trkpt>
      <trkpt lat="-40.20535" lon="-71.355849">
        <ele>1019.6</ele>
        <time>2019-04-11T16:46:34.000Z</time>
      </trkpt>
      <trkpt lat="-40.205371" lon="-71.355881">
        <ele>1019.8</ele>
        <time>2019-04-11T16:46:35.000Z</time>
      </trkpt>
      <trkpt lat="-40.205396" lon="-71.355916">
        <ele>1020</ele>
        <time>2019-04-11T16:46:36.000Z</time>
      </trkpt>
      <trkpt lat="-40.205422" lon="-71.355949">
        <ele>1020.2</ele>
        <time>2019-04-11T16:46:37.000Z</time>
      </trkpt>
      <trkpt lat="-40.205443" lon="-71.355987">
        <ele>1020.4</ele>
        <time>2019-04-11T16:46:38.000Z</time>
      </trkpt>
      <trkpt lat="-40.205466" lon="-71.356019">
        <ele>1020.6</ele>
        <time>2019-04-11T16:46:39.000Z</time>
      </trkpt>
      <trkpt lat="-40.205491" lon="-71.356062">
        <ele>1020.9</ele>
        <time>2019-04-11T16:46:40.000Z</time>
      </trkpt>
      <trkpt lat="-40.205516" lon="-71.356093">
        <ele>1021.1</ele>
        <time>2019-04-11T16:46:41.000Z</time>
      </trkpt>
      <trkpt lat="-40.20554" lon="-71.356131">
        <ele>1021.3</ele>
        <time>2019-04-11T16:46:42.000Z</time>
      </trkpt>
      <trkpt lat="-40.205564" lon="-71.356169">
        <ele>1021.6</ele>
        <time>2019-04-11T16:46:43.000Z</time>
      </trkpt>
      <trkpt lat="-40.205587" lon="-71.356206">
        <ele>1021.8</ele>
        <time>2019-04-11T16:46:44.000Z</time>
      </trkpt>
      <trkpt lat="-40.205607" lon="-71.356252">
        <ele>1022.1</ele>
        <time>2019-04-11T16:46:45.000Z</time>
      </trkpt>
      <trkpt lat="-40.205627" lon="-71.356292">
        <ele>1022.3</ele>
        <time>2019-04-11T16:46:46.000Z</time>
      </trkpt>
      <trkpt lat="-40.205655" lon="-71.356332">
        <ele>1022.6</ele>
        <time>2019-04-11T16:46:47.000Z</time>
      </trkpt>
      <trkpt lat="-40.205677" lon="-71.356371">
        <ele>1022.8</ele>
        <time>2019-04-11T16:46:48.000Z</time>
      </trkpt>
      <trkpt lat="-40.2057" lon="-71.35641">
        <ele>1023</ele>
        <time>2019-04-11T16:46:49.000Z</time>
      </trkpt>
      <trkpt lat="-40.205722" lon="-71.35645">
        <ele>1023.3</ele>
        <time>2019-04-11T16:46:50.000Z</time>
      </trkpt>
      <trkpt lat="-40.205745" lon="-71.356496">
        <ele>1023.5</ele>
        <time>2019-04-11T16:46:51.000Z</time>
      </trkpt>
      <trkpt lat="-40.205764" lon="-71.35653">
        <ele>1023.7</ele>
        <time>2019-04-11T16:46:52.000Z</time>
      </trkpt>
      <trkpt lat="-40.205784" lon="-71.356576">
        <ele>1024</ele>
        <time>2019-04-11T16:46:53.000Z</time>
      </trkpt>
      <trkpt lat="-40.205803" lon="-71.356619">
        <ele>1024.2</ele>
        <time>2019-04-11T16:46:54.000Z</time>
      </trkpt>
      <trkpt lat="-40.205828" lon="-71.356648">
        <ele>1024.4</ele>
        <time>2019-04-11T16:46:55.000Z</time>
      </trkpt>
      <trkpt lat="-40.205852" lon="-71.356682">
        <ele>1024.6</ele>
        <time>2019-04-11T16:46:56.000Z</time>
      </trkpt>
      <trkpt lat="-40.205875" lon="-71.356721">
        <ele>1024.8</ele>
        <time>2019-04-11T16:46:57.000Z</time>
      </trkpt>
      <trkpt lat="-40.205898" lon="-71.356765">
        <ele>1025</ele>
        <time>2019-04-11T16:46:58.000Z</time>
      </trkpt>
      <trkpt lat="-40.205913" lon="-71.356802">
        <ele>1025.2</ele>
        <time>2019-04-11T16:46:59.000Z</time>
      </trkpt>
      <trkpt lat="-40.205934" lon="-71.356837">
        <ele>1025.4</ele>
        <time>2019-04-11T16:47:00.000Z</time>
      </trkpt>
      <trkpt lat="-40.205959" lon="-71.356868">
        <ele>1025.6</ele>
        <time>2019-04-11T16:47:01.000Z</time>
      </trkpt>
      <trkpt lat="-40.205984" lon="-71.356899">
        <ele>1025.8</ele>
        <time>2019-04-11T16:47:02.000Z</time>
      </trkpt>
      <trkpt lat="-40.206008" lon="-71.35694">
        <ele>1026</ele>
        <time>2019-04-11T16:47:03.000Z</time>
      </trkpt>
      <trkpt lat="-40.206036" lon="-71.356967">
        <ele>1026.2</ele>
        <time>2019-04-11T16:47:04.000Z</time>
      </trkpt>
      <trkpt lat="-40.206066" lon="-71.357">
        <ele>1026.4</ele>
        <time>2019-04-11T16:47:05.000Z</time>
      </trkpt>
      <trkpt lat="-40.206091" lon="-71.357036">
        <ele>1026.6</ele>
        <time>2019-04-11T16:47:06.000Z</time>
      </trkpt>
      <trkpt lat="-40.206122" lon="-71.357056">
        <ele>1026.8</ele>
        <time>2019-04-11T16:47:07.000Z</time>
      </trkpt>
      <trkpt lat="-40.206149" lon="-71.357089">
        <ele>1027</ele>
        <time>2019-04-11T16:47:08.000Z</time>
      </trkpt>
      <trkpt lat="-40.206181" lon="-71.357116">
        <ele>1027.2</ele>
        <time>2019-04-11T16:47:09.000Z</time>
      </trkpt>
      <trkpt lat="-40.206207" lon="-71.357138">
        <ele>1027.4</ele>
        <time>2019-04-11T16:47:10.000Z</time>
      </trkpt>
      <trkpt lat="-40.206238" lon="-71.357165">
        <ele>1027.6</ele>
        <time>2019-04-11T16:47:11.000Z</time>
      </trkpt>
      <trkpt lat="-40.206267" lon="-71.357189">
        <ele>1027.8</ele>
        <time>2019-04-11T16:47:12.000Z</time>
      </trkpt>
      <trkpt lat="-40.206296" lon="-71.35721">
        <ele>1028</ele>
        <time>2019-04-11T16:47:13.000Z</time>
      </trkpt>
      <trkpt lat="-40.206323" lon="-71.357231">
        <ele>1028.2</ele>
        <time>2019-04-11T16:47:14.000Z</time>
      </trkpt>
      <trkpt lat="-40.206355" lon="-71.357252">
        <ele>1028.4</ele>
        <time>2019-04-11T16:47:15.000Z</time>
      </trkpt>
      <trkpt lat="-40.206384" lon="-71.357272">
        <ele>1028.6</ele>
        <time>2019-04-11T16:47:16.000Z</time>
      </trkpt>
      <trkpt lat="-40.206414" lon="-71.357292">
        <ele>1028.8</ele>
        <time>2019-04-11T16:47:17.000Z</time>
      </trkpt>
      <trkpt lat="-40.206446" lon="-71.357306">
        <ele>1029</ele>
        <time>2019-04-11T16:47:18.000Z</time>
      </trkpt>
      <trkpt lat="-40.206476" lon="-71.357319">
        <ele>1029.2</ele>
        <time>2019-04-11T16:47:19.000Z</time>
      </trkpt>
      <trkpt lat="-40.20651" lon="-71.35733">
        <ele>1029.4</ele>
        <time>2019-04-11T16:47:20.000Z</time>
      </trkpt>
      <trkpt lat="-40.206548" lon="-71.357343">
        <ele>1029.6</ele>
        <time>2019-04-11T16:47:21.000Z</time>
      </trkpt>
      <trkpt lat="-40.206578" lon="-71.35735">
        <ele>1029.8</ele>
        <time>2019-04-11T16:47:22.000Z</time>
      </trkpt>
      <trkpt lat="-40.206613" lon="-71.357367">
        <ele>1030</ele>
        <time>2019-04-11T16:47:23.000Z</time>
      </trkpt>
      <trkpt lat="-40.206654" lon="-71.357375">
        <ele>1030.3</ele>
        <time>2019-04-11T16:47:24.000Z</time>
      </trkpt>
      <trkpt lat="-40.206684" lon="-71.357375">
        <ele>1030.5</ele>
        <time>2019-04-11T16:47:25.000Z</time>
      </trkpt>
      <trkpt lat="-40.206721" lon="-71.357387">
        <ele>1030.7</ele>
        <time>2019-04-11T16:47:26.000Z</time>
      </trkpt>
      <trkpt lat="-40.206758" lon="-71.357393">
        <ele>1030.9</ele>
        <time>2019-04-11T16:47:27.000Z</time>
      </trkpt>
      <trkpt lat="-40.206787" lon="-71.357393">
        <ele>1031.1</ele>
        <time>2019-04-11T16:47:28.000Z</time>
      </trkpt>
      <trkpt lat="-40.206832" lon="-71.357401">
        <ele>1031.4</ele>
        <time>2019-04-11T16:47:29.000Z</time>
      </trkpt>
      <trkpt lat="-40.206867" lon="-71.357407">
        <ele>1031.6</ele>
        <time>2019-04-11T16:47:30.000Z</time>
      </trkpt>
      <trkpt lat="-40.2069" lon="-71.357407">
        <ele>1031.8</ele>
        <time>2019-04-11T16:47:31.000Z</time>
      </trkpt>
      <trkpt lat="-40.206931" lon="-71.357411">
        <ele>1032</ele>
        <time>2019-04-11T16:47:32.000Z</time>
      </trkpt>
      <trkpt lat="-40.206973" lon="-71.357416">
        <ele>1032.3</ele>
        <time>2019-04-11T16:47:33.000Z</time>
      </trkpt>
      <trkpt lat="-40.207006" lon="-71.357403">
        <ele>1032.5</ele>
        <time>2019-04-11T16:47:34.000Z</time>
      </trkpt>
      <trkpt lat="-40.207038" lon="-71.357403">
        <ele>1032.7</ele>
        <time>2019-04-11T16:47:35.000Z</time>
      </trkpt>
      <trkpt lat="-40.207078" lon="-71.357403">
        <ele>1033</ele>
        <time>2019-04-11T16:47:36.000Z</time>
      </trkpt>
      <trkpt lat="-40.207115" lon="-71.3574">
        <ele>1033.2</ele>
        <time>2019-04-11T16:47:37.000Z</time>
      </trkpt>
      <trkpt lat="-40.20715" lon="-71.357396">
        <ele>1033.5</ele>
        <time>2019-04-11T16:47:38.000Z</time>
      </trkpt>
      <trkpt lat="-40.207188" lon="-71.357405">
        <ele>1033.7</ele>
        <time>2019-04-11T16:47:39.000Z</time>
      </trkpt>
      <trkpt lat="-40.207218" lon="-71.357406">
        <ele>1033.9</ele>
        <time>2019-04-11T16:47:40.000Z</time>
      </trkpt>
      <trkpt lat="-40.207255" lon="-71.357402">
        <ele>1034.1</ele>
        <time>2019-04-11T16:47:41.000Z</time>
      </trkpt>
      <trkpt lat="-40.207285" lon="-71.357405">
        <ele>1034.3</ele>
        <time>2019-04-11T16:47:42.000Z</time>
      </trkpt>
      <trkpt lat="-40.207323" lon="-71.357395">
        <ele>1034.6</ele>
        <time>2019-04-11T16:47:43.000Z</time>
      </trkpt>
      <trkpt lat="-40.207356" lon="-71.357394">
        <ele>1034.8</ele>
        <time>2019-04-11T16:47:44.000Z</time>
      </trkpt>
      <trkpt lat="-40.207393" lon="-71.357392">
        <ele>1035</ele>
        <time>2019-04-11T16:47:45.000Z</time>
      </trkpt>
      <trkpt lat="-40.207423" lon="-71.357387">
        <ele>1035.2</ele>
        <time>2019-04-11T16:47:46.000Z</time>
      </trkpt>
      <trkpt lat="-40.207461" lon="-71.357388">
        <ele>1035.5</ele>
        <time>2019-04-11T16:47:47.000Z</time>
      </trkpt>
      <trkpt lat="-40.207504" lon="-71.357389">
        <ele>1035.7</ele>
        <time>2019-04-11T16:47:48.000Z</time>
      </trkpt>
      <trkpt lat="-40.207541" lon="-71.357393">
        <ele>1035.9</ele>
        <time>2019-04-11T16:47:49.000Z</time>
      </trkpt>
      <trkpt lat="-40.207577" lon="-71.357392">
        <ele>1036.2</ele>
        <time>2019-04-11T16:47:50.000Z</time>
      </trkpt>
      <trkpt lat="-40.207633" lon="-71.357391">
        <ele>1036.5</ele>
        <time>2019-04-11T16:47:52.000Z</time>
      </trkpt>
      <trkpt lat="-40.20766" lon="-71.357389">
        <ele>1036.6</ele>
        <time>2019-04-11T16:47:53.000Z</time>
      </trkpt>
      <trkpt lat="-40.207692" lon="-71.357389">
        <ele>1036.8</ele>
        <time>2019-04-11T16:47:54.000Z</time>
      </trkpt>
      <trkpt lat="-40.20773" lon="-71.357384">
        <ele>1037</ele>
        <time>2019-04-11T16:47:55.000Z</time>
      </trkpt>
      <trkpt lat="-40.20777" lon="-71.357387">
        <ele>1037.3</ele>
        <time>2019-04-11T16:47:56.000Z</time>
      </trkpt>
      <trkpt lat="-40.207828" lon="-71.357378">
        <ele>1037.6</ele>
        <time>2019-04-11T16:47:58.000Z</time>
      </trkpt>
      <trkpt lat="-40.207857" lon="-71.357378">
        <ele>1037.7</ele>
        <time>2019-04-11T16:47:59.000Z</time>
      </trkpt>
      <trkpt lat="-40.207893" lon="-71.357381">
        <ele>1038</ele>
        <time>2019-04-11T16:48:00.000Z</time>
      </trkpt>
      <trkpt lat="-40.207927" lon="-71.357382">
        <ele>1038.1</ele>
        <time>2019-04-11T16:48:01.000Z</time>
      </trkpt>
      <trkpt lat="-40.207965" lon="-71.357387">
        <ele>1038.4</ele>
        <time>2019-04-11T16:48:02.000Z</time>
      </trkpt>
      <trkpt lat="-40.208002" lon="-71.357392">
        <ele>1038.6</ele>
        <time>2019-04-11T16:48:03.000Z</time>
      </trkpt>
      <trkpt lat="-40.208043" lon="-71.357383">
        <ele>1038.8</ele>
        <time>2019-04-11T16:48:04.000Z</time>
      </trkpt>
      <trkpt lat="-40.208075" lon="-71.357382">
        <ele>1039</ele>
        <time>2019-04-11T16:48:05.000Z</time>
      </trkpt>
      <trkpt lat="-40.20811" lon="-71.357377">
        <ele>1039.2</ele>
        <time>2019-04-11T16:48:06.000Z</time>
      </trkpt>
      <trkpt lat="-40.208148" lon="-71.357384">
        <ele>1039.5</ele>
        <time>2019-04-11T16:48:07.000Z</time>
      </trkpt>
      <trkpt lat="-40.208189" lon="-71.357383">
        <ele>1039.8</ele>
        <time>2019-04-11T16:48:08.000Z</time>
      </trkpt>
      <trkpt lat="-40.208254" lon="-71.357395">
        <ele>1040.2</ele>
        <time>2019-04-11T16:48:10.000Z</time>
      </trkpt>
      <trkpt lat="-40.208296" lon="-71.357393">
        <ele>1040.5</ele>
        <time>2019-04-11T16:48:11.000Z</time>
      </trkpt>
      <trkpt lat="-40.208337" lon="-71.357381">
        <ele>1040.8</ele>
        <time>2019-04-11T16:48:12.000Z</time>
      </trkpt>
      <trkpt lat="-40.208369" lon="-71.357388">
        <ele>1041</ele>
        <time>2019-04-11T16:48:13.000Z</time>
      </trkpt>
      <trkpt lat="-40.208403" lon="-71.357394">
        <ele>1041.2</ele>
        <time>2019-04-11T16:48:14.000Z</time>
      </trkpt>
      <trkpt lat="-40.208437" lon="-71.357398">
        <ele>1041.5</ele>
        <time>2019-04-11T16:48:15.000Z</time>
      </trkpt>
      <trkpt lat="-40.208466" lon="-71.357401">
        <ele>1041.7</ele>
        <time>2019-04-11T16:48:16.000Z</time>
      </trkpt>
      <trkpt lat="-40.208498" lon="-71.357406">
        <ele>1041.9</ele>
        <time>2019-04-11T16:48:17.000Z</time>
      </trkpt>
      <trkpt lat="-40.208532" lon="-71.357413">
        <ele>1042.1</ele>
        <time>2019-04-11T16:48:18.000Z</time>
      </trkpt>
      <trkpt lat="-40.208565" lon="-71.357419">
        <ele>1042.3</ele>
        <time>2019-04-11T16:48:19.000Z</time>
      </trkpt>
      <trkpt lat="-40.208599" lon="-71.357424">
        <ele>1042.6</ele>
        <time>2019-04-11T16:48:20.000Z</time>
      </trkpt>
      <trkpt lat="-40.208633" lon="-71.35743">
        <ele>1042.8</ele>
        <time>2019-04-11T16:48:21.000Z</time>
      </trkpt>
      <trkpt lat="-40.208666" lon="-71.357436">
        <ele>1043</ele>
        <time>2019-04-11T16:48:22.000Z</time>
      </trkpt>
      <trkpt lat="-40.208707" lon="-71.357434">
        <ele>1043.3</ele>
        <time>2019-04-11T16:48:23.000Z</time>
      </trkpt>
      <trkpt lat="-40.208743" lon="-71.357433">
        <ele>1043.5</ele>
        <time>2019-04-11T16:48:24.000Z</time>
      </trkpt>
      <trkpt lat="-40.208781" lon="-71.35743">
        <ele>1043.8</ele>
        <time>2019-04-11T16:48:25.000Z</time>
      </trkpt>
      <trkpt lat="-40.208815" lon="-71.357443">
        <ele>1044</ele>
        <time>2019-04-11T16:48:26.000Z</time>
      </trkpt>
      <trkpt lat="-40.208848" lon="-71.357444">
        <ele>1044.2</ele>
        <time>2019-04-11T16:48:27.000Z</time>
      </trkpt>
      <trkpt lat="-40.208884" lon="-71.357448">
        <ele>1044.5</ele>
        <time>2019-04-11T16:48:28.000Z</time>
      </trkpt>
      <trkpt lat="-40.208921" lon="-71.357459">
        <ele>1044.7</ele>
        <time>2019-04-11T16:48:29.000Z</time>
      </trkpt>
      <trkpt lat="-40.208955" lon="-71.357458">
        <ele>1044.9</ele>
        <time>2019-04-11T16:48:30.000Z</time>
      </trkpt>
      <trkpt lat="-40.208989" lon="-71.357458">
        <ele>1045.1</ele>
        <time>2019-04-11T16:48:31.000Z</time>
      </trkpt>
      <trkpt lat="-40.209022" lon="-71.35746">
        <ele>1045.3</ele>
        <time>2019-04-11T16:48:32.000Z</time>
      </trkpt>
      <trkpt lat="-40.209051" lon="-71.357462">
        <ele>1045.5</ele>
        <time>2019-04-11T16:48:33.000Z</time>
      </trkpt>
      <trkpt lat="-40.209081" lon="-71.357464">
        <ele>1045.7</ele>
        <time>2019-04-11T16:48:34.000Z</time>
      </trkpt>
      <trkpt lat="-40.209116" lon="-71.357485">
        <ele>1045.9</ele>
        <time>2019-04-11T16:48:35.000Z</time>
      </trkpt>
      <trkpt lat="-40.209148" lon="-71.357485">
        <ele>1046.1</ele>
        <time>2019-04-11T16:48:36.000Z</time>
      </trkpt>
      <trkpt lat="-40.209181" lon="-71.357489">
        <ele>1046.3</ele>
        <time>2019-04-11T16:48:37.000Z</time>
      </trkpt>
      <trkpt lat="-40.20921" lon="-71.357496">
        <ele>1046.5</ele>
        <time>2019-04-11T16:48:38.000Z</time>
      </trkpt>
      <trkpt lat="-40.209243" lon="-71.357502">
        <ele>1046.7</ele>
        <time>2019-04-11T16:48:39.000Z</time>
      </trkpt>
      <trkpt lat="-40.209275" lon="-71.35751">
        <ele>1046.9</ele>
        <time>2019-04-11T16:48:40.000Z</time>
      </trkpt>
      <trkpt lat="-40.209309" lon="-71.357514">
        <ele>1047.1</ele>
        <time>2019-04-11T16:48:41.000Z</time>
      </trkpt>
      <trkpt lat="-40.209346" lon="-71.35752">
        <ele>1047.3</ele>
        <time>2019-04-11T16:48:42.000Z</time>
      </trkpt>
      <trkpt lat="-40.209379" lon="-71.357521">
        <ele>1047.5</ele>
        <time>2019-04-11T16:48:43.000Z</time>
      </trkpt>
      <trkpt lat="-40.209408" lon="-71.357526">
        <ele>1047.7</ele>
        <time>2019-04-11T16:48:44.000Z</time>
      </trkpt>
      <trkpt lat="-40.209438" lon="-71.357532">
        <ele>1047.9</ele>
        <time>2019-04-11T16:48:45.000Z</time>
      </trkpt>
      <trkpt lat="-40.209471" lon="-71.357551">
        <ele>1048.1</ele>
        <time>2019-04-11T16:48:46.000Z</time>
      </trkpt>
      <trkpt lat="-40.209505" lon="-71.357562">
        <ele>1048.3</ele>
        <time>2019-04-11T16:48:47.000Z</time>
      </trkpt>
      <trkpt lat="-40.209538" lon="-71.357566">
        <ele>1048.5</ele>
        <time>2019-04-11T16:48:48.000Z</time>
      </trkpt>
      <trkpt lat="-40.209571" lon="-71.357576">
        <ele>1048.6</ele>
        <time>2019-04-11T16:48:49.000Z</time>
      </trkpt>
      <trkpt lat="-40.209603" lon="-71.357595">
        <ele>1048.8</ele>
        <time>2019-04-11T16:48:50.000Z</time>
      </trkpt>
      <trkpt lat="-40.209639" lon="-71.357614">
        <ele>1049.1</ele>
        <time>2019-04-11T16:48:51.000Z</time>
      </trkpt>
      <trkpt lat="-40.209667" lon="-71.357632">
        <ele>1049.2</ele>
        <time>2019-04-11T16:48:52.000Z</time>
      </trkpt>
      <trkpt lat="-40.209697" lon="-71.357654">
        <ele>1049.4</ele>
        <time>2019-04-11T16:48:53.000Z</time>
      </trkpt>
      <trkpt lat="-40.209729" lon="-71.357665">
        <ele>1049.6</ele>
        <time>2019-04-11T16:48:54.000Z</time>
      </trkpt>
      <trkpt lat="-40.209757" lon="-71.357676">
        <ele>1049.8</ele>
        <time>2019-04-11T16:48:55.000Z</time>
      </trkpt>
      <trkpt lat="-40.209787" lon="-71.3577">
        <ele>1050</ele>
        <time>2019-04-11T16:48:56.000Z</time>
      </trkpt>
      <trkpt lat="-40.209817" lon="-71.357705">
        <ele>1050.1</ele>
        <time>2019-04-11T16:48:57.000Z</time>
      </trkpt>
      <trkpt lat="-40.209851" lon="-71.357719">
        <ele>1050.3</ele>
        <time>2019-04-11T16:48:58.000Z</time>
      </trkpt>
      <trkpt lat="-40.209882" lon="-71.357732">
        <ele>1050.5</ele>
        <time>2019-04-11T16:48:59.000Z</time>
      </trkpt>
      <trkpt lat="-40.209902" lon="-71.357756">
        <ele>1050.7</ele>
        <time>2019-04-11T16:49:00.000Z</time>
      </trkpt>
      <trkpt lat="-40.209935" lon="-71.357776">
        <ele>1050.9</ele>
        <time>2019-04-11T16:49:01.000Z</time>
      </trkpt>
      <trkpt lat="-40.209965" lon="-71.357796">
        <ele>1051</ele>
        <time>2019-04-11T16:49:02.000Z</time>
      </trkpt>
      <trkpt lat="-40.209994" lon="-71.357809">
        <ele>1051.2</ele>
        <time>2019-04-11T16:49:03.000Z</time>
      </trkpt>
      <trkpt lat="-40.210023" lon="-71.357834">
        <ele>1051.4</ele>
        <time>2019-04-11T16:49:04.000Z</time>
      </trkpt>
      <trkpt lat="-40.210045" lon="-71.357862">
        <ele>1051.6</ele>
        <time>2019-04-11T16:49:05.000Z</time>
      </trkpt>
      <trkpt lat="-40.210072" lon="-71.357886">
        <ele>1051.8</ele>
        <time>2019-04-11T16:49:06.000Z</time>
      </trkpt>
      <trkpt lat="-40.210106" lon="-71.35791">
        <ele>1052</ele>
        <time>2019-04-11T16:49:07.000Z</time>
      </trkpt>
      <trkpt lat="-40.210138" lon="-71.357932">
        <ele>1052.2</ele>
        <time>2019-04-11T16:49:08.000Z</time>
      </trkpt>
      <trkpt lat="-40.210166" lon="-71.357956">
        <ele>1052.4</ele>
        <time>2019-04-11T16:49:09.000Z</time>
      </trkpt>
      <trkpt lat="-40.210196" lon="-71.357986">
        <ele>1052.6</ele>
        <time>2019-04-11T16:49:10.000Z</time>
      </trkpt>
      <trkpt lat="-40.210221" lon="-71.358016">
        <ele>1052.8</ele>
        <time>2019-04-11T16:49:11.000Z</time>
      </trkpt>
      <trkpt lat="-40.210244" lon="-71.358038">
        <ele>1053</ele>
        <time>2019-04-11T16:49:12.000Z</time>
      </trkpt>
      <trkpt lat="-40.210271" lon="-71.35807">
        <ele>1053.2</ele>
        <time>2019-04-11T16:49:13.000Z</time>
      </trkpt>
      <trkpt lat="-40.210293" lon="-71.358098">
        <ele>1053.4</ele>
        <time>2019-04-11T16:49:14.000Z</time>
      </trkpt>
      <trkpt lat="-40.210318" lon="-71.358121">
        <ele>1053.6</ele>
        <time>2019-04-11T16:49:15.000Z</time>
      </trkpt>
      <trkpt lat="-40.210342" lon="-71.358157">
        <ele>1053.8</ele>
        <time>2019-04-11T16:49:16.000Z</time>
      </trkpt>
      <trkpt lat="-40.210374" lon="-71.358186">
        <ele>1054</ele>
        <time>2019-04-11T16:49:17.000Z</time>
      </trkpt>
      <trkpt lat="-40.210397" lon="-71.358222">
        <ele>1054.3</ele>
        <time>2019-04-11T16:49:18.000Z</time>
      </trkpt>
      <trkpt lat="-40.210443" lon="-71.358273">
        <ele>1054.6</ele>
        <time>2019-04-11T16:49:20.000Z</time>
      </trkpt>
      <trkpt lat="-40.210467" lon="-71.358307">
        <ele>1054.9</ele>
        <time>2019-04-11T16:49:21.000Z</time>
      </trkpt>
      <trkpt lat="-40.210483" lon="-71.358348">
        <ele>1055.1</ele>
        <time>2019-04-11T16:49:22.000Z</time>
      </trkpt>
      <trkpt lat="-40.210501" lon="-71.358379">
        <ele>1055.3</ele>
        <time>2019-04-11T16:49:23.000Z</time>
      </trkpt>
      <trkpt lat="-40.210522" lon="-71.358416">
        <ele>1055.5</ele>
        <time>2019-04-11T16:49:24.000Z</time>
      </trkpt>
      <trkpt lat="-40.210536" lon="-71.358452">
        <ele>1055.7</ele>
        <time>2019-04-11T16:49:25.000Z</time>
      </trkpt>
      <trkpt lat="-40.210557" lon="-71.358486">
        <ele>1055.9</ele>
        <time>2019-04-11T16:49:26.000Z</time>
      </trkpt>
      <trkpt lat="-40.210576" lon="-71.35852">
        <ele>1056.1</ele>
        <time>2019-04-11T16:49:27.000Z</time>
      </trkpt>
      <trkpt lat="-40.210591" lon="-71.358557">
        <ele>1056.3</ele>
        <time>2019-04-11T16:49:28.000Z</time>
      </trkpt>
      <trkpt lat="-40.21061" lon="-71.358591">
        <ele>1056.5</ele>
        <time>2019-04-11T16:49:29.000Z</time>
      </trkpt>
      <trkpt lat="-40.210629" lon="-71.358622">
        <ele>1056.7</ele>
        <time>2019-04-11T16:49:30.000Z</time>
      </trkpt>
      <trkpt lat="-40.21064" lon="-71.358662">
        <ele>1056.9</ele>
        <time>2019-04-11T16:49:31.000Z</time>
      </trkpt>
      <trkpt lat="-40.210658" lon="-71.358692">
        <ele>1057.1</ele>
        <time>2019-04-11T16:49:32.000Z</time>
      </trkpt>
      <trkpt lat="-40.21067" lon="-71.358737">
        <ele>1057.3</ele>
        <time>2019-04-11T16:49:33.000Z</time>
      </trkpt>
      <trkpt lat="-40.210682" lon="-71.358776">
        <ele>1057.5</ele>
        <time>2019-04-11T16:49:34.000Z</time>
      </trkpt>
      <trkpt lat="-40.210703" lon="-71.358814">
        <ele>1057.7</ele>
        <time>2019-04-11T16:49:35.000Z</time>
      </trkpt>
      <trkpt lat="-40.210718" lon="-71.358849">
        <ele>1057.9</ele>
        <time>2019-04-11T16:49:36.000Z</time>
      </trkpt>
      <trkpt lat="-40.210733" lon="-71.358889">
        <ele>1058.1</ele>
        <time>2019-04-11T16:49:37.000Z</time>
      </trkpt>
      <trkpt lat="-40.210744" lon="-71.358927">
        <ele>1058.3</ele>
        <time>2019-04-11T16:49:38.000Z</time>
      </trkpt>
      <trkpt lat="-40.210764" lon="-71.358957">
        <ele>1058.5</ele>
        <time>2019-04-11T16:49:39.000Z</time>
      </trkpt>
      <trkpt lat="-40.210768" lon="-71.359">
        <ele>1058.7</ele>
        <time>2019-04-11T16:49:40.000Z</time>
      </trkpt>
      <trkpt lat="-40.210786" lon="-71.359076">
        <ele>1059.1</ele>
        <time>2019-04-11T16:49:42.000Z</time>
      </trkpt>
      <trkpt lat="-40.210791" lon="-71.359115">
        <ele>1059.3</ele>
        <time>2019-04-11T16:49:43.000Z</time>
      </trkpt>
      <trkpt lat="-40.210811" lon="-71.359141">
        <ele>1059.4</ele>
        <time>2019-04-11T16:49:44.000Z</time>
      </trkpt>
      <trkpt lat="-40.210831" lon="-71.359179">
        <ele>1059.6</ele>
        <time>2019-04-11T16:49:45.000Z</time>
      </trkpt>
      <trkpt lat="-40.210845" lon="-71.359218">
        <ele>1059.8</ele>
        <time>2019-04-11T16:49:46.000Z</time>
      </trkpt>
      <trkpt lat="-40.210864" lon="-71.359259">
        <ele>1060</ele>
        <time>2019-04-11T16:49:47.000Z</time>
      </trkpt>
      <trkpt lat="-40.210875" lon="-71.359295">
        <ele>1060.2</ele>
        <time>2019-04-11T16:49:48.000Z</time>
      </trkpt>
      <trkpt lat="-40.210888" lon="-71.359336">
        <ele>1060.3</ele>
        <time>2019-04-11T16:49:49.000Z</time>
      </trkpt>
      <trkpt lat="-40.210903" lon="-71.359387">
        <ele>1060.6</ele>
        <time>2019-04-11T16:49:50.000Z</time>
      </trkpt>
      <trkpt lat="-40.210922" lon="-71.359418">
        <ele>1060.7</ele>
        <time>2019-04-11T16:49:51.000Z</time>
      </trkpt>
      <trkpt lat="-40.210934" lon="-71.359489">
        <ele>1061</ele>
        <time>2019-04-11T16:49:53.000Z</time>
      </trkpt>
      <trkpt lat="-40.210945" lon="-71.359529">
        <ele>1061.1</ele>
        <time>2019-04-11T16:49:54.000Z</time>
      </trkpt>
      <trkpt lat="-40.210956" lon="-71.359566">
        <ele>1061.3</ele>
        <time>2019-04-11T16:49:55.000Z</time>
      </trkpt>
      <trkpt lat="-40.210957" lon="-71.35961">
        <ele>1061.5</ele>
        <time>2019-04-11T16:49:56.000Z</time>
      </trkpt>
      <trkpt lat="-40.210963" lon="-71.359648">
        <ele>1061.6</ele>
        <time>2019-04-11T16:49:57.000Z</time>
      </trkpt>
      <trkpt lat="-40.210986" lon="-71.35969">
        <ele>1061.8</ele>
        <time>2019-04-11T16:49:58.000Z</time>
      </trkpt>
      <trkpt lat="-40.210993" lon="-71.359732">
        <ele>1062</ele>
        <time>2019-04-11T16:49:59.000Z</time>
      </trkpt>
      <trkpt lat="-40.211011" lon="-71.359765">
        <ele>1062.1</ele>
        <time>2019-04-11T16:50:00.000Z</time>
      </trkpt>
      <trkpt lat="-40.21103" lon="-71.359804">
        <ele>1062.3</ele>
        <time>2019-04-11T16:50:01.000Z</time>
      </trkpt>
      <trkpt lat="-40.211042" lon="-71.359836">
        <ele>1062.5</ele>
        <time>2019-04-11T16:50:02.000Z</time>
      </trkpt>
      <trkpt lat="-40.211062" lon="-71.359874">
        <ele>1062.6</ele>
        <time>2019-04-11T16:50:03.000Z</time>
      </trkpt>
      <trkpt lat="-40.211085" lon="-71.359905">
        <ele>1062.8</ele>
        <time>2019-04-11T16:50:04.000Z</time>
      </trkpt>
      <trkpt lat="-40.211126" lon="-71.359966">
        <ele>1063.2</ele>
        <time>2019-04-11T16:50:06.000Z</time>
      </trkpt>
      <trkpt lat="-40.211151" lon="-71.360003">
        <ele>1063.4</ele>
        <time>2019-04-11T16:50:07.000Z</time>
      </trkpt>
      <trkpt lat="-40.211175" lon="-71.36003">
        <ele>1063.6</ele>
        <time>2019-04-11T16:50:08.000Z</time>
      </trkpt>
      <trkpt lat="-40.2112" lon="-71.36006">
        <ele>1063.8</ele>
        <time>2019-04-11T16:50:09.000Z</time>
      </trkpt>
      <trkpt lat="-40.21122" lon="-71.360095">
        <ele>1063.9</ele>
        <time>2019-04-11T16:50:10.000Z</time>
      </trkpt>
      <trkpt lat="-40.211245" lon="-71.360118">
        <ele>1064.1</ele>
        <time>2019-04-11T16:50:11.000Z</time>
      </trkpt>
      <trkpt lat="-40.211267" lon="-71.360143">
        <ele>1064.3</ele>
        <time>2019-04-11T16:50:12.000Z</time>
      </trkpt>
      <trkpt lat="-40.211288" lon="-71.360176">
        <ele>1064.5</ele>
        <time>2019-04-11T16:50:13.000Z</time>
      </trkpt>
      <trkpt lat="-40.211314" lon="-71.360195">
        <ele>1064.6</ele>
        <time>2019-04-11T16:50:14.000Z</time>
      </trkpt>
      <trkpt lat="-40.211342" lon="-71.360219">
        <ele>1064.8</ele>
        <time>2019-04-11T16:50:15.000Z</time>
      </trkpt>
      <trkpt lat="-40.211369" lon="-71.360259">
        <ele>1065</ele>
        <time>2019-04-11T16:50:16.000Z</time>
      </trkpt>
      <trkpt lat="-40.211397" lon="-71.360285">
        <ele>1065.2</ele>
        <time>2019-04-11T16:50:17.000Z</time>
      </trkpt>
      <trkpt lat="-40.211429" lon="-71.360313">
        <ele>1065.4</ele>
        <time>2019-04-11T16:50:18.000Z</time>
      </trkpt>
      <trkpt lat="-40.21146" lon="-71.360334">
        <ele>1065.6</ele>
        <time>2019-04-11T16:50:19.000Z</time>
      </trkpt>
      <trkpt lat="-40.211491" lon="-71.360346">
        <ele>1065.8</ele>
        <time>2019-04-11T16:50:20.000Z</time>
      </trkpt>
      <trkpt lat="-40.211526" lon="-71.36037">
        <ele>1066</ele>
        <time>2019-04-11T16:50:21.000Z</time>
      </trkpt>
      <trkpt lat="-40.211552" lon="-71.360392">
        <ele>1066.2</ele>
        <time>2019-04-11T16:50:22.000Z</time>
      </trkpt>
      <trkpt lat="-40.211583" lon="-71.360426">
        <ele>1066.4</ele>
        <time>2019-04-11T16:50:23.000Z</time>
      </trkpt>
      <trkpt lat="-40.211616" lon="-71.360444">
        <ele>1066.5</ele>
        <time>2019-04-11T16:50:24.000Z</time>
      </trkpt>
      <trkpt lat="-40.211643" lon="-71.360468">
        <ele>1066.7</ele>
        <time>2019-04-11T16:50:25.000Z</time>
      </trkpt>
      <trkpt lat="-40.211673" lon="-71.360482">
        <ele>1066.9</ele>
        <time>2019-04-11T16:50:26.000Z</time>
      </trkpt>
      <trkpt lat="-40.211708" lon="-71.360505">
        <ele>1067.1</ele>
        <time>2019-04-11T16:50:27.000Z</time>
      </trkpt>
      <trkpt lat="-40.211736" lon="-71.360531">
        <ele>1067.2</ele>
        <time>2019-04-11T16:50:28.000Z</time>
      </trkpt>
      <trkpt lat="-40.21177" lon="-71.360551">
        <ele>1067.4</ele>
        <time>2019-04-11T16:50:29.000Z</time>
      </trkpt>
      <trkpt lat="-40.211799" lon="-71.360568">
        <ele>1067.6</ele>
        <time>2019-04-11T16:50:30.000Z</time>
      </trkpt>
      <trkpt lat="-40.211834" lon="-71.360588">
        <ele>1067.8</ele>
        <time>2019-04-11T16:50:31.000Z</time>
      </trkpt>
      <trkpt lat="-40.211873" lon="-71.360601">
        <ele>1068.1</ele>
        <time>2019-04-11T16:50:32.000Z</time>
      </trkpt>
      <trkpt lat="-40.211907" lon="-71.360618">
        <ele>1068.3</ele>
        <time>2019-04-11T16:50:33.000Z</time>
      </trkpt>
      <trkpt lat="-40.211937" lon="-71.360641">
        <ele>1068.5</ele>
        <time>2019-04-11T16:50:34.000Z</time>
      </trkpt>
      <trkpt lat="-40.211967" lon="-71.36066">
        <ele>1068.7</ele>
        <time>2019-04-11T16:50:35.000Z</time>
      </trkpt>
      <trkpt lat="-40.212001" lon="-71.360676">
        <ele>1068.9</ele>
        <time>2019-04-11T16:50:36.000Z</time>
      </trkpt>
      <trkpt lat="-40.21203" lon="-71.360694">
        <ele>1069.1</ele>
        <time>2019-04-11T16:50:37.000Z</time>
      </trkpt>
      <trkpt lat="-40.212065" lon="-71.360712">
        <ele>1069.3</ele>
        <time>2019-04-11T16:50:38.000Z</time>
      </trkpt>
      <trkpt lat="-40.212099" lon="-71.360723">
        <ele>1069.6</ele>
        <time>2019-04-11T16:50:39.000Z</time>
      </trkpt>
      <trkpt lat="-40.212123" lon="-71.360744">
        <ele>1069.8</ele>
        <time>2019-04-11T16:50:40.000Z</time>
      </trkpt>
      <trkpt lat="-40.212156" lon="-71.360758">
        <ele>1070</ele>
        <time>2019-04-11T16:50:41.000Z</time>
      </trkpt>
      <trkpt lat="-40.212189" lon="-71.360773">
        <ele>1070.2</ele>
        <time>2019-04-11T16:50:42.000Z</time>
      </trkpt>
      <trkpt lat="-40.21222" lon="-71.360788">
        <ele>1070.4</ele>
        <time>2019-04-11T16:50:43.000Z</time>
      </trkpt>
      <trkpt lat="-40.21225" lon="-71.36081">
        <ele>1070.6</ele>
        <time>2019-04-11T16:50:44.000Z</time>
      </trkpt>
      <trkpt lat="-40.212281" lon="-71.360827">
        <ele>1070.9</ele>
        <time>2019-04-11T16:50:45.000Z</time>
      </trkpt>
      <trkpt lat="-40.212316" lon="-71.360841">
        <ele>1071.1</ele>
        <time>2019-04-11T16:50:46.000Z</time>
      </trkpt>
      <trkpt lat="-40.212344" lon="-71.360854">
        <ele>1071.3</ele>
        <time>2019-04-11T16:50:47.000Z</time>
      </trkpt>
      <trkpt lat="-40.212368" lon="-71.360878">
        <ele>1071.5</ele>
        <time>2019-04-11T16:50:48.000Z</time>
      </trkpt>
      <trkpt lat="-40.212408" lon="-71.360911">
        <ele>1071.8</ele>
        <time>2019-04-11T16:50:49.000Z</time>
      </trkpt>
      <trkpt lat="-40.212458" lon="-71.36095">
        <ele>1072.1</ele>
        <time>2019-04-11T16:50:51.000Z</time>
      </trkpt>
      <trkpt lat="-40.212492" lon="-71.36097">
        <ele>1072.3</ele>
        <time>2019-04-11T16:50:52.000Z</time>
      </trkpt>
      <trkpt lat="-40.212521" lon="-71.360986">
        <ele>1072.5</ele>
        <time>2019-04-11T16:50:53.000Z</time>
      </trkpt>
      <trkpt lat="-40.212553" lon="-71.361009">
        <ele>1072.7</ele>
        <time>2019-04-11T16:50:54.000Z</time>
      </trkpt>
      <trkpt lat="-40.212587" lon="-71.361023">
        <ele>1072.9</ele>
        <time>2019-04-11T16:50:55.000Z</time>
      </trkpt>
      <trkpt lat="-40.21262" lon="-71.361043">
        <ele>1073.1</ele>
        <time>2019-04-11T16:50:56.000Z</time>
      </trkpt>
      <trkpt lat="-40.212652" lon="-71.361053">
        <ele>1073.3</ele>
        <time>2019-04-11T16:50:57.000Z</time>
      </trkpt>
      <trkpt lat="-40.212684" lon="-71.36107">
        <ele>1073.5</ele>
        <time>2019-04-11T16:50:58.000Z</time>
      </trkpt>
      <trkpt lat="-40.212712" lon="-71.361096">
        <ele>1073.6</ele>
        <time>2019-04-11T16:50:59.000Z</time>
      </trkpt>
      <trkpt lat="-40.212746" lon="-71.361127">
        <ele>1073.9</ele>
        <time>2019-04-11T16:51:00.000Z</time>
      </trkpt>
      <trkpt lat="-40.212784" lon="-71.361148">
        <ele>1074.1</ele>
        <time>2019-04-11T16:51:01.000Z</time>
      </trkpt>
      <trkpt lat="-40.212811" lon="-71.36116">
        <ele>1074.2</ele>
        <time>2019-04-11T16:51:02.000Z</time>
      </trkpt>
      <trkpt lat="-40.21285" lon="-71.361186">
        <ele>1074.4</ele>
        <time>2019-04-11T16:51:03.000Z</time>
      </trkpt>
      <trkpt lat="-40.212879" lon="-71.361203">
        <ele>1074.6</ele>
        <time>2019-04-11T16:51:04.000Z</time>
      </trkpt>
      <trkpt lat="-40.21291" lon="-71.361212">
        <ele>1074.7</ele>
        <time>2019-04-11T16:51:05.000Z</time>
      </trkpt>
      <trkpt lat="-40.212939" lon="-71.361236">
        <ele>1074.9</ele>
        <time>2019-04-11T16:51:06.000Z</time>
      </trkpt>
      <trkpt lat="-40.212971" lon="-71.361248">
        <ele>1075</ele>
        <time>2019-04-11T16:51:07.000Z</time>
      </trkpt>
      <trkpt lat="-40.213023" lon="-71.361283">
        <ele>1075.3</ele>
        <time>2019-04-11T16:51:09.000Z</time>
      </trkpt>
      <trkpt lat="-40.213063" lon="-71.361295">
        <ele>1075.5</ele>
        <time>2019-04-11T16:51:10.000Z</time>
      </trkpt>
      <trkpt lat="-40.213099" lon="-71.361315">
        <ele>1075.7</ele>
        <time>2019-04-11T16:51:11.000Z</time>
      </trkpt>
      <trkpt lat="-40.213134" lon="-71.361338">
        <ele>1075.9</ele>
        <time>2019-04-11T16:51:12.000Z</time>
      </trkpt>
      <trkpt lat="-40.213164" lon="-71.361353">
        <ele>1076.1</ele>
        <time>2019-04-11T16:51:13.000Z</time>
      </trkpt>
      <trkpt lat="-40.213217" lon="-71.361386">
        <ele>1076.4</ele>
        <time>2019-04-11T16:51:15.000Z</time>
      </trkpt>
      <trkpt lat="-40.213248" lon="-71.361394">
        <ele>1076.5</ele>
        <time>2019-04-11T16:51:16.000Z</time>
      </trkpt>
      <trkpt lat="-40.213275" lon="-71.361415">
        <ele>1076.7</ele>
        <time>2019-04-11T16:51:17.000Z</time>
      </trkpt>
      <trkpt lat="-40.213312" lon="-71.361438">
        <ele>1076.9</ele>
        <time>2019-04-11T16:51:18.000Z</time>
      </trkpt>
      <trkpt lat="-40.213345" lon="-71.361446">
        <ele>1077.1</ele>
        <time>2019-04-11T16:51:19.000Z</time>
      </trkpt>
      <trkpt lat="-40.213377" lon="-71.361454">
        <ele>1077.2</ele>
        <time>2019-04-11T16:51:20.000Z</time>
      </trkpt>
      <trkpt lat="-40.213407" lon="-71.36147">
        <ele>1077.4</ele>
        <time>2019-04-11T16:51:21.000Z</time>
      </trkpt>
      <trkpt lat="-40.213458" lon="-71.361504">
        <ele>1077.7</ele>
        <time>2019-04-11T16:51:23.000Z</time>
      </trkpt>
      <trkpt lat="-40.213484" lon="-71.361526">
        <ele>1077.8</ele>
        <time>2019-04-11T16:51:24.000Z</time>
      </trkpt>
      <trkpt lat="-40.213511" lon="-71.361545">
        <ele>1078</ele>
        <time>2019-04-11T16:51:25.000Z</time>
      </trkpt>
      <trkpt lat="-40.213533" lon="-71.361564">
        <ele>1078.1</ele>
        <time>2019-04-11T16:51:26.000Z</time>
      </trkpt>
      <trkpt lat="-40.213567" lon="-71.361579">
        <ele>1078.2</ele>
        <time>2019-04-11T16:51:27.000Z</time>
      </trkpt>
      <trkpt lat="-40.213598" lon="-71.361597">
        <ele>1078.4</ele>
        <time>2019-04-11T16:51:28.000Z</time>
      </trkpt>
      <trkpt lat="-40.213627" lon="-71.361609">
        <ele>1078.5</ele>
        <time>2019-04-11T16:51:29.000Z</time>
      </trkpt>
      <trkpt lat="-40.213657" lon="-71.361624">
        <ele>1078.7</ele>
        <time>2019-04-11T16:51:30.000Z</time>
      </trkpt>
      <trkpt lat="-40.21369" lon="-71.361632">
        <ele>1078.8</ele>
        <time>2019-04-11T16:51:31.000Z</time>
      </trkpt>
      <trkpt lat="-40.213718" lon="-71.361647">
        <ele>1078.9</ele>
        <time>2019-04-11T16:51:32.000Z</time>
      </trkpt>
      <trkpt lat="-40.213748" lon="-71.361656">
        <ele>1079</ele>
        <time>2019-04-11T16:51:33.000Z</time>
      </trkpt>
      <trkpt lat="-40.213776" lon="-71.361665">
        <ele>1079.1</ele>
        <time>2019-04-11T16:51:34.000Z</time>
      </trkpt>
      <trkpt lat="-40.213805" lon="-71.361681">
        <ele>1079.3</ele>
        <time>2019-04-11T16:51:35.000Z</time>
      </trkpt>
      <trkpt lat="-40.213829" lon="-71.361707">
        <ele>1079.4</ele>
        <time>2019-04-11T16:51:36.000Z</time>
      </trkpt>
      <trkpt lat="-40.213856" lon="-71.361714">
        <ele>1079.5</ele>
        <time>2019-04-11T16:51:37.000Z</time>
      </trkpt>
      <trkpt lat="-40.213889" lon="-71.361728">
        <ele>1079.6</ele>
        <time>2019-04-11T16:51:38.000Z</time>
      </trkpt>
      <trkpt lat="-40.213917" lon="-71.361731">
        <ele>1079.7</ele>
        <time>2019-04-11T16:51:39.000Z</time>
      </trkpt>
      <trkpt lat="-40.213948" lon="-71.361757">
        <ele>1079.8</ele>
        <time>2019-04-11T16:51:40.000Z</time>
      </trkpt>
      <trkpt lat="-40.213975" lon="-71.361775">
        <ele>1079.8</ele>
        <time>2019-04-11T16:51:41.000Z</time>
      </trkpt>
      <trkpt lat="-40.214008" lon="-71.361794">
        <ele>1079.9</ele>
        <time>2019-04-11T16:51:42.000Z</time>
      </trkpt>
      <trkpt lat="-40.214038" lon="-71.36181">
        <ele>1080</ele>
        <time>2019-04-11T16:51:43.000Z</time>
      </trkpt>
      <trkpt lat="-40.214064" lon="-71.361836">
        <ele>1080.1</ele>
        <time>2019-04-11T16:51:44.000Z</time>
      </trkpt>
      <trkpt lat="-40.214098" lon="-71.361846">
        <ele>1080.2</ele>
        <time>2019-04-11T16:51:45.000Z</time>
      </trkpt>
      <trkpt lat="-40.214132" lon="-71.361858">
        <ele>1080.3</ele>
        <time>2019-04-11T16:51:46.000Z</time>
      </trkpt>
      <trkpt lat="-40.214159" lon="-71.361871">
        <ele>1080.4</ele>
        <time>2019-04-11T16:51:47.000Z</time>
      </trkpt>
      <trkpt lat="-40.214188" lon="-71.361892">
        <ele>1080.5</ele>
        <time>2019-04-11T16:51:48.000Z</time>
      </trkpt>
      <trkpt lat="-40.214218" lon="-71.361898">
        <ele>1080.6</ele>
        <time>2019-04-11T16:51:49.000Z</time>
      </trkpt>
      <trkpt lat="-40.214261" lon="-71.361919">
        <ele>1080.8</ele>
        <time>2019-04-11T16:51:50.000Z</time>
      </trkpt>
      <trkpt lat="-40.214301" lon="-71.36193">
        <ele>1080.9</ele>
        <time>2019-04-11T16:51:51.000Z</time>
      </trkpt>
      <trkpt lat="-40.21433" lon="-71.361966">
        <ele>1081.1</ele>
        <time>2019-04-11T16:51:52.000Z</time>
      </trkpt>
      <trkpt lat="-40.214364" lon="-71.361981">
        <ele>1081.2</ele>
        <time>2019-04-11T16:51:53.000Z</time>
      </trkpt>
      <trkpt lat="-40.214399" lon="-71.362003">
        <ele>1081.3</ele>
        <time>2019-04-11T16:51:54.000Z</time>
      </trkpt>
      <trkpt lat="-40.21443" lon="-71.362021">
        <ele>1081.5</ele>
        <time>2019-04-11T16:51:55.000Z</time>
      </trkpt>
      <trkpt lat="-40.214462" lon="-71.362059">
        <ele>1081.7</ele>
        <time>2019-04-11T16:51:56.000Z</time>
      </trkpt>
      <trkpt lat="-40.214497" lon="-71.362088">
        <ele>1081.8</ele>
        <time>2019-04-11T16:51:57.000Z</time>
      </trkpt>
      <trkpt lat="-40.214535" lon="-71.362106">
        <ele>1082</ele>
        <time>2019-04-11T16:51:58.000Z</time>
      </trkpt>
      <trkpt lat="-40.21457" lon="-71.362145">
        <ele>1082.2</ele>
        <time>2019-04-11T16:51:59.000Z</time>
      </trkpt>
      <trkpt lat="-40.214611" lon="-71.362175">
        <ele>1082.4</ele>
        <time>2019-04-11T16:52:00.000Z</time>
      </trkpt>
      <trkpt lat="-40.214649" lon="-71.362198">
        <ele>1082.7</ele>
        <time>2019-04-11T16:52:01.000Z</time>
      </trkpt>
      <trkpt lat="-40.21468" lon="-71.362244">
        <ele>1082.9</ele>
        <time>2019-04-11T16:52:02.000Z</time>
      </trkpt>
      <trkpt lat="-40.214714" lon="-71.36228">
        <ele>1083.1</ele>
        <time>2019-04-11T16:52:03.000Z</time>
      </trkpt>
      <trkpt lat="-40.214745" lon="-71.362319">
        <ele>1083.3</ele>
        <time>2019-04-11T16:52:04.000Z</time>
      </trkpt>
      <trkpt lat="-40.214778" lon="-71.36236">
        <ele>1083.6</ele>
        <time>2019-04-11T16:52:05.000Z</time>
      </trkpt>
      <trkpt lat="-40.214809" lon="-71.362414">
        <ele>1083.9</ele>
        <time>2019-04-11T16:52:06.000Z</time>
      </trkpt>
      <trkpt lat="-40.21484" lon="-71.362459">
        <ele>1084.1</ele>
        <time>2019-04-11T16:52:07.000Z</time>
      </trkpt>
      <trkpt lat="-40.214864" lon="-71.362515">
        <ele>1084.4</ele>
        <time>2019-04-11T16:52:08.000Z</time>
      </trkpt>
      <trkpt lat="-40.214894" lon="-71.362568">
        <ele>1084.7</ele>
        <time>2019-04-11T16:52:09.000Z</time>
      </trkpt>
      <trkpt lat="-40.214926" lon="-71.362624">
        <ele>1085</ele>
        <time>2019-04-11T16:52:10.000Z</time>
      </trkpt>
      <trkpt lat="-40.21495" lon="-71.362687">
        <ele>1085.3</ele>
        <time>2019-04-11T16:52:11.000Z</time>
      </trkpt>
      <trkpt lat="-40.214979" lon="-71.362725">
        <ele>1085.5</ele>
        <time>2019-04-11T16:52:12.000Z</time>
      </trkpt>
      <trkpt lat="-40.214995" lon="-71.362762">
        <ele>1085.7</ele>
        <time>2019-04-11T16:52:13.000Z</time>
      </trkpt>
      <trkpt lat="-40.215018" lon="-71.362813">
        <ele>1086</ele>
        <time>2019-04-11T16:52:14.000Z</time>
      </trkpt>
      <trkpt lat="-40.215038" lon="-71.362873">
        <ele>1086.3</ele>
        <time>2019-04-11T16:52:15.000Z</time>
      </trkpt>
      <trkpt lat="-40.215062" lon="-71.362936">
        <ele>1086.6</ele>
        <time>2019-04-11T16:52:16.000Z</time>
      </trkpt>
      <trkpt lat="-40.215073" lon="-71.362994">
        <ele>1086.8</ele>
        <time>2019-04-11T16:52:17.000Z</time>
      </trkpt>
      <trkpt lat="-40.215089" lon="-71.363038">
        <ele>1087</ele>
        <time>2019-04-11T16:52:18.000Z</time>
      </trkpt>
      <trkpt lat="-40.2151" lon="-71.363083">
        <ele>1087.2</ele>
        <time>2019-04-11T16:52:19.000Z</time>
      </trkpt>
      <trkpt lat="-40.215112" lon="-71.363129">
        <ele>1087.4</ele>
        <time>2019-04-11T16:52:20.000Z</time>
      </trkpt>
      <trkpt lat="-40.21513" lon="-71.363171">
        <ele>1087.6</ele>
        <time>2019-04-11T16:52:21.000Z</time>
      </trkpt>
      <trkpt lat="-40.215145" lon="-71.363221">
        <ele>1087.8</ele>
        <time>2019-04-11T16:52:22.000Z</time>
      </trkpt>
      <trkpt lat="-40.215157" lon="-71.363263">
        <ele>1088</ele>
        <time>2019-04-11T16:52:23.000Z</time>
      </trkpt>
      <trkpt lat="-40.215167" lon="-71.363306">
        <ele>1088.2</ele>
        <time>2019-04-11T16:52:24.000Z</time>
      </trkpt>
      <trkpt lat="-40.215175" lon="-71.363349">
        <ele>1088.4</ele>
        <time>2019-04-11T16:52:25.000Z</time>
      </trkpt>
      <trkpt lat="-40.215178" lon="-71.363397">
        <ele>1088.6</ele>
        <time>2019-04-11T16:52:26.000Z</time>
      </trkpt>
      <trkpt lat="-40.215189" lon="-71.363443">
        <ele>1088.8</ele>
        <time>2019-04-11T16:52:27.000Z</time>
      </trkpt>
      <trkpt lat="-40.215193" lon="-71.363484">
        <ele>1089</ele>
        <time>2019-04-11T16:52:28.000Z</time>
      </trkpt>
      <trkpt lat="-40.215197" lon="-71.363527">
        <ele>1089.2</ele>
        <time>2019-04-11T16:52:29.000Z</time>
      </trkpt>
      <trkpt lat="-40.21521" lon="-71.363569">
        <ele>1089.4</ele>
        <time>2019-04-11T16:52:30.000Z</time>
      </trkpt>
      <trkpt lat="-40.215219" lon="-71.363614">
        <ele>1089.6</ele>
        <time>2019-04-11T16:52:31.000Z</time>
      </trkpt>
      <trkpt lat="-40.215229" lon="-71.363667">
        <ele>1089.9</ele>
        <time>2019-04-11T16:52:32.000Z</time>
      </trkpt>
      <trkpt lat="-40.215242" lon="-71.363705">
        <ele>1090.1</ele>
        <time>2019-04-11T16:52:33.000Z</time>
      </trkpt>
      <trkpt lat="-40.215251" lon="-71.363743">
        <ele>1090.3</ele>
        <time>2019-04-11T16:52:34.000Z</time>
      </trkpt>
      <trkpt lat="-40.215259" lon="-71.363778">
        <ele>1090.5</ele>
        <time>2019-04-11T16:52:35.000Z</time>
      </trkpt>
      <trkpt lat="-40.21527" lon="-71.363818">
        <ele>1090.7</ele>
        <time>2019-04-11T16:52:36.000Z</time>
      </trkpt>
      <trkpt lat="-40.21528" lon="-71.363859">
        <ele>1090.9</ele>
        <time>2019-04-11T16:52:37.000Z</time>
      </trkpt>
      <trkpt lat="-40.215283" lon="-71.363899">
        <ele>1091.1</ele>
        <time>2019-04-11T16:52:38.000Z</time>
      </trkpt>
      <trkpt lat="-40.215294" lon="-71.363935">
        <ele>1091.2</ele>
        <time>2019-04-11T16:52:39.000Z</time>
      </trkpt>
      <trkpt lat="-40.215306" lon="-71.363975">
        <ele>1091.4</ele>
        <time>2019-04-11T16:52:40.000Z</time>
      </trkpt>
      <trkpt lat="-40.21532" lon="-71.364015">
        <ele>1091.6</ele>
        <time>2019-04-11T16:52:41.000Z</time>
      </trkpt>
      <trkpt lat="-40.215333" lon="-71.364054">
        <ele>1091.8</ele>
        <time>2019-04-11T16:52:42.000Z</time>
      </trkpt>
      <trkpt lat="-40.215347" lon="-71.364096">
        <ele>1092.1</ele>
        <time>2019-04-11T16:52:43.000Z</time>
      </trkpt>
      <trkpt lat="-40.215359" lon="-71.36414">
        <ele>1092.3</ele>
        <time>2019-04-11T16:52:44.000Z</time>
      </trkpt>
      <trkpt lat="-40.215376" lon="-71.364174">
        <ele>1092.5</ele>
        <time>2019-04-11T16:52:45.000Z</time>
      </trkpt>
      <trkpt lat="-40.215395" lon="-71.364212">
        <ele>1092.7</ele>
        <time>2019-04-11T16:52:46.000Z</time>
      </trkpt>
      <trkpt lat="-40.21541" lon="-71.364248">
        <ele>1092.9</ele>
        <time>2019-04-11T16:52:47.000Z</time>
      </trkpt>
      <trkpt lat="-40.215421" lon="-71.364295">
        <ele>1093.1</ele>
        <time>2019-04-11T16:52:48.000Z</time>
      </trkpt>
      <trkpt lat="-40.215441" lon="-71.364326">
        <ele>1093.2</ele>
        <time>2019-04-11T16:52:49.000Z</time>
      </trkpt>
      <trkpt lat="-40.215457" lon="-71.364362">
        <ele>1093.4</ele>
        <time>2019-04-11T16:52:50.000Z</time>
      </trkpt>
      <trkpt lat="-40.215477" lon="-71.364401">
        <ele>1093.6</ele>
        <time>2019-04-11T16:52:51.000Z</time>
      </trkpt>
      <trkpt lat="-40.215491" lon="-71.364439">
        <ele>1093.7</ele>
        <time>2019-04-11T16:52:52.000Z</time>
      </trkpt>
      <trkpt lat="-40.215514" lon="-71.364476">
        <ele>1093.9</ele>
        <time>2019-04-11T16:52:53.000Z</time>
      </trkpt>
      <trkpt lat="-40.215538" lon="-71.364517">
        <ele>1094.1</ele>
        <time>2019-04-11T16:52:54.000Z</time>
      </trkpt>
      <trkpt lat="-40.215556" lon="-71.364548">
        <ele>1094.3</ele>
        <time>2019-04-11T16:52:55.000Z</time>
      </trkpt>
      <trkpt lat="-40.215582" lon="-71.364581">
        <ele>1094.5</ele>
        <time>2019-04-11T16:52:56.000Z</time>
      </trkpt>
      <trkpt lat="-40.215605" lon="-71.364603">
        <ele>1094.7</ele>
        <time>2019-04-11T16:52:57.000Z</time>
      </trkpt>
      <trkpt lat="-40.215625" lon="-71.364636">
        <ele>1094.8</ele>
        <time>2019-04-11T16:52:58.000Z</time>
      </trkpt>
      <trkpt lat="-40.215647" lon="-71.364673">
        <ele>1095</ele>
        <time>2019-04-11T16:52:59.000Z</time>
      </trkpt>
      <trkpt lat="-40.215674" lon="-71.364705">
        <ele>1095.2</ele>
        <time>2019-04-11T16:53:00.000Z</time>
      </trkpt>
      <trkpt lat="-40.215696" lon="-71.364732">
        <ele>1095.4</ele>
        <time>2019-04-11T16:53:01.000Z</time>
      </trkpt>
      <trkpt lat="-40.215717" lon="-71.364762">
        <ele>1095.6</ele>
        <time>2019-04-11T16:53:02.000Z</time>
      </trkpt>
      <trkpt lat="-40.215738" lon="-71.364786">
        <ele>1095.8</ele>
        <time>2019-04-11T16:53:03.000Z</time>
      </trkpt>
      <trkpt lat="-40.215764" lon="-71.364816">
        <ele>1096</ele>
        <time>2019-04-11T16:53:04.000Z</time>
      </trkpt>
      <trkpt lat="-40.215791" lon="-71.364839">
        <ele>1096.2</ele>
        <time>2019-04-11T16:53:05.000Z</time>
      </trkpt>
      <trkpt lat="-40.215819" lon="-71.364871">
        <ele>1096.4</ele>
        <time>2019-04-11T16:53:06.000Z</time>
      </trkpt>
      <trkpt lat="-40.21585" lon="-71.364897">
        <ele>1096.6</ele>
        <time>2019-04-11T16:53:07.000Z</time>
      </trkpt>
      <trkpt lat="-40.215878" lon="-71.364917">
        <ele>1096.8</ele>
        <time>2019-04-11T16:53:08.000Z</time>
      </trkpt>
      <trkpt lat="-40.215908" lon="-71.364939">
        <ele>1097</ele>
        <time>2019-04-11T16:53:09.000Z</time>
      </trkpt>
      <trkpt lat="-40.215944" lon="-71.364976">
        <ele>1097.3</ele>
        <time>2019-04-11T16:53:10.000Z</time>
      </trkpt>
      <trkpt lat="-40.215991" lon="-71.364999">
        <ele>1097.6</ele>
        <time>2019-04-11T16:53:12.000Z</time>
      </trkpt>
      <trkpt lat="-40.216025" lon="-71.365019">
        <ele>1097.8</ele>
        <time>2019-04-11T16:53:13.000Z</time>
      </trkpt>
      <trkpt lat="-40.216061" lon="-71.365031">
        <ele>1098</ele>
        <time>2019-04-11T16:53:14.000Z</time>
      </trkpt>
      <trkpt lat="-40.216111" lon="-71.365053">
        <ele>1098.4</ele>
        <time>2019-04-11T16:53:16.000Z</time>
      </trkpt>
      <trkpt lat="-40.216142" lon="-71.365071">
        <ele>1098.6</ele>
        <time>2019-04-11T16:53:17.000Z</time>
      </trkpt>
      <trkpt lat="-40.216178" lon="-71.365094">
        <ele>1098.8</ele>
        <time>2019-04-11T16:53:18.000Z</time>
      </trkpt>
      <trkpt lat="-40.216209" lon="-71.365099">
        <ele>1099</ele>
        <time>2019-04-11T16:53:19.000Z</time>
      </trkpt>
      <trkpt lat="-40.216268" lon="-71.365105">
        <ele>1099.4</ele>
        <time>2019-04-11T16:53:21.000Z</time>
      </trkpt>
      <trkpt lat="-40.216301" lon="-71.365111">
        <ele>1099.6</ele>
        <time>2019-04-11T16:53:22.000Z</time>
      </trkpt>
      <trkpt lat="-40.216332" lon="-71.365112">
        <ele>1099.8</ele>
        <time>2019-04-11T16:53:23.000Z</time>
      </trkpt>
      <trkpt lat="-40.216366" lon="-71.365118">
        <ele>1100</ele>
        <time>2019-04-11T16:53:24.000Z</time>
      </trkpt>
      <trkpt lat="-40.216398" lon="-71.365124">
        <ele>1100.2</ele>
        <time>2019-04-11T16:53:25.000Z</time>
      </trkpt>
      <trkpt lat="-40.216431" lon="-71.365132">
        <ele>1100.4</ele>
        <time>2019-04-11T16:53:26.000Z</time>
      </trkpt>
      <trkpt lat="-40.21646" lon="-71.365129">
        <ele>1100.5</ele>
        <time>2019-04-11T16:53:27.000Z</time>
      </trkpt>
      <trkpt lat="-40.216492" lon="-71.365129">
        <ele>1100.7</ele>
        <time>2019-04-11T16:53:28.000Z</time>
      </trkpt>
      <trkpt lat="-40.216532" lon="-71.365131">
        <ele>1100.9</ele>
        <time>2019-04-11T16:53:29.000Z</time>
      </trkpt>
      <trkpt lat="-40.216563" lon="-71.365122">
        <ele>1101.1</ele>
        <time>2019-04-11T16:53:30.000Z</time>
      </trkpt>
      <trkpt lat="-40.216605" lon="-71.365124">
        <ele>1101.3</ele>
        <time>2019-04-11T16:53:31.000Z</time>
      </trkpt>
      <trkpt lat="-40.216637" lon="-71.365119">
        <ele>1101.5</ele>
        <time>2019-04-11T16:53:32.000Z</time>
      </trkpt>
      <trkpt lat="-40.216664" lon="-71.365115">
        <ele>1101.7</ele>
        <time>2019-04-11T16:53:33.000Z</time>
      </trkpt>
      <trkpt lat="-40.2167" lon="-71.36511">
        <ele>1101.9</ele>
        <time>2019-04-11T16:53:34.000Z</time>
      </trkpt>
      <trkpt lat="-40.216734" lon="-71.365096">
        <ele>1102.1</ele>
        <time>2019-04-11T16:53:35.000Z</time>
      </trkpt>
      <trkpt lat="-40.216762" lon="-71.36509">
        <ele>1102.2</ele>
        <time>2019-04-11T16:53:36.000Z</time>
      </trkpt>
      <trkpt lat="-40.216799" lon="-71.36508">
        <ele>1102.5</ele>
        <time>2019-04-11T16:53:37.000Z</time>
      </trkpt>
      <trkpt lat="-40.216836" lon="-71.36507">
        <ele>1102.7</ele>
        <time>2019-04-11T16:53:38.000Z</time>
      </trkpt>
      <trkpt lat="-40.216871" lon="-71.36506">
        <ele>1102.9</ele>
        <time>2019-04-11T16:53:39.000Z</time>
      </trkpt>
      <trkpt lat="-40.216899" lon="-71.365042">
        <ele>1103.1</ele>
        <time>2019-04-11T16:53:40.000Z</time>
      </trkpt>
      <trkpt lat="-40.216931" lon="-71.365034">
        <ele>1103.3</ele>
        <time>2019-04-11T16:53:41.000Z</time>
      </trkpt>
      <trkpt lat="-40.216962" lon="-71.36502">
        <ele>1103.5</ele>
        <time>2019-04-11T16:53:42.000Z</time>
      </trkpt>
      <trkpt lat="-40.216996" lon="-71.364993">
        <ele>1103.8</ele>
        <time>2019-04-11T16:53:43.000Z</time>
      </trkpt>
      <trkpt lat="-40.217026" lon="-71.364972">
        <ele>1104</ele>
        <time>2019-04-11T16:53:44.000Z</time>
      </trkpt>
      <trkpt lat="-40.217058" lon="-71.364951">
        <ele>1104.3</ele>
        <time>2019-04-11T16:53:45.000Z</time>
      </trkpt>
      <trkpt lat="-40.21709" lon="-71.364927">
        <ele>1104.5</ele>
        <time>2019-04-11T16:53:46.000Z</time>
      </trkpt>
      <trkpt lat="-40.217125" lon="-71.364909">
        <ele>1104.8</ele>
        <time>2019-04-11T16:53:47.000Z</time>
      </trkpt>
      <trkpt lat="-40.217149" lon="-71.364888">
        <ele>1105</ele>
        <time>2019-04-11T16:53:48.000Z</time>
      </trkpt>
      <trkpt lat="-40.217181" lon="-71.364868">
        <ele>1105.3</ele>
        <time>2019-04-11T16:53:49.000Z</time>
      </trkpt>
      <trkpt lat="-40.217214" lon="-71.364849">
        <ele>1105.6</ele>
        <time>2019-04-11T16:53:50.000Z</time>
      </trkpt>
      <trkpt lat="-40.217273" lon="-71.364813">
        <ele>1106.1</ele>
        <time>2019-04-11T16:53:52.000Z</time>
      </trkpt>
      <trkpt lat="-40.217299" lon="-71.364788">
        <ele>1106.3</ele>
        <time>2019-04-11T16:53:53.000Z</time>
      </trkpt>
      <trkpt lat="-40.217321" lon="-71.364758">
        <ele>1106.6</ele>
        <time>2019-04-11T16:53:54.000Z</time>
      </trkpt>
      <trkpt lat="-40.217351" lon="-71.364729">
        <ele>1106.9</ele>
        <time>2019-04-11T16:53:55.000Z</time>
      </trkpt>
      <trkpt lat="-40.217376" lon="-71.364701">
        <ele>1107.1</ele>
        <time>2019-04-11T16:53:56.000Z</time>
      </trkpt>
      <trkpt lat="-40.217395" lon="-71.364674">
        <ele>1107.4</ele>
        <time>2019-04-11T16:53:57.000Z</time>
      </trkpt>
      <trkpt lat="-40.217425" lon="-71.364647">
        <ele>1107.6</ele>
        <time>2019-04-11T16:53:58.000Z</time>
      </trkpt>
      <trkpt lat="-40.217454" lon="-71.364623">
        <ele>1107.9</ele>
        <time>2019-04-11T16:53:59.000Z</time>
      </trkpt>
      <trkpt lat="-40.21748" lon="-71.364594">
        <ele>1108.1</ele>
        <time>2019-04-11T16:54:00.000Z</time>
      </trkpt>
      <trkpt lat="-40.217504" lon="-71.364565">
        <ele>1108.3</ele>
        <time>2019-04-11T16:54:01.000Z</time>
      </trkpt>
      <trkpt lat="-40.217527" lon="-71.364535">
        <ele>1108.5</ele>
        <time>2019-04-11T16:54:02.000Z</time>
      </trkpt>
      <trkpt lat="-40.217568" lon="-71.364473">
        <ele>1108.9</ele>
        <time>2019-04-11T16:54:04.000Z</time>
      </trkpt>
      <trkpt lat="-40.217589" lon="-71.364443">
        <ele>1109</ele>
        <time>2019-04-11T16:54:05.000Z</time>
      </trkpt>
      <trkpt lat="-40.217611" lon="-71.364418">
        <ele>1109.2</ele>
        <time>2019-04-11T16:54:06.000Z</time>
      </trkpt>
      <trkpt lat="-40.217642" lon="-71.364381">
        <ele>1109.4</ele>
        <time>2019-04-11T16:54:07.000Z</time>
      </trkpt>
      <trkpt lat="-40.217665" lon="-71.364347">
        <ele>1109.6</ele>
        <time>2019-04-11T16:54:08.000Z</time>
      </trkpt>
      <trkpt lat="-40.217685" lon="-71.364314">
        <ele>1109.8</ele>
        <time>2019-04-11T16:54:09.000Z</time>
      </trkpt>
      <trkpt lat="-40.217713" lon="-71.364284">
        <ele>1110.1</ele>
        <time>2019-04-11T16:54:10.000Z</time>
      </trkpt>
      <trkpt lat="-40.217731" lon="-71.364248">
        <ele>1110.3</ele>
        <time>2019-04-11T16:54:11.000Z</time>
      </trkpt>
      <trkpt lat="-40.217759" lon="-71.364218">
        <ele>1110.5</ele>
        <time>2019-04-11T16:54:12.000Z</time>
      </trkpt>
      <trkpt lat="-40.217786" lon="-71.364184">
        <ele>1110.7</ele>
        <time>2019-04-11T16:54:13.000Z</time>
      </trkpt>
      <trkpt lat="-40.217807" lon="-71.364155">
        <ele>1110.9</ele>
        <time>2019-04-11T16:54:14.000Z</time>
      </trkpt>
      <trkpt lat="-40.217822" lon="-71.36412">
        <ele>1111.1</ele>
        <time>2019-04-11T16:54:15.000Z</time>
      </trkpt>
      <trkpt lat="-40.217844" lon="-71.364085">
        <ele>1111.3</ele>
        <time>2019-04-11T16:54:16.000Z</time>
      </trkpt>
      <trkpt lat="-40.21787" lon="-71.36406">
        <ele>1111.5</ele>
        <time>2019-04-11T16:54:17.000Z</time>
      </trkpt>
      <trkpt lat="-40.217894" lon="-71.364035">
        <ele>1111.7</ele>
        <time>2019-04-11T16:54:18.000Z</time>
      </trkpt>
      <trkpt lat="-40.217913" lon="-71.364002">
        <ele>1111.8</ele>
        <time>2019-04-11T16:54:19.000Z</time>
      </trkpt>
      <trkpt lat="-40.217936" lon="-71.363971">
        <ele>1112</ele>
        <time>2019-04-11T16:54:20.000Z</time>
      </trkpt>
      <trkpt lat="-40.217967" lon="-71.363941">
        <ele>1112.3</ele>
        <time>2019-04-11T16:54:21.000Z</time>
      </trkpt>
      <trkpt lat="-40.217998" lon="-71.363905">
        <ele>1112.5</ele>
        <time>2019-04-11T16:54:22.000Z</time>
      </trkpt>
      <trkpt lat="-40.218025" lon="-71.363875">
        <ele>1112.7</ele>
        <time>2019-04-11T16:54:23.000Z</time>
      </trkpt>
      <trkpt lat="-40.218052" lon="-71.363841">
        <ele>1112.9</ele>
        <time>2019-04-11T16:54:24.000Z</time>
      </trkpt>
      <trkpt lat="-40.218078" lon="-71.363827">
        <ele>1113.1</ele>
        <time>2019-04-11T16:54:25.000Z</time>
      </trkpt>
      <trkpt lat="-40.218121" lon="-71.363806">
        <ele>1113.4</ele>
        <time>2019-04-11T16:54:26.000Z</time>
      </trkpt>
      <trkpt lat="-40.218155" lon="-71.363788">
        <ele>1113.6</ele>
        <time>2019-04-11T16:54:27.000Z</time>
      </trkpt>
      <trkpt lat="-40.218189" lon="-71.363767">
        <ele>1113.8</ele>
        <time>2019-04-11T16:54:28.000Z</time>
      </trkpt>
      <trkpt lat="-40.218222" lon="-71.363746">
        <ele>1114</ele>
        <time>2019-04-11T16:54:29.000Z</time>
      </trkpt>
      <trkpt lat="-40.218262" lon="-71.363718">
        <ele>1114.3</ele>
        <time>2019-04-11T16:54:30.000Z</time>
      </trkpt>
      <trkpt lat="-40.218299" lon="-71.363693">
        <ele>1114.5</ele>
        <time>2019-04-11T16:54:31.000Z</time>
      </trkpt>
      <trkpt lat="-40.218334" lon="-71.363674">
        <ele>1114.7</ele>
        <time>2019-04-11T16:54:32.000Z</time>
      </trkpt>
      <trkpt lat="-40.218371" lon="-71.363664">
        <ele>1114.9</ele>
        <time>2019-04-11T16:54:33.000Z</time>
      </trkpt>
      <trkpt lat="-40.2184" lon="-71.363654">
        <ele>1115.1</ele>
        <time>2019-04-11T16:54:34.000Z</time>
      </trkpt>
      <trkpt lat="-40.21843" lon="-71.363643">
        <ele>1115.3</ele>
        <time>2019-04-11T16:54:35.000Z</time>
      </trkpt>
      <trkpt lat="-40.21846" lon="-71.363624">
        <ele>1115.4</ele>
        <time>2019-04-11T16:54:36.000Z</time>
      </trkpt>
      <trkpt lat="-40.218489" lon="-71.363617">
        <ele>1115.6</ele>
        <time>2019-04-11T16:54:37.000Z</time>
      </trkpt>
      <trkpt lat="-40.218522" lon="-71.363603">
        <ele>1115.8</ele>
        <time>2019-04-11T16:54:38.000Z</time>
      </trkpt>
      <trkpt lat="-40.218562" lon="-71.363601">
        <ele>1116</ele>
        <time>2019-04-11T16:54:39.000Z</time>
      </trkpt>
      <trkpt lat="-40.218599" lon="-71.363599">
        <ele>1116.2</ele>
        <time>2019-04-11T16:54:40.000Z</time>
      </trkpt>
      <trkpt lat="-40.218641" lon="-71.363586">
        <ele>1116.4</ele>
        <time>2019-04-11T16:54:41.000Z</time>
      </trkpt>
      <trkpt lat="-40.21868" lon="-71.363581">
        <ele>1116.6</ele>
        <time>2019-04-11T16:54:42.000Z</time>
      </trkpt>
      <trkpt lat="-40.218715" lon="-71.36358">
        <ele>1116.8</ele>
        <time>2019-04-11T16:54:43.000Z</time>
      </trkpt>
      <trkpt lat="-40.218749" lon="-71.36357">
        <ele>1116.9</ele>
        <time>2019-04-11T16:54:44.000Z</time>
      </trkpt>
      <trkpt lat="-40.218777" lon="-71.36357">
        <ele>1117.1</ele>
        <time>2019-04-11T16:54:45.000Z</time>
      </trkpt>
      <trkpt lat="-40.218812" lon="-71.363585">
        <ele>1117.3</ele>
        <time>2019-04-11T16:54:46.000Z</time>
      </trkpt>
      <trkpt lat="-40.218847" lon="-71.363588">
        <ele>1117.4</ele>
        <time>2019-04-11T16:54:47.000Z</time>
      </trkpt>
      <trkpt lat="-40.218874" lon="-71.363595">
        <ele>1117.5</ele>
        <time>2019-04-11T16:54:48.000Z</time>
      </trkpt>
      <trkpt lat="-40.218906" lon="-71.363604">
        <ele>1117.7</ele>
        <time>2019-04-11T16:54:49.000Z</time>
      </trkpt>
      <trkpt lat="-40.218939" lon="-71.3636">
        <ele>1117.8</ele>
        <time>2019-04-11T16:54:50.000Z</time>
      </trkpt>
      <trkpt lat="-40.218968" lon="-71.363611">
        <ele>1118</ele>
        <time>2019-04-11T16:54:51.000Z</time>
      </trkpt>
      <trkpt lat="-40.219008" lon="-71.363622">
        <ele>1118.2</ele>
        <time>2019-04-11T16:54:52.000Z</time>
      </trkpt>
      <trkpt lat="-40.219452" lon="-71.363607">
        <ele>1120</ele>
        <time>2019-04-11T17:17:44.000Z</time>
      </trkpt>
      <trkpt lat="-40.218962" lon="-71.363505">
        <ele>1117.9</ele>
        <time>2019-04-11T17:17:50.000Z</time>
      </trkpt>
      <trkpt lat="-40.218866" lon="-71.363489">
        <ele>1117.4</ele>
        <time>2019-04-11T17:17:51.000Z</time>
      </trkpt>
      <trkpt lat="-40.218668" lon="-71.363485">
        <ele>1116.5</ele>
        <time>2019-04-11T17:17:53.000Z</time>
      </trkpt>
      <trkpt lat="-40.218578" lon="-71.363493">
        <ele>1116</ele>
        <time>2019-04-11T17:17:54.000Z</time>
      </trkpt>
      <trkpt lat="-40.218472" lon="-71.363506">
        <ele>1115.4</ele>
        <time>2019-04-11T17:17:55.000Z</time>
      </trkpt>
      <trkpt lat="-40.218374" lon="-71.363535">
        <ele>1114.9</ele>
        <time>2019-04-11T17:17:56.000Z</time>
      </trkpt>
      <trkpt lat="-40.218278" lon="-71.363582">
        <ele>1114.3</ele>
        <time>2019-04-11T17:17:57.000Z</time>
      </trkpt>
      <trkpt lat="-40.218177" lon="-71.363634">
        <ele>1113.7</ele>
        <time>2019-04-11T17:17:58.000Z</time>
      </trkpt>
      <trkpt lat="-40.217985" lon="-71.363798">
        <ele>1112.3</ele>
        <time>2019-04-11T17:18:00.000Z</time>
      </trkpt>
      <trkpt lat="-40.217898" lon="-71.363885">
        <ele>1111.7</ele>
        <time>2019-04-11T17:18:01.000Z</time>
      </trkpt>
      <trkpt lat="-40.217486" lon="-71.364378">
        <ele>1108.4</ele>
        <time>2019-04-11T17:18:06.000Z</time>
      </trkpt>
      <trkpt lat="-40.217075" lon="-71.36482">
        <ele>1104.4</ele>
        <time>2019-04-11T17:18:11.000Z</time>
      </trkpt>
      <trkpt lat="-40.216791" lon="-71.364988">
        <ele>1102.4</ele>
        <time>2019-04-11T17:18:14.000Z</time>
      </trkpt>
      <trkpt lat="-40.216674" lon="-71.36502">
        <ele>1101.7</ele>
        <time>2019-04-11T17:18:15.000Z</time>
      </trkpt>
      <trkpt lat="-40.216563" lon="-71.365028">
        <ele>1101.1</ele>
        <time>2019-04-11T17:18:16.000Z</time>
      </trkpt>
      <trkpt lat="-40.216453" lon="-71.365033">
        <ele>1100.4</ele>
        <time>2019-04-11T17:18:17.000Z</time>
      </trkpt>
      <trkpt lat="-40.216345" lon="-71.365013">
        <ele>1099.8</ele>
        <time>2019-04-11T17:18:18.000Z</time>
      </trkpt>
      <trkpt lat="-40.216231" lon="-71.364988">
        <ele>1099.1</ele>
        <time>2019-04-11T17:18:19.000Z</time>
      </trkpt>
      <trkpt lat="-40.216122" lon="-71.364951">
        <ele>1098.4</ele>
        <time>2019-04-11T17:18:20.000Z</time>
      </trkpt>
      <trkpt lat="-40.216013" lon="-71.364886">
        <ele>1097.6</ele>
        <time>2019-04-11T17:18:21.000Z</time>
      </trkpt>
      <trkpt lat="-40.215915" lon="-71.364813">
        <ele>1097</ele>
        <time>2019-04-11T17:18:22.000Z</time>
      </trkpt>
      <trkpt lat="-40.215824" lon="-71.364731">
        <ele>1096.3</ele>
        <time>2019-04-11T17:18:23.000Z</time>
      </trkpt>
      <trkpt lat="-40.215569" lon="-71.364435">
        <ele>1094.4</ele>
        <time>2019-04-11T17:18:26.000Z</time>
      </trkpt>
      <trkpt lat="-40.215367" lon="-71.364039">
        <ele>1092.4</ele>
        <time>2019-04-11T17:18:29.000Z</time>
      </trkpt>
      <trkpt lat="-40.215315" lon="-71.363891">
        <ele>1091.6</ele>
        <time>2019-04-11T17:18:30.000Z</time>
      </trkpt>
      <trkpt lat="-40.215156" lon="-71.363163">
        <ele>1088.1</ele>
        <time>2019-04-11T17:18:35.000Z</time>
      </trkpt>
      <trkpt lat="-40.215086" lon="-71.362875">
        <ele>1086.8</ele>
        <time>2019-04-11T17:18:37.000Z</time>
      </trkpt>
      <trkpt lat="-40.215024" lon="-71.362737">
        <ele>1086.2</ele>
        <time>2019-04-11T17:18:38.000Z</time>
      </trkpt>
      <trkpt lat="-40.214824" lon="-71.362364">
        <ele>1084.2</ele>
        <time>2019-04-11T17:18:41.000Z</time>
      </trkpt>
      <trkpt lat="-40.214671" lon="-71.362156">
        <ele>1083</ele>
        <time>2019-04-11T17:18:43.000Z</time>
      </trkpt>
      <trkpt lat="-40.214498" lon="-71.361982">
        <ele>1081.9</ele>
        <time>2019-04-11T17:18:45.000Z</time>
      </trkpt>
      <trkpt lat="-40.214313" lon="-71.361855">
        <ele>1081.1</ele>
        <time>2019-04-11T17:18:47.000Z</time>
      </trkpt>
      <trkpt lat="-40.213785" lon="-71.3616">
        <ele>1079.3</ele>
        <time>2019-04-11T17:18:52.000Z</time>
      </trkpt>
      <trkpt lat="-40.213225" lon="-71.361306">
        <ele>1076.6</ele>
        <time>2019-04-11T17:18:57.000Z</time>
      </trkpt>
      <trkpt lat="-40.212667" lon="-71.360964">
        <ele>1073.6</ele>
        <time>2019-04-11T17:19:02.000Z</time>
      </trkpt>
      <trkpt lat="-40.212072" lon="-71.360616">
        <ele>1069.6</ele>
        <time>2019-04-11T17:19:07.000Z</time>
      </trkpt>
      <trkpt lat="-40.211461" lon="-71.36023">
        <ele>1065.8</ele>
        <time>2019-04-11T17:19:12.000Z</time>
      </trkpt>
      <trkpt lat="-40.211232" lon="-71.36003">
        <ele>1064.3</ele>
        <time>2019-04-11T17:19:14.000Z</time>
      </trkpt>
      <trkpt lat="-40.211124" lon="-71.359899">
        <ele>1063.5</ele>
        <time>2019-04-11T17:19:15.000Z</time>
      </trkpt>
      <trkpt lat="-40.211045" lon="-71.359743">
        <ele>1062.7</ele>
        <time>2019-04-11T17:19:16.000Z</time>
      </trkpt>
      <trkpt lat="-40.210766" lon="-71.358894">
        <ele>1059</ele>
        <time>2019-04-11T17:19:21.000Z</time>
      </trkpt>
      <trkpt lat="-40.210705" lon="-71.358717">
        <ele>1058.1</ele>
        <time>2019-04-11T17:19:22.000Z</time>
      </trkpt>
      <trkpt lat="-40.210625" lon="-71.358535">
        <ele>1057.1</ele>
        <time>2019-04-11T17:19:23.000Z</time>
      </trkpt>
      <trkpt lat="-40.210452" lon="-71.358201">
        <ele>1055.2</ele>
        <time>2019-04-11T17:19:25.000Z</time>
      </trkpt>
      <trkpt lat="-40.21035" lon="-71.35805">
        <ele>1054.2</ele>
        <time>2019-04-11T17:19:26.000Z</time>
      </trkpt>
      <trkpt lat="-40.210243" lon="-71.357918">
        <ele>1053.3</ele>
        <time>2019-04-11T17:19:27.000Z</time>
      </trkpt>
      <trkpt lat="-40.210111" lon="-71.3578">
        <ele>1052.3</ele>
        <time>2019-04-11T17:19:28.000Z</time>
      </trkpt>
      <trkpt lat="-40.209838" lon="-71.357591">
        <ele>1050.5</ele>
        <time>2019-04-11T17:19:30.000Z</time>
      </trkpt>
      <trkpt lat="-40.209696" lon="-71.357508">
        <ele>1049.7</ele>
        <time>2019-04-11T17:19:31.000Z</time>
      </trkpt>
      <trkpt lat="-40.209551" lon="-71.357452">
        <ele>1048.8</ele>
        <time>2019-04-11T17:19:32.000Z</time>
      </trkpt>
      <trkpt lat="-40.208805" lon="-71.357333">
        <ele>1044.3</ele>
        <time>2019-04-11T17:19:37.000Z</time>
      </trkpt>
      <trkpt lat="-40.208068" lon="-71.357273">
        <ele>1039.4</ele>
        <time>2019-04-11T17:19:42.000Z</time>
      </trkpt>
      <trkpt lat="-40.207349" lon="-71.357301">
        <ele>1035.1</ele>
        <time>2019-04-11T17:19:47.000Z</time>
      </trkpt>
      <trkpt lat="-40.206774" lon="-71.357316">
        <ele>1031.4</ele>
        <time>2019-04-11T17:19:51.000Z</time>
      </trkpt>
      <trkpt lat="-40.206637" lon="-71.357281">
        <ele>1030.5</ele>
        <time>2019-04-11T17:19:52.000Z</time>
      </trkpt>
      <trkpt lat="-40.206496" lon="-71.357238">
        <ele>1029.7</ele>
        <time>2019-04-11T17:19:53.000Z</time>
      </trkpt>
      <trkpt lat="-40.206372" lon="-71.357186">
        <ele>1028.9</ele>
        <time>2019-04-11T17:19:54.000Z</time>
      </trkpt>
      <trkpt lat="-40.206246" lon="-71.357092">
        <ele>1028</ele>
        <time>2019-04-11T17:19:55.000Z</time>
      </trkpt>
      <trkpt lat="-40.206131" lon="-71.356984">
        <ele>1027.2</ele>
        <time>2019-04-11T17:19:56.000Z</time>
      </trkpt>
      <trkpt lat="-40.206016" lon="-71.356865">
        <ele>1026.4</ele>
        <time>2019-04-11T17:19:57.000Z</time>
      </trkpt>
      <trkpt lat="-40.205575" lon="-71.356112">
        <ele>1022.1</ele>
        <time>2019-04-11T17:20:02.000Z</time>
      </trkpt>
      <trkpt lat="-40.205196" lon="-71.355511">
        <ele>1018.4</ele>
        <time>2019-04-11T17:20:06.000Z</time>
      </trkpt>
      <trkpt lat="-40.205075" lon="-71.355395">
        <ele>1017.5</ele>
        <time>2019-04-11T17:20:07.000Z</time>
      </trkpt>
      <trkpt lat="-40.204951" lon="-71.355283">
        <ele>1016.6</ele>
        <time>2019-04-11T17:20:08.000Z</time>
      </trkpt>
      <trkpt lat="-40.20482" lon="-71.35519">
        <ele>1015.7</ele>
        <time>2019-04-11T17:20:09.000Z</time>
      </trkpt>
      <trkpt lat="-40.204682" lon="-71.35512">
        <ele>1014.9</ele>
        <time>2019-04-11T17:20:10.000Z</time>
      </trkpt>
      <trkpt lat="-40.204412" lon="-71.355018">
        <ele>1013.3</ele>
        <time>2019-04-11T17:20:12.000Z</time>
      </trkpt>
      <trkpt lat="-40.204132" lon="-71.354967">
        <ele>1011.8</ele>
        <time>2019-04-11T17:20:14.000Z</time>
      </trkpt>
      <trkpt lat="-40.203993" lon="-71.35496">
        <ele>1011.2</ele>
        <time>2019-04-11T17:20:15.000Z</time>
      </trkpt>
      <trkpt lat="-40.203475" lon="-71.355042">
        <ele>1008.9</ele>
        <time>2019-04-11T17:20:19.000Z</time>
      </trkpt>
      <trkpt lat="-40.202997" lon="-71.355323">
        <ele>1007.2</ele>
        <time>2019-04-11T17:20:23.000Z</time>
      </trkpt>
      <trkpt lat="-40.202687" lon="-71.355634">
        <ele>1006.1</ele>
        <time>2019-04-11T17:20:26.000Z</time>
      </trkpt>
      <trkpt lat="-40.202511" lon="-71.355901">
        <ele>1005.2</ele>
        <time>2019-04-11T17:20:28.000Z</time>
      </trkpt>
      <trkpt lat="-40.202434" lon="-71.356046">
        <ele>1004.8</ele>
        <time>2019-04-11T17:20:29.000Z</time>
      </trkpt>
      <trkpt lat="-40.20215" lon="-71.356818">
        <ele>1002.2</ele>
        <time>2019-04-11T17:20:34.000Z</time>
      </trkpt>
      <trkpt lat="-40.2018" lon="-71.358208">
        <ele>997.3</ele>
        <time>2019-04-11T17:20:43.000Z</time>
      </trkpt>
      <trkpt lat="-40.201737" lon="-71.358525">
        <ele>995.7</ele>
        <time>2019-04-11T17:20:45.000Z</time>
      </trkpt>
      <trkpt lat="-40.201621" lon="-71.3586">
        <ele>994.8</ele>
        <time>2019-04-11T17:20:46.000Z</time>
      </trkpt>
      <trkpt lat="-40.201444" lon="-71.35885">
        <ele>993.1</ele>
        <time>2019-04-11T17:20:48.000Z</time>
      </trkpt>
      <trkpt lat="-40.201013" lon="-71.359173">
        <ele>989.5</ele>
        <time>2019-04-11T17:20:52.000Z</time>
      </trkpt>
      <trkpt lat="-40.200773" lon="-71.359261">
        <ele>987.6</ele>
        <time>2019-04-11T17:20:54.000Z</time>
      </trkpt>
      <trkpt lat="-40.200174" lon="-71.359354">
        <ele>984.2</ele>
        <time>2019-04-11T17:20:59.000Z</time>
      </trkpt>
      <trkpt lat="-40.200059" lon="-71.359389">
        <ele>983.6</ele>
        <time>2019-04-11T17:21:00.000Z</time>
      </trkpt>
      <trkpt lat="-40.199724" lon="-71.359584">
        <ele>981.4</ele>
        <time>2019-04-11T17:21:03.000Z</time>
      </trkpt>
      <trkpt lat="-40.199597" lon="-71.359677">
        <ele>980.6</ele>
        <time>2019-04-11T17:21:04.000Z</time>
      </trkpt>
      <trkpt lat="-40.199189" lon="-71.360035">
        <ele>977.9</ele>
        <time>2019-04-11T17:21:08.000Z</time>
      </trkpt>
      <trkpt lat="-40.198842" lon="-71.360214">
        <ele>975.8</ele>
        <time>2019-04-11T17:21:11.000Z</time>
      </trkpt>
      <trkpt lat="-40.1985" lon="-71.360159">
        <ele>974.4</ele>
        <time>2019-04-11T17:21:14.000Z</time>
      </trkpt>
      <trkpt lat="-40.198299" lon="-71.360076">
        <ele>973.7</ele>
        <time>2019-04-11T17:21:16.000Z</time>
      </trkpt>
      <trkpt lat="-40.197919" lon="-71.359669">
        <ele>973.2</ele>
        <time>2019-04-11T17:21:21.000Z</time>
      </trkpt>
      <trkpt lat="-40.19753" lon="-71.359272">
        <ele>973</ele>
        <time>2019-04-11T17:21:26.000Z</time>
      </trkpt>
      <trkpt lat="-40.197212" lon="-71.358951">
        <ele>972.4</ele>
        <time>2019-04-11T17:21:30.000Z</time>
      </trkpt>
      <trkpt lat="-40.196891" lon="-71.358518">
        <ele>970.7</ele>
        <time>2019-04-11T17:21:34.000Z</time>
      </trkpt>
      <trkpt lat="-40.196596" lon="-71.357845">
        <ele>968.4</ele>
        <time>2019-04-11T17:21:39.000Z</time>
      </trkpt>
      <trkpt lat="-40.196303" lon="-71.357125">
        <ele>965.2</ele>
        <time>2019-04-11T17:21:44.000Z</time>
      </trkpt>
      <trkpt lat="-40.196223" lon="-71.357002">
        <ele>964.2</ele>
        <time>2019-04-11T17:21:45.000Z</time>
      </trkpt>
      <trkpt lat="-40.195973" lon="-71.35672">
        <ele>961.6</ele>
        <time>2019-04-11T17:21:48.000Z</time>
      </trkpt>
      <trkpt lat="-40.19587" lon="-71.356649">
        <ele>960.7</ele>
        <time>2019-04-11T17:21:49.000Z</time>
      </trkpt>
      <trkpt lat="-40.195774" lon="-71.356601">
        <ele>960.1</ele>
        <time>2019-04-11T17:21:50.000Z</time>
      </trkpt>
      <trkpt lat="-40.195664" lon="-71.356567">
        <ele>959.6</ele>
        <time>2019-04-11T17:21:51.000Z</time>
      </trkpt>
      <trkpt lat="-40.195443" lon="-71.356536">
        <ele>958.4</ele>
        <time>2019-04-11T17:21:53.000Z</time>
      </trkpt>
      <trkpt lat="-40.195331" lon="-71.35653">
        <ele>958</ele>
        <time>2019-04-11T17:21:54.000Z</time>
      </trkpt>
      <trkpt lat="-40.195216" lon="-71.356561">
        <ele>957.4</ele>
        <time>2019-04-11T17:21:55.000Z</time>
      </trkpt>
      <trkpt lat="-40.195109" lon="-71.356603">
        <ele>957.1</ele>
        <time>2019-04-11T17:21:56.000Z</time>
      </trkpt>
      <trkpt lat="-40.19481" lon="-71.356826">
        <ele>956</ele>
        <time>2019-04-11T17:21:59.000Z</time>
      </trkpt>
      <trkpt lat="-40.194466" lon="-71.35729">
        <ele>955.3</ele>
        <time>2019-04-11T17:22:03.000Z</time>
      </trkpt>
      <trkpt lat="-40.194312" lon="-71.357959">
        <ele>954.5</ele>
        <time>2019-04-11T17:22:08.000Z</time>
      </trkpt>
      <trkpt lat="-40.194315" lon="-71.358098">
        <ele>954.3</ele>
        <time>2019-04-11T17:22:09.000Z</time>
      </trkpt>
      <trkpt lat="-40.194344" lon="-71.35863">
        <ele>953.3</ele>
        <time>2019-04-11T17:22:13.000Z</time>
      </trkpt>
      <trkpt lat="-40.194377" lon="-71.358787">
        <ele>953</ele>
        <time>2019-04-11T17:22:14.000Z</time>
      </trkpt>
      <trkpt lat="-40.19455" lon="-71.359432">
        <ele>951.6</ele>
        <time>2019-04-11T17:22:19.000Z</time>
      </trkpt>
      <trkpt lat="-40.194701" lon="-71.360084">
        <ele>950.2</ele>
        <time>2019-04-11T17:22:24.000Z</time>
      </trkpt>
      <trkpt lat="-40.19473" lon="-71.360189">
        <ele>950</ele>
        <time>2019-04-11T17:22:25.000Z</time>
      </trkpt>
      <trkpt lat="-40.194947" lon="-71.360754">
        <ele>948.7</ele>
        <time>2019-04-11T17:22:30.000Z</time>
      </trkpt>
      <trkpt lat="-40.195301" lon="-71.36124">
        <ele>947.6</ele>
        <time>2019-04-11T17:22:35.000Z</time>
      </trkpt>
      <trkpt lat="-40.195355" lon="-71.361343">
        <ele>947.4</ele>
        <time>2019-04-11T17:22:36.000Z</time>
      </trkpt>
      <trkpt lat="-40.195808" lon="-71.361638">
        <ele>946.3</ele>
        <time>2019-04-11T17:22:41.000Z</time>
      </trkpt>
      <trkpt lat="-40.196201" lon="-71.361963">
        <ele>945.2</ele>
        <time>2019-04-11T17:22:46.000Z</time>
      </trkpt>
      <trkpt lat="-40.196403" lon="-71.362111">
        <ele>944.8</ele>
        <time>2019-04-11T17:22:48.000Z</time>
      </trkpt>
      <trkpt lat="-40.196687" lon="-71.362424">
        <ele>943.8</ele>
        <time>2019-04-11T17:22:52.000Z</time>
      </trkpt>
      <trkpt lat="-40.196742" lon="-71.362517">
        <ele>943.5</ele>
        <time>2019-04-11T17:22:53.000Z</time>
      </trkpt>
      <trkpt lat="-40.197045" lon="-71.363076">
        <ele>941.4</ele>
        <time>2019-04-11T17:22:58.000Z</time>
      </trkpt>
      <trkpt lat="-40.197327" lon="-71.363636">
        <ele>939.2</ele>
        <time>2019-04-11T17:23:03.000Z</time>
      </trkpt>
      <trkpt lat="-40.197454" lon="-71.363877">
        <ele>938.4</ele>
        <time>2019-04-11T17:23:05.000Z</time>
      </trkpt>
      <trkpt lat="-40.197485" lon="-71.364002">
        <ele>937.9</ele>
        <time>2019-04-11T17:23:06.000Z</time>
      </trkpt>
      <trkpt lat="-40.197684" lon="-71.364413">
        <ele>936.6</ele>
        <time>2019-04-11T17:23:10.000Z</time>
      </trkpt>
      <trkpt lat="-40.197767" lon="-71.3645">
        <ele>936.2</ele>
        <time>2019-04-11T17:23:11.000Z</time>
      </trkpt>
      <trkpt lat="-40.198011" lon="-71.364878">
        <ele>935.3</ele>
        <time>2019-04-11T17:23:15.000Z</time>
      </trkpt>
      <trkpt lat="-40.198054" lon="-71.365">
        <ele>935</ele>
        <time>2019-04-11T17:23:16.000Z</time>
      </trkpt>
      <trkpt lat="-40.198277" lon="-71.365368">
        <ele>934.4</ele>
        <time>2019-04-11T17:23:20.000Z</time>
      </trkpt>
      <trkpt lat="-40.198596" lon="-71.365562">
        <ele>934.1</ele>
        <time>2019-04-11T17:23:24.000Z</time>
      </trkpt>
      <trkpt lat="-40.198863" lon="-71.365661">
        <ele>934.3</ele>
        <time>2019-04-11T17:23:27.000Z</time>
      </trkpt>
      <trkpt lat="-40.19926" lon="-71.36567">
        <ele>934.7</ele>
        <time>2019-04-11T17:23:31.000Z</time>
      </trkpt>
      <trkpt lat="-40.199833" lon="-71.365551">
        <ele>934.4</ele>
        <time>2019-04-11T17:23:37.000Z</time>
      </trkpt>
      <trkpt lat="-40.200314" lon="-71.36558">
        <ele>933.1</ele>
        <time>2019-04-11T17:23:41.000Z</time>
      </trkpt>
      <trkpt lat="-40.200429" lon="-71.365616">
        <ele>932.7</ele>
        <time>2019-04-11T17:23:42.000Z</time>
      </trkpt>
      <trkpt lat="-40.20054" lon="-71.365667">
        <ele>932.3</ele>
        <time>2019-04-11T17:23:43.000Z</time>
      </trkpt>
      <trkpt lat="-40.200661" lon="-71.365729">
        <ele>931.7</ele>
        <time>2019-04-11T17:23:44.000Z</time>
      </trkpt>
      <trkpt lat="-40.200767" lon="-71.365804">
        <ele>931.1</ele>
        <time>2019-04-11T17:23:45.000Z</time>
      </trkpt>
      <trkpt lat="-40.201256" lon="-71.366298">
        <ele>927.4</ele>
        <time>2019-04-11T17:23:50.000Z</time>
      </trkpt>
      <trkpt lat="-40.201576" lon="-71.36672">
        <ele>925.3</ele>
        <time>2019-04-11T17:23:54.000Z</time>
      </trkpt>
      <trkpt lat="-40.201635" lon="-71.366848">
        <ele>924.9</ele>
        <time>2019-04-11T17:23:55.000Z</time>
      </trkpt>
      <trkpt lat="-40.201689" lon="-71.366982">
        <ele>924.5</ele>
        <time>2019-04-11T17:23:56.000Z</time>
      </trkpt>
      <trkpt lat="-40.20171" lon="-71.36711">
        <ele>924.2</ele>
        <time>2019-04-11T17:23:57.000Z</time>
      </trkpt>
      <trkpt lat="-40.201697" lon="-71.367245">
        <ele>923.8</ele>
        <time>2019-04-11T17:23:58.000Z</time>
      </trkpt>
      <trkpt lat="-40.201628" lon="-71.367542">
        <ele>922.8</ele>
        <time>2019-04-11T17:24:00.000Z</time>
      </trkpt>
      <trkpt lat="-40.2015" lon="-71.367771">
        <ele>921.8</ele>
        <time>2019-04-11T17:24:02.000Z</time>
      </trkpt>
      <trkpt lat="-40.201029" lon="-71.368271">
        <ele>918.7</ele>
        <time>2019-04-11T17:24:07.000Z</time>
      </trkpt>
      <trkpt lat="-40.200666" lon="-71.368732">
        <ele>916.1</ele>
        <time>2019-04-11T17:24:11.000Z</time>
      </trkpt>
      <trkpt lat="-40.200398" lon="-71.369258">
        <ele>913.8</ele>
        <time>2019-04-11T17:24:15.000Z</time>
      </trkpt>
      <trkpt lat="-40.200209" lon="-71.369482">
        <ele>912.5</ele>
        <time>2019-04-11T17:24:17.000Z</time>
      </trkpt>
      <trkpt lat="-40.199772" lon="-71.369827">
        <ele>909.5</ele>
        <time>2019-04-11T17:24:21.000Z</time>
      </trkpt>
      <trkpt lat="-40.199653" lon="-71.369934">
        <ele>908.5</ele>
        <time>2019-04-11T17:24:22.000Z</time>
      </trkpt>
      <trkpt lat="-40.199562" lon="-71.370053">
        <ele>907.6</ele>
        <time>2019-04-11T17:24:23.000Z</time>
      </trkpt>
      <trkpt lat="-40.199338" lon="-71.370408">
        <ele>905.3</ele>
        <time>2019-04-11T17:24:26.000Z</time>
      </trkpt>
      <trkpt lat="-40.199182" lon="-71.370884">
        <ele>902.7</ele>
        <time>2019-04-11T17:24:29.000Z</time>
      </trkpt>
      <trkpt lat="-40.199094" lon="-71.37104">
        <ele>901.7</ele>
        <time>2019-04-11T17:24:30.000Z</time>
      </trkpt>
      <trkpt lat="-40.199018" lon="-71.371155">
        <ele>900.8</ele>
        <time>2019-04-11T17:24:31.000Z</time>
      </trkpt>
      <trkpt lat="-40.198931" lon="-71.371272">
        <ele>899.9</ele>
        <time>2019-04-11T17:24:32.000Z</time>
      </trkpt>
      <trkpt lat="-40.198391" lon="-71.371648">
        <ele>896.2</ele>
        <time>2019-04-11T17:24:37.000Z</time>
      </trkpt>
      <trkpt lat="-40.197854" lon="-71.37201">
        <ele>893.1</ele>
        <time>2019-04-11T17:24:42.000Z</time>
      </trkpt>
      <trkpt lat="-40.197196" lon="-71.372363">
        <ele>889.7</ele>
        <time>2019-04-11T17:24:48.000Z</time>
      </trkpt>
      <trkpt lat="-40.196875" lon="-71.37256">
        <ele>887.9</ele>
        <time>2019-04-11T17:24:51.000Z</time>
      </trkpt>
      <trkpt lat="-40.196777" lon="-71.372658">
        <ele>887.4</ele>
        <time>2019-04-11T17:24:52.000Z</time>
      </trkpt>
      <trkpt lat="-40.196597" lon="-71.372879">
        <ele>886.3</ele>
        <time>2019-04-11T17:24:54.000Z</time>
      </trkpt>
      <trkpt lat="-40.196522" lon="-71.372993">
        <ele>885.8</ele>
        <time>2019-04-11T17:24:55.000Z</time>
      </trkpt>
      <trkpt lat="-40.196216" lon="-71.373543">
        <ele>883.6</ele>
        <time>2019-04-11T17:25:00.000Z</time>
      </trkpt>
      <trkpt lat="-40.196002" lon="-71.373821">
        <ele>882.4</ele>
        <time>2019-04-11T17:25:03.000Z</time>
      </trkpt>
      <trkpt lat="-40.195915" lon="-71.37389">
        <ele>882</ele>
        <time>2019-04-11T17:25:04.000Z</time>
      </trkpt>
      <trkpt lat="-40.195828" lon="-71.37395">
        <ele>881.6</ele>
        <time>2019-04-11T17:25:05.000Z</time>
      </trkpt>
      <trkpt lat="-40.195739" lon="-71.373997">
        <ele>881.4</ele>
        <time>2019-04-11T17:25:06.000Z</time>
      </trkpt>
      <trkpt lat="-40.195647" lon="-71.374033">
        <ele>881.1</ele>
        <time>2019-04-11T17:25:07.000Z</time>
      </trkpt>
      <trkpt lat="-40.195093" lon="-71.374081">
        <ele>879.4</ele>
        <time>2019-04-11T17:25:12.000Z</time>
      </trkpt>
      <trkpt lat="-40.194534" lon="-71.374084">
        <ele>877.3</ele>
        <time>2019-04-11T17:25:17.000Z</time>
      </trkpt>
      <trkpt lat="-40.193977" lon="-71.374118">
        <ele>874.3</ele>
        <time>2019-04-11T17:25:22.000Z</time>
      </trkpt>
      <trkpt lat="-40.19353" lon="-71.374157">
        <ele>871.9</ele>
        <time>2019-04-11T17:25:26.000Z</time>
      </trkpt>
      <trkpt lat="-40.193411" lon="-71.374202">
        <ele>871.2</ele>
        <time>2019-04-11T17:25:27.000Z</time>
      </trkpt>
      <trkpt lat="-40.19331" lon="-71.374252">
        <ele>870.7</ele>
        <time>2019-04-11T17:25:28.000Z</time>
      </trkpt>
      <trkpt lat="-40.193207" lon="-71.374323">
        <ele>870.1</ele>
        <time>2019-04-11T17:25:29.000Z</time>
      </trkpt>
      <trkpt lat="-40.193094" lon="-71.374405">
        <ele>869.2</ele>
        <time>2019-04-11T17:25:30.000Z</time>
      </trkpt>
      <trkpt lat="-40.193003" lon="-71.3745">
        <ele>868.5</ele>
        <time>2019-04-11T17:25:31.000Z</time>
      </trkpt>
      <trkpt lat="-40.192903" lon="-71.374614">
        <ele>867.6</ele>
        <time>2019-04-11T17:25:32.000Z</time>
      </trkpt>
      <trkpt lat="-40.192822" lon="-71.374723">
        <ele>866.6</ele>
        <time>2019-04-11T17:25:33.000Z</time>
      </trkpt>
      <trkpt lat="-40.192488" lon="-71.375366">
        <ele>863.4</ele>
        <time>2019-04-11T17:25:38.000Z</time>
      </trkpt>
      <trkpt lat="-40.19223" lon="-71.375932">
        <ele>861</ele>
        <time>2019-04-11T17:25:42.000Z</time>
      </trkpt>
      <trkpt lat="-40.191956" lon="-71.376502">
        <ele>859.1</ele>
        <time>2019-04-11T17:25:46.000Z</time>
      </trkpt>
      <trkpt lat="-40.191635" lon="-71.377207">
        <ele>857.2</ele>
        <time>2019-04-11T17:25:51.000Z</time>
      </trkpt>
      <trkpt lat="-40.19127" lon="-71.377842">
        <ele>854.3</ele>
        <time>2019-04-11T17:25:56.000Z</time>
      </trkpt>
      <trkpt lat="-40.19103" lon="-71.378221">
        <ele>852.3</ele>
        <time>2019-04-11T17:25:59.000Z</time>
      </trkpt>
      <trkpt lat="-40.190602" lon="-71.378709">
        <ele>849.8</ele>
        <time>2019-04-11T17:26:04.000Z</time>
      </trkpt>
      <trkpt lat="-40.190506" lon="-71.378789">
        <ele>849.3</ele>
        <time>2019-04-11T17:26:05.000Z</time>
      </trkpt>
      <trkpt lat="-40.190199" lon="-71.379214">
        <ele>847.1</ele>
        <time>2019-04-11T17:26:09.000Z</time>
      </trkpt>
      <trkpt lat="-40.189873" lon="-71.379858">
        <ele>844.5</ele>
        <time>2019-04-11T17:26:14.000Z</time>
      </trkpt>
      <trkpt lat="-40.189528" lon="-71.380497">
        <ele>841.4</ele>
        <time>2019-04-11T17:26:19.000Z</time>
      </trkpt>
      <trkpt lat="-40.189163" lon="-71.381092">
        <ele>837.9</ele>
        <time>2019-04-11T17:26:24.000Z</time>
      </trkpt>
      <trkpt lat="-40.188708" lon="-71.381691">
        <ele>833.8</ele>
        <time>2019-04-11T17:26:30.000Z</time>
      </trkpt>
      <trkpt lat="-40.188358" lon="-71.382172">
        <ele>831.7</ele>
        <time>2019-04-11T17:26:35.000Z</time>
      </trkpt>
      <trkpt lat="-40.188079" lon="-71.382462">
        <ele>830.7</ele>
        <time>2019-04-11T17:26:39.000Z</time>
      </trkpt>
      <trkpt lat="-40.18775" lon="-71.382725">
        <ele>829.8</ele>
        <time>2019-04-11T17:26:43.000Z</time>
      </trkpt>
      <trkpt lat="-40.187333" lon="-71.382806">
        <ele>827.8</ele>
        <time>2019-04-11T17:26:47.000Z</time>
      </trkpt>
      <trkpt lat="-40.186774" lon="-71.382909">
        <ele>824.7</ele>
        <time>2019-04-11T17:26:53.000Z</time>
      </trkpt>
      <trkpt lat="-40.186666" lon="-71.382925">
        <ele>824.2</ele>
        <time>2019-04-11T17:26:54.000Z</time>
      </trkpt>
      <trkpt lat="-40.186135" lon="-71.383167">
        <ele>821.6</ele>
        <time>2019-04-11T17:26:59.000Z</time>
      </trkpt>
      <trkpt lat="-40.185716" lon="-71.383364">
        <ele>819.3</ele>
        <time>2019-04-11T17:27:03.000Z</time>
      </trkpt>
      <trkpt lat="-40.185173" lon="-71.38351">
        <ele>816.4</ele>
        <time>2019-04-11T17:27:08.000Z</time>
      </trkpt>
      <trkpt lat="-40.184666" lon="-71.383627">
        <ele>813.3</ele>
        <time>2019-04-11T17:27:13.000Z</time>
      </trkpt>
      <trkpt lat="-40.184561" lon="-71.383627">
        <ele>812.7</ele>
        <time>2019-04-11T17:27:14.000Z</time>
      </trkpt>
      <trkpt lat="-40.184452" lon="-71.38368">
        <ele>811.9</ele>
        <time>2019-04-11T17:27:15.000Z</time>
      </trkpt>
      <trkpt lat="-40.183992" lon="-71.383727">
        <ele>809.1</ele>
        <time>2019-04-11T17:27:18.000Z</time>
      </trkpt>
      <trkpt lat="-40.183872" lon="-71.383788">
        <ele>808.3</ele>
        <time>2019-04-11T17:27:19.000Z</time>
      </trkpt>
      <trkpt lat="-40.183573" lon="-71.38382">
        <ele>806.4</ele>
        <time>2019-04-11T17:27:22.000Z</time>
      </trkpt>
      <trkpt lat="-40.183472" lon="-71.383863">
        <ele>805.5</ele>
        <time>2019-04-11T17:27:23.000Z</time>
      </trkpt>
      <trkpt lat="-40.183229" lon="-71.383915">
        <ele>803.7</ele>
        <time>2019-04-11T17:27:25.000Z</time>
      </trkpt>
      <trkpt lat="-40.182975" lon="-71.38403">
        <ele>802</ele>
        <time>2019-04-11T17:27:27.000Z</time>
      </trkpt>
      <trkpt lat="-40.182865" lon="-71.384091">
        <ele>801.4</ele>
        <time>2019-04-11T17:27:28.000Z</time>
      </trkpt>
      <trkpt lat="-40.182749" lon="-71.384184">
        <ele>800.7</ele>
        <time>2019-04-11T17:27:29.000Z</time>
      </trkpt>
      <trkpt lat="-40.182439" lon="-71.384525">
        <ele>797.8</ele>
        <time>2019-04-11T17:27:32.000Z</time>
      </trkpt>
      <trkpt lat="-40.18233" lon="-71.384662">
        <ele>796.5</ele>
        <time>2019-04-11T17:27:33.000Z</time>
      </trkpt>
      <trkpt lat="-40.182248" lon="-71.384789">
        <ele>795.6</ele>
        <time>2019-04-11T17:27:34.000Z</time>
      </trkpt>
      <trkpt lat="-40.182035" lon="-71.385249">
        <ele>793</ele>
        <time>2019-04-11T17:27:37.000Z</time>
      </trkpt>
      <trkpt lat="-40.181882" lon="-71.386124">
        <ele>789.7</ele>
        <time>2019-04-11T17:27:42.000Z</time>
      </trkpt>
      <trkpt lat="-40.181785" lon="-71.387717">
        <ele>784.1</ele>
        <time>2019-04-11T17:27:51.000Z</time>
      </trkpt>
      <trkpt lat="-40.18161" lon="-71.389024">
        <ele>776.9</ele>
        <time>2019-04-11T17:28:00.000Z</time>
      </trkpt>
      <trkpt lat="-40.181535" lon="-71.389621">
        <ele>775.6</ele>
        <time>2019-04-11T17:28:04.000Z</time>
      </trkpt>
      <trkpt lat="-40.181424" lon="-71.390067">
        <ele>774.5</ele>
        <time>2019-04-11T17:28:07.000Z</time>
      </trkpt>
      <trkpt lat="-40.181327" lon="-71.390873">
        <ele>771.1</ele>
        <time>2019-04-11T17:28:12.000Z</time>
      </trkpt>
      <trkpt lat="-40.181235" lon="-71.39149">
        <ele>768.3</ele>
        <time>2019-04-11T17:28:16.000Z</time>
      </trkpt>
      <trkpt lat="-40.181229" lon="-71.391658">
        <ele>767.5</ele>
        <time>2019-04-11T17:28:17.000Z</time>
      </trkpt>
      <trkpt lat="-40.181444" lon="-71.392268">
        <ele>764.6</ele>
        <time>2019-04-11T17:28:21.000Z</time>
      </trkpt>
      <trkpt lat="-40.181742" lon="-71.393016">
        <ele>761.5</ele>
        <time>2019-04-11T17:28:26.000Z</time>
      </trkpt>
      <trkpt lat="-40.181799" lon="-71.393177">
        <ele>761</ele>
        <time>2019-04-11T17:28:27.000Z</time>
      </trkpt>
      <trkpt lat="-40.181835" lon="-71.39335">
        <ele>760.5</ele>
        <time>2019-04-11T17:28:28.000Z</time>
      </trkpt>
      <trkpt lat="-40.181858" lon="-71.393514">
        <ele>759.9</ele>
        <time>2019-04-11T17:28:29.000Z</time>
      </trkpt>
      <trkpt lat="-40.181869" lon="-71.393684">
        <ele>759</ele>
        <time>2019-04-11T17:28:30.000Z</time>
      </trkpt>
      <trkpt lat="-40.181827" lon="-71.394542">
        <ele>753.3</ele>
        <time>2019-04-11T17:28:35.000Z</time>
      </trkpt>
      <trkpt lat="-40.181747" lon="-71.394854">
        <ele>752.7</ele>
        <time>2019-04-11T17:28:37.000Z</time>
      </trkpt>
      <trkpt lat="-40.181672" lon="-71.394978">
        <ele>752.4</ele>
        <time>2019-04-11T17:28:38.000Z</time>
      </trkpt>
      <trkpt lat="-40.181571" lon="-71.395104">
        <ele>751.7</ele>
        <time>2019-04-11T17:28:39.000Z</time>
      </trkpt>
      <trkpt lat="-40.181273" lon="-71.395346">
        <ele>750.5</ele>
        <time>2019-04-11T17:28:42.000Z</time>
      </trkpt>
      <trkpt lat="-40.181047" lon="-71.395386">
        <ele>749.5</ele>
        <time>2019-04-11T17:28:44.000Z</time>
      </trkpt>
      <trkpt lat="-40.180916" lon="-71.395369">
        <ele>749</ele>
        <time>2019-04-11T17:28:45.000Z</time>
      </trkpt>
      <trkpt lat="-40.180299" lon="-71.395232">
        <ele>746.5</ele>
        <time>2019-04-11T17:28:50.000Z</time>
      </trkpt>
      <trkpt lat="-40.180164" lon="-71.395233">
        <ele>746</ele>
        <time>2019-04-11T17:28:51.000Z</time>
      </trkpt>
      <trkpt lat="-40.180039" lon="-71.395265">
        <ele>745.6</ele>
        <time>2019-04-11T17:28:52.000Z</time>
      </trkpt>
      <trkpt lat="-40.179801" lon="-71.395367">
        <ele>744.8</ele>
        <time>2019-04-11T17:28:54.000Z</time>
      </trkpt>
      <trkpt lat="-40.179482" lon="-71.395589">
        <ele>743.6</ele>
        <time>2019-04-11T17:28:57.000Z</time>
      </trkpt>
      <trkpt lat="-40.179361" lon="-71.39563">
        <ele>743.2</ele>
        <time>2019-04-11T17:28:58.000Z</time>
      </trkpt>
      <trkpt lat="-40.179273" lon="-71.395654">
        <ele>742.9</ele>
        <time>2019-04-11T17:28:59.000Z</time>
      </trkpt>
      <trkpt lat="-40.179041" lon="-71.395662">
        <ele>742.2</ele>
        <time>2019-04-11T17:29:01.000Z</time>
      </trkpt>
      <trkpt lat="-40.178429" lon="-71.395593">
        <ele>740.4</ele>
        <time>2019-04-11T17:29:06.000Z</time>
      </trkpt>
      <trkpt lat="-40.177681" lon="-71.395674">
        <ele>737.8</ele>
        <time>2019-04-11T17:29:12.000Z</time>
      </trkpt>
      <trkpt lat="-40.177013" lon="-71.395797">
        <ele>735</ele>
        <time>2019-04-11T17:29:17.000Z</time>
      </trkpt>
      <trkpt lat="-40.176596" lon="-71.395788">
        <ele>733.4</ele>
        <time>2019-04-11T17:29:20.000Z</time>
      </trkpt>
      <trkpt lat="-40.176447" lon="-71.395753">
        <ele>732.8</ele>
        <time>2019-04-11T17:29:21.000Z</time>
      </trkpt>
      <trkpt lat="-40.175759" lon="-71.395361">
        <ele>725.8</ele>
        <time>2019-04-11T17:29:26.000Z</time>
      </trkpt>
      <trkpt lat="-40.175072" lon="-71.394912">
        <ele>727.9</ele>
        <time>2019-04-11T17:29:31.000Z</time>
      </trkpt>
      <trkpt lat="-40.174935" lon="-71.394812">
        <ele>726.8</ele>
        <time>2019-04-11T17:29:32.000Z</time>
      </trkpt>
      <trkpt lat="-40.17484" lon="-71.394664">
        <ele>725.8</ele>
        <time>2019-04-11T17:29:33.000Z</time>
      </trkpt>
      <trkpt lat="-40.17475" lon="-71.394509">
        <ele>724.8</ele>
        <time>2019-04-11T17:29:34.000Z</time>
      </trkpt>
      <trkpt lat="-40.174662" lon="-71.39435">
        <ele>723.7</ele>
        <time>2019-04-11T17:29:35.000Z</time>
      </trkpt>
      <trkpt lat="-40.174594" lon="-71.394155">
        <ele>722.6</ele>
        <time>2019-04-11T17:29:36.000Z</time>
      </trkpt>
      <trkpt lat="-40.174556" lon="-71.393968">
        <ele>721.7</ele>
        <time>2019-04-11T17:29:37.000Z</time>
      </trkpt>
      <trkpt lat="-40.174536" lon="-71.393763">
        <ele>720.8</ele>
        <time>2019-04-11T17:29:38.000Z</time>
      </trkpt>
      <trkpt lat="-40.174664" lon="-71.392747">
        <ele>715.9</ele>
        <time>2019-04-11T17:29:43.000Z</time>
      </trkpt>
      <trkpt lat="-40.174885" lon="-71.391857">
        <ele>711.9</ele>
        <time>2019-04-11T17:29:48.000Z</time>
      </trkpt>
      <trkpt lat="-40.175103" lon="-71.391324">
        <ele>710.4</ele>
        <time>2019-04-11T17:29:52.000Z</time>
      </trkpt>
      <trkpt lat="-40.175708" lon="-71.390368">
        <ele>711.1</ele>
        <time>2019-04-11T17:30:02.000Z</time>
      </trkpt>
      <trkpt lat="-40.175868" lon="-71.389947">
        <ele>711.6</ele>
        <time>2019-04-11T17:30:06.000Z</time>
      </trkpt>
      <trkpt lat="-40.176006" lon="-71.389376">
        <ele>711.6</ele>
        <time>2019-04-11T17:30:11.000Z</time>
      </trkpt>
      <trkpt lat="-40.176145" lon="-71.388844">
        <ele>710.8</ele>
        <time>2019-04-11T17:30:15.000Z</time>
      </trkpt>
      <trkpt lat="-40.17624" lon="-71.388596">
        <ele>710</ele>
        <time>2019-04-11T17:30:17.000Z</time>
      </trkpt>
      <trkpt lat="-40.176592" lon="-71.387974">
        <ele>707.6</ele>
        <time>2019-04-11T17:30:22.000Z</time>
      </trkpt>
      <trkpt lat="-40.176761" lon="-71.387471">
        <ele>706.6</ele>
        <time>2019-04-11T17:30:26.000Z</time>
      </trkpt>
      <trkpt lat="-40.176943" lon="-71.386875">
        <ele>705.6</ele>
        <time>2019-04-11T17:30:31.000Z</time>
      </trkpt>
      <trkpt lat="-40.177092" lon="-71.386217">
        <ele>704.4</ele>
        <time>2019-04-11T17:30:36.000Z</time>
      </trkpt>
      <trkpt lat="-40.177149" lon="-71.385651">
        <ele>702.9</ele>
        <time>2019-04-11T17:30:40.000Z</time>
      </trkpt>
      <trkpt lat="-40.177152" lon="-71.384956">
        <ele>701.1</ele>
        <time>2019-04-11T17:30:45.000Z</time>
      </trkpt>
      <trkpt lat="-40.177154" lon="-71.384406">
        <ele>699.9</ele>
        <time>2019-04-11T17:30:50.000Z</time>
      </trkpt>
      <trkpt lat="-40.177111" lon="-71.383815">
        <ele>698.4</ele>
        <time>2019-04-11T17:30:55.000Z</time>
      </trkpt>
      <trkpt lat="-40.176981" lon="-71.383069">
        <ele>696.4</ele>
        <time>2019-04-11T17:31:00.000Z</time>
      </trkpt>
      <trkpt lat="-40.176843" lon="-71.382177">
        <ele>693.2</ele>
        <time>2019-04-11T17:31:06.000Z</time>
      </trkpt>
      <trkpt lat="-40.176824" lon="-71.381736">
        <ele>691.6</ele>
        <time>2019-04-11T17:31:09.000Z</time>
      </trkpt>
      <trkpt lat="-40.176926" lon="-71.380992">
        <ele>688.6</ele>
        <time>2019-04-11T17:31:14.000Z</time>
      </trkpt>
      <trkpt lat="-40.176956" lon="-71.380712">
        <ele>687.5</ele>
        <time>2019-04-11T17:31:16.000Z</time>
      </trkpt>
      <trkpt lat="-40.176928" lon="-71.380564">
        <ele>687</ele>
        <time>2019-04-11T17:31:17.000Z</time>
      </trkpt>
      <trkpt lat="-40.176825" lon="-71.380191">
        <ele>685.8</ele>
        <time>2019-04-11T17:31:20.000Z</time>
      </trkpt>
      <trkpt lat="-40.176775" lon="-71.380098">
        <ele>685.4</ele>
        <time>2019-04-11T17:31:21.000Z</time>
      </trkpt>
      <trkpt lat="-40.17674" lon="-71.379836">
        <ele>684.8</ele>
        <time>2019-04-11T17:31:23.000Z</time>
      </trkpt>
      <trkpt lat="-40.17674" lon="-71.379694">
        <ele>684.6</ele>
        <time>2019-04-11T17:31:24.000Z</time>
      </trkpt>
      <trkpt lat="-40.176748" lon="-71.379559">
        <ele>684.4</ele>
        <time>2019-04-11T17:31:25.000Z</time>
      </trkpt>
      <trkpt lat="-40.176799" lon="-71.379096">
        <ele>684.3</ele>
        <time>2019-04-11T17:31:29.000Z</time>
      </trkpt>
      <trkpt lat="-40.176834" lon="-71.378734">
        <ele>684.9</ele>
        <time>2019-04-11T17:31:33.000Z</time>
      </trkpt>
      <trkpt lat="-40.176818" lon="-71.37854">
        <ele>685.5</ele>
        <time>2019-04-11T17:31:35.000Z</time>
      </trkpt>
      <trkpt lat="-40.176835" lon="-71.378231">
        <ele>686.8</ele>
        <time>2019-04-11T17:31:38.000Z</time>
      </trkpt>
      <trkpt lat="-40.176877" lon="-71.377846">
        <ele>688.7</ele>
        <time>2019-04-11T17:31:42.000Z</time>
      </trkpt>
      <trkpt lat="-40.176922" lon="-71.377653">
        <ele>689.7</ele>
        <time>2019-04-11T17:31:44.000Z</time>
      </trkpt>
      <trkpt lat="-40.176959" lon="-71.377377">
        <ele>690.7</ele>
        <time>2019-04-11T17:31:47.000Z</time>
      </trkpt>
      <trkpt lat="-40.17708" lon="-71.376895">
        <ele>692.7</ele>
        <time>2019-04-11T17:31:53.000Z</time>
      </trkpt>
      <trkpt lat="-40.177139" lon="-71.376569">
        <ele>694.1</ele>
        <time>2019-04-11T17:31:58.000Z</time>
      </trkpt>
      <trkpt lat="-40.177256" lon="-71.376253">
        <ele>695.5</ele>
        <time>2019-04-11T17:32:05.000Z</time>
      </trkpt>
      <trkpt lat="-40.177352" lon="-71.376055">
        <ele>696.5</ele>
        <time>2019-04-11T17:32:08.000Z</time>
      </trkpt>
      <trkpt lat="-40.177374" lon="-71.375973">
        <ele>696.9</ele>
        <time>2019-04-11T17:32:10.000Z</time>
      </trkpt>
      <trkpt lat="-40.17739" lon="-71.37595">
        <ele>697</ele>
        <time>2019-04-11T17:32:11.000Z</time>
      </trkpt>
      <trkpt lat="-40.177415" lon="-71.375862">
        <ele>697.4</ele>
        <time>2019-04-11T17:32:14.000Z</time>
      </trkpt>
      <trkpt lat="-40.177475" lon="-71.375546">
        <ele>698.7</ele>
        <time>2019-04-11T17:32:22.000Z</time>
      </trkpt>
      <trkpt lat="-40.177541" lon="-71.375288">
        <ele>699.6</ele>
        <time>2019-04-11T17:32:25.000Z</time>
      </trkpt>
      <trkpt lat="-40.177579" lon="-71.375042">
        <ele>700</ele>
        <time>2019-04-11T17:32:29.000Z</time>
      </trkpt>
      <trkpt lat="-40.177643" lon="-71.374481">
        <ele>700.5</ele>
        <time>2019-04-11T17:32:38.000Z</time>
      </trkpt>
      <trkpt lat="-40.177758" lon="-71.374161">
        <ele>701</ele>
        <time>2019-04-11T17:32:42.000Z</time>
      </trkpt>
      <trkpt lat="-40.177753" lon="-71.374079">
        <ele>701.1</ele>
        <time>2019-04-11T17:32:43.000Z</time>
      </trkpt>
      <trkpt lat="-40.177741" lon="-71.373972">
        <ele>701.3</ele>
        <time>2019-04-11T17:32:44.000Z</time>
      </trkpt>
      <trkpt lat="-40.177723" lon="-71.37388">
        <ele>701.4</ele>
        <time>2019-04-11T17:32:45.000Z</time>
      </trkpt>
      <trkpt lat="-40.177595" lon="-71.373483">
        <ele>701.4</ele>
        <time>2019-04-11T17:32:49.000Z</time>
      </trkpt>
      <trkpt lat="-40.177417" lon="-71.372961">
        <ele>700.9</ele>
        <time>2019-04-11T17:32:54.000Z</time>
      </trkpt>
      <trkpt lat="-40.177213" lon="-71.372355">
        <ele>699.8</ele>
        <time>2019-04-11T17:32:59.000Z</time>
      </trkpt>
      <trkpt lat="-40.177186" lon="-71.372251">
        <ele>699.5</ele>
        <time>2019-04-11T17:33:00.000Z</time>
      </trkpt>
      <trkpt lat="-40.176971" lon="-71.371738">
        <ele>698.1</ele>
        <time>2019-04-11T17:33:05.000Z</time>
      </trkpt>
      <trkpt lat="-40.176794" lon="-71.371284">
        <ele>697.2</ele>
        <time>2019-04-11T17:33:10.000Z</time>
      </trkpt>
      <trkpt lat="-40.176743" lon="-71.371063">
        <ele>697</ele>
        <time>2019-04-11T17:33:12.000Z</time>
      </trkpt>
      <trkpt lat="-40.176634" lon="-71.370736">
        <ele>696.7</ele>
        <time>2019-04-11T17:33:15.000Z</time>
      </trkpt>
      <trkpt lat="-40.17651" lon="-71.370108">
        <ele>696.2</ele>
        <time>2019-04-11T17:33:20.000Z</time>
      </trkpt>
      <trkpt lat="-40.17637" lon="-71.369555">
        <ele>695.2</ele>
        <time>2019-04-11T17:33:24.000Z</time>
      </trkpt>
      <trkpt lat="-40.176332" lon="-71.368976">
        <ele>693.3</ele>
        <time>2019-04-11T17:33:28.000Z</time>
      </trkpt>
      <trkpt lat="-40.176401" lon="-71.368883">
        <ele>693</ele>
        <time>2019-04-11T17:33:29.000Z</time>
      </trkpt>
      <trkpt lat="-40.17636" lon="-71.368602">
        <ele>692.2</ele>
        <time>2019-04-11T17:33:31.000Z</time>
      </trkpt>
      <trkpt lat="-40.176262" lon="-71.368122">
        <ele>691.1</ele>
        <time>2019-04-11T17:33:35.000Z</time>
      </trkpt>
      <trkpt lat="-40.176121" lon="-71.367685">
        <ele>690.9</ele>
        <time>2019-04-11T17:33:40.000Z</time>
      </trkpt>
      <trkpt lat="-40.176087" lon="-71.367622">
        <ele>691</ele>
        <time>2019-04-11T17:33:41.000Z</time>
      </trkpt>
      <trkpt lat="-40.175961" lon="-71.367418">
        <ele>691.4</ele>
        <time>2019-04-11T17:33:44.000Z</time>
      </trkpt>
      <trkpt lat="-40.175793" lon="-71.366983">
        <ele>692.9</ele>
        <time>2019-04-11T17:33:50.000Z</time>
      </trkpt>
      <trkpt lat="-40.17573" lon="-71.366771">
        <ele>693.8</ele>
        <time>2019-04-11T17:33:53.000Z</time>
      </trkpt>
      <trkpt lat="-40.175558" lon="-71.366362">
        <ele>695.9</ele>
        <time>2019-04-11T17:33:59.000Z</time>
      </trkpt>
      <trkpt lat="-40.175478" lon="-71.366146">
        <ele>696.8</ele>
        <time>2019-04-11T17:34:02.000Z</time>
      </trkpt>
      <trkpt lat="-40.175439" lon="-71.366083">
        <ele>697</ele>
        <time>2019-04-11T17:34:03.000Z</time>
      </trkpt>
      <trkpt lat="-40.175331" lon="-71.365769">
        <ele>698</ele>
        <time>2019-04-11T17:34:08.000Z</time>
      </trkpt>
      <trkpt lat="-40.175288" lon="-71.365688">
        <ele>698.3</ele>
        <time>2019-04-11T17:34:09.000Z</time>
      </trkpt>
      <trkpt lat="-40.175248" lon="-71.365615">
        <ele>698.6</ele>
        <time>2019-04-11T17:34:10.000Z</time>
      </trkpt>
      <trkpt lat="-40.175084" lon="-71.365247">
        <ele>699.5</ele>
        <time>2019-04-11T17:34:14.000Z</time>
      </trkpt>
      <trkpt lat="-40.174964" lon="-71.364978">
        <ele>699.7</ele>
        <time>2019-04-11T17:34:17.000Z</time>
      </trkpt>
      <trkpt lat="-40.174782" lon="-71.364529">
        <ele>699.3</ele>
        <time>2019-04-11T17:34:21.000Z</time>
      </trkpt>
      <trkpt lat="-40.174626" lon="-71.364038">
        <ele>698.3</ele>
        <time>2019-04-11T17:34:25.000Z</time>
      </trkpt>
      <trkpt lat="-40.174572" lon="-71.363939">
        <ele>698</ele>
        <time>2019-04-11T17:34:26.000Z</time>
      </trkpt>
      <trkpt lat="-40.174386" lon="-71.363438">
        <ele>696.4</ele>
        <time>2019-04-11T17:34:30.000Z</time>
      </trkpt>
      <trkpt lat="-40.174234" lon="-71.362922">
        <ele>694.5</ele>
        <time>2019-04-11T17:34:34.000Z</time>
      </trkpt>
      <trkpt lat="-40.174028" lon="-71.36242">
        <ele>692.2</ele>
        <time>2019-04-11T17:34:38.000Z</time>
      </trkpt>
      <trkpt lat="-40.173615" lon="-71.361828">
        <ele>689.3</ele>
        <time>2019-04-11T17:34:43.000Z</time>
      </trkpt>
      <trkpt lat="-40.173218" lon="-71.361358">
        <ele>687</ele>
        <time>2019-04-11T17:34:48.000Z</time>
      </trkpt>
      <trkpt lat="-40.172815" lon="-71.361029">
        <ele>684.9</ele>
        <time>2019-04-11T17:34:52.000Z</time>
      </trkpt>
      <trkpt lat="-40.172273" lon="-71.360751">
        <ele>682.8</ele>
        <time>2019-04-11T17:34:57.000Z</time>
      </trkpt>
      <trkpt lat="-40.171707" lon="-71.360431">
        <ele>681.8</ele>
        <time>2019-04-11T17:35:03.000Z</time>
      </trkpt>
      <trkpt lat="-40.171469" lon="-71.360213">
        <ele>681.5</ele>
        <time>2019-04-11T17:35:06.000Z</time>
      </trkpt>
      <trkpt lat="-40.171144" lon="-71.359884">
        <ele>681.2</ele>
        <time>2019-04-11T17:35:10.000Z</time>
      </trkpt>
      <trkpt lat="-40.170841" lon="-71.359425">
        <ele>680.7</ele>
        <time>2019-04-11T17:35:15.000Z</time>
      </trkpt>
      <trkpt lat="-40.170768" lon="-71.359343">
        <ele>680.5</ele>
        <time>2019-04-11T17:35:16.000Z</time>
      </trkpt>
      <trkpt lat="-40.170479" lon="-71.359123">
        <ele>680</ele>
        <time>2019-04-11T17:35:19.000Z</time>
      </trkpt>
      <trkpt lat="-40.16999" lon="-71.358888">
        <ele>678.9</ele>
        <time>2019-04-11T17:35:24.000Z</time>
      </trkpt>
      <trkpt lat="-40.169427" lon="-71.358506">
        <ele>677.5</ele>
        <time>2019-04-11T17:35:30.000Z</time>
      </trkpt>
      <trkpt lat="-40.16889" lon="-71.358137">
        <ele>675.4</ele>
        <time>2019-04-11T17:35:35.000Z</time>
      </trkpt>
      <trkpt lat="-40.168254" lon="-71.357648">
        <ele>672.3</ele>
        <time>2019-04-11T17:35:41.000Z</time>
      </trkpt>
      <trkpt lat="-40.167887" lon="-71.357453">
        <ele>670.7</ele>
        <time>2019-04-11T17:35:44.000Z</time>
      </trkpt>
      <trkpt lat="-40.167754" lon="-71.357393">
        <ele>670.1</ele>
        <time>2019-04-11T17:35:45.000Z</time>
      </trkpt>
      <trkpt lat="-40.167175" lon="-71.357288">
        <ele>668.3</ele>
        <time>2019-04-11T17:35:50.000Z</time>
      </trkpt>
      <trkpt lat="-40.166577" lon="-71.357139">
        <ele>666.8</ele>
        <time>2019-04-11T17:35:55.000Z</time>
      </trkpt>
      <trkpt lat="-40.166017" lon="-71.35688">
        <ele>665.3</ele>
        <time>2019-04-11T17:36:00.000Z</time>
      </trkpt>
      <trkpt lat="-40.165465" lon="-71.356677">
        <ele>663.8</ele>
        <time>2019-04-11T17:36:05.000Z</time>
      </trkpt>
      <trkpt lat="-40.164784" lon="-71.356494">
        <ele>659.7</ele>
        <time>2019-04-11T17:36:10.000Z</time>
      </trkpt>
      <trkpt lat="-40.164061" lon="-71.356354">
        <ele>648</ele>
        <time>2019-04-11T17:36:15.000Z</time>
      </trkpt>
      <trkpt lat="-40.163759" lon="-71.356337">
        <ele>648</ele>
        <time>2019-04-11T17:36:17.000Z</time>
      </trkpt>
    </trkseg>
  </trk>
</gpx>
